GFSWCAN_sfc_wetblb_000.txt.gz
Wetbulb
50.19 49.59 49.76 50.23 50.53 50.36 50.63 50.35 50.09 49.98 50.05 49.66 49.81 50.16 50.46 50.37 50.05 47.46 41.99 46.31 42.59 38.96 39.98 42.72 42.76 39.56 39.30 38.37 35.32 38.66 39.09 43.24 43.82 41.06 40.68 40.11 38.80 43.33 43.81 46.64 45.67 45.18 45.07 44.26 43.37 41.05 39.06 52.39 52.54 48.03 51.41 52.00 53.39 54.34
49.99 50.22 50.00 50.18 50.16 50.25 50.29 50.08 50.01 49.84 49.86 49.56 49.82 49.99 50.03 49.90 49.86 49.07 41.55 43.40 47.83 41.57 39.98 43.94 44.16 45.41 44.41 43.74 39.55 39.49 36.60 38.43 44.94 40.38 41.66 42.06 42.69 43.07 42.85 43.33 50.34 45.47 49.06 46.93 45.26 44.90 50.57 52.37 50.43 52.90 54.16 53.88 54.04 52.97
49.82 50.12 50.37 50.25 50.29 49.91 49.80 49.77 49.76 50.02 49.44 49.23 49.38 50.26 49.69 49.82 49.60 48.53 41.87 40.82 41.37 41.58 39.87 38.91 39.17 44.00 46.52 46.23 47.05 37.18 40.31 42.65 43.70 42.99 41.08 43.00 42.49 44.88 41.45 44.37 47.73 51.42 51.65 49.10 48.75 50.24 50.63 50.59 52.55 52.83 53.69 53.41 54.34 54.75
49.19 49.58 49.48 49.35 49.75 49.62 49.58 49.58 49.64 49.45 48.96 49.20 49.23 49.56 49.58 49.80 50.14 49.11 43.12 42.97 42.71 40.99 35.68 36.48 44.17 42.18 46.25 44.87 45.65 45.62 43.25 43.19 43.36 44.66 40.57 41.37 41.79 45.25 43.55 46.97 47.28 49.48 51.67 49.56 48.43 49.97 51.83 51.39 52.57 53.21 53.28 53.76 53.37 53.54
48.99 49.21 49.56 48.94 49.60 49.52 49.37 49.67 49.62 49.26 48.66 48.68 49.22 49.09 49.45 49.87 50.16 48.36 43.62 44.46 43.86 39.06 35.62 35.82 41.48 43.59 44.20 43.87 44.26 44.17 41.87 40.28 40.22 39.28 40.71 40.97 43.56 43.11 44.64 47.33 46.20 47.32 48.38 46.92 45.38 50.49 50.18 49.11 52.28 54.60 51.85 51.64 52.48 52.48
49.24 49.45 49.94 49.61 49.61 49.42 49.62 49.42 49.43 49.03 48.41 48.62 49.19 49.63 49.78 49.88 49.08 41.57 40.67 43.02 44.46 44.79 40.65 32.67 39.38 40.78 43.63 42.74 42.72 40.77 41.36 41.11 41.66 37.59 38.64 43.38 43.57 45.28 44.61 44.05 46.80 49.28 53.09 50.95 48.21 49.63 50.42 51.17 51.94 52.88 50.40 50.03 51.22 51.18
49.42 49.92 49.71 49.38 49.34 49.53 49.41 49.28 49.07 48.61 48.15 48.74 49.30 49.31 49.69 49.75 44.46 38.45 39.83 44.67 47.69 45.26 39.96 34.81 35.15 41.37 43.17 42.24 42.44 40.96 40.46 41.33 40.20 37.79 38.94 41.69 41.99 46.31 44.01 41.10 46.18 48.36 50.53 51.48 52.47 52.09 48.39 49.65 48.81 50.15 50.49 50.91 50.96 50.50
49.45 49.56 49.00 48.84 48.48 48.82 49.25 48.55 48.39 48.20 48.39 48.20 48.81 49.43 49.80 50.10 47.00 41.44 44.10 48.65 47.47 41.21 39.81 33.08 34.81 37.39 40.69 38.87 38.67 40.85 38.92 38.63 38.58 39.63 39.80 40.86 44.95 46.91 41.76 45.05 46.65 49.04 49.73 49.33 49.67 50.74 49.93 51.21 51.14 50.45 50.04 50.34 49.42 48.48
49.26 48.92 48.74 48.71 48.74 48.92 48.79 48.27 48.25 47.93 47.92 48.46 48.81 48.89 44.14 42.59 38.52 42.72 50.84 49.06 43.27 39.70 36.30 38.09 35.36 34.49 40.62 37.90 39.20 40.56 40.16 36.21 38.85 39.80 43.27 44.95 43.22 41.37 44.27 44.75 46.58 47.06 46.61 47.07 49.49 50.09 49.91 48.94 48.79 49.24 48.52 47.92 47.31 48.47
49.10 48.78 48.60 48.72 48.68 48.48 48.58 48.18 47.95 48.39 48.77 47.87 42.90 42.17 38.28 42.73 50.76 49.28 41.90 37.99 38.01 38.38 37.36 34.54 38.18 34.58 37.75 39.46 38.79 39.08 38.47 36.55 34.27 38.46 45.97 45.10 44.25 46.78 47.52 47.71 47.97 48.06 47.91 48.18 46.80 46.32 47.04 47.04 47.69 47.93 47.84 48.24 49.09 49.81
48.84 48.98 49.04 49.08 48.67 48.70 48.55 48.21 48.34 48.62 46.56 42.53 41.40 40.92 44.95 48.53 41.28 39.60 38.06 37.40 37.45 35.65 37.62 38.92 37.35 35.38 41.78 38.87 39.08 40.71 36.34 35.59 35.00 39.55 42.73 43.61 42.75 45.66 48.02 48.36 48.77 49.46 49.66 48.90 48.58 48.32 48.24 48.45 48.79 48.21 49.25 49.81 49.69 50.12
49.56 49.56 49.52 49.18 49.06 49.08 48.77 49.01 48.92 45.87 45.52 44.99 44.10 44.75 42.69 40.15 35.84 33.79 31.73 34.86 36.18 35.72 39.40 38.03 37.66 38.71 40.24 40.64 39.06 40.11 37.34 37.09 33.33 42.17 42.13 40.87 45.34 47.33 48.18 48.70 48.86 48.82 49.79 50.01 50.66 50.24 51.03 51.17 50.80 50.80 50.66 50.95 50.94 51.41
49.77 49.36 49.57 49.56 49.45 49.15 49.24 48.89 48.95 49.04 48.12 43.55 39.89 35.34 34.89 32.55 30.51 33.16 31.87 35.50 34.36 38.56 40.32 38.52 36.31 40.22 41.60 40.05 39.79 39.87 37.87 35.25 43.29 42.22 40.53 43.55 47.49 48.90 48.42 47.70 48.29 49.52 50.06 50.11 50.69 51.85 51.26 50.84 51.22 51.24 50.70 51.07 50.41 51.03
49.55 49.62 49.74 49.54 49.44 49.26 49.08 49.23 48.95 47.30 42.17 37.52 36.38 32.64 34.60 32.21 37.11 37.90 38.15 38.20 41.04 41.90 41.24 39.62 39.54 39.35 40.66 39.59 39.33 38.13 38.60 42.09 38.71 38.16 38.49 44.99 47.18 48.48 48.18 47.77 47.43 47.47 48.36 48.70 49.56 49.88 49.68 49.63 49.90 50.30 50.33 50.62 49.94 49.78
49.12 49.43 49.33 48.98 49.04 48.87 48.83 49.33 49.02 44.27 39.93 37.22 36.46 32.77 34.63 39.40 41.65 42.17 42.88 41.67 42.73 43.31 41.69 40.92 40.38 40.35 38.72 38.80 39.36 40.17 38.39 37.48 40.09 40.70 44.40 46.95 47.29 47.56 47.51 48.41 47.89 47.90 47.95 47.30 48.06 48.23 48.95 49.03 48.39 48.59 50.26 49.57 51.18 50.75
48.08 46.64 45.91 49.22 49.14 49.01 48.74 47.11 43.99 43.20 40.01 39.47 39.34 38.69 40.42 38.94 39.21 41.20 40.96 41.21 43.00 41.63 41.58 40.23 37.28 36.13 35.60 37.17 38.84 38.63 38.26 36.94 41.21 44.64 46.06 46.38 45.82 46.61 47.06 48.09 48.73 48.76 48.21 47.67 47.54 47.92 48.06 47.68 48.15 47.66 48.82 49.75 50.91 51.31
47.04 41.92 48.89 49.78 49.65 49.34 47.98 42.78 41.91 40.80 39.62 39.73 38.93 42.11 40.77 39.73 38.83 40.66 41.30 41.12 42.65 40.01 37.51 38.77 36.16 34.64 37.42 37.82 38.03 41.62 40.24 42.50 44.54 44.83 45.04 44.93 44.97 45.55 46.74 47.34 47.99 47.96 47.60 47.28 47.47 47.71 48.03 48.52 48.10 47.35 46.99 48.63 51.56 52.64
41.93 44.36 48.44 49.53 48.78 44.91 43.13 42.41 40.68 40.47 38.66 40.83 38.98 40.36 42.01 39.73 38.04 39.15 41.50 41.79 40.73 40.46 40.20 38.51 40.13 38.28 37.40 36.88 38.62 41.65 41.82 43.46 43.47 43.97 45.31 46.07 46.56 47.13 48.13 47.33 47.77 47.87 47.23 47.01 47.10 47.54 47.57 47.08 46.31 46.54 46.89 47.66 48.88 51.11
44.20 45.74 48.78 49.89 48.14 41.89 40.37 40.33 40.21 34.87 36.80 38.44 39.84 40.02 38.71 39.25 39.73 39.97 40.59 42.67 40.57 41.40 40.24 39.95 38.15 38.18 38.70 40.87 40.05 41.05 41.71 42.90 43.30 44.39 45.08 46.34 46.83 48.35 49.60 48.68 48.55 49.35 48.74 47.15 46.49 45.86 46.71 46.89 46.07 46.07 47.14 47.68 47.80 48.58
49.29 49.76 49.84 50.52 47.58 39.76 37.55 35.91 40.82 36.34 35.25 36.86 37.41 37.46 37.84 37.54 38.52 39.94 40.31 41.10 38.22 37.90 37.97 38.13 38.23 39.79 40.40 41.73 42.48 43.37 44.27 44.96 44.60 43.99 43.77 46.36 48.48 49.53 49.69 48.33 48.07 47.80 47.02 47.06 46.25 44.47 45.17 45.49 45.39 45.38 46.68 47.48 48.03 48.20
46.58 46.49 49.34 46.50 42.26 40.10 38.08 36.91 35.73 36.16 36.36 35.08 36.05 36.17 36.43 38.34 38.21 37.49 37.21 39.27 37.51 34.83 38.06 40.43 41.74 42.67 43.46 44.07 44.43 44.88 44.93 44.77 44.61 45.47 46.66 46.97 49.56 49.47 48.53 49.33 47.65 46.49 45.36 44.49 43.09 42.49 42.27 42.54 43.17 44.29 45.01 45.24 45.56 46.19
43.77 49.51 42.99 43.94 39.40 38.10 36.38 38.37 35.77 36.99 35.32 35.30 35.62 36.28 35.00 35.52 36.76 35.73 37.05 36.93 36.67 38.45 39.14 40.09 40.62 41.12 42.05 42.46 43.42 45.78 47.50 48.86 48.98 48.48 45.74 46.93 47.47 48.40 46.16 43.87 41.51 39.57 39.19 39.62 40.47 40.55 41.30 42.08 43.14 44.35 44.90 45.06 44.68 45.71
47.14 44.73 40.71 39.83 35.20 33.10 32.27 38.34 35.76 35.94 33.22 34.87 35.14 33.33 33.59 36.03 37.31 38.29 35.01 35.81 37.65 39.68 41.09 43.59 45.62 46.59 45.33 46.11 48.24 49.74 50.87 50.75 49.89 49.52 48.80 48.96 47.64 42.05 39.65 39.31 39.27 39.15 38.82 39.01 39.41 40.08 40.91 40.42 41.75 42.54 43.03 43.77 43.51 43.05
47.07 40.46 36.31 35.00 35.58 34.39 39.39 37.54 37.81 37.59 36.83 36.99 35.74 34.02 36.50 38.47 41.37 40.27 39.06 41.65 43.77 46.03 47.36 48.82 49.58 48.85 49.60 49.63 48.49 47.56 47.97 47.98 46.68 44.88 45.97 44.30 38.93 38.85 39.20 39.25 39.38 39.48 39.49 39.04 39.21 39.61 40.51 41.36 40.07 41.45 41.77 41.89 42.15 41.64
36.33 35.15 35.67 32.09 33.44 35.51 35.35 35.22 37.57 37.38 36.11 37.65 34.92 35.04 38.06 41.03 38.66 39.34 40.15 43.10 44.57 45.16 46.52 47.13 47.58 47.90 47.26 47.51 47.11 45.81 45.10 46.88 44.37 40.05 41.45 45.02 40.02 38.57 38.70 38.89 39.08 39.45 39.82 39.09 38.47 39.09 39.89 40.73 40.83 41.20 41.72 42.55 43.65 44.38
34.43 34.92 34.54 34.31 32.68 34.36 34.83 35.54 34.69 34.72 36.98 35.67 37.20 39.97 38.68 39.96 40.25 39.18 40.72 43.95 45.52 45.71 46.88 46.29 45.89 45.30 42.95 43.79 41.74 40.78 40.78 40.39 40.13 40.02 40.07 40.06 39.63 39.36 38.51 37.90 37.33 38.10 40.05 39.63 38.77 39.03 40.24 40.64 40.48 40.67 41.11 43.27 41.25 43.57
36.67 40.05 40.77 38.53 38.27 37.70 38.21 39.37 39.98 37.64 37.38 36.89 37.86 38.83 39.02 36.14 38.28 41.81 44.68 45.56 44.65 45.66 46.93 46.91 46.24 43.65 42.07 40.85 40.89 40.89 40.76 40.78 40.99 40.70 39.81 39.51 39.83 40.44 39.75 38.62 38.09 38.43 39.35 39.88 39.55 39.63 39.94 39.94 39.63 39.77 39.55 41.88 43.61 43.71
42.32 42.46 40.32 40.36 40.27 41.21 39.66 40.52 40.47 39.63 40.41 41.78 41.36 39.15 38.88 39.44 39.44 43.54 44.45 46.24 45.56 43.80 43.09 42.62 41.83 41.45 41.02 40.77 40.73 41.30 42.12 41.48 41.85 41.38 40.98 40.74 39.86 39.20 39.24 39.16 38.89 37.35 38.10 38.35 39.30 40.49 40.43 39.79 38.97 38.85 38.83 38.47 39.86 43.15
42.28 44.25 43.51 39.47 40.61 41.55 41.33 39.04 38.74 39.76 41.15 41.29 39.84 39.59 40.91 44.78 45.05 44.49 44.70 43.28 43.19 44.05 42.26 41.46 41.47 41.47 41.49 41.50 40.95 39.72 38.98 38.81 38.73 37.37 36.69 35.77 36.06 37.59 37.91 37.87 37.49 37.59 37.91 39.40 38.22 38.68 39.34 38.78 38.66 38.92 39.18 38.73 38.75 39.45
42.65 43.66 41.80 42.18 40.38 40.21 42.42 41.85 41.16 42.77 43.29 43.97 43.79 43.18 43.51 43.95 44.64 45.41 44.30 43.74 42.67 40.88 39.77 40.04 38.92 38.66 37.84 37.69 37.73 38.33 37.78 36.90 36.28 36.09 35.08 34.78 35.40 36.26 36.69 36.80 36.55 36.94 38.12 38.13 37.73 38.10 38.00 37.81 37.31 37.59 37.24 37.35 37.82 37.59
45.22 44.84 43.40 43.02 41.61 43.45 45.57 47.61 46.18 45.52 45.46 45.43 45.96 45.22 44.18 44.27 46.21 48.79 47.42 44.71 43.12 42.79 40.79 38.57 38.85 38.23 37.70 37.19 36.55 35.88 35.18 37.17 36.82 37.26 37.33 36.54 36.19 36.63 36.87 36.62 36.71 37.18 37.07 36.27 35.49 35.22 35.63 35.30 34.79 33.96 33.68 33.08 33.37 33.60
45.39 45.02 45.08 42.73 43.53 46.62 47.79 45.40 43.94 45.01 46.32 47.43 47.93 48.32 47.77 46.27 43.51 47.27 49.66 48.17 44.64 40.83 40.09 39.37 37.77 36.15 36.64 36.52 36.78 36.65 36.03 35.70 36.36 36.56 36.69 36.67 35.96 35.42 35.25 35.11 34.87 34.91 33.98 33.25 32.83 32.33 32.19 32.31 32.35 31.25 30.96 30.69 30.87 30.99
44.25 44.77 45.39 44.65 43.56 44.11 45.36 44.92 45.36 45.44 46.83 46.45 46.39 47.65 47.17 45.04 42.63 47.92 52.64 49.67 43.87 39.99 38.56 37.83 36.90 36.41 35.90 35.51 35.47 35.48 35.63 35.93 35.50 35.10 34.78 34.54 34.13 33.35 33.00 32.98 33.43 33.27 32.33 31.72 31.44 31.39 30.79 30.32 30.12 30.09 30.08 30.09 30.09 30.52

GFSWCAN_sfc_wetblb_003.txt.gz
Wetbulb
49.63 49.59 49.60 50.03 50.22 50.03 49.64 50.08 50.36 50.31 50.29 50.32 50.11 49.79 49.98 50.02 50.28 48.70 46.55 47.33 44.38 38.90 39.22 41.03 41.64 39.23 41.28 40.64 36.48 39.67 39.43 43.18 46.61 46.60 46.27 47.09 45.63 49.59 49.32 51.93 50.36 48.74 46.85 46.20 49.30 46.89 44.88 55.65 56.15 53.66 56.72 57.98 58.67 59.31
49.39 49.37 49.30 49.56 49.90 49.88 49.96 50.15 50.02 50.00 49.98 50.37 50.15 49.40 49.16 49.29 49.70 49.64 44.45 47.49 48.63 42.12 39.42 44.47 44.07 45.14 44.45 44.24 41.15 41.43 39.30 39.61 43.23 43.20 46.48 46.88 48.51 50.71 49.63 46.17 53.62 47.62 50.89 47.43 50.61 50.15 55.00 55.91 55.86 59.16 60.21 58.75 59.41 60.35
49.26 49.27 49.29 49.15 49.34 49.11 49.62 49.99 49.89 49.91 49.95 49.77 49.59 49.34 49.25 49.36 49.10 49.15 45.46 45.75 44.18 40.27 40.02 40.62 39.67 45.07 47.20 46.35 46.93 38.28 41.28 44.61 46.92 47.44 45.64 46.44 46.77 51.10 49.14 50.31 50.25 53.23 56.18 51.73 50.68 53.33 53.03 54.82 57.35 58.45 59.88 59.45 60.77 62.21
49.43 49.35 49.22 49.24 49.31 49.13 49.65 49.60 49.57 49.71 49.32 48.95 49.06 49.34 48.80 48.73 49.12 49.04 46.70 46.70 45.16 41.06 34.78 37.76 46.17 43.79 48.26 47.42 46.17 45.98 45.42 46.07 45.77 48.07 45.31 45.50 46.67 51.08 50.13 51.65 52.43 50.77 52.36 52.04 53.06 54.37 53.71 54.62 55.48 56.40 57.40 58.70 58.46 59.58
49.41 49.45 49.36 49.69 49.89 49.19 49.39 49.43 49.73 49.50 48.52 48.62 48.82 49.06 48.88 49.25 49.24 50.24 48.72 46.60 46.78 39.88 34.19 35.60 41.72 46.04 47.44 46.13 45.41 45.67 44.74 43.23 41.89 44.19 43.66 43.98 48.46 48.75 51.56 52.63 46.80 48.53 49.47 51.71 50.28 53.80 53.78 54.25 55.42 55.26 53.79 54.09 56.39 57.15
49.76 49.90 50.04 49.84 49.28 49.41 49.56 49.36 49.41 49.04 48.17 48.65 48.93 49.29 48.77 48.92 48.96 45.56 40.56 45.64 47.35 46.14 37.86 33.22 43.37 43.68 46.49 46.16 45.29 44.21 44.37 43.26 43.72 43.58 44.16 46.19 48.31 49.98 50.38 46.13 47.27 50.40 51.88 53.99 51.40 53.70 52.14 53.26 53.57 55.11 54.61 54.52 55.45 55.57
49.21 49.66 49.23 49.00 49.05 49.08 49.12 49.13 48.90 48.55 48.14 48.57 49.01 49.06 49.24 49.91 47.98 42.20 39.56 43.83 46.75 46.23 38.79 36.33 37.48 45.16 47.00 46.17 45.18 44.54 45.31 45.09 45.84 44.67 43.04 47.44 47.78 51.79 47.01 42.20 47.16 50.40 51.55 52.59 53.79 52.82 50.58 51.55 50.95 53.40 53.25 54.06 54.02 54.72
49.32 49.06 49.12 48.89 49.05 49.26 49.13 48.95 48.86 48.31 48.31 48.48 48.95 49.29 49.46 49.69 48.27 43.65 46.46 48.36 47.55 41.17 40.44 35.70 37.01 42.17 46.90 44.84 43.83 46.63 44.73 44.62 44.44 45.14 46.71 48.12 48.68 49.77 43.10 46.57 48.83 50.15 51.15 50.82 51.11 52.56 52.34 53.67 52.00 51.23 52.48 53.84 53.32 53.27
49.16 48.82 48.85 48.84 49.15 48.72 48.49 48.39 48.64 48.27 48.06 48.36 48.99 48.62 46.96 45.34 41.52 43.93 50.65 49.60 48.72 42.44 37.26 38.93 37.04 38.78 47.05 44.26 44.51 45.33 45.90 42.46 45.78 48.02 48.83 49.55 46.40 42.32 45.68 47.14 48.26 48.84 48.13 49.19 50.82 51.21 51.21 50.68 51.61 51.29 52.56 53.99 52.93 52.86
48.97 48.77 48.91 49.51 49.26 48.91 48.80 48.56 48.62 48.85 48.74 47.65 46.27 43.96 40.67 44.87 50.15 50.08 47.49 42.46 41.31 42.52 41.60 37.00 41.04 38.61 43.16 45.54 44.26 44.82 45.87 44.07 44.41 47.03 51.15 46.10 43.77 48.54 49.41 49.72 50.31 50.12 50.55 50.75 49.31 49.10 50.26 50.38 50.71 52.38 52.80 53.71 54.24 54.28
49.95 49.72 49.75 49.07 49.29 49.26 49.19 49.31 49.44 48.99 47.98 45.99 42.67 42.22 46.81 48.98 45.97 44.07 40.26 39.15 40.63 38.91 41.53 41.34 41.78 40.31 46.13 43.11 43.78 45.59 42.87 44.00 42.46 45.59 46.31 43.64 42.52 46.91 50.06 50.60 51.36 51.71 52.05 52.14 53.01 53.27 53.65 53.69 53.28 52.77 53.19 54.66 55.12 55.39
49.80 49.73 49.79 49.73 49.69 49.23 49.05 49.13 49.38 47.49 46.95 45.97 45.84 47.66 46.13 43.53 41.10 37.62 37.21 39.25 38.80 37.98 43.18 42.03 43.50 43.81 45.58 45.79 44.36 45.49 43.08 43.62 40.25 49.14 45.51 40.33 45.49 49.74 50.03 50.30 51.34 52.20 53.05 53.71 54.30 52.94 53.13 53.24 53.71 53.78 53.79 53.99 54.57 55.43
49.64 49.80 49.58 49.49 49.53 49.34 49.54 49.53 49.45 49.58 48.97 47.30 43.23 39.69 38.93 38.89 35.12 33.83 35.05 38.12 39.08 43.48 44.58 43.84 43.15 44.72 48.06 46.00 44.77 45.04 42.22 41.73 48.26 44.13 40.59 44.06 48.87 50.16 50.44 50.66 50.52 52.28 52.84 53.03 52.76 53.24 53.15 53.31 53.93 53.87 53.82 54.65 55.29 54.92
49.24 49.41 49.40 49.45 49.37 49.46 49.55 49.59 49.48 48.57 45.67 40.91 38.17 34.54 36.26 35.92 37.39 38.48 39.49 40.70 44.11 45.45 44.72 43.53 43.13 43.57 46.00 44.04 45.00 41.60 43.70 45.60 41.06 37.93 37.66 45.78 48.96 49.84 51.47 51.68 51.50 51.43 51.85 51.75 52.24 52.88 52.69 52.71 52.66 53.59 54.64 55.04 55.35 54.95
48.41 48.46 48.75 48.90 49.77 49.68 49.47 49.28 48.30 47.76 43.41 39.16 36.94 32.01 33.40 39.10 42.17 43.95 45.20 44.58 45.95 46.94 45.55 44.98 44.85 45.54 44.24 43.67 44.55 43.30 41.32 39.15 40.82 39.25 43.12 48.57 50.49 51.48 51.89 52.47 52.57 52.54 52.44 52.40 52.30 52.38 52.70 52.70 53.14 53.24 54.28 55.33 56.16 56.20
48.50 47.13 47.19 48.98 49.93 49.72 49.11 48.16 47.09 47.01 43.70 41.00 41.06 39.03 41.44 40.95 41.66 42.91 43.87 43.67 46.10 44.91 47.34 45.93 42.41 40.55 39.57 42.78 41.34 40.06 39.37 36.03 41.67 46.19 48.89 50.45 50.95 51.87 52.51 53.04 53.06 53.07 53.16 53.28 53.55 53.30 53.40 53.55 53.14 53.26 54.19 55.31 56.00 56.56
46.94 46.25 48.48 48.88 49.40 49.41 47.77 46.78 46.42 43.73 42.29 41.71 40.95 44.40 43.22 42.22 41.78 42.73 43.95 44.42 46.31 45.37 42.41 43.94 39.74 37.62 42.95 40.72 39.95 43.11 37.65 41.68 46.33 48.89 50.51 51.34 52.03 52.31 52.99 53.14 53.02 53.16 53.14 52.96 52.96 53.55 54.13 53.96 53.49 53.56 53.77 54.19 54.43 54.91
45.96 47.61 47.97 49.43 50.01 47.25 47.14 46.65 44.66 43.64 40.39 42.92 40.50 42.26 43.30 44.73 43.14 44.14 44.13 45.37 44.82 45.05 45.04 42.37 44.93 40.93 39.40 37.76 38.91 43.51 46.64 48.67 49.68 50.35 51.59 52.21 52.75 53.11 53.36 52.91 53.27 53.53 53.68 53.77 53.43 53.48 54.31 54.54 54.37 53.44 54.39 54.63 54.50 55.69
48.67 49.56 49.96 50.31 49.42 46.71 43.32 44.06 44.14 39.53 40.82 41.98 42.81 43.20 43.40 43.95 44.94 45.00 45.44 45.98 45.31 46.24 46.37 45.12 41.93 40.12 41.05 44.60 44.99 46.99 48.46 49.28 49.00 49.86 50.12 51.32 52.57 53.54 53.91 54.08 53.94 53.88 52.21 52.22 52.73 52.29 52.33 53.34 52.59 52.80 53.43 54.16 53.72 54.44
49.69 49.64 50.18 50.41 49.45 45.92 42.19 42.85 45.48 41.71 40.33 42.08 42.46 41.66 42.00 43.13 44.13 44.60 45.08 44.56 43.44 46.20 44.63 42.73 42.71 45.14 46.11 47.46 48.59 48.78 49.26 50.11 50.18 49.12 49.34 51.50 52.43 53.29 53.11 52.93 52.29 52.32 51.00 51.35 49.71 46.06 50.64 51.14 51.39 51.48 51.45 51.65 52.17 52.17
48.80 49.20 49.81 49.35 47.43 45.62 44.10 42.50 42.22 42.31 42.47 41.78 42.41 42.70 42.48 44.07 43.13 42.17 43.02 44.11 44.86 42.00 43.70 45.76 46.81 48.15 48.71 49.04 49.46 50.02 50.71 50.96 50.93 51.39 50.34 49.70 50.74 51.42 49.58 47.89 47.92 47.07 45.27 45.60 46.87 47.26 46.63 47.50 48.62 49.78 50.47 50.62 51.01 51.93
48.14 49.79 47.55 47.15 43.67 42.73 42.82 43.67 41.93 42.96 41.67 41.39 42.12 42.54 41.80 40.89 41.90 43.12 42.92 43.61 43.32 44.42 45.73 46.07 47.14 47.70 48.91 50.13 50.61 50.35 51.34 52.02 53.31 52.76 47.61 48.90 50.35 47.06 45.94 46.05 46.14 45.42 45.22 45.28 45.61 45.58 46.34 47.20 47.28 48.00 48.18 48.43 47.72 49.34
48.73 47.41 45.55 43.94 40.14 38.53 37.97 44.03 40.57 41.31 38.42 39.48 41.33 39.46 40.10 41.32 43.86 46.46 41.99 43.13 42.91 44.71 45.99 46.24 48.60 50.69 50.35 51.42 53.54 53.73 54.00 53.99 53.91 54.32 54.03 53.25 48.56 45.75 45.49 45.97 46.69 45.72 45.18 45.07 45.91 45.68 45.50 43.15 46.01 46.53 47.53 48.07 48.26 48.52
47.91 43.86 40.77 39.03 39.65 36.87 41.84 39.90 41.16 39.95 40.49 38.88 37.49 35.39 38.43 40.03 43.66 43.24 40.83 44.58 49.06 49.65 50.97 51.30 52.70 54.01 54.67 53.29 51.69 51.36 51.63 53.15 51.10 51.45 52.92 47.09 45.84 45.32 46.91 46.93 46.71 46.20 45.58 45.63 45.32 45.20 45.79 46.24 43.14 46.16 46.41 47.04 48.30 48.76
38.33 37.71 39.08 34.54 39.44 38.60 38.49 38.63 39.27 39.85 38.67 40.26 38.87 40.82 42.13 44.61 42.66 42.91 42.97 47.07 49.48 50.28 51.07 51.42 51.72 51.74 50.00 48.25 48.17 48.08 48.76 48.13 47.49 48.32 51.91 49.17 48.25 47.04 47.07 47.31 47.06 46.05 45.93 44.56 43.88 44.05 45.25 45.86 45.65 45.31 45.15 46.31 46.81 46.04
35.31 39.91 37.32 40.05 40.28 38.54 40.56 39.23 39.73 39.62 40.30 40.12 41.52 44.38 44.35 43.47 41.46 41.01 45.74 48.20 49.40 49.85 50.44 50.48 48.31 46.88 46.10 46.73 46.34 46.53 47.01 47.96 48.43 47.55 47.71 47.70 47.19 46.04 45.42 44.26 44.10 44.40 45.59 45.01 44.37 43.81 44.56 45.16 44.93 44.50 44.21 43.77 41.52 44.41
38.44 42.76 44.78 44.08 43.07 42.43 42.23 43.41 43.99 42.23 40.84 41.23 42.99 43.43 43.42 39.84 40.42 45.78 50.31 50.12 48.56 48.72 49.79 49.45 48.35 46.73 46.10 45.90 46.97 47.45 48.30 47.64 46.96 46.54 46.81 46.65 46.49 45.86 44.85 43.24 42.15 42.82 44.41 44.87 44.79 44.56 44.31 44.35 44.04 43.83 43.86 44.48 44.63 44.23
44.49 44.16 42.66 45.33 42.64 43.52 42.94 44.18 43.22 42.61 43.62 46.02 45.10 42.06 41.59 42.13 41.72 45.57 46.82 47.08 47.25 47.69 47.38 46.82 46.74 46.91 46.38 45.90 45.22 44.79 44.95 45.58 47.65 47.69 47.58 46.38 45.08 44.34 44.20 44.54 44.51 37.85 43.66 43.14 44.25 44.73 44.20 43.69 43.24 43.09 42.97 42.81 43.19 44.33
43.79 47.54 45.90 44.70 43.69 44.74 45.18 44.31 43.64 45.34 46.92 46.92 44.49 42.96 43.80 43.95 44.65 45.32 46.54 47.22 47.63 46.68 44.74 44.18 45.01 46.81 46.46 46.41 45.06 43.89 43.45 43.35 42.47 40.82 40.11 40.22 41.35 42.22 43.64 43.94 43.77 43.90 43.86 43.71 37.43 38.72 39.78 39.67 39.56 39.75 40.27 40.42 40.89 41.65
46.96 48.67 45.96 45.90 44.33 44.99 47.83 47.79 47.01 47.98 48.35 47.90 46.30 46.26 46.79 47.75 49.08 50.47 47.73 46.30 44.78 43.36 44.15 44.12 43.85 43.49 42.37 42.26 42.42 43.06 43.28 42.96 42.30 40.81 39.04 38.64 39.43 41.60 41.75 41.45 41.24 40.86 40.70 40.32 39.62 39.51 37.22 38.71 37.93 38.52 37.50 37.13 36.94 36.29
50.56 49.75 47.46 47.17 46.69 48.17 49.94 52.18 51.02 50.43 49.43 47.68 48.38 46.09 45.85 47.26 48.95 50.02 49.63 48.79 45.73 44.60 43.57 42.11 41.21 40.70 40.47 39.90 39.66 39.50 39.42 41.65 42.08 42.01 41.79 41.40 40.95 39.86 39.10 38.86 38.77 38.73 38.26 37.61 37.07 36.46 35.67 35.48 35.54 34.78 34.35 33.84 33.74 33.74
50.06 48.45 47.95 46.14 48.23 51.69 51.99 49.74 49.53 48.08 49.01 46.36 45.32 47.05 47.32 46.12 43.65 46.68 51.37 49.78 46.81 42.88 40.76 41.35 39.96 38.92 40.30 40.85 41.00 40.65 36.74 39.90 39.16 39.11 38.48 38.27 37.68 37.71 37.80 37.66 37.60 37.23 36.43 35.87 35.32 34.90 34.12 33.48 33.31 33.21 33.07 32.96 33.07 33.40
49.02 50.00 49.87 48.67 48.58 47.99 50.09 49.62 48.86 47.28 47.27 45.29 45.86 47.57 46.74 46.18 43.36 48.83 46.74 45.45 42.97 42.11 41.85 41.41 40.71 40.35 39.78 39.61 39.46 39.00 37.76 37.92 35.81 34.35 34.67 34.02 33.23 33.81 36.03 35.92 35.89 35.53 34.89 34.30 34.17 33.87 33.25 32.90 32.85 32.64 32.82 32.75 32.74 32.97

GFSWCAN_sfc_wetblb_006.txt.gz
Wetbulb
50.34 49.99 50.04 50.00 49.92 49.83 50.01 50.23 50.41 50.41 50.64 50.53 50.57 50.53 50.49 49.87 49.34 48.35 46.75 49.11 43.81 39.09 40.07 44.04 44.40 39.97 39.73 42.65 39.74 42.77 40.73 43.69 44.41 45.17 46.27 46.82 47.66 49.39 49.09 52.83 52.51 51.68 50.37 49.69 51.52 49.43 47.28 58.01 58.28 55.27 59.57 62.82 63.05 63.22
49.99 50.06 50.14 49.86 49.80 49.71 49.64 49.46 50.00 50.33 50.11 50.38 50.38 50.08 49.61 49.07 48.32 48.87 44.19 50.38 51.07 42.30 40.49 47.04 47.32 47.99 46.50 45.29 42.72 43.19 41.20 41.55 43.56 44.47 48.70 50.00 50.03 53.04 50.67 46.87 56.49 50.73 54.01 52.04 53.14 52.67 57.71 58.67 57.57 60.39 63.38 61.67 63.45 64.47
50.15 50.01 50.34 50.04 49.90 50.03 49.81 49.38 49.98 50.07 50.15 49.99 49.85 49.65 49.40 48.86 48.56 48.77 46.34 48.54 46.33 41.87 41.73 43.67 44.00 48.32 49.89 48.51 49.82 41.64 43.09 44.32 46.24 48.10 45.02 48.01 46.98 53.48 49.75 51.31 53.70 56.04 58.49 55.40 55.21 56.17 56.96 57.73 59.43 61.15 62.52 63.10 64.32 64.91
49.66 49.71 50.36 50.64 50.50 50.08 49.94 49.67 49.60 49.77 50.17 49.11 49.01 49.16 49.23 49.03 48.71 48.60 46.56 48.55 46.09 42.36 36.60 41.62 49.01 46.70 49.59 50.30 48.08 48.28 46.64 47.82 47.01 47.54 46.88 46.02 48.40 53.96 52.86 54.76 54.95 55.30 57.09 55.73 54.63 56.01 57.40 58.19 59.03 59.65 59.97 62.46 63.55 64.44
49.75 49.71 49.96 49.81 49.83 49.62 49.62 49.80 49.75 49.55 48.73 48.60 48.66 48.96 48.95 49.05 49.24 50.35 49.89 49.31 49.21 42.84 37.52 39.62 44.98 49.39 50.30 48.00 48.21 48.09 46.35 43.41 43.32 43.96 45.52 45.53 50.96 51.08 55.53 55.34 48.34 50.55 52.63 54.86 52.78 56.49 55.34 52.27 55.69 57.39 57.76 58.91 60.77 61.59
49.86 49.98 49.86 49.82 49.34 49.52 49.54 49.77 49.70 49.07 48.46 48.92 48.77 49.44 48.82 48.81 48.82 48.00 42.49 47.65 49.37 47.70 39.81 36.92 46.43 47.11 49.92 49.74 47.32 46.73 47.38 45.33 45.07 45.03 46.91 45.50 51.54 51.47 48.94 45.84 48.44 51.52 55.20 56.40 56.51 57.67 53.29 52.40 53.56 56.08 56.07 56.65 58.25 58.74
50.00 49.63 49.81 49.67 50.13 49.67 49.68 49.71 49.23 48.69 48.47 48.87 49.10 49.42 49.10 49.07 48.88 44.37 41.62 46.33 47.59 48.84 39.27 36.88 42.60 49.44 50.18 49.51 48.71 47.80 48.77 47.81 47.02 48.51 45.36 45.12 50.29 52.26 46.42 43.16 48.93 51.91 54.61 55.34 56.21 53.35 50.81 52.22 50.96 54.18 56.37 56.81 55.80 57.67
49.40 49.28 49.31 49.59 49.54 49.18 48.81 49.11 49.34 48.67 48.45 48.53 48.80 49.17 49.32 49.53 48.98 45.50 49.54 48.46 49.02 44.38 41.93 36.51 40.32 45.12 50.44 47.45 45.71 49.15 46.14 45.76 48.57 48.39 46.87 46.75 50.11 49.31 43.36 47.55 50.03 51.61 52.03 51.12 51.71 53.37 53.05 53.04 53.13 53.82 55.68 56.50 55.40 54.26
49.97 49.56 49.64 49.84 49.73 49.67 49.40 49.11 49.17 49.24 49.12 49.19 49.26 48.65 49.51 47.10 44.08 47.20 48.95 49.91 49.03 42.28 37.39 39.38 37.90 39.49 51.43 48.91 49.13 47.74 47.92 43.05 49.47 46.80 49.13 50.04 45.90 42.95 45.90 47.80 48.88 50.47 50.40 51.05 51.91 51.87 52.00 52.10 53.11 52.71 53.48 55.09 55.85 55.93
50.21 50.15 50.02 49.77 49.66 49.46 49.59 49.80 49.81 49.79 49.74 49.29 48.92 47.00 43.61 48.47 50.21 50.79 47.20 43.75 43.62 42.69 42.16 40.04 45.63 41.65 46.57 49.92 46.53 46.57 47.92 43.25 42.17 48.27 51.52 45.49 43.49 48.51 49.50 50.61 50.53 50.77 51.65 52.00 48.61 47.66 50.04 50.85 51.77 52.76 53.35 54.39 55.18 55.98
50.07 49.86 49.98 49.99 49.79 49.83 49.81 49.92 49.63 49.66 49.84 47.91 44.37 43.71 49.69 51.20 49.66 47.37 42.09 40.20 42.51 40.01 44.18 44.51 45.15 43.08 50.07 45.55 47.34 50.77 47.23 46.69 40.32 46.29 45.31 42.73 40.29 46.54 50.47 50.63 52.10 52.79 52.81 53.58 53.66 53.48 53.87 53.52 54.12 54.14 53.90 55.89 56.71 57.44
49.94 49.91 49.91 49.87 49.64 49.89 49.93 49.67 49.59 49.21 48.33 47.17 46.77 48.16 49.17 47.48 45.30 39.94 40.01 41.66 39.59 40.21 46.29 44.64 45.27 46.12 46.22 49.92 47.97 49.80 46.23 47.42 41.55 50.76 46.01 38.33 42.95 47.82 49.65 51.25 52.08 53.47 53.00 53.74 53.96 53.32 53.91 54.38 54.62 54.48 54.53 54.75 56.01 57.42
49.50 49.53 49.62 49.86 50.03 49.89 49.78 49.72 49.67 49.57 49.48 50.54 46.53 43.42 43.49 43.96 36.14 36.66 35.50 39.24 40.78 44.99 47.76 47.22 45.27 47.34 49.43 50.37 49.02 49.03 44.13 43.96 49.82 45.05 41.96 43.66 48.26 49.73 50.75 51.67 52.43 53.57 53.39 53.14 53.00 53.59 54.45 54.84 55.68 55.39 55.16 56.39 56.07 55.81
49.25 49.17 49.03 49.30 49.63 49.90 50.04 50.22 50.14 49.12 48.43 43.11 39.86 34.31 35.32 35.41 38.79 40.15 40.81 43.06 47.37 48.41 48.46 48.92 47.67 46.63 50.13 47.49 47.94 43.79 48.02 49.75 42.66 39.30 39.75 45.85 49.25 50.57 51.69 52.36 52.32 51.91 52.46 52.90 53.40 53.79 53.78 54.81 55.25 56.52 57.45 57.22 57.58 57.46
49.23 49.23 48.94 49.25 49.17 49.78 50.31 49.23 48.34 51.17 47.23 39.70 37.30 32.15 35.67 40.20 43.48 45.97 47.64 48.00 49.71 50.52 49.99 49.36 48.64 48.32 47.12 46.12 47.48 46.49 43.31 39.70 39.85 38.85 45.29 51.24 52.23 52.76 52.75 53.00 53.27 53.81 53.97 53.45 54.36 54.54 54.63 54.98 55.22 55.59 57.60 58.67 58.84 58.85
49.36 48.88 50.37 48.82 49.54 50.28 50.08 50.34 52.49 52.06 47.31 44.63 42.55 40.31 43.70 42.94 44.09 45.82 46.85 47.48 50.76 50.14 51.55 50.54 45.60 43.72 44.10 45.80 42.85 41.30 40.01 36.47 41.45 44.50 49.44 53.39 53.86 53.85 54.36 55.15 55.42 55.71 55.30 55.23 55.56 55.76 55.62 55.60 55.84 56.10 57.14 57.42 58.16 59.13
49.66 49.58 49.71 50.10 50.11 50.46 49.06 51.28 51.78 47.08 46.51 44.08 43.46 47.42 46.28 45.83 44.83 45.73 47.28 47.74 51.21 50.07 46.10 46.93 42.35 41.68 47.17 41.72 39.07 40.31 36.20 38.08 47.36 50.17 52.88 54.02 54.05 54.69 56.02 56.12 56.20 56.47 56.56 56.34 56.58 56.76 57.07 57.10 56.92 56.37 55.84 57.00 57.24 58.19
50.08 51.27 50.70 50.13 50.75 51.96 53.52 52.02 49.58 47.08 43.04 45.53 43.13 44.67 46.66 47.92 46.64 47.17 48.14 49.41 49.27 48.84 48.60 45.37 47.38 41.53 39.91 37.88 39.22 44.39 46.75 49.91 51.87 53.84 54.35 54.77 55.83 56.37 56.31 56.50 57.00 57.11 56.77 57.03 57.22 57.35 57.27 56.86 54.89 54.33 55.84 57.09 56.77 56.26
49.78 50.85 50.32 50.29 50.67 50.06 47.80 48.72 49.60 43.30 44.39 45.86 46.00 47.25 47.39 47.70 49.31 49.72 49.95 50.06 50.41 51.95 50.97 47.18 43.78 41.61 42.88 46.26 46.50 49.36 50.28 51.82 52.46 52.86 54.06 56.15 57.01 56.68 57.18 57.44 57.33 56.38 55.97 54.82 53.80 54.18 55.22 55.73 54.87 54.81 54.84 55.21 54.48 55.11
50.18 50.34 50.42 50.67 50.64 49.99 44.90 47.26 51.11 45.46 42.88 44.72 46.91 46.08 47.36 47.18 49.10 49.65 49.84 50.21 50.24 48.74 46.15 43.77 44.30 46.41 47.05 48.80 50.57 51.23 52.32 53.73 54.59 52.68 53.20 55.92 55.33 55.97 54.90 54.38 53.36 53.37 53.39 53.44 52.28 48.16 52.91 52.76 53.19 53.62 53.74 54.01 53.94 54.12
50.87 52.15 51.03 51.58 51.52 50.09 47.93 46.31 46.57 47.04 46.26 45.40 46.95 47.08 46.85 48.78 47.76 47.74 47.53 50.11 47.51 45.91 44.72 47.44 48.25 50.14 52.82 52.89 52.95 52.88 54.23 54.56 54.19 54.23 53.27 50.17 50.79 51.96 51.47 51.65 52.14 51.53 50.86 50.44 50.23 50.10 49.01 49.99 50.64 51.27 51.82 51.78 52.05 52.83
51.88 50.18 51.08 51.51 48.32 47.63 47.93 48.51 46.03 47.77 46.50 46.78 46.62 47.38 46.04 45.31 46.37 47.42 49.72 47.19 47.14 47.80 49.17 50.25 51.96 52.95 53.38 53.90 54.88 55.41 55.93 56.08 55.80 55.39 48.94 51.09 50.64 51.00 50.66 50.51 50.34 49.50 49.21 49.10 49.05 48.67 48.93 49.23 49.36 49.17 49.62 49.61 49.34 51.46
50.33 50.31 50.30 48.32 44.06 41.99 42.32 49.10 44.81 44.52 41.96 44.19 46.89 44.41 42.68 43.20 45.59 49.10 43.78 46.54 47.06 51.83 50.88 53.06 53.91 55.47 55.56 55.90 56.11 55.83 55.61 55.25 55.28 56.07 56.12 55.03 51.22 50.58 50.62 50.16 50.08 49.18 48.47 48.61 49.54 48.89 48.41 44.77 47.83 48.10 49.17 49.35 49.94 50.67
48.95 47.08 44.77 44.22 44.38 42.50 48.23 45.77 48.41 46.96 47.06 44.49 40.30 39.22 42.16 45.36 48.53 45.18 43.44 46.73 51.31 54.64 54.92 54.12 55.86 54.38 53.72 54.04 50.14 50.22 51.07 52.00 51.59 52.91 53.30 51.81 51.40 50.75 51.50 50.80 51.17 50.16 49.49 49.61 49.09 48.81 48.59 48.33 44.88 48.01 48.04 47.78 48.86 48.93
41.73 40.51 43.58 38.63 45.92 44.55 44.25 44.58 44.46 46.03 42.83 44.90 43.79 44.93 46.58 48.27 44.08 44.26 44.05 48.51 52.56 53.27 53.76 53.16 50.93 50.42 49.13 49.32 49.56 49.94 51.47 50.30 49.15 49.25 51.06 51.63 51.11 51.34 51.52 52.11 51.13 49.69 49.33 47.99 47.22 47.04 46.95 47.57 47.74 47.60 47.22 46.91 46.55 46.36
37.84 44.93 41.58 46.31 47.32 45.42 45.75 44.53 45.43 44.98 45.36 44.76 45.71 49.68 50.59 47.66 43.15 41.98 46.13 49.67 50.51 50.44 49.83 49.03 48.54 47.83 47.50 48.32 47.04 46.88 47.54 49.01 49.17 48.06 49.13 49.90 49.55 48.65 47.92 47.31 47.13 47.41 47.96 47.62 46.95 46.15 46.18 46.79 46.69 46.60 46.36 45.95 42.54 45.59
42.68 47.42 50.16 50.82 48.18 47.07 47.83 49.45 49.21 47.52 44.72 44.55 47.21 47.31 46.92 41.03 41.28 45.34 48.42 48.51 47.82 48.92 50.06 50.15 49.38 48.15 47.26 47.04 47.75 47.83 48.03 48.34 49.20 48.75 49.39 48.86 48.10 47.87 46.96 45.31 44.31 45.09 47.54 47.32 46.98 46.71 45.83 45.79 45.73 45.76 45.59 46.20 46.27 46.01
49.85 49.64 47.11 50.05 48.88 49.70 46.28 47.41 45.66 44.26 46.17 50.16 48.72 44.22 42.97 42.97 41.55 46.50 47.53 49.85 50.39 50.43 49.80 49.61 49.69 48.88 47.96 47.30 46.78 46.53 46.43 47.04 47.79 48.11 48.67 49.27 48.68 47.73 47.04 47.16 47.20 40.25 46.27 45.25 44.80 44.78 43.73 43.62 43.24 43.04 42.86 42.69 43.12 43.38
49.95 53.55 51.10 48.70 48.65 49.25 49.28 48.11 47.45 48.89 50.37 50.02 47.32 45.25 43.65 46.01 47.48 46.05 47.00 48.36 48.94 48.10 46.49 46.05 46.56 48.21 47.38 46.98 47.12 46.62 46.06 44.91 43.16 41.30 41.00 41.41 42.31 43.25 45.22 45.03 44.62 44.37 44.06 43.43 36.82 39.12 40.16 39.64 40.59 40.32 40.64 40.86 41.22 41.54
51.03 54.26 49.94 48.82 47.67 47.45 51.03 52.73 50.37 51.00 50.35 49.64 48.84 46.46 46.22 47.04 48.94 50.91 49.66 49.00 48.54 47.57 46.88 46.02 45.67 45.39 44.22 43.65 42.80 43.31 45.11 44.68 44.05 42.11 40.39 39.88 40.90 42.61 42.55 41.99 41.60 41.68 41.73 41.41 40.77 40.75 38.13 39.14 39.33 40.32 39.28 39.07 39.07 37.90
54.48 53.74 51.14 50.66 49.68 51.82 53.16 53.14 52.99 52.44 51.04 47.57 47.61 45.90 45.39 47.04 48.50 51.07 50.48 49.62 47.66 47.08 46.52 45.79 45.45 44.67 42.72 41.75 41.37 40.69 40.30 42.82 42.80 42.19 41.11 41.57 41.31 40.79 40.61 40.65 40.74 40.84 40.40 39.73 39.25 38.72 38.01 37.74 37.86 37.37 37.10 36.40 35.89 35.46
53.30 51.41 50.64 48.07 49.88 54.16 54.90 52.95 51.68 47.20 47.16 44.89 45.89 49.74 49.06 48.48 46.08 49.78 48.17 48.79 47.38 46.00 42.88 44.38 42.87 41.95 42.66 42.92 42.97 42.61 37.74 40.70 39.63 39.34 37.84 38.25 38.20 38.37 39.23 39.50 39.46 39.42 38.92 38.39 38.01 37.84 37.29 36.66 36.20 35.27 34.70 34.16 34.95 35.21
52.46 51.72 51.28 49.96 49.21 48.63 52.17 52.39 50.36 48.45 48.32 47.52 49.37 50.39 50.23 48.28 44.93 49.46 49.11 47.73 45.92 44.90 44.30 44.01 43.50 43.05 42.48 41.96 41.59 41.53 39.92 41.59 37.02 33.77 33.95 32.90 32.48 33.34 37.11 37.64 37.74 38.00 37.51 37.54 37.28 37.28 36.45 35.48 34.91 34.32 34.36 34.86 34.75 34.90

GFSWCAN_sfc_wetblb_009.txt.gz
Wetbulb
51.05 50.97 50.98 51.06 50.89 50.90 50.60 50.53 50.34 50.11 50.83 51.04 50.95 50.98 51.03 50.96 50.39 50.34 49.38 52.16 44.41 39.34 40.01 44.53 45.05 42.59 40.75 43.02 38.16 42.58 44.32 43.18 43.45 40.58 41.52 42.51 42.67 45.65 46.32 50.09 50.26 48.88 49.46 48.95 51.06 48.59 46.79 60.68 60.17 55.94 61.23 64.16 64.66 64.96
51.07 50.89 50.69 50.89 51.15 51.17 50.88 50.57 50.41 49.96 50.58 50.53 50.72 50.58 50.49 49.95 49.70 49.66 46.21 50.20 48.96 41.71 41.83 48.09 48.36 48.98 47.78 47.72 44.89 44.82 43.35 41.69 45.67 44.46 46.45 45.50 45.54 48.70 48.96 44.95 53.90 49.31 53.20 51.67 52.91 53.22 61.91 62.70 60.67 63.26 64.18 64.13 64.87 65.32
50.98 50.97 50.96 51.01 51.25 51.22 50.71 50.56 50.39 50.56 50.51 50.62 50.32 49.84 49.89 49.87 49.78 49.68 46.23 49.61 47.21 42.06 42.98 44.73 45.27 50.43 51.64 49.96 50.19 41.79 45.24 46.50 46.41 48.77 44.41 45.04 44.79 50.44 48.25 49.15 52.68 54.54 58.37 55.92 57.32 59.05 59.94 61.46 63.22 63.79 64.75 64.40 65.16 66.16
50.73 50.65 50.98 51.00 50.63 50.47 50.32 50.28 50.34 50.38 50.47 49.85 49.53 49.37 49.54 49.72 49.70 49.68 48.13 49.67 46.56 43.31 38.60 42.29 50.59 48.10 50.95 51.67 50.09 49.52 48.15 50.27 49.39 48.58 44.10 45.70 45.13 50.75 48.55 50.36 55.34 51.93 52.77 57.12 57.70 59.36 60.46 60.75 62.00 63.01 63.98 65.29 64.95 67.13
51.05 50.74 50.35 50.54 50.68 50.41 50.55 50.43 50.36 50.13 49.68 49.49 49.40 49.62 49.79 49.43 49.51 49.42 49.49 50.71 50.07 42.81 38.52 41.77 47.62 50.36 50.91 49.63 49.74 49.52 48.12 47.39 45.61 43.91 43.21 45.44 49.18 48.47 51.92 53.70 46.49 51.02 50.28 53.39 54.18 60.13 58.98 58.02 60.40 62.26 61.50 61.31 62.86 63.85
50.72 50.33 50.68 50.80 50.72 50.29 49.98 50.15 50.06 49.66 49.29 49.38 49.85 49.94 49.73 49.90 49.68 49.36 44.58 50.21 51.18 50.58 42.30 37.97 49.10 49.44 52.09 49.75 50.03 49.24 48.83 48.18 46.79 42.84 44.06 49.33 52.10 50.05 47.55 46.78 50.55 53.32 55.43 59.19 56.28 60.35 57.24 57.21 57.96 58.02 58.72 60.26 60.18 60.89
50.59 50.69 50.54 50.71 50.68 50.52 49.97 49.98 50.00 49.59 49.31 49.16 49.12 49.23 49.83 49.96 49.12 46.25 43.40 46.45 48.35 50.15 40.07 37.60 41.84 49.13 52.65 50.86 49.98 49.86 50.78 47.84 46.97 44.10 45.52 48.26 47.96 47.90 47.11 43.92 50.85 53.09 55.97 56.77 59.36 58.32 55.40 55.82 52.70 56.57 57.31 57.28 56.82 57.88
50.73 50.91 50.77 50.64 50.59 50.26 50.33 50.26 50.42 50.20 49.96 49.87 49.74 49.83 49.86 50.22 49.30 45.99 49.54 49.48 48.84 45.18 42.75 36.71 39.88 47.13 52.53 48.25 47.13 51.09 47.05 46.38 47.37 44.49 49.41 45.77 47.57 49.64 43.71 47.95 50.45 51.89 53.19 54.14 54.90 57.62 56.46 56.59 55.27 53.19 54.22 54.96 55.23 55.54
50.60 50.56 50.72 50.53 50.39 50.28 50.31 50.60 50.58 50.44 50.78 50.60 50.53 50.23 50.34 48.59 45.12 49.96 49.50 48.73 47.73 43.46 37.84 38.20 37.18 37.84 51.92 47.51 48.57 48.56 49.12 44.55 48.81 46.21 47.65 47.82 44.10 42.39 46.11 47.26 49.54 51.11 50.43 51.61 54.06 53.68 53.90 52.07 50.72 51.57 53.40 52.94 54.68 56.05
50.63 50.45 50.40 50.46 50.39 50.46 50.47 50.56 50.56 50.20 50.02 51.14 50.12 46.41 46.31 49.71 49.27 52.11 49.51 44.56 43.28 44.31 42.05 39.35 46.64 41.75 48.18 48.10 46.39 46.57 47.97 43.75 42.35 45.78 48.53 44.35 42.56 47.35 49.68 50.02 51.27 51.59 51.04 51.40 49.69 50.31 50.89 50.35 50.54 52.46 51.00 52.40 54.63 55.04
50.17 50.09 50.12 50.37 50.46 50.59 50.46 50.41 50.46 50.28 51.61 49.91 46.78 46.34 51.19 53.09 50.91 47.97 42.52 41.95 42.78 40.02 44.39 46.37 47.05 46.36 51.05 45.54 44.86 48.62 45.74 45.79 40.45 42.34 44.49 40.35 40.00 46.02 49.28 50.17 51.81 52.79 53.42 51.77 51.87 52.88 53.42 53.72 53.76 51.60 53.47 55.07 55.77 56.71
50.06 49.90 49.89 49.95 50.24 50.52 50.23 50.31 50.53 51.15 50.03 48.29 47.40 49.22 50.65 48.06 45.04 41.39 40.76 43.24 41.58 38.11 45.47 44.21 47.39 48.23 48.91 51.32 48.34 49.46 44.84 44.93 40.05 48.29 41.67 37.67 42.69 48.38 49.78 49.53 51.52 53.31 53.05 52.80 53.77 54.40 54.85 55.18 56.31 55.73 55.29 55.39 56.22 57.61
49.83 49.78 49.72 49.88 49.92 49.95 50.12 50.69 50.61 50.39 50.21 50.90 47.78 44.51 43.27 45.32 37.20 36.58 35.90 39.51 40.57 46.23 48.14 47.72 46.70 50.18 51.29 50.69 46.77 46.42 43.87 42.99 49.25 43.34 38.48 41.15 46.09 49.72 50.82 52.00 52.71 53.67 53.35 53.09 52.49 54.13 54.82 55.33 56.58 57.13 56.66 57.75 58.10 58.31
50.23 50.18 50.00 49.83 49.86 50.23 50.54 50.99 50.17 50.69 50.10 46.02 42.18 36.03 37.11 38.00 39.85 42.76 42.84 44.45 49.04 49.96 49.92 50.11 49.24 49.37 50.63 48.08 49.18 43.17 46.33 46.16 40.92 37.92 39.29 44.66 47.75 49.71 52.49 53.01 52.55 52.48 53.92 54.32 53.89 53.56 54.30 55.57 55.91 57.50 57.70 58.49 57.72 57.92
49.79 50.01 50.26 50.66 50.62 50.66 50.56 50.93 49.97 53.63 48.75 41.08 40.33 33.52 39.05 43.48 45.87 46.93 48.38 49.87 50.62 52.20 51.73 48.64 49.86 49.27 48.30 46.98 48.15 46.22 42.66 38.46 38.40 40.40 44.34 47.69 51.15 51.46 52.27 52.91 53.29 54.00 53.99 53.96 54.44 53.99 54.38 55.44 55.80 56.59 57.84 58.04 58.82 59.23
49.64 50.23 52.28 50.55 50.45 50.29 50.24 52.36 55.08 54.71 51.48 46.07 44.45 41.79 46.60 45.29 45.31 46.63 48.48 48.92 52.61 52.81 52.00 50.27 47.54 45.80 44.85 44.91 41.53 39.24 38.99 35.85 38.83 46.14 49.34 51.16 51.82 53.01 53.10 54.32 55.22 55.30 55.26 55.05 55.04 55.40 55.63 55.66 56.14 56.49 56.77 57.14 57.32 58.51
49.43 52.46 50.53 50.46 50.11 50.23 51.84 53.55 55.31 49.61 49.15 45.42 44.37 48.21 46.64 46.14 47.16 49.29 50.59 50.81 54.15 51.59 48.09 48.58 43.52 42.18 46.50 41.54 39.05 39.20 37.17 40.24 46.15 48.54 52.77 52.10 53.48 54.38 54.97 55.45 56.11 56.05 56.48 56.45 56.09 56.40 56.66 56.77 56.95 56.14 55.61 56.61 57.22 57.87
51.39 53.12 50.96 50.41 50.98 52.97 56.79 55.14 51.66 48.98 44.09 46.69 44.90 46.75 48.60 49.44 49.19 50.51 51.69 53.24 52.38 51.56 50.66 47.33 49.30 44.58 42.50 39.16 40.07 45.55 47.41 49.89 51.53 52.80 54.89 55.90 56.10 56.11 57.13 56.45 56.34 56.76 56.81 56.78 56.47 56.75 57.02 56.47 55.39 54.16 56.13 56.95 57.25 56.80
50.92 51.52 50.50 50.56 51.42 51.45 50.36 50.88 51.90 45.57 46.62 47.90 48.70 49.51 49.06 49.73 51.88 52.55 52.76 53.24 54.04 54.01 52.06 50.00 45.17 42.84 44.76 47.91 48.43 50.50 52.69 53.89 53.68 55.26 56.56 57.14 57.40 57.31 57.05 57.25 56.90 56.00 55.18 55.50 55.61 54.62 54.84 55.90 55.02 54.73 54.66 55.32 54.55 55.07
49.95 50.66 50.87 51.27 52.12 52.60 47.62 49.70 53.58 48.17 45.61 47.96 49.63 48.46 49.21 49.02 51.03 51.97 51.78 51.86 51.73 50.20 47.58 44.55 45.33 47.40 47.76 51.30 53.29 53.76 55.55 56.72 55.63 53.90 53.04 55.53 55.12 55.25 55.13 54.99 54.31 55.66 54.64 55.09 53.86 49.28 53.84 53.58 53.55 53.48 53.41 53.25 53.54 53.51
52.44 54.05 52.13 53.81 55.37 53.21 51.32 49.59 49.30 49.56 49.38 47.44 50.07 49.39 47.90 50.62 50.10 49.71 50.30 52.98 50.13 48.48 46.97 50.35 51.60 53.59 55.13 55.79 56.39 56.07 55.76 55.74 54.88 54.01 53.05 50.17 52.64 54.01 53.75 53.93 54.23 53.34 52.59 52.16 51.60 51.13 49.84 50.57 51.13 51.45 51.72 51.93 51.49 52.27
54.23 51.56 54.65 55.74 52.80 51.65 51.72 52.15 49.63 50.63 47.60 48.45 49.58 49.38 45.75 45.41 47.17 48.47 51.85 49.02 47.24 49.50 51.36 53.03 54.54 55.15 54.65 54.80 55.86 56.20 57.06 56.90 56.88 55.69 51.16 52.78 52.72 52.34 51.49 51.78 51.91 51.77 51.61 50.92 50.67 50.09 50.29 50.35 50.35 50.24 50.44 50.13 49.95 52.00
51.57 52.64 54.25 53.09 48.99 46.21 47.18 54.91 48.31 48.82 45.25 47.14 49.71 46.24 45.57 47.08 47.70 51.23 45.12 48.24 49.44 51.86 55.41 55.17 54.81 56.01 54.96 54.31 54.48 53.54 55.13 55.23 52.92 53.33 53.78 54.14 53.56 53.55 52.98 52.68 52.18 50.63 50.01 50.50 51.25 50.35 49.91 46.42 48.91 49.43 50.14 49.89 50.05 50.90
48.80 50.59 48.65 48.73 49.99 45.85 52.96 50.12 53.05 51.08 50.67 48.80 47.24 44.43 46.91 49.49 53.51 48.02 44.70 47.66 51.59 55.50 54.52 55.14 53.28 52.12 52.55 54.69 50.71 50.41 50.76 51.60 51.42 52.19 52.66 51.61 51.26 52.07 53.54 53.06 52.35 51.75 50.80 50.55 50.35 49.84 49.52 49.01 46.06 49.37 49.65 49.04 49.01 48.66
45.60 44.70 49.10 41.76 52.39 48.69 46.66 47.11 47.85 49.22 44.86 47.52 45.81 46.87 48.87 52.55 45.90 44.71 43.79 48.08 51.58 50.54 50.90 52.11 51.81 51.11 49.38 49.45 49.68 49.63 50.88 49.80 49.35 49.30 50.64 50.94 50.68 50.96 51.19 51.13 50.19 49.83 50.47 49.03 48.53 48.30 48.06 48.63 48.75 48.74 48.60 48.61 47.68 47.28
41.27 49.63 45.06 49.63 50.20 48.67 48.42 45.57 45.92 46.82 47.56 46.00 47.21 51.88 53.22 49.64 44.55 42.53 43.57 46.98 47.42 49.10 49.77 49.67 49.29 48.95 48.94 49.02 47.64 47.02 47.60 49.20 49.80 48.50 49.44 49.71 48.89 48.02 47.31 47.10 47.23 47.48 48.89 48.78 47.44 46.51 46.51 46.94 46.94 47.03 46.80 46.61 43.48 46.09
44.09 48.88 54.47 56.35 52.90 52.02 50.72 52.70 53.09 50.30 45.73 45.57 48.61 48.19 46.45 42.46 40.49 42.54 46.99 48.81 47.67 49.32 50.65 50.58 49.86 48.83 48.30 48.49 48.85 48.72 48.57 48.59 48.46 48.18 49.87 50.76 49.90 48.78 47.39 45.58 44.60 44.89 47.74 47.14 46.00 45.41 44.21 43.42 43.32 43.78 44.00 44.59 44.89 44.61
52.58 52.89 49.58 52.78 52.99 55.12 49.11 49.00 47.50 46.76 47.70 50.82 48.71 44.83 42.71 41.33 40.15 44.35 46.80 50.26 51.20 50.78 49.78 50.81 50.34 49.25 48.93 48.60 48.16 47.62 47.84 47.96 48.22 48.38 48.49 49.32 48.90 47.71 47.26 46.80 46.22 40.26 45.14 44.59 43.65 43.64 42.78 41.65 41.08 41.46 41.67 41.79 42.38 43.52
52.58 54.89 54.49 50.97 51.00 50.37 50.09 48.55 47.90 50.72 52.07 50.77 47.82 43.60 42.79 46.30 47.33 46.46 47.97 49.96 50.85 49.17 48.31 47.28 47.60 49.17 48.28 47.51 47.34 47.01 46.88 45.68 43.65 41.67 41.60 42.03 42.51 43.18 44.86 44.45 44.10 44.02 44.02 43.72 37.34 39.50 40.88 40.56 40.91 41.02 41.37 41.70 42.09 42.23
51.93 55.94 51.53 50.51 49.98 48.85 51.64 52.70 51.65 53.01 52.34 51.02 48.56 45.53 45.07 46.65 49.15 52.86 53.27 53.42 50.59 49.00 49.10 48.95 48.32 46.60 44.28 43.76 43.75 44.28 45.62 44.79 43.24 40.95 38.56 38.82 40.11 42.27 42.54 42.48 42.59 42.67 42.85 42.54 42.16 42.17 38.75 40.74 40.95 41.89 40.54 39.89 39.39 38.51
54.10 52.75 50.65 50.84 50.45 52.69 52.93 53.61 54.10 53.66 52.18 49.72 49.68 46.30 45.97 49.23 51.56 53.51 51.99 51.33 50.51 49.81 48.19 46.51 45.69 45.03 43.36 42.93 42.41 41.13 40.86 42.96 42.12 41.14 39.67 39.96 40.62 40.54 41.06 41.70 41.80 41.98 41.74 41.51 40.99 40.68 40.10 39.63 39.50 38.40 37.91 37.19 37.41 37.05
53.21 50.55 50.27 47.50 50.16 54.70 54.98 52.32 52.61 50.63 51.26 49.48 48.86 50.39 48.22 47.86 45.56 48.63 50.45 49.63 48.24 46.70 44.40 45.51 43.95 43.13 44.17 44.28 44.13 43.76 37.80 43.32 41.79 40.60 38.98 37.91 38.43 39.33 40.52 40.62 40.88 40.99 40.50 40.69 40.47 40.19 39.58 38.50 37.98 37.11 36.85 36.28 35.93 35.61
52.75 52.13 51.72 50.46 50.90 48.69 53.06 53.05 50.55 48.78 49.36 49.85 49.88 52.07 49.87 48.16 44.72 49.19 51.62 50.86 48.11 46.47 45.81 45.68 45.55 45.24 44.79 43.76 43.23 42.89 41.91 42.91 36.89 33.17 33.36 32.74 32.04 33.89 38.28 39.93 40.20 40.47 39.93 40.08 39.76 39.10 37.99 37.11 36.46 36.55 35.90 35.28 35.11 35.61

GFSWCAN_sfc_wetblb_012.txt.gz
Wetbulb
51.47 51.68 51.63 51.77 51.85 51.92 51.89 51.49 51.21 51.06 50.87 50.73 51.50 51.21 51.32 51.28 51.47 50.79 48.92 52.51 44.84 39.42 40.28 43.71 44.43 42.06 41.77 40.74 36.38 41.04 38.45 45.09 42.91 37.49 36.76 36.91 37.68 42.69 44.13 48.73 48.62 47.01 46.10 47.50 51.22 47.97 45.02 59.69 58.36 53.96 61.20 63.43 63.09 63.22
51.47 51.58 51.70 51.65 51.79 51.72 51.78 51.38 50.92 51.00 51.04 51.04 50.92 51.14 50.68 50.65 50.32 50.05 46.43 52.24 50.98 43.82 41.72 46.30 47.50 49.12 47.24 46.03 42.92 43.21 40.50 40.84 44.64 41.12 43.20 43.40 41.10 44.44 44.47 41.09 50.81 46.01 50.04 47.88 50.87 51.72 60.75 63.88 62.98 64.30 64.61 63.80 64.01 64.08
51.51 51.73 51.45 51.50 51.31 51.64 51.47 51.46 51.34 51.00 50.89 50.81 50.53 50.28 50.13 50.13 50.27 49.83 48.39 50.84 47.63 41.81 42.09 44.59 44.44 49.52 51.26 50.16 49.62 41.06 43.72 45.78 45.54 49.32 44.66 44.53 43.08 47.96 43.33 46.01 49.44 52.94 53.25 51.37 52.07 57.67 60.70 61.90 62.92 64.18 64.72 64.92 65.77 67.95
51.59 50.97 51.10 51.38 51.46 51.45 51.38 51.48 51.32 51.17 50.69 50.42 50.23 50.10 50.06 50.14 49.85 49.73 49.06 50.05 47.65 43.06 37.55 40.61 50.08 48.60 51.78 51.65 50.07 49.42 47.10 48.55 49.25 48.76 43.77 43.50 43.75 48.31 44.02 45.57 48.22 52.31 53.27 53.71 54.25 61.12 61.65 62.22 63.46 64.18 64.85 66.41 66.73 66.41
51.28 51.06 51.11 51.30 51.50 51.28 50.47 50.53 50.66 50.37 50.07 50.07 50.16 50.33 50.50 50.35 50.58 49.40 50.69 49.85 49.65 42.23 37.13 39.79 46.66 49.85 51.49 50.58 49.35 49.72 47.32 45.78 44.96 42.22 44.11 43.13 48.96 47.36 49.18 48.83 45.96 51.17 51.30 50.35 54.08 55.57 60.54 59.76 62.46 63.79 62.57 62.93 63.75 63.48
51.35 51.48 51.48 51.34 51.19 51.37 50.81 50.81 50.83 50.49 50.34 50.00 49.92 49.83 49.88 50.51 50.98 48.98 43.61 51.49 52.72 48.95 41.41 36.91 47.13 47.77 51.03 50.04 47.83 48.57 47.74 47.13 45.39 44.65 44.31 44.68 50.66 47.70 44.39 45.38 51.17 53.57 56.98 58.28 52.19 54.43 54.75 57.59 58.33 61.63 61.03 60.85 61.85 61.78
51.06 51.04 51.20 51.26 51.15 51.06 51.03 51.10 51.16 51.03 51.02 50.89 50.94 50.39 50.26 50.57 49.44 46.18 43.40 47.24 48.71 49.40 41.78 37.42 40.85 48.86 49.90 49.05 49.00 48.72 49.07 47.24 47.84 45.80 43.56 43.82 48.19 48.24 46.75 43.11 49.94 52.91 54.20 55.27 55.74 54.35 51.48 53.45 54.44 57.72 58.26 58.87 58.58 59.54
50.98 50.92 50.85 50.97 51.17 50.98 51.00 51.06 51.00 51.16 51.31 51.39 51.56 51.45 51.27 50.87 49.57 46.62 50.27 50.06 48.72 45.11 42.49 36.79 38.18 42.22 51.07 46.50 45.88 50.21 46.55 46.92 46.67 45.67 44.83 47.00 48.51 47.90 44.11 48.11 51.32 51.57 53.96 54.53 55.16 55.36 54.73 55.04 55.51 55.59 56.50 57.75 57.16 57.19
50.67 50.71 50.75 50.86 50.81 51.04 50.97 51.04 51.13 51.21 51.17 51.45 51.47 52.02 51.06 48.42 45.50 50.70 50.30 49.76 50.15 43.95 38.02 39.01 36.17 39.35 47.53 47.54 48.50 47.73 48.05 41.23 48.50 43.20 45.82 47.01 42.03 41.60 45.99 48.96 49.40 50.59 51.51 52.23 53.58 54.33 54.22 52.70 52.22 53.34 53.91 54.70 54.61 53.94
50.81 50.56 50.64 50.51 50.53 50.71 50.70 50.76 50.87 51.02 50.98 51.27 51.51 48.63 46.60 50.88 52.03 52.29 47.90 44.77 42.83 43.07 42.08 38.41 43.32 40.13 45.55 45.55 45.47 45.48 47.34 43.82 40.59 44.32 48.40 42.93 41.63 47.00 49.67 49.49 50.28 50.67 51.65 53.39 50.27 48.77 49.36 48.87 50.74 53.09 52.09 53.70 52.74 54.79
50.41 50.39 50.43 50.36 50.46 50.52 50.42 50.33 50.89 51.01 51.09 51.22 47.44 46.49 50.68 54.69 50.71 46.64 42.40 41.08 42.03 39.30 42.56 44.64 46.64 45.22 50.73 44.74 45.65 48.37 44.86 46.52 39.66 40.84 42.67 39.13 38.41 45.36 49.39 50.55 51.84 51.31 51.54 52.08 53.22 54.06 53.30 51.91 50.58 49.87 50.41 52.66 54.10 55.64
50.66 50.60 50.49 50.59 50.79 50.51 50.38 50.32 51.00 51.49 50.60 48.49 47.36 50.34 50.74 48.51 45.84 40.27 38.43 39.67 38.26 34.99 41.69 45.17 47.27 48.40 48.78 51.08 45.64 46.75 43.83 44.96 36.87 46.57 40.59 35.31 41.77 48.10 49.60 50.04 51.63 53.07 53.43 53.49 54.68 54.35 54.97 55.26 54.88 53.68 52.98 53.70 55.52 56.88
50.30 50.30 50.29 50.40 51.04 50.79 50.90 50.91 51.12 50.88 50.71 52.53 49.35 46.75 45.49 46.22 37.75 38.54 36.89 39.91 41.17 44.65 48.42 49.37 46.41 47.41 49.26 49.74 46.59 44.65 41.33 41.30 47.11 41.26 37.77 39.64 44.72 48.88 51.13 51.36 51.72 52.49 53.10 53.57 53.26 54.20 56.18 56.41 56.57 57.14 54.84 55.44 57.05 56.57
50.00 50.10 50.09 50.42 51.19 51.14 50.81 50.89 51.50 52.02 50.65 46.82 43.32 38.01 39.72 38.61 39.44 41.61 43.18 45.41 48.56 47.14 47.45 48.93 50.03 45.15 47.47 45.85 46.79 40.86 44.38 46.57 40.72 37.75 37.51 44.30 47.77 50.63 52.84 53.30 52.44 52.15 53.50 53.34 53.82 54.98 55.44 56.55 55.24 56.41 57.23 58.18 58.36 57.48
50.07 49.95 49.87 51.42 51.10 50.71 50.55 50.91 51.51 54.21 50.51 45.92 45.93 38.50 42.41 46.02 48.02 49.01 49.29 48.52 50.61 51.67 50.87 50.15 50.11 49.72 47.36 45.82 46.91 44.25 41.82 37.94 38.33 40.11 43.54 48.05 50.54 52.80 52.78 53.00 53.59 53.56 53.62 53.98 54.59 54.57 55.11 55.77 55.10 55.58 56.40 56.87 57.53 59.05
50.12 50.19 53.00 50.86 50.78 50.42 50.21 53.24 55.03 56.50 53.77 50.57 48.02 44.47 46.90 46.16 46.74 48.52 49.43 49.02 53.41 51.30 52.86 51.79 47.27 44.42 42.66 43.79 39.85 37.45 37.77 34.94 38.41 45.00 48.64 51.72 52.42 52.76 53.07 53.93 55.19 55.51 55.45 54.66 55.32 56.28 56.16 56.29 55.75 56.86 57.01 57.56 57.45 58.96
49.71 53.37 50.96 50.82 50.64 50.37 52.34 54.13 55.44 50.46 48.72 46.45 45.17 49.41 48.03 47.54 46.53 48.66 50.64 51.57 54.02 52.24 47.39 47.57 42.64 41.76 45.10 39.33 36.91 39.70 38.00 41.72 46.20 48.41 50.23 51.11 51.22 53.03 54.22 53.21 54.86 54.47 54.59 55.16 56.63 56.00 54.84 58.02 57.79 57.16 57.18 56.52 57.90 59.48
52.12 54.22 51.85 50.75 51.11 53.22 56.44 54.67 52.23 48.88 45.27 47.95 46.11 47.55 49.68 51.09 50.37 50.58 52.12 52.82 51.98 50.91 50.74 46.55 47.87 42.16 40.24 38.47 39.59 44.62 47.31 50.03 51.05 51.33 52.74 54.37 55.20 56.05 56.34 55.54 57.79 57.58 56.26 54.20 53.88 56.85 55.65 55.40 53.51 52.62 55.52 57.06 56.56 55.02
51.00 51.48 50.40 50.63 51.61 51.17 51.57 51.24 52.46 45.64 47.34 48.99 49.96 51.02 50.66 51.63 52.37 53.34 53.49 54.06 55.10 54.39 51.93 49.19 44.31 43.10 44.40 48.39 48.76 49.89 51.51 53.07 52.72 54.31 54.91 55.45 56.84 54.84 56.70 57.25 57.49 56.20 55.48 55.96 54.53 53.96 54.67 56.23 54.55 53.49 53.30 53.84 52.48 53.99
49.79 50.68 51.55 51.67 51.50 53.54 49.30 50.91 54.14 48.91 46.08 48.64 50.17 49.69 50.45 50.96 52.94 53.13 52.31 53.34 52.31 51.30 48.70 46.70 47.30 49.78 50.40 53.12 54.97 54.51 55.03 55.09 53.77 52.49 53.22 56.45 54.51 56.58 56.43 55.54 54.36 57.84 54.70 55.90 53.51 49.02 52.53 51.61 51.60 51.29 51.53 51.79 51.73 51.08
52.65 55.41 53.23 54.81 56.00 54.92 52.24 50.32 49.83 50.10 49.79 48.01 51.39 51.03 50.02 51.58 50.08 50.18 51.03 52.79 49.60 48.39 48.12 51.36 52.55 54.69 54.90 56.39 55.62 56.54 56.82 55.45 55.37 54.98 53.28 51.71 53.24 53.76 53.26 53.63 54.39 53.08 51.94 51.07 50.22 50.18 49.24 49.46 49.97 50.17 50.54 50.05 50.30 51.47
56.00 52.58 56.25 57.41 54.11 53.26 51.83 53.89 51.20 51.65 49.32 50.38 50.42 50.86 47.39 46.80 47.32 47.31 50.85 47.38 46.73 49.95 51.74 52.06 53.95 51.75 51.99 52.40 52.61 53.99 56.28 57.77 56.99 53.32 51.04 52.44 52.60 51.99 51.81 51.89 51.60 50.74 50.94 50.80 50.66 49.85 49.72 49.38 49.29 49.72 50.30 49.80 49.24 51.50
53.20 53.64 56.17 55.65 51.06 47.80 47.70 56.03 50.47 50.81 46.96 47.95 50.34 47.71 47.91 48.30 49.61 51.40 45.26 48.27 49.99 54.95 54.08 54.65 56.49 56.55 54.87 55.45 53.63 52.28 53.12 53.42 52.29 52.24 52.18 51.42 52.54 53.36 52.64 52.54 52.22 50.94 49.84 50.03 50.76 50.01 49.43 46.39 48.36 48.84 50.18 50.05 49.95 49.73
50.13 53.37 51.19 51.30 51.87 46.89 53.99 50.64 51.98 50.40 50.66 49.31 48.53 45.79 47.99 50.20 53.27 48.84 45.33 46.96 51.75 54.11 51.86 53.62 52.82 51.24 51.87 52.50 49.36 49.37 50.33 50.95 50.49 51.02 50.68 50.11 49.71 50.83 51.39 51.18 51.39 50.21 50.06 50.19 49.97 49.28 48.86 48.56 46.27 48.93 49.02 48.73 48.81 48.40
46.96 46.19 49.50 40.76 53.77 49.47 47.36 48.14 48.74 48.24 46.52 47.78 46.39 46.78 49.44 52.33 46.68 44.40 43.48 46.45 47.83 48.91 50.31 51.28 50.72 50.68 48.42 48.78 49.03 48.87 51.19 48.53 47.71 48.16 49.79 49.81 48.95 49.14 49.00 48.98 49.02 48.16 48.62 47.57 46.57 46.30 46.57 47.00 46.79 46.54 46.95 46.60 45.67 46.04
41.17 51.47 44.93 49.97 50.11 48.61 48.42 46.04 46.90 47.26 47.81 46.76 47.78 50.21 48.54 47.86 44.00 41.36 43.54 47.22 48.40 49.27 49.56 49.43 49.07 48.45 48.24 48.55 47.23 46.85 47.70 49.03 48.43 46.91 48.13 49.73 48.27 46.91 45.64 45.21 44.38 43.95 46.49 46.84 44.96 43.62 43.90 43.91 42.88 42.43 42.87 43.37 41.31 43.53
43.93 49.23 54.07 57.91 54.36 53.09 51.42 51.33 51.65 49.10 46.64 45.78 48.85 48.22 46.71 41.68 39.22 41.47 47.09 48.73 48.79 50.67 51.66 51.46 49.92 48.38 47.59 47.20 47.71 47.97 48.62 48.40 48.04 47.17 48.81 49.67 47.97 47.30 45.97 43.56 42.01 42.45 45.10 44.90 43.88 43.04 42.09 41.31 40.84 41.27 41.59 42.64 43.00 42.99
53.63 54.45 46.70 47.63 50.94 50.36 45.83 47.71 47.95 47.26 48.22 50.67 50.16 45.38 42.81 41.48 39.75 45.41 46.49 50.23 51.23 51.89 51.48 51.40 51.08 49.79 48.13 47.03 47.32 47.07 46.83 46.78 46.51 46.60 47.21 47.60 46.68 45.73 45.45 45.00 44.74 40.32 44.19 43.41 43.19 42.98 41.89 41.00 40.84 40.96 41.30 41.22 41.66 42.21
53.01 54.18 53.54 49.73 51.31 51.43 50.68 48.42 48.23 50.34 51.60 51.00 48.53 45.23 43.99 47.77 50.42 49.77 51.22 51.92 52.72 51.81 49.42 47.99 48.05 48.43 47.08 46.55 46.91 46.31 45.54 43.80 41.23 38.90 38.33 39.01 39.86 41.09 43.27 43.45 43.73 43.60 43.75 43.27 38.03 40.48 41.20 41.00 41.25 41.11 41.04 40.58 40.74 40.48
52.12 55.22 51.90 48.13 49.48 48.88 50.30 52.49 50.73 52.45 52.20 50.90 49.50 48.50 49.13 49.73 51.96 53.95 52.82 51.67 49.65 48.40 48.64 48.12 47.09 45.48 43.73 43.58 43.27 43.69 44.72 43.80 41.92 39.22 36.34 36.27 38.29 40.85 41.76 41.96 41.90 42.18 42.40 42.42 42.09 42.11 39.47 41.23 40.84 41.05 40.07 39.63 39.14 38.38
54.31 53.51 51.48 51.00 49.60 52.47 53.49 54.86 53.68 52.99 52.42 51.09 51.40 48.53 47.34 48.67 52.31 51.56 50.89 50.36 49.35 48.52 46.81 45.57 45.30 45.05 43.70 42.91 42.28 41.48 40.40 43.69 42.53 41.14 39.41 39.46 40.06 40.42 40.97 41.18 41.65 41.98 41.76 41.80 41.68 41.17 40.45 39.71 39.41 38.65 37.97 37.48 37.20 37.06
54.31 51.47 50.12 48.30 50.95 54.76 55.72 53.98 52.05 50.64 50.02 49.98 49.02 49.07 50.33 49.76 47.26 49.04 51.29 50.25 48.16 46.32 44.50 45.36 44.35 43.80 44.83 44.62 44.21 43.70 40.74 42.89 41.20 39.94 39.19 38.76 39.06 39.78 40.50 41.16 41.11 41.26 40.94 40.96 40.49 39.91 39.12 38.07 37.75 37.30 37.02 36.78 36.95 37.05
52.62 52.27 52.11 50.88 51.03 51.46 53.90 53.54 52.13 50.68 50.42 48.40 49.56 51.12 50.78 47.52 44.75 47.45 51.73 51.14 48.05 46.50 45.25 45.14 45.63 45.90 45.57 44.58 43.77 43.52 43.17 41.73 37.59 34.06 33.65 33.07 32.05 34.43 38.33 40.25 40.06 40.17 39.72 39.58 39.18 39.02 37.85 37.79 37.57 37.20 36.98 36.84 36.83 36.61

GFSWCAN_sfc_wetblb_015.txt.gz
Wetbulb
51.83 52.16 52.17 51.95 52.09 52.14 52.20 52.42 52.32 51.63 51.42 51.52 51.57 51.64 51.56 51.47 51.30 50.64 48.29 50.76 45.02 38.45 39.46 41.17 41.71 38.95 39.53 38.94 35.46 39.76 37.98 38.87 38.22 35.93 34.84 35.55 35.01 39.07 39.45 42.09 41.59 41.75 43.25 42.08 44.18 41.53 40.49 57.99 57.31 51.65 55.06 58.64 58.91 58.59
52.12 52.22 51.96 51.94 51.96 52.14 52.05 52.09 52.11 52.11 52.15 51.51 51.24 51.00 50.83 50.74 50.65 50.51 44.17 51.44 50.59 43.46 40.78 45.22 45.17 45.93 44.46 43.61 40.92 40.72 39.73 38.95 39.98 40.16 40.28 40.75 37.70 40.78 41.27 38.31 47.32 41.38 46.03 45.42 46.38 47.92 56.44 56.16 53.44 54.40 58.14 58.64 60.88 61.70
51.88 51.89 51.59 51.58 51.75 51.93 51.99 51.73 51.84 51.82 51.80 51.11 51.10 50.89 50.61 50.50 50.58 49.81 46.57 49.14 47.87 42.12 40.30 41.21 41.24 46.41 48.04 47.03 47.83 38.88 40.70 43.22 42.07 46.93 43.38 42.45 39.73 44.21 39.57 42.14 45.63 48.96 51.55 50.28 50.78 50.82 55.94 57.42 56.25 59.51 64.04 62.20 63.57 64.37
51.67 51.93 51.86 51.96 51.58 51.75 51.93 51.67 51.67 51.73 51.65 51.17 50.77 50.94 50.96 51.25 51.02 50.20 46.35 49.97 47.03 42.38 35.93 37.68 47.49 44.77 48.47 48.74 47.84 46.48 44.15 44.91 46.01 45.17 42.30 41.45 40.40 46.99 44.21 44.63 44.96 49.77 50.39 49.41 50.32 51.64 54.21 59.47 61.20 61.75 62.88 63.03 61.89 62.08
51.52 51.47 51.39 51.53 51.59 51.62 51.74 51.51 51.62 51.65 51.73 51.58 51.19 50.96 50.69 50.54 51.25 49.70 48.05 49.40 48.90 41.48 35.76 37.29 43.21 46.53 48.63 48.05 47.34 47.18 45.58 43.54 42.02 40.51 41.32 40.65 45.17 45.32 47.24 47.91 45.83 50.48 50.09 48.63 48.49 51.32 52.04 51.35 56.18 61.27 59.40 59.61 59.87 58.73
51.06 51.06 51.20 51.11 51.22 51.54 51.50 51.43 51.36 51.53 51.55 51.76 51.50 51.25 51.29 51.12 50.94 46.73 43.52 48.60 50.68 47.75 40.33 35.47 44.43 45.60 48.87 50.22 47.22 46.43 46.26 44.00 43.10 41.50 42.58 44.97 47.30 46.01 43.22 40.45 48.42 52.41 54.69 56.64 52.56 54.77 52.94 53.46 54.05 57.59 56.29 57.34 58.55 58.24
50.89 51.09 50.99 50.97 51.24 51.32 51.39 51.37 51.39 51.37 51.54 51.77 51.96 51.97 51.94 51.63 48.70 43.07 42.41 47.51 49.06 47.47 40.73 36.70 37.38 46.69 48.67 48.53 45.37 45.39 46.42 44.54 45.18 45.36 43.12 44.12 44.82 47.14 45.32 40.62 47.06 52.63 54.79 55.05 55.55 54.87 52.44 52.69 51.08 54.26 55.24 56.11 56.21 57.03
51.00 51.06 51.01 50.90 51.00 51.12 50.88 50.80 50.82 50.93 51.28 51.67 51.93 51.73 51.96 51.93 50.15 45.98 48.32 49.72 48.77 44.27 43.16 35.72 36.44 41.83 47.78 44.46 42.64 47.12 43.59 45.86 45.42 45.39 45.31 42.46 45.47 46.09 43.27 48.01 50.64 51.87 53.49 54.22 53.93 53.82 53.13 53.48 53.79 53.87 54.57 54.84 52.74 51.93
50.98 50.97 50.96 50.79 50.65 50.77 50.75 50.79 50.85 50.99 51.05 51.50 51.73 51.60 50.39 47.39 44.98 48.55 50.92 50.07 49.54 44.52 37.83 38.41 35.23 35.50 48.06 45.28 47.52 46.46 46.21 39.92 46.94 42.65 41.68 44.77 42.01 41.49 45.44 47.37 49.51 51.61 50.82 51.44 52.68 52.63 52.64 51.67 51.88 52.75 53.19 53.67 52.24 51.15
50.89 50.81 50.77 50.74 50.65 50.94 51.06 51.34 51.30 51.09 51.28 51.36 50.73 48.21 46.32 49.48 52.84 52.43 48.04 44.41 42.69 42.65 41.32 36.79 40.83 38.02 44.54 44.48 44.14 43.90 44.96 41.95 39.59 42.46 46.99 41.34 40.98 46.56 48.25 49.63 51.17 51.99 52.12 52.68 49.35 48.44 49.92 49.72 51.44 51.38 51.35 54.05 54.80 52.80
50.65 50.50 50.39 50.50 50.77 50.86 51.10 51.26 51.17 51.07 51.21 51.38 47.29 45.81 48.85 53.66 49.70 45.60 40.68 39.41 40.91 38.03 40.83 41.54 44.53 42.02 48.41 41.99 43.19 46.51 43.23 44.27 35.71 40.80 41.36 36.98 38.24 43.52 49.35 49.73 50.96 51.83 52.33 52.56 52.17 51.68 51.57 51.08 51.40 51.39 52.38 53.99 54.99 55.61
50.65 50.40 50.22 50.43 50.49 50.70 50.95 51.08 51.04 50.28 49.48 47.40 46.15 49.27 50.05 48.79 45.60 40.69 38.31 38.07 35.54 36.43 42.51 42.45 44.34 47.41 47.92 49.49 44.38 45.45 42.41 41.99 35.74 46.05 39.26 34.76 41.94 46.74 48.12 49.86 51.39 52.48 53.03 52.97 53.75 53.54 52.91 51.76 51.62 51.69 51.64 54.48 55.34 56.42
50.32 50.19 50.10 50.24 50.57 50.73 51.06 51.24 51.14 51.44 51.02 52.41 47.97 47.06 44.85 44.56 36.46 36.95 32.81 37.62 35.98 42.81 46.42 46.88 44.50 45.95 47.75 48.42 45.30 42.25 39.05 40.39 46.71 39.44 34.34 38.57 44.20 46.49 48.92 50.60 51.43 52.13 52.45 52.97 53.16 54.56 55.43 55.60 56.32 55.33 55.38 55.18 55.31 56.55
50.28 50.17 50.19 50.28 50.26 51.19 51.27 51.02 51.45 51.73 50.83 47.28 44.56 35.87 41.64 39.94 40.22 40.81 41.71 42.69 45.45 46.96 46.49 46.94 47.05 44.89 46.34 45.05 44.84 40.82 44.65 45.28 39.18 35.36 35.60 43.63 47.05 49.63 50.87 51.58 51.76 51.44 52.44 52.54 54.39 54.46 54.39 55.07 54.74 55.37 56.09 56.51 56.17 55.62
50.21 50.28 50.13 50.88 51.54 51.38 51.11 50.99 51.26 52.81 51.07 47.74 46.35 34.97 42.83 46.20 47.19 47.67 48.73 47.99 49.23 50.56 49.67 48.68 48.18 47.82 45.81 44.84 44.38 43.06 40.01 36.99 37.65 37.44 42.83 46.81 49.57 50.24 51.05 51.80 51.89 51.41 51.31 52.41 53.42 53.10 53.63 54.71 54.75 54.57 55.20 56.51 56.93 56.79
50.39 50.05 52.06 51.09 51.14 50.91 50.55 52.15 54.73 54.63 54.30 50.02 48.56 44.93 47.37 45.72 45.70 47.69 48.18 47.44 51.53 50.89 51.04 49.23 45.93 42.93 41.24 40.56 38.28 36.81 36.94 34.71 38.32 44.40 47.66 49.23 49.45 50.20 51.18 52.21 53.21 54.05 53.29 52.05 52.21 54.51 54.87 54.31 54.16 54.14 55.35 55.10 54.96 56.35
49.86 48.73 51.82 51.14 50.83 50.65 52.82 53.60 56.42 52.53 49.59 46.93 45.69 49.70 47.60 47.40 46.80 48.40 49.74 49.67 52.97 49.31 44.06 45.56 41.01 40.74 43.18 38.50 37.95 41.19 39.36 42.70 45.90 47.41 49.00 49.88 50.18 50.43 51.52 52.03 53.48 54.17 52.47 53.52 52.74 53.06 54.51 52.39 54.73 54.87 52.21 52.78 53.70 56.40
49.66 52.81 51.91 50.60 50.27 51.84 56.88 53.81 52.82 49.52 45.99 47.37 46.09 48.36 49.38 50.23 48.76 49.52 50.49 52.36 50.24 48.51 47.55 44.83 46.84 41.97 40.18 39.23 40.06 44.14 45.89 48.31 49.59 49.76 50.61 52.15 52.59 53.01 53.67 53.45 54.47 53.46 53.59 52.66 54.28 51.98 51.00 49.71 48.71 49.04 48.82 51.46 51.41 51.32
49.50 50.27 50.12 50.22 50.55 49.79 51.79 53.02 54.04 46.93 47.42 49.14 48.98 50.79 50.69 50.97 51.53 52.33 52.39 52.99 52.43 52.03 49.05 47.40 44.04 42.50 43.43 46.15 46.04 47.12 48.36 48.93 48.75 50.01 50.99 52.12 52.12 53.77 53.45 55.18 54.74 53.75 51.42 49.97 49.26 49.87 49.35 48.68 47.80 48.38 48.79 48.82 47.79 48.90
50.04 50.92 51.69 52.10 51.88 52.05 50.43 52.13 56.75 49.56 45.67 48.14 49.03 49.98 50.36 49.50 50.79 50.42 50.21 51.01 50.22 48.37 45.12 43.85 43.94 46.30 46.89 48.34 49.98 50.02 50.58 51.46 50.44 48.83 49.24 51.09 53.54 53.47 53.35 52.95 51.60 51.94 50.76 49.67 48.30 46.85 47.79 47.39 47.50 47.99 47.60 47.03 46.87 47.53
53.37 55.05 53.82 55.31 55.35 54.45 52.32 50.81 50.47 49.00 50.62 49.25 51.18 50.53 50.71 50.26 48.14 47.56 47.42 50.02 47.49 46.03 44.76 47.75 47.83 49.10 49.63 49.06 49.21 49.60 50.60 53.09 51.98 51.51 50.55 49.75 52.31 52.76 52.56 52.55 51.15 50.11 48.89 48.52 47.73 46.48 45.97 45.80 46.18 47.12 47.48 47.28 47.87 48.65
56.15 53.76 55.50 58.50 54.99 54.31 53.17 55.87 51.93 54.31 51.81 52.07 51.01 50.72 47.94 46.38 46.32 46.78 49.91 47.07 47.20 48.70 50.42 50.72 50.62 49.66 47.70 47.20 47.47 47.75 48.22 51.39 50.96 49.09 47.96 49.69 50.07 49.21 49.06 49.92 49.70 48.48 47.86 47.76 47.60 46.91 46.41 46.46 45.80 47.10 47.52 47.33 47.26 47.07
53.52 53.58 55.08 55.98 51.70 46.67 46.31 57.08 51.04 51.93 48.59 49.02 51.42 47.26 48.20 48.25 49.48 51.46 46.76 49.15 49.86 53.21 52.94 53.02 53.46 52.65 51.24 52.13 49.20 47.67 48.08 47.73 48.84 47.84 47.90 48.46 49.74 50.17 49.03 47.74 46.91 45.64 46.03 46.40 47.08 46.45 46.20 44.63 45.87 46.17 47.10 47.04 47.10 46.80
51.05 52.83 51.50 51.48 51.95 45.95 54.83 49.75 52.41 51.55 51.72 49.81 48.45 45.99 47.75 49.57 53.26 47.53 43.30 45.75 48.82 49.80 49.71 50.06 50.14 48.84 49.15 49.60 46.61 46.31 46.87 47.22 46.70 48.45 48.53 47.65 47.23 47.24 46.93 45.66 44.93 44.71 45.67 45.49 44.66 44.38 44.75 43.91 42.28 42.51 43.35 43.47 43.13 42.71
45.82 46.36 48.58 39.78 53.59 51.16 48.35 48.45 49.41 49.02 46.95 48.80 46.12 44.91 44.02 48.09 44.32 41.81 42.07 43.60 46.09 48.37 49.09 49.36 48.22 48.40 47.05 45.88 46.09 46.63 47.61 46.48 45.05 44.81 47.28 47.84 47.06 46.22 45.55 44.53 42.86 42.63 44.62 43.35 41.49 41.58 41.99 41.61 40.88 40.72 41.11 41.48 41.15 41.49
39.07 51.56 45.03 48.97 46.56 47.84 49.18 45.97 47.28 47.21 47.86 47.15 47.17 48.68 48.95 47.01 41.79 39.74 42.67 45.69 47.81 48.09 48.30 47.96 47.92 46.32 45.12 45.37 44.59 44.84 44.94 46.27 45.03 43.35 45.95 45.57 44.46 43.05 41.57 40.21 39.08 39.62 43.44 42.68 41.22 40.53 40.08 39.76 39.46 39.99 40.13 40.90 39.73 40.87
44.96 46.81 48.97 51.86 49.62 49.00 48.31 50.08 51.68 48.41 46.30 45.28 47.18 47.55 46.49 39.67 37.96 42.27 47.52 49.26 48.57 50.23 51.24 50.76 49.11 46.25 44.70 44.55 45.74 45.93 45.37 44.48 43.14 42.51 45.58 44.49 43.69 43.36 42.07 40.04 38.63 40.21 43.03 42.39 41.74 40.85 39.36 39.01 39.27 39.65 39.76 40.37 39.78 39.60
48.93 47.87 46.14 49.81 50.06 51.06 48.67 48.77 46.89 45.32 45.90 49.30 48.98 43.74 41.64 40.09 40.44 46.22 48.05 50.91 51.63 51.89 51.29 51.00 48.43 46.75 45.34 45.24 45.19 44.67 43.50 42.98 42.77 42.12 42.40 42.73 42.62 42.12 42.51 42.73 42.55 40.01 42.31 41.44 41.47 41.19 40.17 39.74 39.41 39.59 39.08 38.44 38.10 38.76
50.38 51.75 51.27 49.47 50.49 50.01 49.68 47.59 46.53 47.73 49.16 48.94 45.77 43.23 43.50 47.43 49.33 49.42 51.13 52.18 51.69 50.05 46.89 46.28 45.63 45.92 45.01 45.34 45.02 44.38 43.05 41.07 38.20 35.21 34.31 34.91 36.54 38.12 41.21 41.16 41.21 41.39 41.49 41.44 39.15 39.70 40.24 39.80 39.91 39.22 39.30 38.41 38.25 38.04
51.78 54.44 51.46 50.69 48.31 47.37 49.72 51.24 49.45 50.81 50.45 49.21 48.62 48.08 48.26 49.02 50.91 52.95 50.72 49.27 47.79 46.09 45.81 45.68 45.40 44.05 42.52 41.88 41.39 41.97 42.09 41.09 39.39 36.11 33.68 33.71 35.86 39.07 39.98 40.01 40.26 40.74 40.91 40.99 40.70 40.48 39.36 39.93 39.21 39.06 38.07 37.45 36.78 36.26
54.06 52.83 51.70 51.32 49.97 51.59 52.63 53.29 52.95 52.42 51.66 50.32 50.63 48.49 47.67 49.32 51.07 52.04 51.20 50.26 48.51 47.04 45.11 43.82 43.79 43.86 42.41 41.34 40.43 39.31 38.46 40.08 39.36 38.94 38.16 38.20 38.48 38.86 39.46 39.83 39.83 40.14 40.11 40.09 39.64 38.75 37.87 37.38 37.25 36.74 36.63 36.13 36.20 35.81
54.31 52.03 50.37 49.04 51.02 54.13 55.26 52.58 51.70 50.69 50.83 50.02 48.96 49.91 49.27 49.51 47.09 49.11 51.75 50.16 46.96 44.73 43.10 43.55 42.68 42.22 43.52 43.20 42.98 42.78 40.47 39.84 38.76 38.84 38.47 38.16 38.20 38.79 39.19 39.38 39.52 39.48 39.11 39.01 38.73 38.01 37.56 37.14 36.55 36.14 35.87 35.94 35.95 35.76
52.29 52.11 52.45 50.61 50.69 51.23 53.46 52.96 51.36 49.76 49.52 48.49 49.34 49.88 48.68 47.26 44.32 48.66 51.43 49.68 46.96 44.86 43.76 43.98 44.53 44.70 44.69 43.22 42.45 42.51 40.81 40.60 38.21 35.35 34.63 34.49 34.07 34.90 37.35 38.82 38.54 38.88 38.38 38.21 38.26 37.95 37.25 36.78 36.05 36.15 35.93 35.93 35.78 35.85

GFSWCAN_sfc_wetblb_018.txt.gz
Wetbulb
52.10 52.09 52.10 52.00 51.93 52.16 52.26 52.45 52.30 51.84 51.52 51.55 51.65 51.62 51.53 51.38 51.07 45.86 42.94 46.50 43.80 39.04 38.65 40.63 39.79 36.49 37.15 35.74 32.56 34.75 36.49 35.85 35.40 33.42 35.20 32.42 31.00 36.46 36.83 41.30 41.03 39.89 40.25 41.27 42.96 38.49 37.70 54.40 54.02 47.53 49.81 56.12 56.73 56.60
51.99 52.03 52.15 52.21 52.23 52.14 52.12 52.26 51.93 51.97 51.74 51.55 51.38 51.18 51.29 50.97 50.79 49.63 40.31 44.34 47.59 42.23 38.82 43.15 43.28 43.55 42.08 41.10 36.57 36.04 37.39 38.78 39.10 35.00 37.22 38.48 34.49 38.14 36.27 36.05 45.95 40.82 45.21 42.49 45.59 43.98 51.43 54.42 51.75 56.81 59.77 59.87 60.66 60.52
51.75 51.72 51.76 51.86 51.88 51.98 52.02 52.00 51.80 51.91 51.71 51.21 51.34 51.51 51.30 51.40 51.25 49.79 42.73 43.41 43.61 41.44 39.82 38.11 38.07 42.95 44.77 44.01 45.20 37.26 39.44 41.31 41.03 43.46 39.14 37.13 36.25 41.50 33.39 40.15 43.74 47.57 50.27 47.59 47.00 50.53 51.92 53.33 58.05 60.90 60.24 59.30 59.28 60.05
51.33 51.45 51.63 51.61 51.55 51.67 51.75 51.91 51.93 51.74 51.91 51.44 51.73 51.55 51.40 51.61 51.34 50.55 43.47 45.18 45.29 41.97 34.78 35.32 43.15 40.34 45.35 44.31 44.78 44.63 42.47 43.06 43.59 43.27 38.37 36.72 36.59 42.99 40.50 43.69 43.51 48.27 49.22 48.43 49.01 50.27 51.83 52.71 55.07 58.36 59.11 59.45 58.48 59.02
50.94 51.29 51.41 51.34 51.28 51.57 51.70 51.64 51.64 51.78 51.86 51.55 51.36 51.86 52.09 51.80 51.37 48.93 46.18 45.13 46.78 41.36 35.06 35.19 40.66 42.18 43.58 45.10 44.44 44.48 42.68 40.53 38.10 36.35 36.75 36.71 42.65 42.25 45.32 45.06 44.63 49.15 47.83 47.50 46.72 50.87 48.89 51.24 54.33 58.16 56.73 56.54 56.67 57.40
50.69 51.02 51.09 51.12 51.26 51.21 51.33 51.35 51.43 51.41 51.36 51.53 51.74 51.40 51.82 51.83 51.87 43.73 39.45 44.20 46.55 46.93 39.37 32.44 38.08 40.61 43.32 46.97 45.55 41.84 42.66 41.70 39.61 35.47 37.69 43.06 46.43 42.94 39.91 40.40 45.78 49.78 53.87 54.18 50.94 54.39 51.98 53.36 53.38 54.09 52.87 54.26 56.96 56.46
50.89 50.87 50.96 51.06 51.19 51.14 51.14 51.16 51.47 51.69 51.71 51.81 51.87 51.81 51.78 51.78 48.51 41.44 39.17 44.82 48.98 46.21 39.48 35.45 34.06 41.47 47.62 45.91 40.81 39.37 40.40 39.04 39.42 40.74 40.55 42.31 43.80 44.78 43.04 39.31 45.88 50.96 53.64 53.64 55.01 54.87 51.82 52.75 51.22 53.68 53.71 54.30 54.54 55.10
50.70 50.74 50.73 50.91 50.94 51.15 51.12 51.23 51.60 51.89 51.96 51.92 52.04 52.03 51.92 51.63 50.87 46.69 47.72 49.34 48.68 42.66 42.40 35.20 34.60 39.33 46.98 43.10 41.91 45.13 39.56 43.08 43.28 43.52 43.52 41.73 43.34 45.14 41.97 46.06 48.79 50.89 53.33 51.95 52.19 53.58 53.12 53.69 54.18 53.69 54.13 53.28 52.13 51.76
50.60 50.70 50.59 50.66 50.77 50.86 51.02 51.23 51.50 51.75 51.78 51.82 52.06 52.13 49.39 47.10 43.70 45.94 51.22 50.62 47.00 42.80 37.19 37.53 34.94 34.53 46.89 43.70 45.50 44.59 45.49 39.78 45.56 41.48 41.40 43.08 41.42 40.32 43.54 47.21 49.45 50.28 50.87 50.36 51.77 52.32 52.12 51.03 50.96 52.86 53.64 52.82 50.92 49.88
50.45 50.52 50.45 50.57 50.67 50.63 50.70 51.07 51.40 51.65 51.26 51.81 49.22 45.55 42.58 46.93 52.37 51.73 46.98 43.40 42.23 42.09 40.79 35.58 40.54 36.37 42.57 44.14 42.81 43.09 44.49 39.80 36.99 41.20 45.68 39.40 39.98 44.91 48.84 50.03 51.43 50.57 50.63 51.51 49.03 48.27 48.71 49.43 50.55 51.34 53.34 54.54 53.75 51.02
50.46 50.49 50.40 50.58 50.70 50.64 50.85 50.95 51.28 51.40 50.84 45.46 41.77 41.49 45.65 53.03 48.73 45.28 39.35 37.32 39.52 37.15 39.34 39.12 40.45 38.57 45.78 41.18 41.20 45.08 41.73 41.52 34.28 39.85 38.35 36.48 37.47 43.55 48.91 50.28 50.99 51.94 51.79 51.67 51.57 51.49 51.52 51.52 51.24 52.25 53.00 54.37 54.87 55.19
50.37 50.37 50.30 50.47 50.44 50.72 50.85 50.94 51.24 47.45 45.51 45.33 45.81 47.07 45.84 45.21 43.61 39.08 35.06 35.90 34.46 34.40 41.71 41.04 43.26 45.38 46.62 47.90 43.16 43.90 39.27 39.76 36.37 44.80 38.34 33.75 39.04 45.27 48.10 50.13 51.01 51.99 52.55 52.58 53.27 51.63 51.32 51.99 52.49 51.88 52.29 53.81 54.44 55.39
50.23 50.20 50.10 50.08 50.36 50.58 50.91 51.13 51.31 51.02 49.93 47.27 44.42 43.82 40.95 40.26 37.66 32.17 31.99 36.19 36.60 40.33 43.07 44.81 44.19 45.06 46.31 46.85 42.94 40.91 40.56 39.83 45.96 36.14 32.67 35.69 42.94 47.52 49.34 50.91 51.36 52.24 52.20 52.51 53.77 53.95 54.73 54.13 54.99 54.60 53.59 54.63 56.16 55.67
49.95 50.06 49.96 50.05 50.08 51.02 51.40 51.31 51.46 50.01 46.80 43.13 40.44 34.66 39.18 38.09 40.75 41.57 42.81 43.73 46.59 44.99 44.95 44.90 46.07 44.39 45.54 44.53 44.76 41.83 43.49 42.97 37.05 33.69 33.90 43.47 46.69 48.20 49.55 50.89 50.74 51.35 52.70 52.98 53.49 53.33 52.69 53.35 53.30 53.85 54.19 53.98 53.73 53.91
50.18 50.17 50.05 49.75 51.44 51.59 51.10 50.96 51.24 48.31 46.43 42.44 42.00 37.05 40.37 43.33 45.26 47.15 48.25 47.05 48.14 47.39 45.58 44.81 44.63 44.99 42.35 41.15 40.91 41.49 38.63 34.38 35.97 37.38 43.05 46.87 48.57 49.47 49.82 51.11 50.45 50.15 50.40 50.94 51.76 52.47 52.58 53.13 53.22 53.11 53.32 53.92 55.11 53.77
50.50 49.66 49.38 51.32 51.15 50.81 50.19 50.48 50.41 49.46 47.92 46.48 45.24 43.68 45.26 43.79 45.05 46.85 47.33 46.70 49.26 48.17 46.07 45.03 43.07 41.06 40.09 40.38 38.60 37.22 36.05 33.95 39.50 44.53 47.20 48.11 48.54 49.43 49.77 51.03 50.72 50.41 50.95 49.87 48.41 48.76 49.39 49.05 48.78 49.66 50.17 50.69 52.04 52.67
49.88 46.26 50.54 50.92 50.61 50.21 51.28 48.96 50.25 49.06 44.58 43.84 43.01 45.95 46.11 44.99 45.07 46.28 46.96 47.45 50.56 47.58 43.43 43.84 40.79 38.55 42.78 38.83 37.56 40.76 39.35 42.94 45.95 47.12 48.68 49.27 49.24 49.61 50.30 50.51 50.84 51.13 50.24 47.61 46.71 45.97 46.05 47.29 47.87 47.59 47.03 47.81 49.07 49.45
46.32 48.51 50.64 50.29 49.82 49.53 50.04 50.03 47.38 45.54 43.46 44.34 42.45 44.82 46.05 46.34 45.50 46.44 47.53 48.11 47.17 46.00 45.66 43.77 46.41 41.00 38.06 37.39 39.43 43.50 45.70 47.61 48.29 48.13 48.67 48.69 49.70 50.15 51.82 51.12 50.39 47.80 48.05 47.19 46.03 45.08 45.12 44.59 44.69 43.97 44.70 46.78 46.56 46.56
47.47 48.56 50.16 50.46 49.71 46.89 47.68 47.97 47.49 43.78 44.04 44.00 45.20 45.85 45.01 45.46 47.17 48.50 48.44 48.76 47.92 47.27 45.57 44.83 42.02 39.53 41.04 44.84 44.97 46.37 47.09 47.61 47.29 48.53 49.59 50.14 50.89 50.67 49.56 49.19 46.86 44.16 43.50 43.25 43.77 42.93 42.99 42.62 42.65 42.94 42.97 43.88 43.98 44.85
50.44 51.58 52.27 52.52 51.60 47.28 46.90 45.12 49.55 45.00 43.10 45.76 46.23 44.58 44.19 44.17 45.63 47.26 47.49 47.47 46.32 44.09 41.08 39.97 40.23 42.69 41.59 42.24 46.14 47.64 48.45 49.59 47.77 45.35 46.68 47.76 48.71 48.12 47.40 46.44 44.91 43.26 43.37 42.02 42.65 42.64 42.69 43.06 44.02 43.71 42.66 44.64 43.98 42.89
51.29 52.26 53.09 51.93 50.44 48.76 47.23 45.08 44.70 45.23 45.15 44.22 45.80 45.08 44.09 44.91 44.68 44.65 44.87 45.25 44.24 42.92 41.67 42.50 40.32 41.60 43.27 42.71 43.73 44.16 43.15 45.36 43.34 41.26 41.99 44.33 44.31 44.04 45.85 46.38 45.75 44.86 43.40 41.63 41.58 41.49 41.69 40.83 42.57 44.26 43.81 42.39 42.58 43.89
50.82 53.55 50.93 53.79 49.96 49.69 47.24 48.73 45.83 47.23 45.04 44.78 44.18 44.37 42.01 41.23 41.52 42.02 44.26 43.18 42.61 44.78 46.25 44.23 44.12 43.14 41.79 41.05 40.79 41.78 43.14 43.60 43.33 44.28 44.52 44.60 42.78 42.10 42.40 43.36 43.36 41.48 41.45 40.97 41.28 40.20 39.47 39.90 40.49 41.54 41.49 41.16 42.84 43.01
51.36 51.26 50.52 51.68 47.61 41.50 42.79 49.78 45.90 45.95 44.23 45.53 47.46 44.28 43.58 42.69 43.87 45.53 40.88 42.94 44.13 45.33 44.33 44.12 43.96 44.19 43.63 43.03 42.33 42.12 42.01 42.28 41.75 42.32 41.62 43.20 41.92 40.79 40.37 40.77 42.26 41.20 39.24 40.14 41.47 39.78 38.55 38.66 38.79 38.58 38.77 38.94 38.71 39.32
51.83 48.71 47.24 46.59 46.20 40.66 48.90 45.65 47.25 47.35 47.87 45.80 44.12 41.09 42.60 44.62 46.08 41.02 40.38 41.23 43.92 45.30 44.26 44.46 43.83 42.90 41.41 40.00 39.60 41.14 40.52 41.11 40.94 42.05 42.36 41.08 39.67 38.30 38.24 37.60 38.21 38.65 39.24 40.03 39.72 38.05 37.16 36.71 37.08 37.17 37.20 37.33 37.68 37.87
42.59 42.76 45.75 38.19 46.85 45.58 46.42 45.10 44.33 43.81 42.22 43.67 43.04 41.67 40.23 45.57 39.97 37.61 39.92 41.81 43.83 42.96 43.47 43.70 43.16 41.18 37.13 37.18 37.68 38.84 39.56 38.94 38.05 37.79 39.28 39.51 37.97 37.36 35.90 35.44 35.50 35.61 36.40 35.41 35.09 35.11 34.39 34.99 35.17 35.85 36.93 36.98 36.93 36.32
39.75 46.62 41.78 45.06 43.58 43.71 44.64 42.44 43.31 45.15 45.24 43.22 43.10 44.18 45.36 42.39 38.52 36.24 38.72 41.42 42.16 42.55 43.62 43.60 41.72 37.22 36.56 36.87 35.77 35.78 35.16 36.47 37.97 36.50 36.54 37.41 36.68 34.47 33.15 32.43 32.93 34.26 35.80 35.29 34.95 34.90 35.02 35.06 35.46 36.16 36.02 35.94 36.03 35.55
40.88 44.10 46.09 48.18 46.66 45.59 44.65 45.81 46.45 42.83 41.39 41.39 44.66 42.69 41.40 37.76 35.84 38.25 42.03 43.92 43.08 47.13 47.06 45.27 40.90 37.81 36.27 35.76 36.07 35.78 36.15 37.10 34.43 33.43 34.73 35.40 35.62 35.73 34.53 32.86 32.05 33.28 35.76 37.09 36.15 35.63 34.65 34.91 34.86 35.11 34.45 34.31 34.41 34.75
45.83 45.61 43.29 46.23 46.21 48.26 44.81 42.45 42.25 40.34 41.24 43.15 43.11 39.65 38.25 37.67 36.24 41.15 43.29 45.52 46.23 46.69 45.09 40.40 39.56 38.82 37.69 36.82 36.25 35.27 34.70 35.19 35.44 34.14 33.87 33.98 34.32 34.83 34.81 35.05 35.36 37.78 35.79 35.72 35.87 35.45 34.88 34.72 34.45 34.80 34.43 32.96 32.48 33.89
46.80 47.73 47.75 45.18 45.93 46.38 45.07 42.99 41.84 42.19 42.93 42.55 40.68 38.97 39.54 42.93 44.31 44.11 44.96 45.08 41.16 39.97 38.34 37.21 37.01 37.68 37.17 38.32 37.11 35.66 34.37 32.74 31.34 29.57 28.78 27.93 29.10 31.28 34.07 34.39 34.73 35.12 35.16 36.30 37.09 37.25 37.05 35.29 34.80 34.31 34.32 32.87 32.52 32.61
48.08 49.82 47.37 47.33 44.93 43.38 44.87 45.59 44.14 44.72 44.13 43.75 43.99 43.36 43.27 43.86 45.91 46.91 43.43 41.97 39.21 37.34 36.92 37.47 36.63 36.29 34.38 34.09 33.08 32.67 33.02 32.83 31.72 29.90 27.68 27.47 28.69 31.66 33.12 33.24 33.37 33.65 33.94 34.58 33.80 33.60 36.46 34.78 34.38 33.39 33.13 31.79 31.06 30.81
51.57 50.53 48.11 47.11 45.97 46.69 47.47 48.14 47.61 46.97 46.10 44.40 44.99 43.20 42.69 44.31 45.45 45.40 43.70 41.25 39.16 38.04 37.51 36.33 35.91 35.91 35.10 34.18 33.27 31.37 29.55 31.80 32.75 32.77 32.31 31.41 31.72 32.27 32.85 33.14 33.21 33.19 33.35 33.66 33.04 32.65 32.46 31.98 31.55 31.71 31.83 31.65 32.10 31.63
49.42 46.83 45.85 46.02 45.77 48.90 48.76 46.96 47.67 47.11 45.54 44.68 43.70 45.00 44.67 44.53 42.57 44.09 44.20 41.63 38.89 36.99 39.07 37.36 35.34 34.59 35.18 35.37 35.42 34.91 35.59 33.06 32.85 32.94 32.28 32.20 32.09 32.74 32.45 32.52 32.85 33.68 33.55 33.66 34.36 33.04 33.14 32.22 31.46 31.61 31.28 31.90 31.82 31.85
47.63 48.07 48.25 48.27 46.67 47.60 48.95 48.59 47.88 45.76 45.20 44.46 45.22 46.32 45.71 43.01 39.87 41.85 42.84 41.90 39.47 37.82 37.05 37.44 37.75 37.31 36.73 36.62 36.48 35.68 36.24 34.32 34.77 35.43 35.00 34.72 34.49 32.94 30.98 31.66 32.83 33.91 33.49 33.20 33.32 33.45 32.94 32.56 31.55 32.02 31.94 32.17 32.07 32.71

GFSWCAN_sfc_wetblb_021.txt.gz
Wetbulb
51.95 51.90 51.68 51.83 51.84 52.05 52.09 51.80 51.84 51.82 51.46 51.50 51.80 51.81 51.79 51.55 51.45 46.28 42.92 44.31 41.17 38.64 38.24 39.81 38.77 36.53 36.52 35.81 32.14 32.61 33.70 34.75 33.18 30.91 31.31 30.34 29.65 31.96 31.79 35.92 35.56 37.36 36.32 35.44 35.37 34.83 33.00 53.60 53.75 48.52 51.21 56.10 55.48 56.16
51.57 51.63 51.75 51.93 51.98 52.00 52.14 52.06 52.22 52.24 51.94 51.74 51.74 51.78 51.64 51.55 51.55 50.05 43.62 45.10 46.25 41.68 39.80 42.31 42.30 42.66 41.13 39.99 37.61 37.48 34.81 33.81 38.51 33.77 34.29 33.86 34.10 34.43 31.77 30.04 39.96 35.40 41.72 39.15 41.76 40.60 52.03 54.03 53.53 57.59 58.42 56.48 57.44 58.07
51.15 51.07 51.32 51.52 51.54 51.73 51.85 52.01 52.12 52.26 52.30 51.96 51.63 51.76 51.76 51.86 51.55 50.03 44.05 43.08 42.76 40.27 38.64 38.64 37.76 42.29 43.85 43.31 44.38 36.55 39.69 40.60 39.35 42.30 37.49 36.04 31.57 38.02 33.86 33.99 37.00 43.21 48.03 43.11 46.25 49.98 52.62 54.52 55.55 57.55 58.05 57.14 58.17 58.90
50.84 50.97 51.30 51.38 51.55 51.53 51.75 51.89 52.05 52.01 51.96 52.46 51.86 51.71 51.78 51.92 52.30 51.42 45.04 42.88 42.67 41.00 35.13 35.06 42.55 38.67 43.12 43.09 42.79 42.74 41.13 41.62 42.53 43.13 38.69 35.89 34.26 39.79 33.85 38.67 40.24 43.25 46.38 45.82 47.43 50.30 53.93 55.09 54.48 55.25 55.88 56.92 57.33 57.32
50.92 51.07 51.23 51.33 51.38 51.49 51.67 51.72 51.70 51.82 52.09 52.53 52.42 52.15 52.01 51.94 51.97 49.80 45.71 45.44 45.78 40.00 34.89 35.53 40.48 41.19 41.57 42.87 42.38 41.70 40.43 39.25 39.49 37.74 37.31 35.15 39.87 37.59 38.45 40.95 41.04 47.26 44.42 43.84 45.68 50.59 50.94 51.49 53.39 54.12 54.64 54.36 55.13 56.13
50.75 50.80 50.88 51.08 51.05 51.17 51.42 51.56 51.75 51.77 52.20 52.46 52.72 52.51 52.38 52.05 51.82 44.39 38.05 42.80 46.33 46.45 39.71 34.09 37.18 39.06 40.67 43.15 43.74 41.80 40.10 38.95 39.31 36.84 35.53 38.66 42.95 40.74 33.20 36.38 46.03 46.78 49.46 51.58 50.67 52.33 51.88 53.17 53.88 54.95 53.27 54.13 55.72 55.71
50.70 50.67 50.73 50.89 51.12 51.09 51.28 51.22 51.46 51.70 51.89 52.22 52.62 52.50 52.46 51.91 49.34 42.55 39.48 44.39 49.01 47.55 39.46 34.52 34.83 40.91 45.44 44.08 38.24 37.44 40.24 38.18 37.37 37.00 36.22 39.49 41.88 42.97 37.90 37.72 45.94 46.51 49.61 53.07 53.47 52.66 50.72 52.62 51.38 52.93 53.29 54.84 55.54 56.73
50.60 50.76 50.70 51.04 51.19 51.21 51.19 51.29 51.35 51.65 52.00 52.34 52.44 52.57 52.27 51.85 50.74 46.72 49.23 49.93 48.93 43.67 41.50 35.15 34.43 38.25 46.39 42.07 38.80 42.96 36.55 37.56 40.68 39.87 42.66 41.36 42.28 42.50 38.11 44.70 46.31 50.93 52.79 52.21 52.27 52.94 52.29 53.24 54.38 53.68 53.04 53.09 52.39 53.65
50.61 50.77 50.73 50.89 50.83 51.01 50.99 51.15 51.35 51.63 51.85 52.08 52.52 52.15 49.28 46.62 44.58 45.53 51.24 50.69 48.22 43.33 36.45 36.83 33.89 34.18 45.03 42.76 44.28 43.15 43.74 38.04 43.60 40.00 41.08 41.61 38.15 37.01 42.46 45.19 47.79 50.21 50.73 50.77 51.75 51.59 51.80 51.52 51.96 52.68 52.07 50.68 50.42 50.94
50.59 50.44 50.46 50.61 50.59 50.68 50.78 50.97 51.36 51.57 51.53 51.45 47.46 44.66 41.53 45.78 51.29 51.72 47.86 43.51 41.87 41.87 40.70 34.44 39.46 35.82 41.49 42.91 41.15 40.61 42.52 38.53 34.26 38.48 43.58 37.64 37.54 44.69 48.62 49.61 50.30 50.60 51.46 52.14 49.60 48.86 49.94 50.42 50.96 50.91 51.99 52.90 52.40 51.11
50.26 50.32 50.32 50.51 50.49 50.58 50.60 50.97 51.35 51.36 49.45 44.37 40.96 40.66 44.13 50.96 48.65 45.33 39.22 35.91 37.93 34.38 37.29 37.58 38.51 36.92 45.02 39.33 40.79 44.10 40.02 39.22 33.92 40.05 38.14 36.23 35.82 42.58 47.89 49.91 51.29 51.51 51.51 51.29 51.06 51.37 51.77 51.70 51.69 51.03 52.15 52.98 53.27 53.42
50.33 50.27 50.27 50.46 50.48 50.53 50.70 50.86 51.08 48.25 44.68 45.14 46.53 48.21 44.23 44.57 42.96 37.69 36.43 36.47 32.85 33.46 39.00 39.69 42.01 43.97 45.49 46.76 42.64 42.22 37.89 39.33 34.41 43.54 37.46 32.84 38.63 45.66 49.17 50.35 51.34 51.77 52.41 52.66 52.31 51.42 52.42 53.56 53.62 53.70 53.73 54.34 54.96 55.10
50.30 50.37 50.39 50.47 50.48 50.78 50.88 51.32 51.41 51.16 49.52 46.42 43.12 42.65 41.95 41.63 38.74 32.85 32.13 37.92 39.44 40.51 41.84 43.00 43.32 44.99 46.40 46.06 42.45 40.94 40.49 39.48 44.24 35.64 31.76 35.48 41.61 48.07 49.58 50.76 51.39 52.52 52.86 53.43 53.68 54.48 54.36 52.74 53.91 54.53 54.18 54.74 54.74 54.31
50.39 50.55 50.54 50.55 50.26 50.99 51.56 51.26 51.33 49.67 46.26 42.83 39.98 36.70 39.86 38.69 41.31 41.89 43.15 43.66 46.13 45.81 45.92 44.32 45.84 44.41 45.72 42.84 44.11 40.68 41.78 41.02 35.65 32.84 33.94 43.44 47.16 48.76 49.82 50.60 50.28 50.13 51.52 51.98 52.37 52.90 52.91 52.94 52.23 52.95 53.81 53.93 52.68 52.42
50.57 50.57 50.33 49.86 51.23 51.32 51.07 51.04 51.55 47.84 46.21 42.95 43.85 36.48 40.31 44.71 45.93 45.51 46.53 45.83 47.20 46.60 46.39 44.91 44.46 43.56 40.64 39.84 41.77 40.40 37.94 34.06 35.82 37.16 43.23 46.67 48.40 49.23 49.05 49.15 47.22 45.90 45.93 45.74 46.91 47.17 47.80 48.39 48.50 49.32 50.93 50.76 50.46 49.91
50.66 49.86 48.49 50.54 51.05 50.83 50.50 49.96 49.88 48.78 45.56 45.68 44.22 42.35 44.33 43.44 42.93 43.88 44.27 44.07 47.76 48.00 45.87 44.31 40.75 39.38 39.99 40.49 38.23 36.75 35.31 34.47 39.63 44.19 46.58 48.13 48.37 48.66 48.36 48.86 46.04 45.22 44.35 44.36 45.17 45.42 45.54 45.83 46.01 46.43 47.33 47.80 48.82 49.71
50.19 45.25 50.04 50.57 50.52 50.47 50.46 48.82 48.29 46.40 46.57 45.87 44.17 45.20 44.10 43.64 42.94 43.59 44.32 44.02 47.86 46.67 42.69 42.81 38.73 39.61 42.88 39.22 38.35 41.89 39.64 42.61 45.22 46.42 47.01 48.63 47.50 48.32 49.24 48.33 47.22 44.86 43.92 44.31 43.71 43.83 44.46 45.50 45.90 44.66 43.86 45.24 46.36 48.23
44.98 46.69 49.88 50.15 50.14 48.12 48.57 48.78 47.47 47.20 44.60 44.07 40.98 42.88 42.93 44.35 43.67 44.47 45.11 45.72 43.60 41.96 43.89 42.70 44.39 39.50 38.89 38.14 39.43 43.83 45.42 46.94 47.66 47.25 47.82 48.77 48.18 46.76 47.01 44.81 43.70 43.13 42.14 42.00 42.39 42.67 42.53 42.97 42.05 40.71 41.89 45.28 46.23 46.79
47.03 48.40 50.24 50.92 50.08 46.55 47.93 46.97 47.41 44.02 44.60 43.68 44.51 43.61 43.62 43.93 45.71 46.25 46.66 46.81 45.83 43.16 40.43 39.08 37.54 36.65 37.72 41.13 42.37 43.59 44.45 45.38 45.93 47.21 44.58 44.16 46.78 45.98 43.94 42.80 41.86 41.16 40.76 40.45 40.33 41.02 41.54 41.56 41.24 41.72 43.09 44.19 42.83 42.99
50.48 51.38 52.04 52.41 50.69 46.33 44.82 43.78 46.83 43.80 41.56 43.26 44.50 42.97 42.40 42.05 43.38 44.97 45.27 45.59 42.81 41.12 38.07 36.11 38.86 40.64 41.34 41.36 40.54 42.00 42.46 44.29 44.00 42.50 39.94 40.52 42.62 42.32 40.94 41.09 40.47 40.47 40.20 39.58 39.31 39.78 39.78 40.01 40.70 41.92 42.24 41.97 41.05 40.39
49.81 51.88 52.58 50.90 49.76 48.20 45.74 43.40 43.25 43.41 43.22 43.50 44.82 43.34 42.04 42.87 42.01 41.63 42.32 43.45 41.43 40.15 39.23 40.87 41.40 40.80 40.98 41.33 41.99 40.35 40.13 40.03 38.22 38.75 41.07 39.48 40.17 42.32 40.44 39.58 39.69 39.55 38.32 37.26 35.96 36.12 36.75 35.47 37.05 38.54 39.92 41.72 41.53 40.81
48.29 52.15 49.38 51.66 48.59 47.44 45.76 46.13 44.55 45.47 44.97 45.10 44.32 43.27 40.73 40.31 40.12 41.19 41.35 39.89 39.36 42.92 43.89 41.11 40.16 40.34 38.37 37.93 37.57 37.19 37.42 40.32 40.32 40.54 40.08 39.56 38.18 38.34 38.16 38.18 37.32 36.78 36.88 35.98 35.39 34.38 34.32 34.16 35.58 36.40 36.67 36.96 41.15 39.13
50.17 50.10 49.55 49.76 46.05 41.35 42.89 47.73 44.85 47.08 44.83 44.81 45.10 41.98 41.77 41.25 41.67 41.98 38.96 42.05 42.65 43.38 42.54 43.50 41.63 39.86 37.84 38.60 38.25 38.10 37.56 38.30 38.15 38.21 37.35 35.89 35.41 34.90 37.04 38.14 38.38 37.30 35.70 35.74 34.39 33.61 33.52 35.86 35.88 35.45 35.99 37.64 38.02 37.03
50.64 47.53 46.11 44.74 44.63 40.65 47.08 44.00 45.29 44.82 44.46 41.31 39.69 37.16 41.11 44.70 43.93 38.69 36.62 39.93 41.63 42.45 41.39 40.86 39.02 36.65 35.81 35.52 33.76 33.83 34.88 34.92 35.99 36.16 35.49 34.47 33.42 32.55 32.67 32.89 33.56 33.62 33.48 33.31 33.13 32.64 33.37 34.06 35.51 35.87 36.18 35.36 35.02 33.78
41.43 42.56 43.49 36.40 43.59 42.83 43.52 43.00 42.61 42.10 40.54 41.12 39.38 39.90 39.13 43.10 37.10 36.05 34.89 38.53 40.33 41.04 41.41 41.12 36.50 35.02 33.37 32.30 31.99 32.46 33.46 33.27 32.51 32.17 32.65 32.85 32.10 31.98 32.02 32.16 32.04 32.14 32.72 32.67 31.71 32.43 32.35 33.06 33.75 34.42 34.45 34.06 33.31 32.66
38.62 44.25 40.04 42.16 41.66 41.99 41.92 40.77 41.27 41.60 41.47 41.28 42.41 41.83 43.39 38.81 36.22 34.09 36.34 39.40 40.73 41.38 43.95 40.43 35.22 33.29 32.47 31.86 30.57 30.52 31.21 31.73 31.76 31.56 31.25 31.41 31.77 31.08 29.95 29.82 30.15 31.50 32.87 32.17 32.37 32.84 33.28 33.30 33.52 33.25 32.94 33.74 34.92 33.53
37.86 41.82 43.77 45.65 44.53 43.65 42.06 42.89 42.84 39.96 39.23 39.73 42.16 40.09 38.23 34.80 32.98 36.43 39.79 41.33 43.91 46.21 38.45 36.98 35.87 34.20 32.44 31.00 31.49 31.85 31.26 30.87 31.64 31.50 30.92 30.81 31.14 31.06 31.31 30.25 29.89 31.30 32.74 34.13 33.64 33.38 32.95 33.02 32.76 32.31 31.73 31.59 31.98 32.41
44.07 44.13 42.04 43.78 43.90 45.32 42.84 40.15 39.70 38.50 39.03 40.32 40.67 37.71 36.24 36.03 34.00 38.88 41.34 43.36 42.40 41.52 35.73 34.93 34.53 34.41 33.14 32.42 31.87 31.42 31.19 30.68 31.33 30.93 30.66 31.06 30.98 31.23 31.57 32.09 32.85 36.04 33.71 33.87 33.53 33.67 33.42 32.92 32.71 32.57 32.15 30.89 30.46 31.71
44.86 44.99 45.47 43.17 44.85 44.23 43.23 41.27 40.24 40.55 40.92 41.05 38.90 37.65 38.29 40.88 42.27 42.41 42.85 41.39 36.06 36.39 36.27 34.20 32.87 33.41 32.60 31.90 31.38 30.53 29.97 29.30 28.99 27.31 26.29 25.77 27.43 29.32 30.85 31.44 31.72 32.15 31.87 32.42 35.91 35.65 34.83 33.52 32.79 32.35 32.25 30.72 30.26 30.46
47.00 46.99 44.60 45.82 43.36 41.84 43.40 43.30 42.32 42.78 41.60 42.23 41.95 41.32 41.34 41.97 43.66 44.33 40.67 36.76 35.67 37.67 35.49 34.30 33.02 32.35 30.74 29.88 29.06 29.20 29.85 29.00 28.72 28.09 26.45 26.24 27.54 29.10 30.05 30.84 31.11 30.93 30.68 31.60 31.35 31.48 35.06 32.99 32.75 31.67 31.44 30.30 29.47 29.56
48.01 46.88 45.76 44.73 43.76 45.16 46.29 47.15 47.73 47.10 44.90 42.56 42.86 41.41 40.76 42.07 43.48 41.77 37.49 35.94 35.37 34.91 34.66 33.43 32.47 31.91 31.57 30.44 29.32 28.59 27.93 30.11 29.77 30.33 29.65 28.97 28.72 29.72 30.51 30.68 30.65 30.85 31.05 31.31 30.96 30.60 30.46 30.32 30.08 30.33 30.61 30.23 30.84 31.25
45.57 45.35 44.90 43.60 43.77 45.72 45.80 44.21 44.02 44.34 43.63 41.97 41.86 43.88 42.79 42.48 40.76 42.08 39.46 36.68 35.51 34.54 36.12 34.45 32.88 32.34 32.90 33.11 32.71 32.15 34.16 31.26 31.01 31.38 31.10 30.56 30.30 30.37 30.03 29.96 30.52 31.78 31.84 32.09 31.68 31.37 31.75 31.33 30.61 30.93 30.80 30.70 30.80 31.25
44.35 44.93 45.38 45.27 44.46 44.01 45.28 45.25 44.68 45.08 42.78 42.08 42.93 44.09 43.81 42.61 40.12 39.95 39.38 37.78 36.61 35.50 34.78 34.55 34.40 33.84 34.13 34.12 33.62 32.72 33.84 32.01 33.20 34.57 34.76 34.66 34.21 32.51 29.87 29.58 30.80 32.29 32.08 32.10 32.77 32.69 32.48 32.18 31.22 31.34 30.96 31.06 30.97 31.06

GFSWCAN_sfc_wetblb_024.txt.gz
Wetbulb
51.63 51.54 51.52 51.77 51.85 51.98 52.23 52.23 52.41 52.47 52.06 51.97 52.23 52.11 52.36 52.19 52.01 47.19 44.64 45.48 43.21 38.48 38.04 39.29 40.15 36.51 35.92 35.24 30.96 35.11 33.07 34.50 35.88 31.77 29.93 30.46 26.60 29.65 28.27 30.90 31.06 29.21 29.68 29.39 30.62 30.29 29.75 51.56 52.93 50.60 51.94 56.19 56.68 57.56
51.36 51.40 51.30 51.46 51.76 51.94 51.98 52.09 52.06 52.29 52.41 52.47 52.16 52.27 52.35 52.62 52.18 50.70 43.55 43.73 46.43 41.36 39.59 42.06 41.86 42.25 40.99 39.54 37.05 37.53 35.61 34.79 33.77 32.80 32.05 32.15 29.55 32.44 31.50 27.36 36.07 30.43 35.95 34.05 34.04 34.77 43.98 52.99 53.23 55.56 57.22 55.14 56.48 56.80
51.12 51.18 51.31 51.46 51.68 51.72 51.80 51.92 52.00 52.23 52.47 52.78 52.33 52.47 52.62 52.89 52.33 51.15 45.47 45.64 43.73 40.43 37.23 36.64 36.88 41.40 43.28 42.96 43.44 35.49 38.58 39.27 38.80 41.15 37.06 35.54 31.72 34.19 29.84 34.04 35.05 37.94 40.38 38.09 38.84 44.14 46.10 53.26 54.96 55.69 56.01 55.88 57.45 58.05
50.99 51.08 51.19 51.29 51.45 51.45 51.71 51.79 51.92 52.10 52.25 52.48 52.47 52.66 53.05 53.01 52.64 52.10 46.43 45.71 44.59 40.82 33.69 33.60 42.30 39.53 43.47 43.04 42.54 42.41 39.83 39.90 41.65 42.03 36.93 34.67 34.27 38.38 35.01 36.21 34.81 36.63 37.72 38.64 39.94 43.49 51.29 53.44 52.65 53.49 55.18 56.72 56.88 57.45
50.68 50.94 51.02 51.14 51.16 51.45 51.82 51.82 51.98 52.03 52.17 52.63 52.46 52.54 52.89 53.09 52.75 51.27 47.95 46.26 47.13 39.07 33.07 35.05 40.92 40.07 40.39 40.63 41.36 41.50 39.98 38.29 38.26 37.71 37.23 35.63 38.73 37.86 38.12 36.63 33.56 38.35 37.25 37.15 39.76 45.26 48.85 50.54 52.20 54.65 54.00 54.34 56.23 56.85
50.39 50.55 50.74 51.01 51.23 51.42 51.56 51.74 51.89 51.83 51.93 52.28 52.71 52.85 52.83 52.98 52.51 46.69 39.58 44.34 47.42 46.11 38.39 34.32 38.91 39.00 41.41 41.01 40.12 39.25 39.64 39.17 38.57 37.45 36.55 38.60 42.32 37.69 32.70 33.13 39.60 46.33 47.45 48.24 45.80 49.65 50.96 52.36 53.90 53.98 54.22 55.38 57.11 56.80
50.70 50.77 50.81 51.04 51.18 51.28 51.32 51.32 51.60 51.60 51.89 52.31 52.47 52.72 52.70 52.40 49.30 43.14 40.92 45.02 47.73 47.12 39.46 34.51 35.85 40.59 42.89 43.23 38.46 40.16 40.72 39.52 38.69 38.08 36.70 36.99 38.90 39.72 35.74 31.97 38.97 43.37 46.69 48.27 49.16 52.21 51.04 52.42 51.53 53.77 53.84 54.90 56.72 57.56
50.61 50.71 50.67 50.81 51.13 51.14 51.24 51.20 51.36 51.40 51.94 52.29 52.28 52.67 52.76 52.02 50.47 46.59 49.09 49.54 48.61 43.88 40.99 33.55 35.07 37.94 41.89 38.76 37.97 39.18 36.67 37.73 37.64 38.15 40.75 39.56 41.21 40.86 32.34 37.53 40.29 43.47 45.82 47.75 52.19 53.77 53.18 53.89 53.01 52.56 53.05 53.56 53.61 53.65
50.51 50.67 50.65 50.67 50.73 50.96 51.02 51.19 51.30 51.45 51.86 52.09 52.20 51.98 49.18 47.77 45.67 45.83 51.45 51.56 49.05 42.62 35.16 35.54 33.55 33.43 43.80 42.62 42.41 41.24 42.28 37.82 43.51 39.43 39.79 39.69 34.65 32.28 37.67 41.24 46.97 49.00 48.35 50.70 51.91 52.98 52.94 51.73 51.68 52.72 52.77 52.32 52.69 53.13
50.35 50.32 50.43 50.54 50.66 50.87 50.83 51.05 51.26 51.50 51.42 51.17 45.73 42.90 41.04 45.20 51.49 51.21 46.70 42.52 40.99 41.57 40.23 34.82 38.64 35.16 40.48 42.09 41.51 40.23 42.16 38.45 34.85 36.92 42.61 34.44 33.94 40.11 46.22 49.63 50.29 50.40 51.27 52.37 49.78 49.27 50.63 50.07 50.96 51.94 52.15 52.84 53.06 53.25
50.15 50.34 50.49 50.58 50.82 50.94 50.88 51.04 51.31 51.34 49.13 43.65 40.73 39.67 44.98 49.40 48.94 45.38 38.61 35.76 36.22 33.94 35.28 36.21 37.35 35.81 43.61 38.36 40.35 41.51 38.94 38.51 33.07 38.84 37.34 34.72 35.42 42.76 48.50 50.24 51.68 52.25 51.98 52.00 52.08 52.22 52.40 52.17 51.99 52.05 52.65 53.40 53.98 54.97
50.11 49.74 49.75 50.65 50.84 50.89 50.97 51.03 51.30 49.62 44.75 46.53 46.70 48.50 46.15 44.57 43.04 38.66 37.54 35.84 33.25 33.97 38.81 38.20 41.15 40.79 43.42 45.13 41.96 42.39 37.32 38.73 33.41 42.19 35.94 32.16 41.30 47.42 48.48 49.41 51.08 52.75 53.47 53.55 53.79 52.91 53.13 53.42 54.67 54.12 54.00 53.95 54.19 55.22
49.28 49.33 50.36 50.62 50.84 51.14 51.21 51.30 51.22 51.23 49.29 46.78 42.96 41.08 43.37 43.65 37.93 36.31 33.97 39.56 41.12 42.10 42.57 42.53 42.15 45.36 46.23 45.85 42.40 41.94 39.27 37.52 42.85 35.02 31.03 38.24 45.71 46.79 46.15 46.92 46.49 48.09 49.76 51.05 51.30 52.31 52.80 52.84 53.17 52.89 52.51 53.46 55.02 55.52
49.19 50.35 50.56 50.65 50.81 51.53 51.26 51.20 51.45 49.34 45.76 41.58 40.48 37.39 40.69 38.20 40.62 41.71 41.30 42.50 45.38 45.33 44.64 44.35 44.55 42.83 43.41 40.73 42.96 39.79 40.99 40.18 35.44 31.95 34.68 42.40 44.63 45.19 45.28 45.46 45.35 45.52 45.93 46.41 47.34 47.86 48.26 48.24 47.93 49.39 49.20 50.54 53.12 52.58
50.17 50.56 50.59 50.20 50.96 51.13 51.33 51.11 51.43 47.33 45.76 42.06 42.54 36.50 40.36 44.14 44.60 44.76 45.26 44.02 45.51 46.31 44.98 43.12 42.42 42.23 41.36 41.02 41.87 39.82 37.63 33.40 34.50 36.51 40.97 44.08 45.53 45.15 44.03 44.00 43.47 44.10 44.44 44.52 45.34 45.42 45.95 47.32 46.58 46.66 48.67 48.95 48.09 47.65
50.65 49.83 47.91 50.36 50.79 51.02 50.69 49.92 49.63 47.27 46.16 45.01 43.03 40.82 42.97 41.37 40.85 42.10 41.90 41.08 44.83 47.09 45.39 44.17 41.77 39.85 40.54 40.80 38.57 36.93 34.36 34.52 39.94 43.85 46.34 47.15 46.55 46.76 45.41 43.37 42.62 43.19 43.15 43.37 43.71 44.29 45.13 44.96 45.49 46.20 47.02 46.97 46.26 45.71
50.16 45.39 49.88 50.21 50.81 50.70 50.51 48.24 47.03 46.64 44.93 43.70 41.97 42.07 40.92 41.06 40.18 41.15 41.95 41.18 43.12 44.40 41.63 42.82 39.61 38.75 42.67 38.88 38.69 41.65 39.66 42.31 44.34 44.02 46.09 46.58 44.15 43.33 42.62 41.35 41.11 41.46 41.07 41.86 42.27 42.68 43.25 44.75 45.35 44.56 43.98 45.01 45.02 44.65
44.85 46.19 50.19 50.41 50.35 48.03 49.25 46.65 46.36 45.70 42.52 41.93 39.54 41.76 41.72 41.56 41.57 42.53 43.19 44.27 39.68 37.37 41.24 39.87 41.54 37.24 36.34 34.98 35.87 39.84 42.39 44.56 45.47 42.21 42.35 44.50 42.27 41.15 40.77 39.28 39.82 39.67 39.69 40.09 40.82 41.35 41.51 41.94 41.55 41.88 42.91 43.65 43.58 43.50
46.87 48.53 50.30 51.05 50.98 46.47 46.08 46.00 46.07 42.43 42.31 41.69 42.36 41.91 41.33 41.77 43.14 43.31 44.10 44.57 43.96 40.18 38.18 38.05 35.50 35.06 36.10 39.41 39.56 39.61 40.87 41.97 41.19 41.12 40.34 41.16 41.04 40.90 39.86 39.50 38.79 37.82 37.34 36.97 37.62 38.30 39.95 40.27 41.25 41.51 42.00 42.23 40.76 41.20
50.34 50.87 51.63 52.04 50.30 45.46 43.90 43.64 45.70 43.11 40.50 42.07 42.11 41.09 40.41 40.45 41.53 42.82 43.53 42.89 41.25 39.36 36.39 34.41 35.97 38.15 38.99 39.88 40.66 39.80 40.44 41.06 42.51 39.01 38.68 39.99 40.78 39.89 37.98 38.54 37.38 37.26 36.91 36.99 37.37 38.01 37.91 38.74 39.40 40.85 41.03 39.91 38.72 37.95
49.36 51.04 51.98 50.69 49.18 46.73 44.32 42.16 42.54 42.24 42.11 40.70 42.93 41.48 40.38 41.61 41.05 40.39 40.11 40.92 38.94 37.48 36.60 39.33 39.18 37.72 37.60 38.28 37.22 35.64 37.25 37.31 36.02 35.82 35.41 37.19 39.24 39.39 38.38 38.89 39.02 38.44 37.37 36.69 35.20 35.09 35.53 34.53 35.52 37.86 39.85 38.11 37.65 37.64
47.26 51.42 48.65 50.66 47.54 46.01 44.88 45.03 43.76 44.15 43.52 43.11 45.43 44.86 39.92 38.84 38.60 39.25 40.02 38.59 37.79 39.04 39.14 38.14 38.01 37.84 36.35 35.85 35.43 35.01 36.41 38.03 36.75 35.81 36.69 35.80 35.69 35.54 34.89 35.79 35.91 34.81 34.59 34.09 34.05 33.69 34.12 34.37 36.19 38.06 38.77 37.39 37.42 37.04
49.87 49.27 48.51 48.61 44.89 40.37 41.11 46.19 43.54 43.68 40.51 41.50 41.45 39.52 39.98 39.42 40.10 40.34 37.32 38.29 38.71 40.78 39.66 38.91 38.09 36.53 34.58 35.09 35.53 35.13 34.97 35.37 34.47 34.14 33.93 33.06 33.10 32.97 34.00 34.41 34.94 34.22 33.17 32.82 33.22 33.09 33.54 35.58 36.96 36.98 36.93 36.21 35.57 34.89
49.87 46.81 45.17 43.78 43.16 39.35 45.37 42.56 43.99 42.84 42.15 39.58 38.66 36.26 38.97 41.59 40.26 37.42 35.12 37.41 39.89 40.38 39.08 37.45 36.29 34.02 33.86 33.93 31.96 31.68 32.42 32.94 32.88 32.74 32.40 32.84 32.35 31.99 32.42 33.01 33.63 33.63 33.19 33.16 33.57 33.82 34.46 35.26 35.93 35.77 35.39 34.77 34.32 33.63
41.26 42.20 41.78 34.42 41.82 42.08 41.84 41.42 40.94 40.69 39.13 39.68 38.22 38.35 38.57 39.82 36.01 34.75 34.61 37.31 39.53 40.37 40.26 36.58 34.81 33.65 31.90 31.40 31.19 31.36 32.00 31.99 31.22 30.89 30.95 31.84 32.12 32.60 32.68 32.92 32.79 32.92 33.39 33.64 33.23 34.21 34.11 34.67 35.02 35.45 35.11 34.17 33.68 33.33
37.01 42.33 39.10 40.32 39.77 40.42 40.24 39.16 39.69 40.40 40.54 39.93 40.13 40.52 40.36 37.54 34.73 33.17 35.37 38.23 39.63 40.84 40.46 39.63 34.47 31.96 31.28 31.02 30.35 30.82 31.35 30.97 31.47 31.15 31.15 30.25 31.37 31.47 30.89 30.80 30.82 32.49 34.04 33.77 34.04 34.87 34.51 34.47 34.43 34.33 34.26 34.70 34.51 33.89
36.88 40.41 42.34 43.84 43.04 42.42 40.48 41.06 41.19 38.74 38.54 38.27 39.77 38.85 37.33 32.91 31.80 34.91 38.64 39.90 41.00 43.07 39.46 38.06 35.60 33.50 31.91 30.59 31.01 31.42 30.94 30.71 31.85 31.91 31.28 30.87 31.38 31.37 31.78 31.16 30.89 32.08 33.45 34.49 35.20 35.73 34.66 34.17 33.83 33.52 33.25 33.46 33.85 33.68
42.93 42.95 41.39 42.55 43.07 43.80 41.87 38.88 38.68 37.33 37.88 39.25 39.03 36.86 35.63 34.93 33.37 37.64 40.30 42.23 41.22 39.25 34.25 33.59 33.79 33.47 32.05 32.10 31.81 31.87 31.89 30.93 31.54 31.09 30.91 32.06 31.89 31.84 32.16 32.72 32.98 34.97 34.34 35.47 35.42 35.82 35.38 34.84 34.24 33.78 33.46 32.82 32.95 33.59
43.85 43.97 44.00 41.96 43.91 43.23 43.18 40.16 39.09 39.54 40.25 40.67 38.73 36.61 37.96 39.82 41.07 41.51 42.54 40.79 35.93 37.03 36.18 33.61 32.25 32.23 31.48 31.02 30.97 30.44 30.60 30.35 30.88 28.86 28.20 28.07 29.04 31.08 32.01 32.44 33.02 32.95 33.09 34.18 35.11 36.22 36.18 34.76 34.74 34.23 33.55 33.21 33.06 33.70
46.13 45.72 43.26 44.02 42.70 41.44 42.92 42.64 40.70 41.34 41.33 42.16 41.84 41.38 41.60 42.31 43.34 44.04 40.51 35.78 35.75 38.60 37.41 34.72 32.81 32.62 31.39 31.06 30.57 31.46 31.46 30.71 30.36 30.28 28.91 28.97 30.09 31.21 31.36 32.16 32.46 32.38 32.34 33.81 33.50 34.26 35.08 34.89 34.44 34.63 34.03 33.65 33.85 34.18
46.71 45.77 44.53 44.13 43.51 44.07 45.09 45.54 45.82 47.06 45.66 43.36 43.16 41.23 40.82 42.95 44.09 41.53 38.37 36.23 35.50 34.82 34.12 33.29 32.66 32.66 32.14 31.39 30.43 30.51 30.18 31.94 31.56 32.93 32.44 31.48 31.17 31.49 32.35 32.36 32.55 33.18 33.71 33.86 33.59 33.40 33.40 33.18 33.10 33.19 33.33 33.05 33.62 33.54
45.68 45.01 44.36 42.61 43.02 44.80 45.07 43.54 43.47 44.02 44.38 42.70 42.83 43.78 43.67 42.91 41.65 42.94 39.07 36.51 35.64 34.89 36.14 34.71 33.63 33.32 33.79 33.86 33.58 32.80 34.17 32.91 32.80 33.46 34.80 32.61 32.87 33.09 32.41 32.24 32.68 34.08 34.48 34.44 34.24 33.92 33.81 33.25 33.03 33.22 33.03 32.97 33.20 33.24
43.91 43.39 44.20 44.71 43.25 42.70 43.79 44.12 42.63 42.76 42.15 40.77 41.55 43.24 44.53 43.94 41.41 43.55 40.48 38.96 38.41 37.38 35.77 35.30 35.45 35.49 35.88 36.88 35.57 34.69 34.30 34.02 34.52 34.13 34.22 34.33 34.22 33.77 33.06 32.47 33.34 34.70 34.57 34.60 34.46 34.56 33.87 33.68 33.27 33.33 33.21 32.95 32.91 33.27

GFSWCAN_sfc_wetblb_030.txt.gz
Wetbulb
51.88 52.02 52.06 51.97 52.07 52.16 52.16 52.40 52.45 52.61 52.80 52.48 52.75 52.80 53.11 53.40 53.29 51.66 48.17 49.33 44.90 39.72 41.10 43.47 43.74 39.62 39.39 37.76 33.99 37.76 37.77 40.39 37.05 33.68 34.78 35.57 34.88 37.67 36.44 38.54 37.99 38.20 36.14 36.30 37.59 35.93 34.20 48.15 48.58 45.81 54.20 58.19 59.27 60.40
51.66 51.66 51.66 51.74 51.87 51.93 52.18 52.22 52.49 52.55 52.76 52.73 52.52 52.79 53.21 53.62 53.42 53.11 47.77 48.51 48.90 43.22 42.01 47.07 47.83 48.03 45.23 43.89 39.58 39.01 37.19 38.05 41.66 38.02 38.45 38.04 36.12 38.28 37.32 33.54 42.62 35.81 40.31 39.22 40.00 40.04 47.90 50.31 49.31 52.85 54.46 53.71 56.03 59.72
51.12 51.04 51.25 51.52 51.62 51.93 52.06 52.39 52.43 52.53 52.72 52.44 52.50 52.73 53.06 53.56 53.52 52.97 49.22 46.83 45.74 41.72 40.81 42.67 44.85 48.94 50.34 48.87 48.63 37.70 39.69 40.94 40.48 43.95 40.64 39.26 35.02 39.34 34.75 36.98 38.87 42.09 45.78 41.46 41.59 43.93 46.56 49.03 51.13 52.26 52.64 53.05 55.49 56.62
50.90 51.27 51.38 51.67 51.71 51.80 51.98 52.19 52.23 52.41 52.46 52.09 52.32 52.86 53.13 53.58 53.54 53.19 49.54 47.10 46.86 42.70 36.51 41.89 48.80 45.97 50.39 49.68 47.98 47.46 44.84 44.92 43.60 43.90 38.54 36.96 35.71 42.36 38.24 40.41 38.66 43.19 43.67 42.17 42.60 46.03 47.24 47.60 48.87 50.48 51.98 53.08 53.17 54.98
50.96 51.33 51.47 51.47 51.67 51.72 52.07 51.98 52.02 52.10 51.68 51.91 52.33 52.97 53.13 53.15 53.20 53.57 52.91 48.96 49.39 43.11 37.75 39.82 45.84 48.55 48.58 47.90 46.59 46.57 44.65 42.04 40.15 38.28 36.92 35.23 38.68 38.54 40.95 39.82 39.03 43.94 42.63 40.50 39.85 46.72 46.91 47.73 50.52 51.90 51.08 53.34 54.60 57.18
51.11 51.07 51.16 51.26 51.35 51.41 51.68 51.80 51.50 51.50 51.54 52.00 52.56 52.74 52.92 52.66 52.61 51.99 46.34 49.74 49.93 47.71 39.90 36.63 46.95 45.10 47.04 46.46 44.95 43.94 44.14 41.93 40.88 37.50 36.61 38.10 41.37 37.96 34.63 35.49 42.87 45.49 46.38 47.02 45.51 48.77 48.70 50.47 51.78 52.27 53.12 55.08 56.80 58.86
51.01 50.79 50.88 51.11 50.86 51.01 51.19 51.55 51.48 51.74 51.87 52.12 52.84 53.00 53.14 52.37 52.40 47.33 45.46 48.70 49.75 49.41 40.03 36.54 39.38 47.09 46.62 46.10 43.71 42.39 43.15 41.81 40.19 37.12 35.29 36.26 37.64 38.70 34.44 31.39 38.19 41.38 43.73 45.05 47.80 47.57 45.22 48.73 46.03 52.74 53.80 56.46 58.08 60.87
50.52 50.76 50.57 50.84 50.64 51.23 51.02 50.80 51.34 51.62 51.93 52.38 52.49 52.99 52.43 51.54 50.10 48.34 51.15 49.42 50.23 45.11 42.05 36.24 37.68 41.85 46.72 42.31 41.76 44.77 39.64 39.11 38.31 35.93 36.89 35.64 36.40 35.93 31.91 37.00 40.03 41.29 41.79 42.06 43.34 45.56 46.03 47.34 51.32 52.83 56.22 56.89 58.43 58.91
50.30 50.44 50.15 50.34 50.36 50.66 50.35 51.23 51.38 51.96 52.40 52.23 52.79 52.54 53.44 50.88 47.53 49.11 51.38 50.43 50.60 44.56 37.06 35.87 34.88 34.97 44.53 42.24 44.23 42.15 41.02 34.85 40.40 34.79 34.40 36.15 34.26 32.09 33.72 40.64 44.96 49.77 49.20 42.61 43.76 44.02 46.06 47.88 48.80 51.44 54.98 57.85 55.91 57.39
50.42 49.81 49.84 49.79 49.94 50.34 50.78 51.58 52.01 52.46 52.08 51.97 51.92 51.21 48.02 49.37 52.65 50.66 46.60 43.16 43.13 42.95 41.07 35.45 37.77 35.03 40.01 41.41 41.33 41.20 41.99 36.89 34.99 37.36 42.04 33.54 32.99 40.43 42.29 45.72 47.59 48.62 48.93 49.45 46.66 47.10 48.28 47.79 50.68 53.51 54.70 55.68 57.55 57.79
50.27 49.86 49.98 50.23 50.31 51.06 51.58 51.88 52.11 51.82 50.75 54.12 53.15 49.87 52.13 51.83 48.74 46.76 40.43 38.43 38.09 36.20 38.46 38.27 38.73 37.46 43.74 38.47 39.75 43.40 38.73 38.65 37.35 41.25 39.64 36.36 34.58 40.55 43.53 45.19 47.06 48.20 48.80 49.62 53.14 52.98 52.76 50.98 54.42 54.07 54.15 57.51 56.90 57.20
49.98 49.91 50.14 50.00 51.03 51.62 51.91 51.75 51.69 55.34 54.10 51.41 51.29 51.38 52.76 50.47 49.53 43.99 41.20 41.22 38.60 38.65 45.77 40.86 44.12 42.83 43.76 45.11 42.40 45.14 41.92 43.26 38.05 46.56 39.99 32.98 39.18 43.46 43.38 44.12 46.17 47.78 48.99 48.33 48.72 48.93 49.04 49.21 50.29 50.36 51.14 51.66 53.91 54.14
49.67 49.98 50.15 50.81 51.34 51.74 52.01 52.07 51.50 51.42 51.68 51.89 51.09 49.45 48.27 46.10 37.68 35.67 33.54 38.61 40.29 46.60 48.35 47.79 46.67 49.60 50.16 49.79 48.51 47.15 42.51 40.36 47.37 39.20 32.81 39.72 45.04 45.01 45.21 45.63 46.12 47.33 49.15 49.38 47.72 47.91 48.12 47.95 48.47 49.18 49.44 50.65 51.45 51.66
50.07 50.42 50.83 51.15 51.43 51.88 52.18 51.92 51.78 52.34 55.49 49.63 46.21 38.68 42.97 39.33 39.60 41.01 42.27 42.99 47.18 48.76 49.12 50.16 48.58 47.30 48.38 45.94 45.02 40.66 43.37 44.96 38.14 32.99 33.99 42.82 44.50 45.61 46.10 47.02 47.46 46.60 48.25 48.52 47.49 47.38 47.83 47.67 47.61 48.26 49.00 49.36 49.40 50.66
50.87 50.84 50.84 52.19 51.51 51.95 52.00 51.58 51.94 58.90 54.58 48.68 47.13 40.19 43.26 45.68 47.67 47.83 48.96 49.35 50.54 51.24 52.11 50.94 50.89 49.62 46.41 44.14 44.37 41.95 40.19 36.77 36.58 36.50 42.12 45.47 46.77 46.46 45.42 45.92 47.31 47.20 47.78 48.09 49.04 49.40 48.31 48.20 47.84 48.05 49.79 49.69 49.33 49.35
50.97 51.32 55.30 51.09 51.37 51.66 51.45 55.91 58.44 57.93 54.25 49.98 47.91 45.17 47.42 46.34 46.29 47.69 47.87 47.75 51.04 52.23 54.40 52.22 47.20 44.20 42.99 42.33 37.93 35.42 36.20 33.51 38.77 42.39 44.34 46.37 46.53 47.38 47.23 47.18 47.53 47.57 48.40 48.55 49.26 48.87 48.51 48.95 48.74 48.50 48.67 47.83 47.46 48.41
50.35 57.35 51.09 51.36 51.16 51.65 52.67 58.62 56.86 52.02 49.72 47.72 46.74 49.39 47.77 47.46 46.74 47.38 48.20 48.14 52.31 49.81 46.98 47.13 39.74 38.78 45.04 39.91 37.12 38.13 35.82 37.95 42.09 44.17 44.83 46.33 45.00 46.66 47.69 47.44 48.06 48.90 48.82 49.44 49.52 50.60 50.43 50.62 50.48 49.82 48.43 48.46 47.85 47.93
56.58 56.85 52.69 51.46 52.15 56.59 59.62 57.78 54.03 50.49 46.20 49.32 47.10 48.16 48.80 48.65 47.61 48.09 48.85 49.26 49.22 48.30 46.97 42.88 45.49 40.11 37.56 35.06 37.57 42.15 44.47 45.78 48.02 45.52 44.04 45.99 46.55 48.12 48.20 47.12 46.68 46.95 47.38 47.66 49.16 49.46 49.58 49.01 48.88 48.46 49.31 49.89 49.05 48.04
54.05 53.50 51.49 51.20 53.08 56.35 55.24 54.58 55.27 48.16 49.34 51.72 52.78 51.51 50.47 49.15 49.73 50.05 49.78 49.97 49.75 49.91 48.73 45.30 40.95 38.22 39.54 42.16 42.35 44.19 45.33 46.08 46.12 46.36 44.51 46.66 47.63 47.60 47.94 47.31 47.04 46.39 46.14 46.41 45.41 47.05 48.01 48.31 47.39 47.82 48.69 47.97 46.43 46.80
50.96 50.98 51.59 52.69 53.30 57.25 51.89 53.82 57.31 51.78 49.96 50.76 52.78 51.50 51.13 49.38 49.33 49.32 48.96 48.53 47.62 46.39 43.70 41.69 41.32 42.74 42.84 43.80 44.86 44.67 45.35 46.87 46.51 44.25 44.45 44.47 46.25 47.09 46.61 46.30 45.35 45.95 45.31 45.45 45.39 42.38 46.15 46.79 47.10 46.27 45.88 45.64 45.41 44.60
53.62 56.88 54.64 56.92 60.36 58.25 56.03 55.25 53.43 53.23 53.53 51.60 54.22 53.07 51.63 52.97 48.82 47.32 46.98 49.02 45.69 44.16 42.43 44.98 45.13 45.60 47.55 47.37 46.73 46.26 45.63 45.60 44.26 44.12 43.55 43.33 46.10 46.18 45.54 45.64 45.82 44.85 43.77 43.43 43.39 43.80 44.04 44.97 45.52 46.25 45.81 45.53 45.75 45.29
58.27 52.77 59.30 60.00 57.45 55.76 56.26 56.87 54.81 55.71 53.62 52.96 53.48 53.16 50.88 48.41 47.56 46.93 49.51 46.26 44.80 46.07 46.89 46.32 46.13 46.19 46.15 45.78 45.84 46.46 46.32 46.29 45.98 44.59 43.25 43.71 43.43 43.56 43.58 43.81 43.38 42.66 42.99 43.25 44.17 44.19 44.42 44.98 45.55 45.53 45.25 44.95 44.48 43.71
54.03 56.03 58.95 57.45 53.38 49.40 49.17 57.73 52.55 53.25 48.91 50.69 52.95 48.82 49.80 50.43 50.06 51.24 46.65 48.08 47.20 49.41 50.06 49.27 48.93 48.18 46.49 47.35 47.16 46.01 45.75 44.80 43.36 43.34 43.29 43.78 45.49 44.88 44.07 43.98 43.54 42.21 41.95 42.85 44.53 44.50 43.92 40.60 43.19 43.95 44.37 43.88 43.46 43.01
51.11 55.99 52.90 52.29 52.50 47.14 54.72 52.30 55.17 53.50 52.83 50.77 49.34 45.81 47.99 49.80 51.92 48.23 43.88 46.84 48.37 51.38 49.99 49.77 48.99 46.66 46.94 46.43 44.77 43.96 43.94 44.42 43.56 43.64 43.40 42.63 42.25 42.93 43.88 43.60 43.90 43.95 43.43 44.28 43.90 43.76 43.68 43.31 40.75 43.00 42.79 42.36 41.97 41.53
47.99 47.30 50.33 40.29 52.83 50.00 47.75 48.45 48.99 49.50 46.39 48.47 46.67 46.94 49.66 51.29 46.20 44.02 42.47 46.54 48.44 48.17 49.65 50.28 49.41 47.48 44.19 44.39 45.73 44.70 45.20 43.83 42.12 41.45 42.83 42.38 42.21 42.46 42.67 43.19 43.67 43.76 44.10 42.90 42.41 42.74 42.67 43.03 42.91 42.49 42.00 40.97 40.44 40.27
41.82 50.24 45.75 49.89 50.90 48.35 49.22 43.96 44.72 45.25 47.24 46.34 48.04 51.82 51.68 47.57 40.65 39.26 45.05 48.01 49.16 49.51 48.93 47.92 46.65 45.58 45.57 45.24 43.43 43.50 43.18 44.19 43.45 41.73 41.99 42.12 41.66 40.86 40.24 39.97 40.19 41.68 43.49 43.43 42.76 42.19 42.05 42.14 41.99 41.17 40.87 39.56 36.41 39.61
44.00 48.45 53.73 56.20 54.76 53.51 51.35 51.32 51.36 47.83 44.91 44.79 48.77 47.44 46.42 39.93 39.74 44.93 48.89 50.35 50.00 51.09 51.31 50.30 48.73 46.70 45.13 45.08 45.78 46.28 45.39 44.31 42.74 41.83 43.07 42.96 42.81 42.54 41.25 39.63 38.89 41.09 43.23 43.79 43.86 42.84 41.90 41.65 41.10 40.64 40.68 41.57 41.14 40.91
53.70 53.51 49.71 52.80 52.83 54.23 49.35 49.57 46.08 43.98 46.37 51.04 49.91 43.74 42.40 42.59 44.97 49.41 51.27 52.05 52.87 52.64 49.73 48.05 48.40 48.01 47.25 46.19 46.71 46.48 46.14 45.76 43.52 44.12 43.18 43.30 45.03 43.51 42.63 42.87 43.07 36.62 41.93 42.94 42.27 43.17 42.49 41.99 41.13 40.97 40.55 40.49 41.07 42.05
53.24 55.30 54.04 51.20 51.82 52.19 51.80 50.17 49.37 51.29 52.71 50.58 48.14 47.71 47.71 51.99 53.21 52.45 52.17 52.39 53.11 50.44 47.02 45.42 45.22 46.10 46.15 46.38 46.64 46.29 45.40 43.82 41.36 38.65 37.52 39.29 39.97 40.50 42.76 42.67 42.78 43.14 43.26 43.37 33.91 37.30 40.73 40.56 40.77 40.78 41.14 41.12 41.34 40.92
53.91 55.77 52.56 51.18 49.82 49.98 53.68 54.93 54.07 55.03 54.47 53.25 53.53 52.09 51.78 53.03 54.69 55.66 53.22 50.07 48.44 47.90 49.27 47.88 46.10 45.42 47.07 46.16 44.95 44.37 45.72 45.54 43.87 41.21 39.04 38.53 39.61 42.16 42.58 42.21 42.15 42.58 42.98 42.95 42.62 41.59 35.92 39.49 39.35 40.66 39.96 40.26 40.66 39.34
57.87 55.82 52.94 53.24 51.83 54.76 56.09 57.49 55.91 54.86 53.94 52.78 53.26 50.76 51.47 54.13 54.39 55.51 53.77 52.95 51.35 50.97 47.25 45.86 46.33 48.15 47.45 46.14 43.87 42.31 42.83 44.00 43.83 43.33 42.67 43.40 43.72 43.00 42.55 42.61 42.98 43.11 42.83 42.20 41.28 40.20 39.65 39.13 38.68 38.16 38.18 38.00 37.72 37.98
55.71 53.48 53.09 50.81 52.20 56.80 56.10 54.47 54.66 53.52 54.32 52.55 52.48 53.71 53.64 52.58 50.61 53.04 50.83 49.84 49.60 48.04 43.47 47.57 48.44 45.41 45.94 45.72 45.26 45.11 33.36 44.84 44.82 45.55 42.92 43.85 43.11 43.14 43.11 42.94 43.03 42.20 41.22 40.29 40.02 39.49 39.10 38.21 37.33 37.19 36.96 36.94 37.26 37.55
53.76 53.96 53.72 52.53 52.76 51.83 54.42 53.07 52.33 51.35 52.34 52.14 52.81 53.12 53.17 51.58 48.95 51.26 49.65 49.09 48.41 49.00 48.53 48.10 47.29 46.89 46.15 45.14 44.69 44.41 39.18 46.15 40.55 35.01 36.19 34.25 33.08 35.95 40.82 42.69 42.38 41.82 40.42 39.63 39.73 39.03 38.28 37.53 37.13 36.93 37.01 36.98 36.60 37.15

GFSWCAN_sfc_wetblb_033.txt.gz
Wetbulb
52.11 52.02 52.06 51.95 52.12 52.24 52.41 52.54 52.74 53.01 53.28 52.91 52.66 53.18 53.51 53.66 53.90 52.41 50.26 51.06 45.53 40.21 40.96 44.04 44.64 41.41 41.35 41.32 36.88 40.76 40.52 42.84 39.94 36.97 36.45 36.47 37.16 38.80 38.39 41.00 40.77 40.56 39.02 39.00 41.22 39.46 38.42 52.31 51.13 49.34 54.74 58.72 58.39 59.43
51.63 51.73 51.71 51.92 52.08 52.15 52.33 52.48 52.54 52.48 52.35 52.16 52.78 53.11 53.26 53.46 53.83 53.16 48.89 51.13 50.24 43.64 42.69 49.17 49.07 49.06 47.76 46.40 42.12 40.90 40.85 40.65 44.63 39.00 40.49 39.95 37.45 39.75 38.89 35.61 44.23 37.93 42.57 41.99 42.89 43.11 50.84 52.55 52.04 54.15 54.20 53.81 55.24 56.31
51.34 51.38 51.67 51.78 52.03 52.03 52.15 52.40 52.48 51.77 51.89 52.43 52.66 53.15 53.18 53.57 53.49 53.09 50.91 48.76 46.90 42.12 41.86 42.53 45.30 49.91 51.07 49.86 49.95 39.36 41.81 43.00 41.50 45.03 41.24 39.54 36.32 41.47 35.74 37.93 40.90 44.47 47.33 42.67 43.45 46.66 48.39 49.94 51.87 52.89 53.86 53.61 54.71 55.62
51.29 51.54 51.72 51.86 51.86 51.88 52.05 52.13 52.00 52.28 52.61 52.48 52.95 53.01 53.34 53.55 53.71 53.40 48.32 48.82 47.82 43.82 37.21 42.25 50.50 47.35 50.47 50.81 49.24 47.98 45.40 45.67 44.73 43.28 40.87 39.01 36.73 43.77 39.70 40.98 40.79 44.12 45.43 43.45 44.02 46.50 48.89 49.93 51.18 51.85 52.46 53.68 53.52 54.10
51.28 51.56 51.62 51.54 51.58 51.39 52.02 52.33 52.39 52.43 52.24 52.38 52.66 53.20 53.47 53.49 53.31 54.89 52.82 49.56 50.49 44.90 39.23 41.64 47.02 49.52 50.03 49.28 48.28 47.89 45.84 44.71 42.89 39.18 38.16 35.66 39.31 38.75 40.93 42.12 40.57 45.37 43.35 41.31 41.10 48.12 48.12 49.49 52.07 53.74 52.30 51.71 52.72 53.60
51.05 51.19 51.17 51.19 51.39 51.60 51.94 51.94 51.91 51.83 51.85 52.42 52.85 53.04 53.18 52.60 52.18 53.69 46.93 51.39 52.95 49.57 41.43 37.74 48.52 46.23 47.63 47.66 46.17 45.29 45.65 44.48 42.37 38.01 37.29 38.90 41.60 38.59 34.32 35.05 42.56 44.35 45.71 46.26 45.16 49.29 49.94 50.58 52.10 53.21 52.57 52.85 53.97 54.90
50.83 50.96 50.65 51.31 51.50 51.49 51.24 51.14 51.53 51.56 51.98 52.78 52.98 53.41 52.93 53.18 54.12 48.92 47.01 50.41 50.77 49.94 41.82 37.70 40.93 46.92 47.38 46.21 45.16 44.01 44.70 42.66 40.51 35.87 34.65 36.42 37.66 38.37 35.22 33.56 40.27 40.84 42.40 43.76 46.59 46.40 46.01 48.88 48.70 52.66 53.45 53.88 53.83 54.63
50.73 50.90 50.99 50.92 50.85 51.40 50.83 50.97 51.55 51.91 52.29 52.88 52.94 52.96 52.25 50.49 50.10 50.15 52.28 50.55 51.55 46.26 43.15 36.71 38.58 41.97 46.03 41.66 41.64 43.98 39.44 39.15 38.16 36.47 36.27 35.17 36.47 35.90 31.96 38.14 38.69 41.99 47.12 46.64 42.66 44.47 46.64 49.98 49.23 51.06 52.79 53.36 52.38 54.11
50.67 50.78 50.67 50.28 50.97 50.99 51.17 51.62 52.08 52.57 52.77 52.32 52.94 52.86 54.91 53.44 49.41 50.14 50.86 50.46 50.94 45.41 37.38 36.94 35.47 36.19 44.56 42.93 44.80 42.32 39.90 36.21 40.42 35.39 35.57 34.98 33.77 31.96 33.59 40.10 44.38 47.86 49.06 47.51 47.51 44.57 44.97 45.32 47.96 50.18 50.02 50.04 52.28 55.36
50.72 50.25 50.52 50.60 50.66 50.81 51.17 51.87 52.60 52.57 51.97 52.48 53.43 51.49 48.54 51.57 52.45 50.90 48.38 45.93 44.47 43.67 41.95 37.17 39.77 37.61 41.39 42.58 41.90 42.19 42.21 39.80 35.21 40.93 42.04 36.28 32.50 41.88 43.87 45.50 46.38 48.02 52.21 50.61 44.79 43.21 44.59 45.06 47.39 48.76 50.64 52.25 52.67 56.48
50.83 50.63 50.68 50.69 50.90 51.19 51.92 52.34 52.45 52.28 52.17 55.00 53.82 51.94 54.44 53.01 49.76 49.90 48.35 42.24 42.80 41.66 46.98 44.43 40.51 40.50 45.73 40.44 41.51 45.32 42.50 40.81 38.74 41.77 39.92 37.97 35.54 40.93 45.18 46.08 47.60 48.59 48.78 49.17 49.26 50.97 52.19 51.78 51.44 51.06 51.15 53.81 55.83 58.22
51.03 50.82 50.68 50.97 51.32 51.90 52.31 52.42 52.13 54.07 57.22 53.32 54.89 56.48 55.42 50.55 50.49 47.03 44.34 44.65 43.38 43.33 50.17 48.46 48.50 45.40 47.66 47.22 44.38 49.01 45.74 46.12 38.65 45.55 40.58 33.77 40.37 45.25 45.26 46.79 47.59 48.64 49.08 48.94 49.80 49.25 49.72 50.27 51.26 51.10 51.11 51.73 52.34 52.45
51.08 51.06 51.06 51.26 51.77 52.15 52.33 52.28 51.85 51.67 52.18 56.71 55.05 52.36 50.79 49.02 42.49 39.57 35.57 40.55 42.15 46.76 49.13 48.98 50.87 52.59 52.47 50.08 50.69 48.56 43.33 42.43 47.57 40.72 33.05 39.70 45.21 46.48 47.71 48.20 48.09 49.02 49.04 49.32 49.46 50.33 50.10 49.79 50.26 49.75 49.99 50.27 50.44 50.39
50.92 51.11 51.24 51.40 51.91 52.32 52.34 52.18 52.47 53.04 55.84 53.14 48.80 40.29 46.07 44.29 45.59 45.14 44.89 46.32 50.66 50.72 50.80 51.11 51.77 51.57 51.76 48.59 48.66 42.82 46.48 45.67 39.38 34.13 35.29 43.92 46.41 47.43 48.83 49.52 49.04 48.15 49.55 49.04 48.20 49.58 49.26 49.44 48.82 49.05 49.27 50.39 50.06 49.48
51.06 51.12 51.24 53.20 52.20 52.48 52.33 52.29 52.57 57.83 56.55 50.79 50.43 42.82 45.86 49.64 50.72 50.52 51.72 51.27 52.94 54.19 52.81 51.25 50.96 51.20 48.75 45.08 46.13 42.98 41.12 37.12 38.36 36.69 41.14 44.13 47.87 48.28 48.21 48.74 48.40 48.99 49.94 49.85 49.87 49.37 49.85 49.00 47.75 47.43 49.35 49.69 48.74 48.07
51.36 51.05 56.88 52.25 51.91 52.07 51.93 57.09 59.20 59.88 56.13 52.96 50.38 47.49 49.28 48.09 48.04 49.11 49.58 49.29 52.79 53.48 54.15 52.16 48.39 46.66 44.78 45.00 40.34 36.82 36.36 33.92 37.24 41.94 44.47 46.70 47.74 49.18 49.66 49.18 49.17 49.39 50.03 50.51 50.32 50.52 50.00 50.21 50.18 49.60 49.64 49.26 48.50 48.20
50.21 60.39 52.20 52.03 51.78 51.83 53.12 60.40 59.33 53.71 52.49 49.53 49.46 51.16 49.47 48.67 48.07 48.96 50.01 49.87 53.64 51.58 48.22 49.08 42.24 40.85 45.20 40.60 38.66 42.65 40.03 42.40 43.95 45.78 46.56 48.36 49.04 49.15 49.94 49.50 49.18 49.21 48.73 48.60 50.29 50.41 50.54 51.07 50.52 49.74 48.95 49.37 48.65 49.20
59.62 60.09 53.18 51.66 52.70 58.48 61.68 59.63 56.15 53.63 48.76 52.32 49.95 50.58 51.00 50.28 49.26 49.49 50.36 51.42 50.59 50.15 49.09 45.72 47.99 42.62 38.89 35.75 37.96 42.02 43.83 46.24 48.57 47.56 47.77 48.68 50.02 50.08 49.48 48.97 48.87 48.58 48.17 48.38 47.85 49.98 49.76 49.24 49.16 48.20 49.25 49.76 49.05 48.50
56.39 54.86 51.91 51.48 53.69 57.26 57.40 56.35 57.23 51.02 51.74 54.85 54.73 53.61 52.58 51.01 51.76 51.88 51.38 51.45 51.81 51.84 50.54 48.42 43.06 41.60 41.67 43.94 43.37 44.85 45.62 46.10 46.14 45.92 47.33 50.09 49.93 49.33 49.10 48.97 48.58 47.84 47.74 47.51 47.00 46.81 48.63 49.12 48.32 48.36 48.98 49.17 47.64 47.86
50.99 51.70 51.96 52.86 53.74 59.19 53.98 56.01 59.07 54.14 51.46 52.66 55.29 52.40 52.06 52.00 51.74 51.62 51.13 50.68 49.90 48.66 45.99 43.88 43.44 44.52 44.64 45.57 46.16 45.71 46.27 46.41 46.28 45.41 45.47 47.56 49.02 49.35 48.60 47.48 46.26 47.40 46.57 47.40 47.44 44.36 47.90 47.61 48.19 48.17 47.69 47.23 46.57 45.58
52.78 58.29 56.09 58.62 63.18 60.58 57.84 56.60 55.52 54.42 55.35 53.89 55.22 52.19 50.82 54.87 50.52 49.43 50.03 51.32 48.47 46.39 44.81 46.56 46.62 47.73 49.11 48.46 48.06 47.29 46.94 46.56 45.66 45.07 44.41 44.08 46.06 47.40 46.90 46.93 46.79 46.24 45.52 45.76 46.19 46.12 45.48 46.26 47.19 47.55 46.99 46.29 46.30 45.81
61.11 53.69 61.58 61.05 59.50 58.43 58.58 59.72 55.90 57.31 54.87 54.30 53.78 53.61 51.52 50.39 49.73 48.77 51.32 49.79 47.80 47.78 48.11 47.79 47.39 47.14 47.55 47.54 47.59 48.08 47.63 47.67 47.77 46.36 44.89 44.97 45.37 45.30 45.38 45.84 45.35 44.47 45.06 45.19 46.00 45.56 45.53 45.48 45.12 46.64 45.71 45.63 45.80 45.15
54.98 57.75 61.29 59.86 55.35 51.45 51.38 60.29 53.65 54.60 50.40 51.19 53.24 50.09 50.91 51.08 51.38 52.91 49.52 50.80 50.59 51.46 52.12 50.02 50.08 50.50 48.66 49.10 49.04 48.93 48.24 46.90 45.48 45.57 45.69 45.15 45.73 47.47 46.15 45.97 45.81 44.69 43.88 44.88 46.00 45.59 45.21 41.56 44.44 45.04 45.39 45.32 44.87 44.38
50.52 58.77 55.73 54.32 54.35 49.11 57.05 53.46 56.66 53.97 54.02 51.38 50.56 46.93 48.85 50.27 53.63 50.05 46.38 49.45 50.68 53.12 50.97 50.99 50.35 48.42 49.33 49.44 47.18 46.77 46.85 46.28 45.46 45.66 46.32 44.44 43.82 44.53 45.82 45.80 46.02 45.90 45.28 45.74 45.81 45.49 45.26 45.20 42.45 45.07 44.63 43.70 43.91 43.47
49.91 49.68 51.51 41.76 54.55 50.66 48.31 48.68 49.31 50.66 46.69 49.19 47.47 48.93 50.55 53.43 47.93 46.60 45.66 49.24 51.10 51.51 52.17 52.76 50.13 49.05 47.51 47.55 46.42 46.73 48.33 45.98 44.18 43.75 45.48 44.64 44.10 44.41 44.72 45.16 45.38 45.70 45.67 44.46 44.08 44.55 44.59 44.75 44.49 43.88 43.86 42.72 41.84 42.62
41.03 51.84 47.79 51.04 52.67 50.05 50.69 46.05 46.38 46.72 48.39 46.96 49.04 52.69 53.40 49.17 44.04 42.74 48.56 50.76 51.80 51.96 51.06 49.95 48.26 47.66 47.41 47.53 45.74 45.27 45.27 46.30 45.29 43.70 44.19 44.47 43.81 42.79 42.08 41.78 42.04 43.35 45.15 45.46 44.51 43.78 43.78 43.83 43.47 42.85 42.86 41.43 37.29 41.54
43.91 49.45 55.06 58.70 55.63 54.88 52.85 53.74 53.80 50.35 46.39 46.52 49.20 48.24 47.13 42.73 43.11 47.69 51.32 53.34 52.20 53.68 52.57 52.63 49.81 48.84 48.02 48.02 49.20 48.13 47.17 46.65 44.92 44.21 45.07 44.99 44.96 44.97 43.67 41.87 41.20 42.80 44.35 45.16 44.99 44.11 43.04 42.73 42.70 42.49 42.21 42.78 42.73 42.57
54.84 54.90 51.04 53.89 54.28 55.25 51.09 51.59 49.00 47.51 49.17 53.19 50.93 45.42 45.02 44.64 45.60 52.12 53.15 54.14 54.02 54.17 53.05 52.85 52.76 50.81 48.93 48.05 48.29 47.39 46.85 47.19 46.62 46.47 46.54 45.53 46.42 45.89 45.22 45.27 45.09 37.77 44.00 44.91 43.73 43.73 43.54 42.93 42.44 42.22 41.80 41.68 42.37 43.09
54.64 55.68 55.01 51.97 52.74 52.32 52.82 50.71 50.91 52.09 54.91 52.14 48.64 47.78 49.62 53.71 55.03 54.95 55.64 57.07 56.29 54.64 52.42 50.71 50.32 51.66 48.15 49.31 48.20 48.57 46.60 45.40 43.25 41.37 40.64 41.59 42.10 43.02 45.32 45.18 44.77 45.17 45.03 43.84 36.49 39.89 41.76 41.38 42.11 42.20 42.03 42.56 42.87 42.01
53.70 58.22 53.38 52.16 50.66 50.12 52.87 54.72 53.58 54.95 55.68 55.33 55.22 54.45 53.89 54.57 56.55 57.60 57.56 56.03 54.17 52.11 51.09 51.41 51.46 50.29 47.44 47.69 46.14 46.42 48.09 47.43 46.04 43.38 41.30 41.05 42.08 44.36 44.57 44.25 43.91 43.94 43.99 43.74 43.76 42.88 37.80 41.30 40.76 42.77 42.31 41.59 41.66 40.74
57.37 56.59 53.61 53.14 51.44 53.28 55.69 56.26 56.64 57.62 56.99 55.38 55.90 54.04 52.56 55.29 56.21 55.67 55.74 55.36 55.35 55.22 52.05 50.81 50.52 51.27 48.26 46.64 45.27 44.02 43.39 46.51 46.00 45.28 44.42 44.90 45.00 44.27 44.13 44.27 43.87 44.59 43.37 42.76 42.05 41.62 41.28 40.72 40.91 39.84 39.47 39.25 39.30 39.05
54.84 53.62 52.84 50.82 51.76 56.17 57.78 55.32 53.51 52.77 53.72 54.21 53.67 55.17 56.14 54.71 51.36 55.51 53.90 53.91 53.82 52.68 43.64 47.76 49.24 47.93 48.39 48.00 47.19 46.39 36.89 46.08 47.98 46.69 45.08 44.91 44.53 44.63 44.87 44.36 44.62 43.62 43.63 42.49 41.94 41.85 41.43 39.78 39.22 38.88 38.65 38.61 39.34 39.39
54.78 54.20 53.37 52.87 52.20 51.77 54.77 54.09 52.43 51.77 52.37 52.17 52.62 53.85 53.56 52.50 49.64 52.55 53.01 52.17 51.39 51.06 50.45 49.74 49.22 48.81 47.88 46.70 46.24 46.73 40.89 46.41 40.81 35.85 36.60 35.31 33.96 36.99 41.55 43.93 43.75 43.53 42.57 42.51 42.47 41.24 40.42 40.04 39.46 38.65 39.18 38.52 38.60 38.84

GFSWCAN_sfc_wetblb_036.txt.gz
Wetbulb
52.34 52.28 52.23 52.35 52.33 52.64 52.56 52.85 52.96 52.98 52.71 52.54 53.14 53.33 53.68 53.68 53.91 52.83 50.78 50.90 45.17 40.50 41.09 43.82 44.33 40.83 42.12 41.48 37.55 41.99 40.83 41.05 41.56 37.28 35.17 35.80 36.67 37.19 38.98 41.36 39.59 40.09 38.64 38.35 41.17 39.84 38.94 52.83 52.62 49.31 54.86 57.00 56.46 56.97
52.09 52.15 52.11 52.30 52.30 52.54 52.50 52.55 52.61 52.71 52.57 52.79 53.08 53.31 53.62 53.61 53.84 53.50 49.11 51.23 49.57 43.42 42.94 46.86 46.64 47.90 46.85 46.62 43.15 42.75 40.98 40.95 41.81 38.55 39.74 38.75 36.38 39.05 39.21 35.30 44.05 37.55 41.75 41.04 43.07 43.25 53.64 54.05 52.33 54.09 54.18 53.87 55.24 54.90
51.97 51.95 51.99 52.09 52.07 52.20 52.38 52.36 52.34 52.74 52.63 52.89 53.20 53.43 53.60 53.65 53.74 53.28 51.49 49.90 48.22 42.61 42.36 42.93 43.91 49.20 50.21 49.84 50.54 41.20 42.87 43.75 42.82 45.21 40.20 39.75 37.04 40.74 36.03 38.54 40.45 44.11 46.46 42.49 43.19 46.48 48.39 50.27 52.06 52.90 53.40 52.86 54.13 54.78
51.71 51.81 51.83 51.83 51.93 51.97 52.10 52.33 52.80 52.84 52.67 52.59 53.04 53.35 53.76 53.86 53.84 53.59 49.49 49.52 48.79 44.05 37.65 43.29 51.12 48.18 51.29 50.60 49.52 48.61 46.33 46.55 45.30 43.91 40.29 38.42 36.41 42.87 38.66 40.40 39.77 42.95 44.31 43.01 43.25 46.48 49.35 50.15 50.93 51.97 52.41 53.21 52.93 53.48
51.40 51.60 51.56 51.67 51.48 51.96 52.06 52.43 52.39 52.09 52.36 52.69 53.10 53.49 53.63 53.57 53.41 54.65 54.54 52.32 51.18 45.39 40.05 41.77 47.06 49.19 50.16 49.12 47.98 48.42 46.51 44.92 43.27 39.18 37.85 36.69 39.71 39.08 40.44 41.07 39.24 44.32 42.54 40.18 40.69 47.16 47.85 49.92 51.79 53.23 52.21 52.07 53.60 53.54
51.19 51.17 51.16 50.98 51.60 51.91 51.98 51.40 51.72 51.94 52.22 52.82 53.33 53.49 53.64 53.35 52.25 54.91 48.22 51.96 52.72 49.69 42.18 38.26 46.86 46.28 47.70 47.97 46.25 45.37 45.19 43.93 43.18 38.08 36.01 38.11 41.16 37.97 34.90 33.79 40.85 43.72 44.82 44.63 42.69 47.26 47.50 49.46 51.69 52.35 52.09 52.89 53.98 54.38
51.11 51.06 51.20 51.48 51.72 51.20 51.46 51.57 51.62 51.98 52.48 52.93 53.36 53.58 52.75 52.93 54.46 49.81 46.62 49.61 51.88 50.78 42.48 38.86 41.56 47.09 47.79 46.93 45.62 44.86 45.19 42.51 39.79 36.06 34.35 35.02 35.67 38.03 34.19 31.83 37.49 39.77 40.78 41.25 42.35 43.12 43.25 45.81 46.83 51.18 52.04 52.88 53.70 54.35
50.89 51.01 51.34 51.56 51.30 51.70 51.66 51.45 51.99 52.56 52.92 52.91 53.04 53.12 52.46 51.40 50.81 50.55 51.85 51.24 52.18 46.58 43.69 39.24 40.80 44.64 47.60 44.30 43.01 44.27 40.39 39.79 38.64 37.23 36.52 35.08 36.22 35.41 31.65 37.39 42.64 47.27 48.25 48.27 47.37 46.71 44.45 47.30 48.64 50.37 52.37 52.82 52.08 52.28
50.80 51.28 51.28 51.22 51.30 51.56 51.38 51.88 52.38 52.99 52.90 52.32 52.90 52.65 54.42 52.12 50.84 50.68 51.29 50.72 52.21 47.66 41.00 40.77 37.72 40.44 47.02 44.76 45.25 42.80 41.13 37.65 40.59 35.97 35.39 35.36 32.38 32.01 36.00 41.94 42.88 45.18 47.13 49.29 48.02 46.88 49.45 45.13 47.25 48.90 50.72 51.43 50.95 51.64
51.02 51.19 51.35 51.46 51.54 51.64 51.75 52.28 52.91 52.84 52.21 52.38 53.15 53.01 48.96 53.01 52.37 52.01 48.78 46.04 46.49 46.84 46.57 44.21 44.06 41.23 44.64 44.31 42.94 43.06 42.26 41.55 39.77 43.51 41.02 36.89 35.64 43.00 44.63 45.83 45.48 46.04 47.83 48.64 47.45 44.75 42.82 43.74 45.98 48.43 49.42 51.01 51.54 51.79
51.07 51.32 51.43 51.51 51.86 52.04 52.28 52.51 52.67 52.24 52.02 54.73 53.05 53.07 54.77 52.67 52.09 49.82 48.49 47.51 49.38 47.09 48.83 49.89 48.09 45.42 48.63 43.51 43.88 46.86 44.86 44.15 40.62 41.74 40.85 37.71 35.97 42.15 46.26 46.23 47.13 46.54 47.69 46.88 48.73 49.88 49.70 49.18 48.70 48.80 49.60 51.67 52.36 53.35
51.10 51.21 51.33 51.56 51.94 52.06 52.52 52.52 52.46 53.18 57.96 54.44 56.83 57.66 56.53 52.62 51.55 47.83 45.79 47.72 47.00 44.55 51.11 49.93 51.23 49.18 50.75 49.66 45.22 48.85 46.15 46.17 38.34 45.79 38.69 32.74 41.11 46.21 46.69 46.77 47.87 48.62 47.14 47.62 47.79 47.49 48.43 48.47 49.54 49.62 50.80 50.86 50.58 50.43
51.20 51.25 51.33 51.54 51.88 52.26 52.69 52.78 52.56 53.13 51.41 58.73 55.89 53.34 52.50 51.59 41.85 41.14 38.67 44.32 45.25 48.76 50.46 51.14 48.31 50.97 53.88 53.10 50.94 48.79 43.58 42.62 47.46 40.30 33.83 39.90 46.17 47.58 47.47 47.20 47.97 49.28 49.04 48.04 48.25 47.54 47.77 48.56 48.58 47.99 48.19 49.30 49.52 49.98
51.04 51.27 51.37 51.58 52.24 52.66 52.77 52.98 52.91 53.95 54.36 54.14 50.27 39.48 47.30 45.53 47.07 47.27 47.46 47.73 50.71 51.13 51.49 52.11 50.56 51.69 51.59 48.23 48.18 43.25 45.61 45.20 38.61 34.55 35.86 42.51 46.72 47.67 48.61 48.51 47.27 46.85 48.42 48.19 48.53 48.38 47.35 46.86 46.38 46.92 47.20 47.88 48.54 47.92
51.23 51.39 51.63 53.27 52.70 52.68 52.78 52.89 53.08 56.83 57.50 51.83 51.46 41.96 46.76 49.72 50.30 50.24 50.88 50.46 51.62 53.45 53.13 51.45 51.94 51.38 47.73 45.40 45.90 43.60 40.74 35.35 36.99 36.80 42.09 44.89 48.21 48.95 47.69 47.58 48.17 47.64 46.93 48.36 48.72 48.53 49.00 48.25 47.21 46.05 46.35 46.69 46.16 47.50
51.41 51.51 58.04 52.33 52.35 52.24 52.17 55.76 56.59 60.19 56.24 53.30 50.93 47.73 49.40 48.18 48.13 49.08 49.37 49.03 52.02 52.65 54.18 52.45 48.07 44.71 43.38 43.36 41.39 39.57 36.96 35.40 38.91 43.38 46.16 47.47 48.27 48.52 48.60 49.14 48.57 48.39 48.54 47.45 49.30 48.61 49.46 48.78 46.95 46.67 47.55 46.30 45.51 45.74
50.41 61.22 52.42 52.26 51.76 51.98 53.41 59.58 60.03 53.87 53.79 51.14 50.46 52.35 50.43 49.42 48.69 49.20 49.92 49.76 52.93 51.07 47.39 48.38 43.04 41.32 45.47 41.00 39.18 42.70 39.79 43.40 46.42 47.15 48.55 49.86 48.92 48.17 49.45 49.35 48.57 47.82 48.50 48.18 47.75 48.71 48.68 49.72 50.79 47.75 45.28 45.56 46.35 47.69
58.35 60.55 53.95 52.37 52.65 58.49 61.88 59.98 56.96 54.61 49.94 52.72 50.57 51.43 52.16 51.66 50.19 50.41 50.91 51.57 50.68 49.61 49.18 46.03 47.94 42.73 39.69 36.76 38.97 42.76 44.74 46.16 47.72 48.22 48.28 49.62 50.49 50.28 50.06 48.29 48.87 48.83 48.23 48.12 48.39 49.59 48.70 48.97 48.71 47.90 48.43 49.05 48.49 48.21
55.74 54.34 52.14 51.51 53.16 56.47 57.37 56.96 57.75 51.89 52.54 54.08 53.62 54.44 53.62 52.70 53.13 53.28 52.45 52.43 52.49 52.18 49.65 47.73 43.80 41.62 41.99 44.04 43.11 44.19 45.36 45.19 44.53 46.47 48.64 50.63 51.49 51.15 50.89 48.67 48.46 47.74 47.71 48.24 47.55 47.14 47.88 49.35 47.38 47.09 46.98 47.12 45.32 44.80
51.13 51.65 51.95 52.78 54.23 60.11 54.75 56.54 59.63 54.15 51.96 52.79 54.46 52.86 52.71 53.17 52.92 52.47 52.49 51.82 50.88 49.23 46.23 44.21 43.88 45.06 44.99 45.92 46.68 45.64 46.56 46.34 45.77 44.67 45.24 46.15 47.21 48.92 49.52 47.64 46.17 48.09 46.99 48.23 47.32 44.72 47.36 47.10 47.37 46.94 46.40 45.46 44.45 43.43
56.52 59.06 55.68 59.35 62.98 61.15 56.88 55.28 55.14 55.08 54.27 52.64 54.61 55.09 52.78 53.84 52.11 50.30 50.67 52.49 49.28 46.72 45.47 47.25 46.90 47.76 49.99 49.37 48.98 48.43 47.38 46.56 45.60 45.50 44.54 44.04 45.89 47.37 47.15 47.31 47.31 46.37 45.82 45.70 45.88 45.54 44.61 44.34 45.57 46.43 45.63 45.47 45.15 44.56
62.08 54.85 61.45 61.85 59.25 58.40 57.27 58.27 55.31 57.02 54.18 53.80 53.02 53.35 51.23 50.07 50.41 50.19 52.18 50.23 48.82 48.57 49.02 48.73 48.48 48.41 48.25 48.73 48.41 49.34 48.84 48.46 48.96 47.28 45.96 45.38 44.66 45.32 46.00 46.17 45.80 45.02 45.15 45.27 45.37 45.12 44.64 44.83 44.80 46.04 45.39 45.26 45.44 44.42
56.75 58.63 61.43 60.14 55.61 51.56 49.59 59.24 54.04 54.40 50.31 51.21 52.55 49.95 49.52 50.90 52.37 54.62 49.11 50.84 50.44 52.31 52.25 51.30 51.71 52.38 51.00 51.26 50.99 50.53 49.50 48.25 45.86 45.96 46.12 45.86 45.62 46.39 46.12 46.36 46.30 45.18 44.15 45.09 46.39 45.80 45.14 42.91 44.95 45.35 45.23 44.82 45.02 44.69
52.14 59.62 56.80 55.00 54.04 48.08 56.36 53.64 55.41 53.08 53.14 50.33 49.22 47.06 49.36 51.05 53.13 50.03 46.71 49.53 50.31 52.72 52.13 52.75 51.25 49.61 50.71 52.00 48.43 47.63 47.95 47.48 46.05 46.14 46.97 45.49 43.96 44.65 45.86 45.84 45.87 46.15 45.44 45.55 45.72 45.65 45.61 45.23 43.59 44.77 44.23 43.19 43.37 43.74
50.08 49.23 50.69 41.11 53.85 51.69 50.32 49.30 49.32 50.23 47.70 49.56 48.19 48.26 50.05 53.05 47.59 46.43 46.14 49.13 50.33 50.61 50.82 51.31 50.16 49.56 47.56 47.86 47.82 47.67 49.02 46.52 44.87 44.15 45.81 45.42 44.65 44.37 44.55 45.10 45.77 45.78 45.87 44.73 44.30 44.54 44.82 45.06 44.64 43.95 43.61 42.73 42.24 43.10
40.93 52.27 45.42 51.28 52.18 50.40 50.68 47.87 48.37 48.75 48.81 47.65 48.89 50.82 52.45 49.86 46.18 44.00 48.27 50.27 51.06 51.27 50.96 50.53 49.69 48.34 48.32 49.02 47.41 46.54 46.45 47.05 45.91 43.89 44.67 45.08 44.48 43.18 42.43 42.11 42.31 43.17 45.30 45.34 44.74 44.07 44.07 43.97 43.69 43.31 43.07 42.28 39.10 42.53
42.99 51.20 54.88 56.81 54.37 53.75 52.53 52.67 53.14 50.81 48.21 47.17 49.21 49.57 47.19 40.47 43.14 48.74 52.64 53.56 53.34 53.59 53.70 52.74 51.14 49.43 48.58 48.73 49.07 48.46 48.57 48.17 46.36 45.81 46.52 46.66 46.42 45.71 44.23 42.63 41.75 42.37 44.22 44.94 44.43 43.77 43.18 43.37 43.21 43.00 42.73 43.33 43.13 42.88
54.65 54.64 50.54 53.68 54.27 54.18 51.14 48.92 46.26 47.15 47.18 49.76 50.75 46.76 45.64 46.24 47.25 51.72 53.45 55.18 55.50 54.58 52.00 52.10 51.97 51.27 49.89 49.50 49.15 47.73 47.27 47.05 47.63 47.51 47.30 46.74 47.77 46.37 46.26 45.85 45.61 38.70 44.69 44.76 43.83 44.09 43.06 42.72 42.55 42.26 42.41 42.11 41.87 42.93
53.84 54.43 55.08 52.41 52.61 53.34 51.15 48.03 46.52 52.93 54.75 52.86 49.69 48.79 49.32 50.63 50.59 52.63 55.34 55.54 55.81 54.32 52.07 52.30 51.92 51.15 50.55 50.47 50.14 49.02 48.47 47.18 44.23 42.09 41.81 41.76 42.45 43.62 45.80 45.45 45.26 45.31 44.90 44.10 36.52 39.94 42.16 42.05 42.37 42.29 42.59 42.69 43.03 43.03
54.55 57.39 54.51 52.90 51.34 50.80 52.44 55.86 55.05 55.68 55.59 54.53 54.38 54.23 54.24 54.57 56.74 57.24 56.53 55.60 54.16 53.05 53.06 52.13 51.94 50.75 48.33 47.92 46.70 46.73 47.11 47.38 46.20 44.00 41.82 41.30 42.39 44.76 45.08 44.81 44.48 44.46 44.74 44.37 43.41 42.77 38.44 41.35 40.65 42.73 42.13 42.02 41.54 41.55
57.79 55.89 53.62 53.34 52.14 54.82 55.91 56.29 57.06 55.79 56.27 55.30 52.68 48.49 50.55 52.66 53.85 55.92 55.86 55.38 53.81 53.00 52.83 50.88 49.95 50.36 48.09 46.27 45.44 44.16 43.37 46.29 46.93 46.33 45.24 45.37 45.24 44.99 44.83 44.92 44.43 44.44 44.41 43.73 43.01 42.55 42.22 41.47 41.00 40.71 40.51 40.23 40.08 39.69
55.59 54.24 53.06 50.59 51.61 54.97 57.23 55.75 54.81 52.95 53.62 52.94 53.19 54.94 54.56 53.93 52.14 54.09 53.85 53.54 51.87 50.33 46.89 48.91 48.49 47.36 48.38 47.72 47.13 46.58 38.33 45.91 45.56 45.33 44.77 44.26 44.00 44.11 44.22 44.52 44.31 44.21 44.27 43.46 43.32 42.14 41.56 40.92 40.47 39.93 39.65 39.19 39.27 39.40
55.25 54.71 54.66 53.21 53.28 51.53 53.70 53.58 52.23 51.95 53.22 52.33 49.32 51.03 53.15 51.93 49.52 52.07 54.02 53.54 51.69 50.36 49.50 49.41 49.05 48.57 48.41 47.47 46.86 46.67 42.40 43.74 39.51 36.19 36.71 36.16 35.21 37.07 42.21 43.06 42.88 42.93 42.44 41.92 41.80 41.73 40.93 40.47 40.00 40.07 39.94 39.85 39.79 40.15

GFSWCAN_sfc_wetblb_042.txt.gz
Wetbulb
51.88 52.66 52.84 52.81 52.83 52.89 52.83 52.50 52.21 52.39 52.85 53.06 53.20 53.37 53.66 54.02 54.04 52.14 49.49 50.07 45.29 40.00 40.91 43.06 43.68 41.24 40.92 39.88 35.81 39.72 37.31 35.29 35.06 29.20 31.93 32.13 31.62 34.45 33.59 35.98 34.93 33.50 33.72 33.15 33.94 34.55 32.48 45.68 45.30 39.99 43.00 47.86 48.37 47.47
52.17 52.44 52.43 52.45 52.38 52.30 52.26 51.90 52.09 52.42 52.60 52.68 52.79 53.24 53.65 53.80 53.84 53.05 48.05 51.48 50.38 43.60 42.77 45.26 46.39 46.83 45.83 44.81 41.93 42.18 38.94 39.01 38.33 31.52 31.24 33.57 32.96 35.24 33.89 30.64 38.84 32.24 36.34 33.56 35.13 36.75 42.89 46.19 47.12 47.42 46.88 46.22 46.41 47.39
52.13 52.00 52.08 52.18 52.11 52.12 51.76 52.05 52.21 52.46 52.44 52.75 53.18 53.74 53.92 53.94 53.92 53.29 49.97 49.45 47.28 43.11 41.83 41.33 44.38 48.51 49.29 47.58 48.25 40.59 41.81 43.48 41.42 39.80 33.69 34.72 32.82 34.48 28.53 31.62 33.58 37.49 40.32 34.95 33.34 39.29 40.06 43.93 48.17 46.89 45.72 44.75 46.23 47.63
51.86 52.02 51.84 51.99 51.51 51.74 51.99 52.05 52.13 52.26 52.53 52.96 53.59 53.76 53.94 53.80 54.06 53.56 49.02 49.01 47.24 43.12 36.68 40.75 49.28 47.17 50.39 49.33 47.99 47.73 46.06 45.40 43.97 42.07 35.38 34.87 33.95 35.95 31.66 33.26 31.96 37.69 38.54 35.86 34.33 36.86 39.64 43.90 44.92 44.13 45.18 45.88 46.20 46.92
51.53 51.66 51.69 51.78 51.87 52.05 51.86 51.71 51.85 52.51 52.90 53.27 53.35 53.80 53.76 53.53 53.57 52.79 50.66 49.44 47.63 42.27 37.82 39.48 42.96 45.33 45.52 45.99 46.03 45.87 44.41 43.05 41.44 38.13 36.00 34.48 37.20 35.49 33.57 32.70 35.51 38.65 37.21 34.73 33.60 39.16 39.40 39.70 43.12 44.85 44.26 44.39 45.80 45.85
51.05 51.11 51.31 51.65 52.04 51.62 52.03 52.02 52.22 52.56 53.01 53.64 53.58 53.98 53.69 53.78 53.22 52.01 45.49 49.39 49.97 47.15 38.79 35.27 42.42 42.79 45.52 45.59 44.96 43.98 43.65 42.35 40.43 37.50 35.39 37.17 38.99 37.21 30.81 30.62 38.60 41.83 42.93 43.38 41.97 45.61 44.72 43.38 43.96 45.47 44.11 44.91 46.19 46.21
51.07 51.18 51.40 51.88 51.82 51.74 52.11 52.30 52.46 52.86 53.25 53.40 53.53 53.35 53.37 52.89 48.71 45.86 43.33 47.26 50.10 46.70 38.72 38.96 41.19 47.13 47.80 43.59 43.04 42.19 41.81 39.44 39.10 36.31 34.88 35.57 35.77 37.55 32.88 30.09 37.40 41.73 42.81 43.63 44.90 46.44 43.51 43.79 41.71 45.78 46.94 47.90 49.20 49.18
50.85 51.25 51.50 51.91 51.90 51.78 51.76 52.27 52.75 53.17 53.26 53.03 53.24 52.56 51.77 51.20 49.40 46.42 46.63 50.28 49.26 42.78 42.19 39.59 40.03 41.96 44.60 42.05 42.09 43.37 39.06 39.85 39.01 37.18 37.32 35.04 36.25 34.12 30.83 37.69 42.31 42.39 42.99 43.01 43.94 45.31 45.37 45.54 45.40 45.09 46.13 46.95 46.38 46.58
50.79 51.16 51.65 51.86 51.97 51.75 51.83 52.67 52.88 52.99 52.54 52.79 53.20 52.99 50.04 47.11 45.91 45.88 52.34 50.95 47.88 44.74 41.62 41.74 39.72 39.31 44.76 41.26 40.99 42.37 39.28 38.50 39.72 37.03 36.29 36.28 32.34 32.88 37.03 42.17 42.73 43.73 41.55 41.66 43.61 44.44 44.46 44.06 45.33 46.35 46.53 45.83 45.52 45.11
50.97 51.13 51.37 51.53 51.98 52.05 52.26 52.67 52.85 52.27 52.32 52.53 49.68 47.94 45.19 46.79 53.10 51.43 46.04 44.96 44.06 41.92 41.36 41.33 44.23 40.36 43.05 43.29 43.12 42.59 41.36 39.44 37.22 38.88 39.67 34.51 34.69 42.70 44.14 43.86 45.13 45.45 44.37 43.74 41.69 41.31 42.60 42.82 44.50 47.72 47.43 45.68 45.73 45.19
51.00 51.10 51.29 51.58 51.80 51.97 52.21 52.49 52.39 51.85 51.64 47.76 47.10 46.90 47.33 52.95 47.06 45.54 43.64 39.93 41.56 39.43 41.57 42.18 42.69 42.41 45.45 41.65 42.27 43.56 41.13 39.25 29.36 34.85 37.25 35.60 35.04 40.30 43.93 44.03 44.90 46.47 45.96 44.98 44.69 44.65 44.25 44.27 43.86 45.98 47.20 48.21 48.30 48.93
50.78 51.18 51.22 51.46 51.71 52.15 52.31 52.38 52.34 48.07 49.83 49.08 48.19 50.74 48.48 45.96 44.77 41.11 39.29 41.01 38.36 38.92 43.47 43.09 44.77 46.26 46.05 46.45 42.19 44.60 40.16 38.58 32.02 38.73 36.01 32.70 37.69 40.97 41.06 42.98 43.18 45.28 45.59 45.29 45.43 44.46 44.67 44.22 44.47 44.56 44.65 45.27 46.26 47.35
50.62 51.02 51.30 51.52 51.77 52.15 52.19 52.58 52.60 51.73 51.04 50.77 48.83 46.83 47.08 43.75 36.20 35.17 31.95 36.50 37.34 42.17 45.73 46.76 43.03 45.82 45.76 44.77 42.96 40.39 38.06 35.65 39.59 33.43 32.49 37.76 42.22 40.79 41.47 42.51 42.13 41.95 45.75 45.38 45.37 45.09 45.05 44.54 44.75 44.23 43.90 44.74 44.48 44.46
50.50 50.91 51.28 51.54 51.81 52.27 52.69 52.93 53.25 52.00 48.48 47.53 46.70 34.64 40.14 37.56 39.05 38.28 37.62 38.06 41.93 41.70 42.37 44.68 44.21 43.48 44.45 42.32 39.59 37.09 38.09 37.16 31.88 31.05 32.52 39.64 40.73 39.90 41.49 42.99 41.74 40.37 43.76 44.76 44.73 44.44 43.45 43.28 43.10 43.60 44.03 44.18 43.97 42.98
50.63 50.99 51.32 52.39 52.54 52.62 52.76 52.81 53.23 50.19 49.98 48.03 44.16 34.89 38.88 42.17 41.77 42.17 42.48 41.79 43.27 43.64 42.21 43.02 44.62 42.74 39.69 38.57 38.23 36.21 34.75 31.78 34.11 35.15 38.66 39.83 40.27 40.51 40.50 40.94 41.77 40.41 41.10 44.67 44.33 44.37 44.00 43.70 43.32 42.67 43.40 43.26 43.16 42.54
50.98 51.23 53.39 52.48 52.14 52.07 51.43 52.78 50.66 51.60 52.37 48.93 43.95 41.19 41.84 40.74 40.51 41.42 41.33 40.77 43.24 43.54 43.25 42.46 39.37 37.68 36.88 36.75 35.30 33.63 31.46 29.32 34.52 37.86 40.51 40.51 40.10 40.70 40.40 40.93 41.98 41.55 40.57 40.69 44.46 43.75 44.27 44.40 42.91 43.32 44.76 44.02 43.33 42.83
50.71 51.12 52.82 51.88 51.73 51.97 52.82 53.39 55.18 53.37 48.74 48.00 46.41 44.77 42.83 41.90 41.36 42.12 42.05 42.05 43.94 41.54 38.39 38.92 36.68 34.88 36.54 33.70 32.77 34.65 31.08 33.87 36.84 38.16 40.30 41.19 41.18 40.81 41.51 41.28 42.07 40.77 40.92 39.88 41.45 43.03 42.33 43.57 44.16 43.87 42.39 43.94 43.91 43.76
49.83 53.66 52.81 51.63 50.84 52.58 56.50 53.44 53.03 49.50 47.83 45.55 44.03 44.50 45.37 44.13 42.82 43.24 44.09 44.08 42.65 40.80 39.64 39.05 38.91 35.51 33.00 31.83 31.31 33.76 35.53 36.41 36.24 36.51 38.31 42.01 41.81 42.05 43.37 41.87 39.41 40.12 39.79 40.64 41.80 39.94 39.46 40.34 41.05 39.64 39.05 39.03 40.62 42.97
49.23 49.71 50.79 51.14 50.41 49.05 53.28 53.48 51.70 47.74 48.43 48.10 46.70 45.70 45.62 45.94 46.97 46.07 44.83 44.61 44.48 43.30 41.33 38.79 36.61 33.84 33.71 35.22 35.12 35.75 36.02 35.25 35.26 37.19 38.74 38.72 37.88 39.22 42.03 41.40 38.79 40.44 38.19 38.47 38.43 36.89 37.33 37.38 37.23 37.55 37.05 38.12 37.35 38.54
50.62 51.39 51.68 51.91 51.71 52.81 54.02 51.92 53.12 50.27 48.16 46.21 47.48 47.14 45.48 45.08 46.95 45.34 44.47 43.61 42.68 40.82 38.51 36.64 36.47 37.20 37.05 37.83 38.69 38.46 37.76 37.63 37.18 36.50 36.82 38.64 38.32 38.40 38.24 40.64 38.73 37.15 38.92 36.65 37.04 38.23 36.10 36.42 36.85 36.92 37.03 36.94 37.43 36.15
53.00 56.37 54.27 52.57 52.32 51.71 53.43 49.48 48.43 50.84 47.77 45.68 48.99 47.60 46.00 46.72 45.92 42.94 42.90 44.37 40.82 38.52 37.79 39.34 39.34 40.47 41.38 41.15 41.38 41.15 39.94 39.03 37.66 37.52 37.18 37.09 37.76 37.36 38.78 39.53 38.78 38.05 36.44 36.13 35.59 35.75 36.71 34.75 35.28 36.52 36.69 35.85 36.37 36.77
52.81 56.16 54.66 55.37 54.72 56.82 51.77 52.06 48.04 49.00 48.22 47.56 47.58 47.32 44.85 44.99 45.36 45.21 45.79 43.62 40.23 41.14 41.78 41.35 41.39 42.42 42.45 41.68 42.04 42.79 44.00 42.75 40.81 40.53 40.29 38.72 35.97 36.75 36.69 37.59 37.83 36.96 37.03 36.85 36.72 35.92 35.70 35.45 36.16 36.47 36.11 36.02 37.42 37.55
53.88 54.67 55.36 56.82 53.46 44.70 44.21 51.31 48.41 49.36 46.14 45.82 47.36 45.73 44.82 46.61 48.89 49.89 43.91 44.53 44.30 45.11 44.94 44.18 44.20 44.21 43.80 44.32 44.97 43.22 43.54 41.19 38.67 37.71 36.85 35.74 35.95 36.77 37.16 37.74 37.58 37.27 35.82 37.45 37.34 36.34 37.00 38.17 37.61 36.44 36.67 39.52 38.35 37.08
54.37 54.13 52.95 51.33 48.67 41.61 49.76 49.00 50.89 49.13 48.66 47.41 45.75 42.78 43.98 46.01 48.93 45.22 42.97 45.31 47.40 46.37 45.30 46.61 46.59 45.00 44.95 45.11 42.31 41.32 40.15 37.97 38.85 36.78 36.30 35.92 35.01 35.24 36.62 36.63 36.14 35.86 35.77 36.90 37.83 37.46 37.97 37.04 37.86 35.99 36.98 37.47 37.49 36.65
45.88 45.07 45.89 38.15 46.86 46.95 47.27 47.57 47.52 46.58 44.32 44.33 43.06 43.20 44.39 45.79 43.11 41.31 43.29 45.22 45.71 46.80 47.82 46.95 45.07 43.77 40.71 40.47 39.02 38.41 38.35 37.93 36.42 35.32 35.44 35.65 34.92 34.89 34.98 34.86 35.02 34.97 35.63 36.51 36.40 37.10 36.96 37.48 36.88 36.94 37.04 36.58 36.39 36.08
39.77 47.47 42.76 47.34 48.20 47.57 45.84 45.19 46.56 45.05 45.22 44.21 43.82 46.33 46.22 43.92 42.13 41.41 42.48 45.94 47.53 47.91 48.77 46.33 43.93 41.48 41.24 41.78 41.23 37.23 37.40 38.01 37.35 35.69 35.78 36.60 35.90 34.90 33.77 32.69 32.54 33.98 36.09 35.53 35.97 36.78 37.39 37.91 38.65 38.48 37.41 37.69 37.55 36.87
40.20 45.21 49.68 50.52 49.79 49.70 48.92 49.78 48.31 45.09 44.70 43.06 44.81 45.59 44.54 39.06 37.34 43.61 46.36 47.24 47.35 49.30 48.77 47.69 46.92 43.12 41.82 39.79 39.01 40.30 41.36 39.12 38.15 37.86 38.11 37.67 36.91 37.48 36.55 34.27 33.45 34.29 36.01 37.87 37.11 36.86 36.03 37.00 38.62 37.81 36.94 36.55 36.51 36.86
51.29 50.69 47.33 48.70 48.96 49.92 46.91 46.01 45.10 43.97 45.12 48.39 48.30 41.82 40.53 40.49 39.93 45.87 47.24 50.64 50.38 50.36 48.16 47.11 45.76 45.16 43.73 41.91 43.90 41.02 39.33 40.11 41.24 40.37 40.70 41.13 40.01 39.06 38.75 36.92 36.21 37.76 36.77 37.51 37.63 38.06 37.92 37.41 37.08 37.68 37.94 36.69 35.96 36.47
49.97 50.70 50.16 48.19 48.61 48.10 47.52 46.54 47.15 48.37 49.42 47.64 45.77 44.75 44.77 47.67 50.08 49.54 50.31 50.74 51.29 47.89 45.77 45.45 45.51 45.33 44.90 42.84 40.36 41.21 42.50 41.74 39.19 37.80 37.03 36.17 36.24 36.88 38.49 38.40 37.53 37.28 36.16 37.11 37.75 37.12 37.96 37.37 36.80 36.75 38.28 38.21 38.12 38.13
49.77 52.23 49.48 49.78 48.59 47.67 48.89 50.63 50.84 51.26 50.81 50.27 49.61 49.10 47.56 48.63 50.70 51.81 50.28 46.25 45.55 44.60 43.93 42.86 42.39 42.28 40.62 40.81 39.27 38.78 39.74 39.35 38.42 35.53 33.58 32.95 33.58 35.66 39.06 39.44 37.84 38.08 38.33 37.66 37.63 36.98 38.83 38.63 38.62 38.59 37.80 35.59 35.08 36.06
52.33 52.95 50.47 49.91 48.41 49.72 51.36 52.62 50.44 50.21 49.06 49.55 49.97 47.20 47.02 46.99 47.97 49.98 45.71 45.31 44.41 43.82 41.83 39.38 38.78 38.70 38.23 37.00 37.03 36.45 34.60 36.20 36.42 36.62 36.00 34.88 35.55 35.95 36.49 36.42 37.46 38.57 39.10 38.62 38.21 37.27 36.37 35.60 35.43 36.06 35.89 35.61 35.02 34.89
51.42 50.10 48.99 46.85 47.17 51.08 52.95 50.14 50.06 48.44 48.16 47.86 46.47 49.55 48.39 47.04 45.75 44.95 45.67 44.21 41.92 40.26 41.27 39.62 38.07 37.24 39.34 38.88 38.32 37.83 37.20 34.85 34.57 34.78 35.12 34.70 34.77 34.93 34.67 34.89 38.15 38.88 38.75 39.53 39.71 39.39 39.22 36.77 35.95 35.53 35.35 35.28 34.55 35.53
51.69 50.90 50.47 49.55 48.62 48.41 49.11 48.27 48.20 46.71 47.34 47.27 47.30 48.53 49.22 46.00 41.90 44.11 46.85 45.55 42.54 40.65 39.91 39.87 40.67 40.59 39.05 38.71 37.79 36.55 36.37 34.32 35.23 35.91 36.05 36.21 36.10 34.99 33.32 33.33 35.10 37.99 38.63 37.54 36.95 36.60 36.64 36.21 34.77 35.93 37.37 35.88 35.66 35.58

GFSWCAN_sfc_wetblb_048.txt.gz
Wetbulb
52.29 52.35 52.45 52.53 52.28 52.15 52.31 52.08 52.34 52.84 53.12 53.04 53.28 53.61 53.70 53.78 53.69 51.10 46.32 48.90 46.36 41.12 41.99 43.21 43.43 41.54 41.75 39.28 34.42 39.06 36.20 33.92 34.52 31.54 30.76 29.80 29.70 31.96 31.42 33.83 31.81 30.57 29.72 28.86 31.01 31.11 32.83 41.16 43.00 38.58 40.04 42.73 42.97 42.88
52.06 52.27 52.28 52.26 52.16 51.59 52.09 52.33 52.67 52.55 52.69 52.96 53.39 53.71 54.10 53.71 53.57 52.04 43.60 51.14 50.13 44.43 42.96 45.73 46.33 46.97 46.40 46.06 42.38 41.14 38.55 38.14 38.33 34.49 33.93 33.57 31.78 32.61 31.96 28.69 36.76 32.61 34.45 32.51 34.21 33.87 40.14 41.67 42.21 43.36 44.05 42.52 43.51 43.75
51.88 51.98 52.10 52.14 51.83 51.66 51.82 52.32 52.80 53.00 52.98 53.18 53.82 54.13 53.94 53.76 54.04 51.04 47.24 49.09 47.53 42.29 38.40 38.67 40.32 46.47 48.40 48.27 49.06 39.71 41.61 42.96 41.13 41.09 36.96 35.38 31.99 33.57 30.72 32.03 35.31 37.54 39.56 35.10 34.29 37.96 39.82 42.67 44.82 45.16 45.88 45.07 46.10 47.10
51.65 51.95 52.02 52.07 51.62 51.45 51.96 52.57 52.80 53.00 53.16 53.41 53.53 53.66 53.94 53.72 54.25 50.87 44.95 45.34 42.64 38.13 33.28 37.69 45.08 43.50 47.84 46.55 46.70 47.32 45.93 45.23 41.88 38.77 36.46 35.07 33.40 37.25 32.78 34.05 35.51 38.00 38.75 35.87 34.80 39.53 41.82 44.05 44.95 45.27 46.53 47.12 47.16 48.20
51.30 51.59 51.90 51.83 51.48 51.63 52.07 52.45 52.93 53.08 53.16 53.57 53.63 53.61 53.53 53.49 53.85 49.30 45.29 46.70 43.99 41.27 36.07 36.11 40.23 42.27 44.88 45.72 45.02 44.72 42.55 40.13 39.31 36.89 34.98 33.13 36.56 35.19 36.67 35.66 34.97 39.82 37.88 35.72 34.65 40.70 41.40 42.27 45.79 47.77 46.68 46.03 46.89 47.24
51.17 51.28 51.54 51.86 51.59 51.64 52.02 52.33 52.84 52.93 53.20 53.52 53.96 53.61 53.71 53.59 53.39 51.43 41.72 45.06 46.38 43.88 40.36 36.04 40.44 41.42 42.91 45.53 43.57 40.55 41.84 40.30 38.10 36.62 35.06 36.45 38.82 36.75 31.99 32.70 39.23 41.15 42.54 42.64 40.33 43.05 43.91 44.54 45.91 46.44 45.63 47.01 47.44 47.44
51.09 51.22 51.54 51.76 51.55 51.54 51.83 52.41 52.44 52.64 53.03 53.31 53.08 53.18 53.20 52.74 47.53 44.52 40.93 44.51 48.26 44.38 39.05 40.35 39.10 43.64 44.06 42.25 40.03 39.87 38.48 37.45 38.64 38.09 35.80 36.19 36.42 36.90 33.26 32.18 39.95 41.69 42.10 41.97 43.67 43.10 41.54 43.62 42.93 46.23 46.89 47.76 48.34 48.42
51.07 51.20 51.44 51.81 51.64 51.38 51.46 52.05 51.94 52.79 52.90 53.06 52.56 52.38 52.21 51.56 48.77 44.73 45.04 49.63 46.70 41.29 38.94 37.36 40.96 42.98 45.71 40.13 38.92 38.46 35.90 37.00 38.21 37.91 38.54 36.51 37.24 35.57 32.54 37.50 41.67 42.27 43.05 41.59 41.90 43.51 42.77 43.90 43.93 44.12 45.87 47.51 46.81 46.34
50.99 51.16 51.22 51.46 51.53 51.28 51.22 51.67 52.40 52.88 52.56 52.50 52.67 52.71 48.64 45.71 43.25 44.96 51.03 49.49 46.81 41.90 35.63 39.66 37.12 39.77 44.93 42.44 41.41 37.80 36.49 37.26 38.59 37.04 37.22 37.39 33.26 32.36 35.97 38.50 40.57 42.61 41.40 41.04 42.41 42.59 42.96 41.71 42.32 42.83 43.16 43.99 44.86 45.78
50.78 50.88 50.99 51.28 51.67 51.01 51.21 52.39 52.69 52.49 51.96 52.15 48.40 46.56 43.56 44.70 51.66 49.96 45.53 44.56 44.49 43.57 40.08 38.62 40.13 41.10 43.98 42.91 42.60 40.20 39.72 38.03 35.28 38.71 40.95 34.71 32.70 38.73 40.19 40.65 41.39 43.64 43.52 42.34 38.87 38.82 39.92 40.64 41.12 41.59 41.77 42.27 42.84 44.12
50.64 50.84 50.97 51.19 51.48 50.94 51.49 52.17 52.32 51.56 50.18 45.86 44.77 44.40 45.46 51.22 46.63 46.79 43.98 41.48 38.81 40.10 39.38 38.47 40.05 38.25 43.83 41.87 41.95 43.20 38.94 38.51 32.97 35.98 36.75 34.12 29.70 35.77 40.11 39.92 41.62 43.91 43.87 42.43 42.09 41.90 42.51 42.08 41.65 41.23 41.27 41.88 41.92 42.11
50.68 50.63 50.68 51.13 51.34 51.03 51.89 52.01 51.99 47.22 46.38 47.49 46.74 47.24 45.29 45.32 44.04 40.13 35.46 35.95 35.50 36.25 39.40 39.71 42.02 44.36 42.66 45.14 39.98 41.29 40.31 38.44 30.47 36.10 34.91 25.92 34.50 38.51 39.42 39.50 40.65 42.10 43.40 42.77 42.69 41.36 41.39 41.37 41.43 42.00 41.81 41.78 42.07 42.37
50.43 50.57 50.66 50.91 51.52 52.12 52.15 51.95 51.84 50.60 49.47 47.80 46.13 43.14 44.52 41.24 31.71 31.74 27.36 33.45 33.68 36.75 39.27 40.01 39.95 43.66 42.89 41.67 42.87 42.57 37.66 32.35 35.91 33.25 31.65 31.05 36.22 39.13 38.77 39.26 39.67 40.72 43.67 42.85 42.27 42.59 42.10 41.71 42.05 41.58 40.80 41.88 42.76 42.19
50.33 50.32 50.64 50.74 51.12 52.26 52.28 52.13 52.17 51.65 46.11 44.58 44.18 34.98 37.30 34.35 36.14 36.14 35.93 36.01 38.68 38.03 38.35 37.18 40.77 39.72 40.17 40.05 36.04 33.89 34.66 34.15 29.92 28.68 27.35 33.15 36.17 38.44 39.40 39.75 38.57 39.06 41.26 42.44 42.08 42.23 41.92 41.57 40.99 41.81 41.95 41.71 40.96 41.34
50.35 50.42 50.58 50.68 51.83 52.18 51.88 52.13 52.41 48.54 47.21 44.76 42.64 32.51 36.91 39.85 39.18 39.88 38.92 37.85 39.38 38.73 37.75 41.39 38.21 37.90 36.17 35.27 34.42 32.86 31.70 26.70 27.16 27.76 33.16 36.79 38.10 38.59 39.16 39.44 37.97 38.94 38.77 41.53 42.11 41.59 41.31 41.66 41.31 41.25 42.15 42.21 41.98 41.18
50.52 50.26 51.10 51.36 51.38 51.33 51.51 51.92 49.62 48.79 48.32 46.47 44.39 39.45 38.74 37.62 38.48 38.31 38.63 38.45 38.88 38.22 38.34 37.82 35.32 34.40 34.01 33.14 32.41 31.89 29.60 23.22 30.15 34.64 36.60 36.29 37.14 38.92 39.48 39.39 39.20 39.30 38.54 38.35 42.30 42.38 41.66 41.01 40.76 40.80 41.89 42.78 42.33 41.92
49.93 48.03 51.39 50.54 50.61 51.07 51.47 49.59 49.44 48.93 47.86 44.82 42.07 41.04 40.00 39.50 40.05 39.52 39.17 39.61 38.56 37.58 35.62 35.68 34.35 32.87 33.39 31.57 31.27 32.26 30.14 32.36 33.91 34.61 34.37 34.52 36.29 38.63 39.82 40.09 40.29 39.00 38.82 39.39 40.81 41.81 41.73 42.29 41.61 41.05 39.55 40.69 41.13 42.99
45.54 48.08 50.41 50.47 49.90 49.67 49.97 49.23 50.37 49.41 45.05 44.09 42.03 45.01 42.31 41.46 40.22 39.88 40.80 40.63 39.10 36.84 36.95 35.92 36.48 33.34 31.57 30.75 30.37 33.18 34.55 34.94 34.22 33.95 34.40 35.78 36.48 36.13 36.75 35.67 40.14 38.40 38.90 38.85 38.77 39.62 40.32 40.58 40.02 37.83 34.64 35.95 38.19 38.65
47.65 48.68 50.25 50.66 49.67 47.01 49.13 50.81 49.81 44.22 44.95 43.76 42.92 42.85 42.66 43.40 45.11 45.45 44.38 41.52 39.89 40.22 38.29 35.96 34.88 32.31 33.19 33.58 34.69 35.11 35.30 34.25 34.06 35.08 35.69 36.14 36.14 36.24 36.18 37.22 38.58 37.76 36.26 35.93 35.43 34.87 35.08 37.24 35.73 34.58 35.35 35.71 35.34 35.86
50.33 51.24 52.02 51.73 50.54 49.17 50.32 50.12 49.11 45.26 44.05 44.36 43.06 43.24 42.39 43.46 45.32 45.73 45.40 44.54 41.88 42.31 40.17 38.35 36.63 36.67 37.06 38.22 37.70 37.36 36.36 35.54 35.35 34.34 35.05 36.86 37.32 35.33 35.10 34.90 36.40 36.20 34.86 34.73 35.14 36.10 35.41 35.43 35.43 35.81 35.96 35.45 35.60 35.55
49.79 52.39 51.12 49.81 48.77 49.17 49.28 48.33 45.47 45.72 45.40 43.84 43.56 44.59 44.29 47.13 46.81 44.77 42.67 42.26 43.04 41.55 40.08 40.27 40.13 39.85 43.10 41.82 39.97 38.96 38.22 37.37 36.66 36.33 36.17 35.67 37.25 33.76 34.49 35.06 34.99 35.74 35.31 35.00 35.19 35.43 35.79 35.45 35.25 35.54 35.97 35.93 36.33 37.03
49.13 52.91 51.25 51.29 51.25 51.53 49.45 50.50 46.79 44.91 44.51 45.77 45.92 45.82 44.56 43.81 43.63 44.24 46.23 44.85 43.00 41.23 41.62 42.62 42.74 46.33 45.50 43.04 42.08 40.19 39.96 39.22 39.25 36.28 37.23 35.59 34.12 33.91 33.85 33.95 35.22 35.39 37.38 37.74 36.09 35.28 35.86 35.79 35.58 35.74 36.54 36.77 37.36 37.95
51.92 51.63 52.21 53.50 50.38 43.49 43.98 47.55 44.37 45.35 44.10 44.83 44.87 43.51 43.03 44.05 44.05 47.40 42.62 43.41 45.14 46.99 46.34 46.58 47.67 48.03 45.98 43.38 42.97 42.97 42.68 40.97 35.29 33.87 33.98 33.70 33.40 33.38 33.63 33.97 34.49 36.34 36.93 36.53 36.31 35.90 35.69 36.12 36.86 36.51 37.06 37.17 37.17 37.03
51.72 51.36 49.46 48.53 46.36 41.93 46.97 44.57 46.99 46.45 44.71 42.40 41.29 40.67 42.39 43.09 44.29 41.14 39.98 42.07 45.38 45.99 44.95 46.82 48.08 41.83 41.11 41.68 41.54 43.39 42.25 37.48 35.11 34.26 34.06 33.90 33.36 32.89 32.81 33.11 33.80 34.50 34.80 35.56 36.33 36.62 37.11 37.46 37.40 37.37 37.84 37.54 37.15 36.88
43.58 42.22 42.30 34.70 43.40 43.86 43.29 44.29 44.27 43.29 41.50 42.77 42.06 41.32 41.16 42.49 38.91 38.33 38.71 41.12 42.72 43.79 46.10 45.32 43.55 41.57 39.55 39.41 37.36 37.16 37.43 38.41 37.43 34.89 34.38 34.17 34.37 32.73 32.81 33.99 34.01 33.81 34.69 36.52 35.65 36.52 36.34 37.23 37.92 38.68 38.83 38.37 37.12 36.68
38.71 45.71 41.11 43.73 43.83 43.12 43.46 41.39 42.62 42.32 42.39 41.47 42.72 43.78 43.46 40.64 38.77 37.27 40.05 41.62 43.04 44.41 44.90 44.47 42.64 41.81 40.05 38.65 36.00 35.61 37.18 39.35 36.04 36.49 35.15 34.28 36.08 34.60 33.13 34.39 34.46 35.20 35.69 35.37 37.14 37.93 37.99 37.87 38.42 38.07 38.07 37.85 36.58 37.93
39.43 44.38 45.04 45.94 45.36 45.96 44.16 46.03 46.20 42.80 42.01 42.11 43.75 41.65 41.60 36.79 36.67 39.12 42.43 43.86 44.36 45.89 46.11 45.35 43.91 41.16 37.90 36.14 37.21 39.21 39.51 36.74 37.48 37.21 36.67 36.26 36.86 35.58 36.00 37.09 36.74 35.89 36.80 38.35 38.00 38.01 38.25 37.86 37.83 37.56 37.16 37.68 38.09 38.36
47.20 47.09 44.66 45.31 45.61 46.97 44.36 44.35 43.38 42.08 44.22 45.43 42.76 40.47 40.06 38.87 38.20 41.74 43.69 45.54 46.85 46.30 44.06 41.49 37.70 38.14 38.18 38.52 37.58 35.27 35.86 36.54 36.32 37.15 38.49 36.81 37.42 38.28 39.59 37.55 38.02 37.66 38.47 38.24 37.92 38.21 38.55 38.52 38.09 37.96 37.88 37.15 37.12 37.59
46.67 49.25 47.65 45.33 45.82 45.94 45.14 44.46 44.01 45.07 46.44 44.43 42.26 41.79 41.90 43.40 44.80 45.15 46.31 46.12 45.25 44.81 38.78 37.25 36.60 36.81 36.43 35.13 35.41 34.61 34.19 35.41 36.64 35.36 34.77 34.16 34.89 35.92 37.02 38.35 39.53 40.30 38.38 38.34 37.06 37.75 39.02 39.12 39.42 39.15 39.04 38.54 37.92 37.55
45.17 47.97 45.80 45.97 45.34 44.85 46.65 47.06 46.44 47.71 47.64 47.17 46.26 44.57 43.91 44.79 46.85 45.70 40.38 38.29 39.36 39.76 37.16 36.17 35.49 34.88 33.07 33.11 32.01 33.26 33.61 33.36 33.99 34.32 32.56 32.32 33.11 34.48 37.45 40.36 40.97 39.28 40.27 39.54 38.01 38.46 37.31 38.22 37.62 37.99 37.17 36.75 36.42 36.91
47.85 47.56 46.21 45.99 45.16 46.21 48.21 47.92 47.80 48.07 48.21 46.77 45.43 43.07 43.42 44.44 44.55 40.96 38.93 36.37 35.68 36.29 36.23 34.80 33.82 34.04 33.26 32.58 32.06 31.65 31.59 33.00 33.59 34.03 33.25 32.97 33.27 34.35 35.72 37.28 38.94 41.14 41.15 39.72 38.19 37.14 36.39 35.99 35.97 35.93 36.28 36.61 36.57 36.62
47.57 46.90 46.01 44.59 44.80 47.12 47.01 45.96 45.67 45.15 45.69 45.19 44.49 45.22 44.68 45.07 41.99 41.83 40.89 37.95 36.51 35.63 36.81 35.72 35.01 34.50 34.61 33.26 33.15 33.50 33.86 33.30 33.43 33.75 34.25 33.95 34.46 35.65 37.40 37.83 38.73 39.39 39.33 38.60 38.19 38.07 37.33 36.32 36.13 35.94 35.88 36.33 36.60 36.57
47.37 46.82 46.36 45.09 44.18 44.34 45.29 45.86 44.85 44.28 44.67 44.38 45.01 45.74 45.17 44.69 41.50 41.00 40.16 38.70 37.84 36.27 35.85 35.64 34.82 34.29 34.54 34.67 34.62 34.56 34.72 34.86 35.65 35.63 35.54 35.44 34.93 35.07 36.45 37.36 38.02 38.20 37.86 37.05 36.87 37.02 36.63 36.53 36.10 35.82 35.83 35.76 35.93 35.91

GFSWCAN_sfc_wetblb_051.txt.gz
Wetbulb
52.55 52.58 52.64 52.76 52.30 51.93 52.05 52.53 52.92 53.17 53.17 53.19 53.46 53.77 53.96 53.95 53.85 52.85 50.63 51.07 47.73 42.92 44.49 44.08 44.27 41.60 42.00 39.83 35.63 38.51 39.45 37.97 37.37 33.00 32.79 32.29 30.67 32.83 31.90 34.06 31.80 30.94 30.55 30.90 31.64 28.72 28.71 40.39 41.70 41.43 43.53 46.95 45.41 45.10
52.29 52.41 52.48 52.42 51.89 51.58 52.05 52.53 53.09 53.38 53.17 53.48 53.85 54.14 54.12 53.99 54.05 52.09 49.69 51.82 51.22 45.48 45.25 48.13 47.56 47.68 46.68 45.58 42.54 41.49 38.94 39.27 38.80 34.05 34.79 34.76 32.11 33.89 34.05 29.46 36.59 30.44 35.10 34.61 35.72 35.27 40.52 43.31 42.49 45.41 48.48 47.49 47.00 45.66
52.11 52.03 52.29 52.42 51.55 51.56 52.14 52.66 53.17 53.34 53.23 53.58 53.73 54.03 54.08 54.13 54.13 52.19 51.17 50.70 49.05 45.60 45.24 45.34 46.05 49.35 50.61 49.21 50.30 41.17 42.75 43.95 41.91 42.01 37.34 35.64 32.11 34.46 30.39 32.23 34.08 36.17 40.06 36.79 35.69 38.98 40.80 42.78 45.17 47.32 47.73 48.35 48.65 48.34
51.74 51.98 52.11 52.20 51.44 51.49 52.41 52.80 53.15 53.34 53.31 53.30 53.32 53.97 53.83 54.11 54.24 51.82 50.44 50.66 48.29 44.62 41.57 44.70 48.41 47.78 50.08 49.28 48.32 48.94 46.99 47.33 45.10 42.00 38.09 36.39 34.05 37.26 33.68 33.96 34.55 37.47 38.79 36.37 36.74 39.21 42.51 43.90 45.00 46.65 47.19 49.04 48.80 48.71
51.52 51.68 51.93 52.00 51.49 51.56 52.22 52.56 52.97 53.13 53.14 53.50 53.71 53.40 53.64 53.91 53.66 52.36 51.64 51.11 49.83 46.34 41.86 44.17 47.06 48.91 47.85 47.80 46.63 46.44 45.23 44.03 41.73 38.79 37.15 34.47 36.69 35.51 37.39 37.45 34.60 38.88 36.51 34.42 34.94 39.59 41.23 41.87 44.70 46.71 47.41 47.75 49.06 47.96
51.31 51.47 51.77 51.97 51.45 51.46 51.90 52.33 52.45 53.01 53.39 53.58 53.95 54.11 53.87 53.69 53.06 52.30 48.82 50.37 50.81 50.14 44.87 42.01 45.16 46.68 46.57 47.61 46.48 44.60 44.69 43.57 41.90 38.73 37.42 39.05 40.20 37.98 34.64 32.83 39.25 41.82 41.84 41.48 39.78 43.02 43.55 43.99 45.34 46.07 46.23 48.17 49.88 49.21
51.29 51.31 51.75 51.85 51.31 51.52 51.69 52.09 51.85 52.58 53.27 53.13 53.13 53.54 53.44 52.83 53.24 49.67 46.50 49.19 50.11 50.13 44.54 43.15 43.10 45.96 46.33 46.78 46.63 45.81 44.38 43.81 43.30 40.93 39.26 38.77 38.76 39.28 36.80 32.65 40.54 42.43 43.07 42.07 43.12 43.29 41.16 42.89 42.01 44.61 45.51 46.90 49.29 49.63
51.06 51.31 51.49 51.73 51.76 51.37 51.39 51.71 51.55 52.11 53.08 52.86 52.67 52.63 52.74 52.07 50.42 49.58 51.30 50.73 50.32 47.30 45.20 42.45 43.16 43.61 47.04 43.60 42.89 44.94 43.62 44.51 42.72 41.80 42.85 39.06 40.75 38.91 33.92 40.87 42.92 43.60 42.87 42.26 41.80 43.02 42.43 43.85 44.03 43.66 44.75 44.93 45.05 45.19
51.00 51.08 51.30 51.68 51.73 51.27 51.20 51.34 51.99 52.92 52.93 52.47 52.68 52.51 52.07 50.51 49.86 50.22 50.81 51.15 50.20 46.91 44.04 41.81 41.18 42.77 46.16 44.25 43.10 42.37 43.93 41.35 43.06 42.20 41.91 41.11 34.28 33.19 39.29 41.51 42.84 43.63 42.10 40.57 42.38 42.47 42.47 42.37 42.01 42.51 42.36 42.29 42.10 42.86
50.98 50.98 51.12 51.27 51.70 51.22 51.11 51.12 52.49 52.81 52.17 52.16 51.51 50.58 49.72 50.71 51.69 51.42 47.75 45.43 46.14 45.36 43.43 40.10 44.13 44.50 46.93 44.61 43.16 41.59 42.67 40.03 37.86 40.94 43.25 37.40 37.17 43.19 44.25 44.41 45.18 45.28 44.70 43.68 40.13 39.39 39.96 40.05 40.33 41.17 41.36 42.35 42.51 42.64
50.69 50.78 51.07 51.21 51.53 51.33 50.88 50.88 52.24 51.60 50.75 50.82 50.37 50.45 50.94 51.42 49.86 48.20 44.90 43.42 44.64 42.27 43.65 43.05 44.93 44.75 49.13 45.23 44.64 44.87 40.38 40.01 34.57 38.01 38.43 37.83 37.41 41.53 45.23 44.81 45.98 46.61 45.52 44.61 44.19 43.56 42.63 42.11 41.32 40.78 41.11 42.14 42.38 42.99
50.71 50.75 50.85 51.07 51.33 51.51 51.22 51.45 51.85 51.12 51.65 51.25 51.31 50.85 50.86 49.25 47.34 43.67 41.66 42.76 42.98 42.43 46.18 46.59 48.06 46.35 48.27 49.34 45.54 45.93 42.02 40.39 34.84 42.07 36.79 33.52 40.93 44.75 45.19 44.56 44.99 46.05 45.71 44.53 44.56 43.51 43.66 43.04 43.09 42.94 42.12 41.95 42.14 42.60
50.60 50.57 50.69 50.97 51.23 51.49 52.13 52.07 51.83 51.07 51.13 52.65 50.94 49.02 48.70 46.69 39.53 39.15 36.47 41.70 42.62 45.88 46.35 47.23 44.45 48.54 47.55 48.43 46.25 45.24 39.68 38.42 42.20 37.76 34.82 39.57 44.35 45.60 45.51 45.46 44.93 45.88 47.12 45.38 44.50 44.49 44.41 44.24 44.68 43.97 43.33 44.10 44.33 42.93
50.50 50.70 50.88 50.85 51.02 51.61 52.38 52.38 52.09 51.37 51.53 49.53 48.41 39.37 43.56 41.63 42.76 43.96 44.26 44.88 47.36 45.51 46.06 45.00 45.38 47.59 47.73 44.91 44.19 39.58 40.82 40.69 35.02 31.83 34.38 42.45 45.16 45.88 46.65 46.42 44.67 44.21 45.95 46.87 45.99 45.33 44.78 44.84 45.26 45.84 45.59 45.09 44.27 43.46
50.41 50.66 50.79 50.99 51.53 51.58 51.73 52.03 52.31 52.44 51.09 48.78 48.81 40.79 43.47 47.38 46.38 46.90 46.62 45.43 47.51 47.14 46.19 47.50 45.90 45.43 44.12 41.84 42.41 39.71 36.18 33.40 35.92 35.84 41.95 45.69 45.93 46.16 46.73 46.35 45.42 45.60 45.16 46.40 47.34 46.47 45.66 45.73 45.95 46.09 47.14 47.42 45.77 44.76
50.56 50.81 52.00 50.70 51.06 51.28 51.45 52.22 52.54 52.76 52.30 50.24 49.23 47.13 47.53 44.92 47.04 46.79 46.96 46.78 47.85 47.09 45.79 45.87 43.70 41.19 40.49 40.81 38.08 36.11 34.93 33.58 38.18 43.12 44.98 44.00 44.51 45.68 47.36 47.09 46.87 46.96 45.86 46.02 47.29 47.99 47.28 46.29 45.97 46.49 46.99 46.97 46.85 46.87
50.22 51.89 50.61 50.53 50.55 51.21 51.76 52.80 52.33 51.23 50.96 49.68 49.07 50.69 48.98 46.25 47.04 48.65 48.21 48.82 47.36 46.42 44.50 44.30 40.29 38.98 40.31 38.42 36.65 39.32 38.45 41.18 42.73 43.05 43.09 43.53 44.34 44.69 44.87 45.00 45.56 46.80 46.18 46.89 47.62 48.33 47.66 48.08 47.90 46.26 43.80 44.74 45.53 45.90
49.11 51.65 50.04 50.00 50.20 51.34 52.88 52.40 53.27 52.65 50.13 52.14 48.57 51.01 47.76 48.38 47.95 47.97 48.56 48.23 46.73 45.80 44.57 42.57 43.94 39.32 37.23 35.24 37.46 41.96 42.75 42.88 42.64 42.38 43.25 43.70 44.55 44.72 44.33 43.80 44.81 46.09 46.73 46.73 46.46 46.41 47.32 47.00 44.86 43.14 43.51 44.21 44.17 43.85
49.92 50.30 50.50 50.61 50.46 50.37 51.92 53.18 53.26 50.05 50.93 51.51 50.52 49.77 49.41 49.66 49.98 50.67 50.45 48.75 45.37 46.40 45.10 42.81 37.96 36.65 38.20 39.36 39.46 40.74 41.19 41.93 41.54 42.53 43.42 44.87 45.02 44.59 43.80 44.57 45.46 44.89 45.97 45.02 44.41 45.10 45.24 44.05 43.35 43.81 43.51 43.65 42.48 43.30
50.56 51.32 52.29 51.76 51.40 52.18 52.18 54.45 54.53 51.01 49.61 51.77 50.07 50.15 49.75 50.29 51.60 51.26 49.42 47.99 46.72 45.95 43.87 40.64 38.86 41.01 40.57 43.20 43.41 42.46 42.40 42.23 41.56 42.58 44.14 45.56 45.64 43.83 43.78 43.38 44.05 45.29 44.37 43.42 43.88 41.33 43.99 43.40 43.84 43.56 43.60 43.06 43.42 43.18
51.75 53.93 51.61 53.19 52.26 52.35 53.17 53.80 52.95 52.33 52.02 50.89 50.49 51.13 50.87 53.13 51.24 49.99 49.55 48.98 45.88 44.93 42.87 42.95 42.92 45.11 48.64 48.43 46.76 43.48 42.83 43.24 44.44 45.01 44.56 43.42 44.16 43.37 43.89 43.60 43.74 43.95 42.92 42.68 43.69 42.81 41.70 43.91 43.04 43.73 44.17 43.83 44.18 44.35
53.60 53.08 55.51 53.48 54.34 54.99 54.31 55.94 53.56 52.88 50.66 51.09 51.98 52.15 50.16 49.38 48.95 49.19 50.54 48.55 46.14 43.73 44.53 45.91 47.31 49.02 49.00 48.36 49.28 48.51 47.33 46.82 46.85 44.96 41.29 41.67 43.32 43.02 42.60 42.60 43.75 43.24 44.10 44.18 44.02 44.06 43.57 43.20 43.24 44.01 43.95 43.74 43.76 44.22
52.97 54.14 55.97 55.91 53.74 48.18 48.27 53.15 50.35 51.23 49.50 50.67 50.69 48.69 48.57 48.61 49.43 51.30 48.25 49.14 48.36 50.13 49.14 48.83 49.92 51.44 49.77 50.82 49.44 48.08 47.62 47.00 45.90 43.46 42.79 42.91 42.36 42.50 42.84 42.92 43.68 43.28 42.94 42.84 44.16 43.87 42.33 39.04 40.87 43.01 43.25 43.87 44.04 43.66
52.09 55.08 53.03 52.89 51.49 47.48 52.49 50.11 51.90 51.02 50.43 48.65 47.27 45.66 46.92 48.02 49.53 47.41 45.55 48.08 48.98 50.35 47.83 49.19 50.24 48.63 48.93 49.32 48.32 48.64 48.49 46.24 44.93 42.41 42.74 42.85 41.57 41.05 40.98 41.78 42.60 43.28 43.00 44.42 43.80 43.55 43.99 42.93 40.95 43.50 43.24 42.47 42.54 42.54
45.55 46.25 47.06 38.33 48.18 48.43 46.85 47.81 48.29 48.14 45.83 46.78 45.75 45.95 47.38 48.92 45.14 44.15 44.70 47.13 48.55 49.83 50.48 51.85 50.82 49.21 46.81 46.96 46.82 45.66 44.34 45.20 45.49 45.44 42.97 42.80 41.30 41.41 40.69 42.50 41.89 41.16 42.56 43.35 42.88 43.42 43.02 43.39 43.60 43.58 43.33 42.41 41.45 41.59
37.19 48.10 44.23 48.10 48.92 47.89 48.31 45.56 46.07 46.26 46.65 45.50 46.47 49.25 49.28 46.51 42.19 40.92 46.46 48.62 49.59 50.65 51.45 50.43 49.29 48.07 45.36 45.76 44.53 44.51 44.92 45.53 44.29 43.52 43.54 42.57 42.68 41.88 39.75 40.89 40.18 39.73 41.97 42.55 43.57 43.35 43.00 43.18 43.25 42.86 42.25 41.13 38.35 41.76
41.15 48.10 51.53 51.82 50.45 50.90 49.36 50.32 50.31 48.06 46.00 45.18 47.77 46.11 46.32 40.63 40.47 45.15 49.62 50.50 51.23 52.53 51.98 51.31 49.65 45.94 43.71 44.40 45.91 44.60 44.42 44.55 43.95 42.85 43.64 43.64 42.57 43.89 44.32 41.97 40.57 41.52 42.94 43.51 43.72 43.59 43.00 42.45 42.43 42.24 41.99 42.48 42.86 42.76
50.56 51.06 48.69 50.21 50.03 51.76 48.63 48.07 47.14 46.75 47.71 50.09 48.30 44.21 43.06 42.61 43.75 49.00 50.53 51.88 52.55 50.47 44.77 44.17 44.25 43.62 42.38 41.83 42.01 42.78 43.08 43.14 43.14 43.14 42.57 42.60 42.85 42.54 43.78 43.92 43.57 37.95 42.74 42.57 43.11 44.39 43.93 43.07 42.48 42.32 41.86 41.75 41.98 43.09
49.98 53.87 52.90 50.36 50.13 50.33 50.24 49.74 49.65 50.97 52.08 50.56 48.30 46.56 46.87 49.92 51.37 51.48 51.58 50.38 50.92 45.13 43.82 42.53 41.40 42.74 42.32 41.92 41.61 41.38 42.37 43.20 42.36 40.30 39.56 39.44 39.42 40.13 44.51 44.77 44.52 45.11 44.28 43.55 37.56 40.81 43.46 43.26 43.42 43.00 42.65 43.04 43.17 43.59
49.99 52.99 50.99 49.95 49.42 49.53 52.38 52.91 52.65 52.85 53.13 52.57 51.62 50.22 50.44 51.28 51.55 48.67 47.60 47.34 47.10 44.41 43.56 43.28 42.68 42.78 41.20 40.97 39.79 39.22 40.34 40.92 40.86 39.84 38.29 38.03 39.07 40.69 43.33 45.24 44.46 44.17 44.40 43.83 43.11 42.48 38.42 42.03 40.64 42.80 42.15 42.58 43.02 42.91
52.84 52.39 51.28 51.13 50.77 51.68 53.12 53.03 53.22 53.26 52.97 51.90 50.67 49.80 48.73 49.04 47.98 46.61 45.22 44.60 44.23 43.75 43.00 41.83 41.34 41.99 41.26 40.65 40.00 38.97 37.53 39.71 40.62 41.03 41.33 41.82 42.39 42.87 43.39 43.92 44.70 45.59 45.68 44.79 42.95 42.55 42.11 41.74 41.67 41.00 40.77 40.36 40.42 40.61
51.95 51.94 51.30 49.35 50.23 51.63 52.46 51.66 51.10 50.77 51.04 50.17 49.85 50.24 49.29 49.54 46.73 45.89 45.12 44.72 43.97 43.20 40.39 42.49 41.21 39.86 40.99 41.07 40.66 39.76 37.41 40.25 40.42 41.15 42.30 42.99 43.16 43.68 44.16 44.28 44.38 44.22 43.83 43.20 43.06 42.55 41.85 41.07 41.21 40.87 40.69 39.88 40.13 40.15
52.43 51.96 51.36 49.89 49.01 48.63 50.43 50.27 49.31 48.93 49.29 48.67 49.14 49.52 48.75 48.48 46.70 45.87 45.20 46.40 46.12 44.54 43.57 43.48 42.19 42.01 42.11 41.85 40.76 39.96 39.88 40.84 37.82 35.19 35.73 35.35 35.07 38.38 42.96 43.52 43.41 43.18 42.51 42.41 42.28 42.02 41.15 40.65 40.26 40.04 39.96 39.71 39.44 39.30

GFSWCAN_sfc_wetblb_054.txt.gz
Wetbulb
52.73 52.68 52.70 52.63 52.24 52.26 52.47 52.76 53.34 53.48 53.30 53.36 53.74 53.92 54.19 54.16 53.44 53.94 52.47 55.42 51.44 47.07 49.19 48.61 46.69 42.79 44.61 41.67 38.30 42.34 41.39 40.83 38.43 34.63 34.80 35.05 33.95 34.28 33.74 35.51 35.20 34.09 31.89 32.29 33.78 30.77 29.40 42.64 38.69 37.81 43.20 48.36 47.62 48.11
52.52 52.57 52.58 52.49 51.95 52.09 52.51 52.92 53.52 53.50 53.65 53.80 54.05 54.46 54.27 54.32 53.99 53.10 51.55 53.47 54.08 47.17 49.68 52.46 51.74 50.83 48.56 48.13 44.13 44.64 43.03 41.61 39.54 35.34 36.01 35.68 33.74 35.37 33.90 32.10 41.12 33.02 38.21 35.75 36.88 38.30 42.48 43.30 41.17 44.27 47.89 46.91 48.37 47.98
52.23 52.06 52.27 52.56 51.83 52.10 52.45 52.86 53.38 53.56 53.47 53.82 53.99 54.17 54.45 54.22 54.09 53.02 54.73 53.97 51.89 49.58 50.67 50.82 48.96 51.98 54.09 51.89 52.55 42.99 46.29 46.38 44.09 43.50 38.49 36.68 32.29 35.19 32.41 32.65 35.35 38.67 38.88 36.98 36.93 41.70 40.78 42.79 44.47 45.22 47.53 48.12 49.77 49.54
51.87 52.14 52.37 52.32 51.89 51.70 52.32 52.49 52.98 53.23 53.34 53.30 53.38 53.84 54.00 54.46 53.93 53.57 55.06 55.37 53.32 50.20 46.64 48.68 53.23 51.00 53.00 53.53 51.30 50.67 48.39 48.90 47.15 45.04 40.52 36.96 34.40 38.06 35.12 35.18 35.42 35.79 38.53 36.43 36.59 39.62 40.08 42.68 43.73 45.45 47.58 49.31 49.51 50.00
51.51 51.75 52.09 52.11 51.96 51.92 52.16 52.05 52.47 52.86 53.25 53.48 53.60 53.48 53.84 54.18 54.16 54.84 56.80 56.44 55.93 50.07 47.52 47.69 50.25 52.37 49.31 52.24 49.92 50.04 49.59 48.18 48.69 44.03 40.64 37.47 38.31 36.40 38.51 39.08 35.52 39.46 35.64 34.05 34.31 38.71 40.34 41.46 44.90 46.23 46.85 47.79 49.59 49.26
51.24 51.54 51.81 52.18 51.71 51.82 51.71 51.93 52.28 52.55 53.21 53.42 53.67 53.87 54.18 54.36 52.96 55.02 49.90 55.23 56.72 54.95 47.67 44.15 48.53 48.65 49.68 49.41 52.03 50.61 49.97 50.31 50.01 45.91 41.90 42.15 42.23 40.00 35.73 34.28 39.91 41.46 42.77 41.51 38.62 42.10 42.86 43.46 44.96 46.12 45.54 47.83 49.13 49.17
51.21 51.34 51.78 52.10 51.99 51.81 51.78 51.71 51.83 52.08 52.84 53.15 52.57 53.65 54.09 53.63 55.45 52.95 50.82 52.85 52.70 55.63 47.73 45.74 47.74 51.37 49.30 50.07 53.10 52.20 51.46 50.92 49.26 45.69 43.97 43.50 43.57 42.33 38.65 33.56 40.98 42.96 42.62 42.72 42.99 42.55 41.39 42.69 41.87 44.82 45.77 47.42 48.30 47.50
51.02 51.30 51.52 51.83 51.77 51.68 51.44 51.29 51.58 51.92 52.47 52.80 53.05 52.92 53.29 52.89 52.14 52.31 54.74 50.77 52.77 50.20 50.38 45.02 49.03 49.04 51.72 47.48 43.51 51.69 49.78 49.92 49.72 48.30 47.73 43.93 44.25 42.76 35.73 42.04 43.95 44.14 43.15 42.21 42.48 42.65 42.72 43.68 44.27 43.93 45.74 46.21 45.14 44.25
50.85 51.09 51.51 51.59 51.61 51.25 51.26 51.02 51.47 52.44 53.06 52.84 52.90 52.63 54.09 52.84 52.20 53.02 52.72 51.70 53.31 48.78 45.58 46.05 45.58 45.06 50.27 48.94 47.41 44.94 47.61 44.97 49.96 45.97 46.27 45.80 36.46 34.64 41.37 43.04 44.30 45.31 43.26 42.12 42.90 42.55 42.43 41.53 42.12 42.82 43.63 44.44 43.83 43.78
50.81 50.84 51.25 51.34 51.59 51.36 51.32 50.97 51.43 52.90 52.67 52.55 53.72 52.78 50.05 54.03 53.09 52.79 50.26 48.50 48.13 48.54 47.13 43.93 49.42 46.82 50.01 48.39 47.33 44.46 44.31 43.45 40.73 44.37 48.41 41.71 39.64 44.18 45.43 46.51 47.01 47.00 46.49 45.77 42.52 40.50 40.86 40.65 41.28 41.41 41.69 42.88 43.56 44.10
50.73 50.80 51.12 51.32 51.43 51.44 51.17 50.97 51.96 52.08 51.42 55.19 54.73 55.21 55.46 52.71 51.61 49.83 47.42 47.81 50.35 47.15 48.90 49.37 50.19 48.36 53.64 46.59 47.98 48.50 43.09 44.08 39.38 41.72 41.76 42.53 40.63 43.83 45.14 46.19 48.31 47.76 48.05 46.85 46.41 45.73 44.70 43.56 41.97 41.76 42.32 42.69 42.55 42.99
50.52 50.73 50.86 51.08 51.33 51.40 51.37 50.99 52.08 54.17 58.12 54.75 55.44 55.10 56.45 50.56 50.39 48.04 48.28 48.60 47.99 46.15 51.09 48.91 50.42 51.10 51.74 53.00 47.81 49.19 45.43 44.72 36.47 46.08 41.97 36.28 44.68 46.39 46.92 45.63 47.04 47.80 49.14 47.88 47.30 46.29 46.58 45.67 45.52 45.07 44.60 44.18 43.07 43.22
50.50 50.75 50.83 51.19 51.24 51.19 52.06 52.08 51.95 51.86 52.55 57.34 55.00 52.73 52.98 52.63 42.19 43.04 39.61 45.10 46.50 49.86 50.40 50.09 48.19 51.23 49.80 50.54 47.70 46.71 42.69 42.99 48.02 39.93 36.62 41.68 46.06 48.87 48.64 48.24 46.69 48.66 48.92 48.31 48.04 47.65 47.35 47.16 47.47 46.99 46.44 46.60 46.12 43.61
50.55 50.85 51.01 51.25 51.00 51.58 52.45 52.53 52.39 52.53 55.29 53.81 51.92 40.97 48.11 46.27 47.90 49.07 48.44 48.76 51.32 51.35 50.42 49.73 49.09 50.02 48.81 46.81 48.60 42.64 46.04 45.63 39.77 36.82 35.09 44.91 47.03 48.99 49.47 49.40 47.58 46.36 46.91 47.34 48.04 48.42 47.30 47.14 47.28 47.92 47.77 48.00 46.76 45.63
50.60 50.84 51.11 51.46 51.50 51.92 52.11 52.31 52.16 55.34 56.36 52.46 52.85 42.80 48.04 51.53 51.91 52.41 53.04 52.07 53.11 53.55 51.45 49.39 50.55 50.74 48.28 45.70 46.59 44.96 39.48 37.28 39.60 39.52 43.91 46.73 48.25 48.82 48.79 48.69 47.93 47.63 47.90 47.70 48.17 48.02 47.85 47.25 46.88 46.83 47.67 47.98 48.19 48.04
50.78 50.25 54.82 50.90 51.31 52.04 51.66 51.93 54.37 57.71 56.58 53.85 52.85 50.51 52.54 50.81 50.64 51.31 52.16 50.92 54.39 52.94 51.88 50.41 46.82 45.05 43.93 44.19 40.77 38.25 36.39 35.43 41.34 43.94 46.45 47.43 48.99 49.25 49.26 49.62 49.52 49.33 48.38 49.54 49.65 48.39 48.10 47.48 47.23 47.30 47.20 47.28 47.35 47.38
49.92 57.71 50.87 50.60 51.38 51.96 52.20 56.42 56.73 53.92 54.35 52.74 52.11 55.43 53.91 53.08 52.33 53.27 53.35 52.36 53.10 50.65 46.78 45.99 39.32 39.57 42.62 37.69 35.72 39.65 36.67 40.14 42.98 44.53 46.75 47.78 47.71 48.35 48.73 48.47 49.02 49.27 48.64 49.56 49.52 49.36 48.88 49.05 48.22 46.49 45.40 46.87 47.02 47.43
54.17 55.23 50.69 50.36 51.71 52.11 56.72 56.44 56.56 55.63 52.18 54.29 52.01 52.86 55.31 55.28 53.58 53.19 53.30 53.83 52.04 48.61 47.85 41.93 43.85 38.54 36.72 34.80 35.61 39.57 41.05 43.13 44.43 45.11 45.87 47.97 48.98 49.59 49.10 48.51 49.37 49.97 49.69 49.50 49.33 48.33 49.52 48.36 47.23 45.76 46.03 46.98 46.73 46.75
52.51 52.24 50.99 50.84 51.27 55.20 55.77 56.38 57.02 52.73 53.68 54.94 55.63 56.34 55.80 55.62 55.83 56.18 54.98 53.44 51.62 51.82 49.36 46.82 38.80 37.93 38.68 42.53 43.21 44.51 44.19 45.84 45.04 46.54 47.86 49.67 49.60 48.76 48.21 48.49 48.79 49.15 49.99 49.60 48.43 47.38 47.37 47.21 46.18 46.51 46.68 46.77 45.56 45.95
50.38 51.64 52.43 51.87 52.05 56.80 53.43 57.01 60.67 56.14 52.97 54.88 56.56 55.24 53.67 54.68 56.21 55.71 53.10 53.05 53.23 52.08 46.98 44.25 39.59 41.75 47.12 48.05 48.57 48.41 49.31 49.85 47.53 45.04 44.66 47.94 48.62 48.19 47.98 47.54 46.95 48.48 49.07 48.09 47.35 40.13 48.31 46.90 47.14 46.85 46.37 45.80 45.61 45.34
51.39 55.37 52.09 54.95 56.64 57.02 56.42 57.31 55.97 57.13 55.79 54.48 56.61 55.82 54.98 57.31 53.59 52.86 52.13 55.56 50.27 48.62 47.10 50.09 49.11 48.36 50.89 51.66 52.08 51.55 50.75 48.89 46.92 46.61 47.05 45.59 46.61 47.08 47.54 48.40 49.09 49.27 47.26 46.08 45.05 45.21 43.07 46.40 46.70 47.92 47.42 46.48 47.05 47.32
59.48 53.35 59.79 56.92 57.64 58.56 57.93 60.87 57.46 58.94 56.16 55.98 56.14 56.73 54.73 53.18 52.02 52.07 54.11 50.87 49.62 50.01 48.88 50.13 52.04 51.50 51.59 51.50 52.09 53.44 53.17 51.25 50.85 49.89 41.41 43.96 44.83 46.00 46.20 46.91 47.62 47.25 46.61 47.48 45.83 45.57 45.78 46.73 47.54 48.96 47.61 47.11 45.53 46.05
54.07 56.31 59.67 58.84 55.97 52.76 51.15 58.70 53.70 55.12 51.84 54.08 55.52 52.30 53.32 53.23 53.03 55.21 51.07 51.01 52.11 55.09 52.80 52.32 52.83 54.05 53.28 53.88 53.43 53.44 53.02 51.31 51.53 49.84 46.22 44.88 46.13 47.10 45.80 45.80 45.96 45.12 45.34 45.61 47.37 48.26 45.96 41.73 44.89 45.94 47.05 48.04 46.14 44.65
51.68 57.80 55.16 55.63 55.52 50.41 57.53 54.05 56.06 54.96 55.56 53.08 51.67 48.78 50.44 51.63 53.81 51.62 47.26 49.61 51.84 54.49 54.21 52.98 53.39 52.68 52.26 51.90 51.38 50.53 53.25 52.73 52.03 48.62 48.13 46.94 45.35 45.49 46.53 46.03 45.04 45.30 45.47 46.27 48.07 46.07 45.36 45.40 43.24 45.13 45.24 46.32 44.54 43.56
48.38 48.95 50.11 40.85 54.71 51.66 49.86 50.40 51.51 52.26 48.76 50.77 48.85 49.68 51.91 53.79 49.68 47.74 46.20 48.94 50.82 51.19 52.41 53.43 52.79 51.75 49.05 48.49 48.69 48.98 51.78 50.36 47.85 46.31 48.86 48.38 46.90 46.37 45.08 45.29 45.26 45.51 45.90 44.88 44.38 44.29 44.14 44.73 44.86 45.37 44.44 43.55 43.11 42.57
40.11 50.51 45.75 50.39 52.57 51.06 52.70 48.43 49.16 49.39 50.62 49.05 50.16 53.88 54.08 51.10 44.83 43.07 47.94 49.88 51.07 52.53 52.93 52.78 51.75 49.97 48.16 48.69 47.18 47.03 47.90 49.66 49.09 47.26 46.90 48.57 46.03 43.83 42.40 43.20 41.19 43.36 46.34 45.58 44.75 44.57 45.04 45.61 45.27 43.97 43.79 42.21 39.22 42.75
42.53 49.84 54.83 57.61 55.23 55.17 54.03 55.55 55.12 52.55 49.22 48.76 52.39 50.41 49.96 43.36 43.65 48.52 52.82 53.06 52.58 54.08 53.99 52.82 50.20 47.92 46.18 45.92 46.50 47.09 47.59 47.93 47.33 46.83 47.70 47.71 47.42 46.38 45.31 45.04 42.83 45.08 47.72 46.48 47.06 47.09 44.32 44.64 44.25 43.82 44.13 42.93 43.99 43.26
52.83 53.69 50.64 53.99 53.67 56.11 51.49 52.67 50.92 49.74 51.97 54.81 53.64 47.61 45.50 45.12 46.84 51.69 52.19 53.90 54.42 52.12 50.79 49.16 48.28 47.67 46.71 46.06 46.30 46.57 46.81 47.22 47.28 47.41 47.40 47.40 47.49 47.18 46.98 46.14 46.07 38.99 45.34 45.42 46.00 46.12 44.86 45.50 43.94 44.01 43.44 43.14 44.46 44.07
52.66 56.28 55.52 52.53 53.38 54.25 54.05 53.08 53.85 56.39 57.45 55.49 52.90 51.39 50.12 53.33 53.43 52.55 52.94 53.70 52.19 50.59 48.19 46.74 46.74 48.07 46.99 46.02 45.09 44.84 45.12 45.34 44.81 42.60 41.83 41.49 41.62 43.26 46.42 45.84 45.17 46.28 46.13 45.50 37.10 41.14 44.93 44.93 44.77 44.21 43.81 44.21 43.77 43.87
52.53 55.98 53.73 52.48 51.49 52.52 56.40 58.09 58.06 57.72 58.56 58.07 56.02 53.51 52.93 52.39 52.87 53.69 52.66 51.87 49.93 48.76 48.25 47.91 47.73 46.77 44.78 43.82 42.52 42.35 43.93 44.19 43.88 42.93 41.54 41.43 42.60 45.32 47.14 44.92 45.04 46.01 46.71 45.67 44.86 44.59 38.68 42.87 41.14 44.26 43.26 42.86 43.54 43.20
57.67 55.68 53.46 54.58 54.01 57.28 58.37 58.31 58.34 57.94 57.18 56.58 56.80 54.99 52.33 49.97 49.65 51.53 51.90 51.51 49.54 48.60 47.58 46.68 46.35 46.20 44.49 43.50 43.00 41.70 40.58 43.84 44.42 44.68 45.45 45.41 45.63 45.92 46.42 46.21 46.96 47.44 47.46 46.43 44.93 44.41 44.11 43.44 42.64 42.42 41.73 41.32 41.66 41.16
55.25 54.13 54.76 52.16 55.07 57.81 57.51 56.50 56.55 55.82 55.49 54.33 53.55 53.99 51.58 49.89 47.64 47.96 49.96 49.99 48.69 47.86 43.75 46.47 45.40 44.06 44.78 44.24 43.74 43.28 39.95 43.86 44.49 45.29 45.49 45.77 45.89 46.14 46.58 46.95 47.22 46.90 46.71 45.79 46.28 44.54 43.60 42.80 42.24 41.67 41.72 40.54 40.96 41.07
56.22 56.56 56.29 55.51 54.36 52.75 55.50 54.77 53.56 53.12 53.65 53.08 52.95 52.82 52.05 51.45 49.24 50.12 50.42 51.21 51.14 48.74 47.85 47.36 46.74 46.45 45.77 44.79 43.89 42.92 42.19 43.95 39.75 35.58 36.21 35.67 35.22 38.72 45.86 46.12 46.25 46.22 45.34 45.97 45.09 44.37 43.14 42.23 42.19 41.56 41.32 40.86 40.60 40.75

GFSWCAN_sfc_wetblb_057.txt.gz
Wetbulb
53.32 53.03 53.17 53.05 52.67 52.67 52.88 53.23 53.77 53.93 53.62 53.80 53.76 54.06 54.18 53.95 53.69 54.62 55.88 58.18 53.73 51.29 51.67 51.82 49.94 48.02 46.34 47.75 42.03 45.94 44.06 44.04 40.10 35.74 36.42 35.49 35.26 35.31 34.26 38.83 36.22 36.58 34.27 34.05 36.04 32.80 30.22 46.57 45.46 38.93 42.39 42.50 42.81 49.69
52.89 52.82 52.90 52.70 52.55 52.61 52.84 53.31 53.91 53.77 53.56 54.29 54.36 54.33 54.45 54.30 54.27 53.93 55.75 58.27 57.71 52.05 52.61 55.60 54.67 53.64 51.52 50.05 48.48 46.68 43.98 43.62 43.01 37.36 37.32 36.71 34.58 36.58 34.22 34.37 43.15 36.39 40.17 38.31 38.98 38.36 45.54 45.97 45.03 48.41 46.03 42.88 43.60 49.21
52.47 52.26 52.57 52.78 52.49 52.38 52.55 53.11 53.48 53.19 53.19 53.74 54.09 54.21 54.36 54.39 54.53 53.54 57.05 58.30 55.75 52.70 51.07 50.00 51.67 54.96 56.51 54.79 54.61 44.82 48.99 47.69 45.31 46.77 40.42 37.62 32.77 35.66 33.68 34.22 37.39 40.95 42.23 38.24 38.97 42.29 41.71 42.93 45.42 45.41 44.83 43.70 46.75 50.32
52.06 52.24 52.53 52.60 52.37 52.32 52.34 52.75 52.71 53.23 53.32 53.40 53.63 54.09 54.15 54.43 54.65 53.94 57.14 58.34 55.86 53.15 48.72 47.68 56.09 53.56 55.76 56.33 54.37 53.37 50.99 51.86 49.29 47.42 41.91 38.91 36.27 39.34 35.94 36.67 36.21 38.02 39.35 36.57 36.97 39.77 40.40 42.71 43.97 44.20 44.98 47.64 49.92 51.13
51.54 51.83 52.12 52.43 52.31 52.20 52.05 52.40 52.48 53.05 53.46 54.02 54.13 53.97 54.12 54.58 54.93 55.20 57.52 59.03 59.85 52.72 48.45 48.16 54.00 54.85 54.63 55.20 53.37 53.50 52.44 50.46 49.49 45.92 42.59 39.11 40.28 38.60 40.05 38.32 36.86 39.90 37.06 34.92 34.28 39.37 39.10 40.55 43.39 44.81 44.66 47.73 48.93 49.29
51.26 51.55 51.93 52.23 52.44 51.93 52.03 52.09 52.38 52.78 53.37 53.81 54.45 54.38 54.28 54.43 54.03 54.72 52.19 58.36 59.38 56.17 48.84 45.79 56.25 53.58 55.07 54.62 53.89 54.01 53.41 50.88 50.12 48.16 46.35 45.54 44.74 41.75 36.47 34.22 40.31 43.23 42.78 42.14 39.04 41.83 42.52 43.46 44.60 44.90 45.22 47.89 48.36 47.87
51.30 51.45 51.89 52.16 52.18 52.06 51.89 51.80 52.05 52.61 52.90 53.74 53.57 54.19 54.53 54.28 55.99 52.52 52.07 54.07 53.04 56.23 48.21 47.30 49.97 54.87 54.79 54.82 53.92 53.26 53.05 50.43 49.74 48.30 47.74 47.51 44.55 44.67 40.42 33.86 41.41 42.96 43.84 43.37 42.66 41.50 40.50 42.45 41.28 44.11 45.69 47.09 47.64 47.00
51.11 51.47 51.74 52.12 52.02 52.00 51.68 51.77 51.89 52.20 52.59 53.58 53.53 53.25 53.89 53.72 53.38 53.26 57.22 52.42 53.79 52.50 52.05 48.04 50.02 51.87 55.29 52.13 50.83 53.66 49.59 50.75 49.29 48.83 49.54 46.55 46.85 45.04 35.49 42.54 43.91 43.35 44.23 44.31 44.46 43.77 42.70 44.54 44.11 43.92 45.00 45.61 45.05 44.47
50.86 51.26 51.54 51.85 52.06 51.74 51.46 51.47 51.52 52.07 52.74 53.42 53.49 53.02 55.37 54.29 53.26 54.04 53.47 52.65 56.81 52.17 46.80 51.75 47.00 44.84 55.30 52.52 52.41 51.20 50.08 45.31 49.59 48.92 47.20 47.24 41.19 34.58 42.71 44.26 45.08 45.21 43.97 44.22 45.67 44.70 44.69 42.74 42.67 42.88 43.23 43.13 42.95 43.61
51.01 51.07 51.44 51.69 51.86 51.97 51.57 51.63 51.62 52.41 53.28 53.38 53.78 53.92 52.57 54.65 53.73 54.00 53.68 49.87 49.59 49.64 50.82 49.20 52.70 47.59 52.62 52.03 48.88 49.86 50.33 45.62 43.47 45.11 48.42 45.45 42.06 46.46 46.40 46.21 47.80 47.46 47.03 46.09 43.79 42.87 42.92 43.19 42.64 42.94 42.66 43.22 43.55 43.45
50.80 51.10 51.38 51.57 51.72 51.97 51.74 51.63 51.44 53.08 52.22 56.02 56.73 54.86 57.63 53.52 54.86 51.68 49.87 50.14 52.70 49.39 52.70 52.46 52.02 49.91 55.23 50.14 48.76 51.36 47.62 48.29 40.88 42.08 43.80 41.50 42.05 44.70 46.89 46.75 48.23 48.77 47.89 46.73 46.42 46.56 46.24 46.18 45.65 44.58 44.56 43.76 43.17 43.81
50.69 50.98 51.05 51.29 51.77 51.62 51.64 51.71 51.83 54.58 59.90 56.18 56.17 57.60 60.17 53.38 52.01 50.68 49.76 51.24 49.58 47.07 51.90 51.20 51.31 52.49 53.98 55.97 50.37 50.56 46.12 45.84 39.95 49.53 43.90 38.54 43.14 47.72 47.10 47.63 48.06 48.37 48.36 47.45 47.83 47.01 46.73 46.24 46.18 45.97 46.55 46.16 43.49 43.64
50.65 50.85 51.07 51.40 51.79 51.59 52.03 52.17 51.63 52.63 53.13 59.68 57.19 53.93 53.88 54.50 44.38 45.73 43.67 47.06 46.36 50.67 52.35 51.95 49.87 52.91 53.72 52.57 48.76 48.79 44.10 40.62 46.51 40.62 39.81 43.27 47.05 48.11 47.80 48.77 48.05 49.42 48.87 48.69 47.96 47.63 47.92 47.08 47.46 47.20 46.90 47.22 47.09 47.08
50.70 50.92 51.18 51.76 52.14 52.18 52.92 53.35 52.66 53.09 54.88 56.01 53.81 42.63 50.15 48.18 48.30 49.39 49.78 49.52 52.66 53.63 52.61 51.83 49.21 49.62 52.65 48.30 48.96 42.54 44.77 45.03 39.13 36.63 37.90 44.65 49.40 49.28 48.43 49.21 49.24 48.38 48.69 48.05 48.52 48.18 47.08 47.97 47.23 48.49 47.70 47.76 47.15 46.11
50.81 50.91 51.34 51.55 51.81 52.50 52.71 52.49 52.30 56.34 57.91 54.24 54.35 44.40 49.62 52.54 53.19 53.39 54.34 53.88 54.40 55.23 52.59 51.18 49.03 49.16 48.32 45.02 45.46 43.77 39.92 36.75 38.45 38.25 42.57 46.29 49.06 49.81 48.84 47.68 48.82 48.61 48.60 48.93 49.25 48.58 47.27 47.01 47.75 47.23 48.20 48.43 48.31 48.08
50.92 50.14 54.93 51.70 52.07 52.42 52.20 52.62 54.25 59.71 58.53 55.82 54.25 51.66 52.82 50.77 51.84 53.30 54.72 52.39 54.96 54.94 54.77 51.87 46.63 42.19 40.14 41.31 40.64 38.09 37.73 35.93 38.88 42.12 46.14 49.06 49.22 49.82 49.57 49.42 49.43 50.02 49.39 49.87 49.91 49.48 48.79 47.70 47.33 47.90 48.44 48.50 48.40 48.67
49.65 59.63 51.35 51.05 52.12 52.62 52.55 57.46 59.34 56.19 55.86 54.03 53.08 55.08 54.20 52.91 52.47 52.28 53.83 55.20 57.71 53.54 48.97 47.49 41.22 39.69 46.68 40.82 38.05 44.34 38.81 43.31 44.59 45.39 46.81 48.60 48.42 49.22 49.71 49.54 49.53 49.98 49.31 49.38 48.25 50.29 49.89 49.86 48.90 48.02 47.14 48.62 48.37 48.77
56.70 56.62 51.25 50.90 52.53 53.21 58.81 57.60 57.65 56.51 53.11 54.78 52.01 53.66 55.56 56.11 55.11 55.00 56.14 55.28 53.45 52.41 51.81 46.39 46.96 41.90 39.85 37.98 42.66 45.87 46.98 48.19 48.27 48.95 49.88 49.48 50.16 50.44 50.31 49.65 49.86 49.98 49.65 49.77 50.63 49.73 49.02 48.62 48.05 47.11 48.80 48.56 48.94 48.52
54.15 53.63 51.27 50.85 52.83 57.37 57.73 58.43 58.88 53.61 53.73 55.06 56.04 57.42 56.51 56.90 58.46 57.86 55.61 56.18 56.03 54.87 50.96 47.86 42.23 44.03 42.77 46.95 46.26 48.01 47.99 45.99 45.50 46.79 48.17 50.87 51.03 50.43 50.00 50.15 50.04 49.79 50.48 50.12 49.51 48.46 48.54 49.33 47.61 47.54 47.64 47.38 46.13 47.17
50.46 50.91 51.75 52.41 52.29 58.76 55.50 57.40 62.65 56.71 53.77 56.21 57.53 55.70 55.85 56.76 57.70 55.52 54.10 53.65 53.06 53.46 49.00 47.00 48.34 48.22 45.84 49.21 49.77 48.33 48.73 49.33 47.78 47.70 46.76 49.36 49.81 49.98 49.95 49.01 48.27 49.04 48.95 49.50 49.43 42.56 49.86 47.65 47.64 47.45 47.41 47.12 46.61 46.06
49.99 56.18 52.73 55.80 57.37 59.04 57.43 57.28 56.99 58.19 56.94 55.38 58.20 56.94 55.84 57.36 54.75 53.66 53.16 53.75 50.51 49.56 47.32 50.10 51.43 53.14 52.56 53.59 53.98 54.12 53.78 52.33 50.37 50.08 49.24 48.01 48.58 48.38 48.15 48.85 48.93 48.50 47.38 48.07 47.03 46.63 45.00 47.77 47.79 47.31 47.75 46.75 47.17 46.75
60.62 53.57 61.52 58.63 58.73 59.74 58.65 60.30 57.99 58.92 57.84 56.67 56.98 57.13 54.77 52.88 52.53 52.67 54.80 50.24 49.96 50.95 51.66 51.55 53.14 53.48 54.10 53.83 53.72 54.31 54.40 54.35 54.36 51.84 45.34 45.18 47.19 46.70 46.51 47.98 47.76 46.92 47.10 46.82 46.63 47.91 48.96 47.70 47.18 48.94 47.78 48.10 46.78 46.95
52.90 57.74 61.00 59.84 56.48 54.49 52.68 61.97 55.67 57.02 53.40 53.89 56.32 52.54 53.19 53.20 54.04 57.67 51.83 51.54 52.38 55.50 54.90 55.42 54.76 55.48 54.14 54.52 54.41 53.09 53.84 52.96 52.89 51.91 49.03 50.19 48.72 48.87 47.95 47.94 47.88 46.01 46.54 46.54 47.85 46.83 47.78 41.78 46.16 48.32 47.68 47.19 47.43 46.16
52.43 58.89 55.84 56.00 56.07 51.16 58.79 55.79 57.59 55.91 57.03 54.04 52.74 49.93 51.45 52.49 55.48 51.15 48.64 52.02 52.28 53.71 53.45 54.10 53.98 52.27 52.43 53.11 50.34 50.81 50.73 50.69 48.80 49.13 51.15 47.69 46.56 47.17 49.40 46.91 47.12 46.56 46.32 47.10 47.23 45.77 48.00 47.63 44.91 46.14 47.53 45.86 47.26 44.81
50.30 49.01 51.70 42.79 56.62 53.63 52.50 52.16 52.40 52.35 49.80 52.29 50.46 50.29 51.82 55.60 49.52 47.94 46.98 48.99 51.16 51.91 52.75 53.91 52.79 51.50 49.64 49.00 48.99 49.34 51.32 49.61 48.09 47.60 50.34 50.60 47.48 46.21 46.53 46.42 47.32 47.09 47.67 46.44 45.75 45.58 47.07 47.17 46.42 47.18 45.18 46.02 44.75 44.52
42.08 52.53 46.81 52.11 52.88 52.49 53.07 49.59 50.32 50.80 51.75 50.54 51.52 55.22 56.51 52.04 45.92 44.08 48.76 50.60 51.13 52.00 52.33 52.36 50.08 48.53 47.85 47.79 46.41 46.46 47.35 49.07 49.23 47.73 48.73 47.70 47.30 47.40 46.18 46.78 45.77 47.05 48.53 47.17 46.49 46.45 43.30 45.33 46.33 45.71 44.78 43.42 39.65 44.43
44.80 51.30 55.46 58.58 57.22 57.35 55.06 57.08 57.57 54.47 50.46 49.86 53.52 52.26 51.15 45.02 44.68 49.84 54.06 54.13 52.68 52.76 52.62 51.06 49.52 48.03 46.88 46.57 47.62 48.45 48.89 49.30 48.91 48.30 49.28 49.17 47.77 48.27 46.69 45.51 44.12 45.04 48.22 47.15 46.44 46.98 46.26 45.47 44.42 45.43 45.16 46.00 45.55 45.11
53.40 54.76 52.50 55.66 55.45 57.90 53.02 54.01 52.02 50.98 52.72 55.90 54.33 48.92 47.75 47.54 48.43 54.01 54.57 55.21 53.91 52.72 50.95 50.39 49.98 49.02 47.45 46.76 47.09 47.93 48.82 49.24 49.19 49.21 48.81 47.86 47.30 47.29 47.84 47.12 47.22 41.02 45.92 46.72 47.25 48.08 46.50 46.13 46.24 45.35 44.95 44.64 44.32 44.75
53.81 55.91 56.03 53.90 55.05 55.97 55.48 53.88 53.22 56.56 58.62 56.60 52.61 51.79 52.77 55.74 55.53 54.62 55.17 54.97 54.56 53.82 50.36 49.92 50.02 51.31 48.68 47.36 46.78 46.52 46.60 46.75 46.72 45.06 43.25 42.71 43.88 44.15 47.21 47.55 49.38 47.54 46.81 46.36 37.84 42.03 45.16 45.46 45.84 45.04 45.47 45.81 46.96 45.64
54.49 57.98 55.09 54.10 53.20 52.25 55.49 58.36 57.41 60.11 61.35 59.65 58.69 56.77 56.17 55.37 55.82 56.50 55.50 54.14 53.71 52.30 50.55 49.94 49.34 48.87 46.91 46.12 44.68 44.83 46.33 46.42 46.21 45.99 44.64 43.72 44.47 46.77 47.23 46.77 46.91 46.46 46.27 46.01 45.65 45.53 39.92 44.18 42.18 46.11 46.01 45.71 45.50 45.61
58.65 56.84 54.88 54.82 53.20 55.84 58.87 61.02 62.05 61.44 60.23 59.03 60.06 57.27 56.09 54.53 53.40 54.43 55.04 55.69 53.89 52.58 50.49 49.15 48.17 47.64 46.94 46.05 45.74 44.37 43.87 46.27 47.09 47.36 47.28 47.31 47.53 47.62 47.22 48.00 49.06 49.52 48.70 46.54 45.78 45.25 46.49 45.10 44.99 44.22 43.54 43.07 42.79 42.91
56.39 55.14 54.58 52.89 54.13 59.43 61.26 58.71 58.71 57.69 57.98 57.07 56.66 57.55 55.07 52.34 49.97 51.22 54.36 53.86 52.33 51.61 45.07 49.92 47.58 46.05 46.81 46.25 46.03 45.89 41.68 47.14 47.51 48.15 47.41 47.75 47.65 48.05 49.18 49.13 49.49 48.51 47.78 46.86 47.36 45.43 45.57 44.02 44.52 43.47 43.02 42.47 42.41 42.39
56.24 55.82 56.48 55.60 56.02 54.91 58.03 57.28 56.27 55.54 56.59 55.60 56.41 56.29 55.50 53.76 51.52 53.53 54.17 54.63 53.80 52.90 50.87 49.73 48.89 48.30 48.05 46.97 46.19 45.07 44.63 46.01 40.37 36.43 37.35 36.16 35.14 39.01 45.95 48.70 48.41 48.85 47.30 47.90 46.73 45.73 44.93 43.45 44.14 43.21 43.03 42.78 42.68 42.66

GFSWCAN_sfc_wetblb_060.txt.gz
Wetbulb
54.04 53.73 53.36 53.38 53.05 53.26 53.11 53.61 53.98 54.06 53.83 54.24 54.16 54.47 54.65 55.38 55.09 54.89 56.95 59.09 55.45 51.73 51.75 53.21 51.41 49.26 48.38 46.78 42.72 46.60 45.65 45.59 43.02 37.91 36.98 36.06 35.50 36.59 34.31 38.38 37.58 36.92 35.60 35.33 36.61 32.81 30.00 47.11 45.96 39.99 44.92 48.16 48.24 47.26
53.88 53.22 52.84 52.93 52.78 52.93 52.93 53.40 53.91 53.85 53.63 54.43 54.72 54.63 54.75 54.95 55.06 54.19 55.54 59.36 58.55 53.59 52.20 55.92 55.68 54.65 52.99 51.81 49.25 49.39 46.05 44.65 44.72 39.81 38.35 37.40 35.23 36.78 34.70 32.13 40.70 36.44 38.15 37.61 36.87 38.01 46.08 46.84 45.41 47.93 47.84 47.07 47.60 47.02
53.29 52.76 52.53 52.84 52.70 52.74 52.86 53.07 53.26 53.71 53.46 53.74 54.60 54.50 54.47 54.77 54.99 53.96 56.14 58.60 56.62 53.40 52.44 51.17 50.68 55.20 56.94 55.34 55.68 47.95 49.12 49.11 46.95 48.16 43.01 39.40 33.79 36.45 33.25 34.31 35.73 39.17 41.33 38.36 37.14 43.03 40.88 44.49 46.94 46.82 46.24 46.29 47.51 48.26
52.79 52.53 52.41 52.70 52.49 52.70 52.92 52.90 53.24 53.57 53.83 54.12 54.56 54.50 54.48 54.81 55.13 54.39 55.70 58.69 56.11 53.08 48.27 51.29 57.58 54.43 57.55 56.69 54.77 54.22 51.78 50.91 50.42 47.35 44.94 40.48 36.85 40.23 36.78 37.30 37.21 39.33 40.30 37.08 36.95 39.82 40.19 43.44 43.17 43.52 44.87 45.95 46.49 46.90
52.25 52.04 52.14 52.34 52.37 52.53 52.66 52.68 53.03 53.36 53.88 54.44 54.55 54.54 54.56 54.67 55.31 55.01 58.17 59.13 58.80 52.69 48.02 50.19 55.03 56.59 57.41 56.18 54.65 54.20 51.71 50.71 50.73 46.93 43.86 40.94 42.41 40.29 40.42 37.58 37.14 41.20 37.25 34.50 34.25 39.40 38.69 39.26 43.48 44.47 42.59 43.26 45.03 48.19
51.63 51.77 51.76 52.18 52.47 52.49 52.37 52.34 52.80 53.20 53.71 54.57 55.03 54.92 54.60 54.61 54.28 56.10 53.65 58.11 58.15 56.62 49.30 46.16 54.79 55.18 56.07 55.57 54.16 53.33 51.23 51.41 49.69 47.52 44.97 46.13 46.74 43.20 38.57 35.43 41.45 43.60 44.53 42.35 38.22 40.75 42.20 43.11 43.59 44.28 43.01 44.83 47.11 47.03
51.56 51.45 51.64 52.10 52.43 52.37 52.27 52.18 52.30 52.76 53.34 54.04 54.88 54.49 54.77 54.84 54.87 53.71 52.38 55.23 53.24 55.86 49.17 47.29 50.25 54.71 56.58 54.99 52.38 52.02 53.12 51.17 50.06 47.68 48.65 46.60 45.64 44.08 42.58 34.52 42.62 43.63 45.10 44.70 44.10 42.60 40.27 42.65 40.76 43.93 44.50 44.96 46.89 46.74
51.37 51.20 51.53 52.03 52.32 52.24 52.27 52.10 52.01 52.30 52.84 53.46 54.48 54.08 54.27 54.49 53.34 53.58 57.58 53.33 54.29 52.70 51.75 47.79 48.08 52.56 56.41 52.31 50.75 54.21 50.24 51.95 50.58 50.01 48.80 46.73 46.53 45.22 36.15 43.24 44.09 44.58 45.37 44.86 44.24 44.85 43.13 43.89 43.66 43.17 44.23 44.24 43.96 43.62
51.09 51.09 51.49 51.72 52.12 52.16 52.16 51.71 51.56 51.89 52.39 53.30 54.08 53.88 54.81 53.09 52.99 55.12 54.86 53.81 55.94 52.97 47.58 50.00 46.20 45.24 56.13 52.57 52.46 50.80 51.93 47.06 51.78 47.86 47.91 47.75 41.92 33.25 41.92 44.60 45.20 44.58 44.63 44.30 45.37 45.58 44.82 43.38 43.52 42.95 42.16 42.51 41.91 42.41
51.11 50.99 51.22 51.56 51.99 52.21 52.00 51.81 51.87 51.79 52.62 53.61 53.99 54.26 52.04 56.03 54.22 55.00 53.03 50.46 50.12 50.45 51.22 48.63 52.03 47.70 52.88 52.50 51.06 49.77 49.12 45.07 44.44 46.51 50.00 45.24 41.58 47.00 48.09 47.91 48.56 48.39 47.92 46.85 44.27 43.16 43.69 43.64 43.95 43.01 41.98 42.66 43.25 43.53
50.67 50.90 51.16 51.58 51.88 52.15 52.10 51.94 51.91 52.74 52.72 54.76 55.68 53.95 58.65 55.15 56.47 52.13 50.39 50.21 52.34 49.66 52.28 52.52 52.70 49.66 54.46 48.73 49.41 51.63 47.61 47.67 41.46 44.61 43.56 44.05 43.43 45.71 48.80 48.44 49.22 50.12 48.83 47.04 46.90 47.44 46.17 46.17 45.10 44.58 43.40 43.21 43.21 43.52
50.57 50.84 51.09 51.59 51.85 51.95 52.06 52.20 51.76 54.09 59.55 55.47 54.60 57.48 59.40 55.48 52.70 50.13 50.48 51.74 50.39 48.22 52.89 49.70 49.57 51.47 51.89 55.34 51.22 50.80 46.30 46.98 38.99 47.40 42.64 39.58 45.12 48.81 48.78 48.35 49.18 50.06 50.17 49.19 48.85 46.75 47.05 47.38 47.02 46.50 46.50 45.04 45.08 45.73
50.45 50.83 51.08 51.25 52.37 51.80 52.05 52.27 51.66 52.43 53.82 59.11 56.78 53.97 54.56 53.66 43.02 46.47 44.23 46.34 46.25 48.79 52.50 52.82 49.41 51.25 52.71 53.45 50.24 48.61 41.56 40.49 46.50 41.71 40.06 42.36 47.59 49.21 49.62 49.12 49.01 50.19 49.81 49.88 49.44 49.33 48.43 47.66 48.63 47.89 46.88 48.16 47.62 47.19
50.69 50.86 51.08 51.35 52.35 52.55 53.28 52.74 52.37 52.74 53.95 55.74 53.02 41.63 49.84 48.18 49.89 48.69 48.94 50.97 51.64 50.60 53.43 53.80 51.66 51.68 52.53 48.61 44.86 40.23 44.53 43.72 39.10 37.02 36.31 43.59 46.37 46.34 49.52 50.16 50.05 49.33 49.76 48.72 49.20 49.53 48.76 48.36 47.81 48.48 48.57 49.31 47.93 47.10
50.67 51.08 51.37 52.12 52.93 52.70 53.30 53.04 52.69 55.84 56.69 54.32 53.90 43.20 49.69 53.13 53.79 54.16 53.98 53.78 54.61 54.78 54.47 52.53 52.09 51.21 45.92 42.56 44.66 43.47 40.26 37.63 39.30 36.66 41.91 45.51 48.41 50.19 49.66 49.56 49.71 49.35 49.83 49.33 49.61 49.11 48.18 48.81 48.14 47.82 48.58 48.95 48.74 48.99
51.14 50.63 54.85 52.66 52.41 53.15 52.54 52.59 54.54 58.94 57.85 55.19 54.26 51.19 53.73 51.98 51.57 54.38 52.59 50.56 56.03 54.95 54.75 53.60 48.49 46.21 44.01 45.04 41.37 40.26 38.71 36.79 39.68 43.07 45.76 48.52 48.81 49.05 49.46 49.45 49.42 49.73 50.55 49.07 50.43 50.27 49.09 48.92 48.20 48.04 48.37 48.66 48.56 48.31
49.70 58.10 51.74 51.99 52.74 52.50 52.91 56.45 59.34 56.55 55.58 54.18 52.45 55.93 52.39 53.09 50.57 52.78 54.61 52.82 55.11 52.50 48.38 47.94 43.93 42.07 47.37 41.99 40.47 43.04 39.86 43.31 45.96 46.28 48.40 49.67 49.34 49.97 50.08 50.21 49.76 49.80 50.29 50.20 50.56 49.98 50.40 49.95 49.43 48.68 47.40 48.79 48.83 49.52
56.65 54.94 51.68 51.95 52.31 54.14 58.66 56.98 57.48 55.78 52.52 55.32 52.26 54.30 56.73 57.48 54.97 54.05 54.30 55.13 53.34 51.01 50.10 46.26 48.53 43.21 40.51 38.20 41.17 43.80 45.64 47.18 48.47 48.67 49.47 50.21 50.71 50.78 50.34 49.87 50.14 50.17 49.93 51.10 48.59 49.98 49.71 49.33 48.02 47.78 48.72 48.96 48.84 49.01
53.59 53.03 51.43 51.40 52.41 54.51 58.24 58.44 58.71 53.14 53.88 53.94 56.17 57.55 57.58 56.60 57.70 56.89 56.05 56.01 55.79 55.18 52.47 50.24 44.70 43.55 42.71 45.49 46.71 46.59 47.13 47.67 47.07 48.46 49.94 51.28 49.37 51.55 50.70 50.72 50.65 50.51 49.74 50.95 50.92 48.32 48.39 49.65 48.09 47.92 47.59 47.34 46.68 46.59
50.50 50.92 51.17 51.43 52.13 57.76 56.50 56.59 61.33 56.48 54.18 55.84 54.99 55.94 56.72 56.13 55.80 56.24 55.12 54.89 53.51 51.20 48.45 46.03 46.47 48.03 46.88 48.60 50.88 50.26 50.76 51.49 49.88 48.93 46.51 50.14 50.80 51.86 50.86 49.35 48.50 49.95 49.01 50.64 50.36 44.31 49.12 48.16 48.96 48.41 47.16 47.12 46.59 46.37
54.33 56.64 53.19 55.58 55.83 58.50 57.33 56.94 56.66 57.53 57.47 55.29 56.88 52.65 55.43 56.00 55.32 53.45 53.51 54.06 50.69 49.33 47.59 49.88 50.16 52.05 54.68 54.65 55.20 54.03 53.75 53.96 53.03 52.49 49.56 49.49 48.47 49.19 48.83 49.94 49.02 48.62 45.18 46.73 44.72 47.13 45.77 47.43 48.03 48.58 47.54 47.14 47.48 46.52
60.56 54.28 60.92 57.87 58.24 59.01 57.73 59.40 56.86 58.29 57.37 53.77 53.28 54.61 52.52 52.73 52.34 52.78 53.08 51.25 49.80 49.58 51.81 51.32 52.34 52.48 52.47 52.76 51.78 54.69 52.98 54.64 53.99 53.62 48.75 48.15 48.26 47.36 47.49 48.40 47.87 47.11 47.58 47.08 45.56 44.80 47.04 48.47 48.12 46.78 46.70 48.01 47.54 47.13
52.36 57.30 60.27 60.42 56.22 53.33 51.39 60.46 56.20 56.98 53.44 54.13 54.19 53.27 51.80 51.88 53.75 54.81 51.28 51.31 52.84 55.14 54.50 54.25 54.67 56.00 54.45 54.74 54.57 53.57 54.39 52.89 52.43 51.58 51.73 49.04 49.36 48.27 47.14 47.06 47.40 46.62 46.18 46.24 47.07 46.97 46.87 42.75 45.66 47.29 47.79 48.05 46.91 46.61
52.87 57.76 56.25 55.30 55.12 49.71 57.41 55.72 57.52 55.56 52.89 50.05 52.37 49.68 51.62 52.28 53.40 51.40 47.42 49.31 51.34 53.73 53.39 54.68 53.37 52.21 52.36 54.39 49.91 50.13 49.88 50.25 51.27 50.08 50.32 48.70 47.45 47.48 47.08 46.16 46.62 47.08 46.96 47.07 46.51 46.45 46.56 44.24 45.96 47.37 47.06 46.36 46.08 46.08
48.35 48.87 50.99 41.64 55.42 54.41 52.77 53.35 52.51 53.21 50.05 51.30 50.79 50.05 51.33 54.11 49.83 48.37 46.76 48.76 50.73 51.48 52.06 53.48 52.23 50.66 48.49 47.90 47.88 48.18 50.29 48.42 47.74 48.40 49.38 49.11 48.17 47.54 47.17 46.42 46.28 46.76 47.60 46.39 45.34 45.37 44.78 45.21 46.50 46.29 45.94 45.09 44.83 45.41
42.19 52.26 46.21 52.94 53.16 51.78 49.78 49.68 48.72 50.05 51.85 50.77 51.15 52.79 54.23 51.55 46.83 45.51 49.51 50.89 50.76 50.67 50.69 49.80 48.56 47.82 47.40 47.42 46.80 46.78 47.69 49.69 49.98 47.50 47.48 47.91 46.73 45.70 44.85 44.56 43.97 45.04 47.51 47.45 46.38 45.27 44.48 46.10 43.39 45.61 44.72 44.07 42.28 45.22
43.99 50.72 55.08 57.46 56.89 56.40 54.60 53.16 55.59 53.69 50.19 50.36 52.29 51.72 50.35 45.97 45.70 49.75 54.28 54.64 52.92 51.93 51.48 50.54 49.34 47.98 46.61 46.70 48.34 49.16 49.51 49.61 49.38 47.76 48.26 48.04 47.94 47.84 46.68 44.38 43.27 44.97 47.73 47.95 47.83 44.93 44.86 45.08 45.30 45.27 44.88 45.45 45.73 45.37
53.17 54.92 52.09 55.21 54.79 56.26 53.06 53.46 51.67 50.90 52.13 52.28 53.57 47.80 47.05 48.06 48.78 53.75 54.86 55.41 54.24 52.10 51.16 50.57 50.36 49.34 47.70 46.90 47.16 48.09 49.36 49.84 49.83 49.67 48.53 47.78 47.84 47.73 47.81 46.72 46.36 40.81 46.54 46.70 47.61 47.65 46.78 46.07 45.06 45.54 44.90 44.76 45.23 46.04
53.50 55.66 55.89 53.49 54.33 55.13 54.33 53.28 53.19 54.15 56.93 54.85 51.79 50.50 53.12 56.10 56.29 55.31 55.41 55.22 55.49 53.56 50.79 49.89 50.09 50.79 48.95 48.13 47.51 47.26 47.28 47.73 47.74 45.57 44.28 43.63 44.11 45.00 47.30 48.00 47.74 47.39 46.83 45.65 37.99 42.43 44.29 44.44 44.73 45.51 45.63 45.43 45.88 46.07
53.35 56.71 54.29 53.97 52.64 49.25 52.17 52.95 53.50 58.19 57.79 57.41 57.95 57.36 56.47 56.16 57.02 57.95 55.98 54.98 54.59 53.05 50.84 49.95 49.69 49.49 47.91 46.79 45.63 45.90 47.13 47.40 47.20 46.79 45.02 44.17 44.95 46.88 47.18 47.29 47.22 47.21 47.18 47.08 46.28 45.60 40.74 44.47 42.36 46.96 45.17 45.20 44.75 44.71
56.84 56.50 54.66 54.36 53.91 54.18 53.46 53.19 58.77 59.40 58.99 57.81 58.34 56.25 55.67 56.16 56.33 57.32 56.58 56.39 55.68 53.98 50.66 49.39 48.44 48.15 47.84 47.34 46.52 45.70 44.79 47.36 48.11 48.00 47.96 47.76 48.11 47.64 47.61 47.81 48.25 48.21 47.96 47.36 46.72 46.20 45.82 45.33 45.05 44.44 44.29 43.69 43.59 43.31
55.55 54.49 53.72 52.82 51.43 53.97 56.19 56.79 56.49 57.19 55.55 56.24 55.30 57.14 56.33 54.01 51.59 52.81 55.49 55.58 54.03 52.89 45.45 49.68 48.44 46.96 47.36 47.20 47.42 47.64 44.59 48.18 48.66 48.14 48.56 48.36 48.22 48.24 48.69 48.64 48.81 48.11 47.67 47.26 46.98 45.88 45.52 44.65 43.98 43.93 43.49 43.21 43.02 43.46
55.21 54.96 55.87 55.83 50.30 52.05 54.59 55.98 55.47 54.72 54.87 53.99 54.91 56.43 56.17 54.66 52.49 53.68 56.36 56.41 55.08 54.50 52.40 50.57 49.57 49.03 49.00 48.29 47.53 46.90 46.44 45.89 40.73 36.91 37.51 36.79 35.81 39.79 46.91 48.50 47.96 48.34 47.25 47.65 47.06 46.14 45.34 44.51 44.60 43.97 43.82 43.82 43.65 43.75

GFSWCAN_sfc_wetblb_063.txt.gz
Wetbulb
55.06 54.20 53.67 53.26 53.34 53.14 53.30 53.36 53.88 54.17 54.19 54.82 55.38 55.59 56.20 56.24 56.05 53.77 56.35 58.83 53.88 50.92 50.69 52.53 51.53 48.48 46.78 45.37 41.17 44.86 44.07 42.93 40.39 35.54 34.68 35.07 32.63 34.05 32.08 34.94 34.66 33.59 32.07 33.29 33.53 29.53 27.32 43.36 44.32 37.53 40.68 43.36 44.31 44.58
55.07 53.94 53.05 52.78 52.99 52.95 53.12 53.28 53.59 53.92 54.03 54.30 54.92 55.67 55.66 55.88 55.89 55.09 54.42 59.18 58.75 53.16 51.85 55.22 55.46 55.27 53.61 51.62 46.65 46.97 44.19 43.37 41.81 38.34 37.19 35.81 33.32 35.17 33.75 29.66 37.20 33.39 35.38 32.86 35.52 34.58 40.34 42.19 41.81 44.16 43.61 41.88 42.84 42.66
54.79 53.61 52.45 52.39 52.83 52.78 52.93 53.01 53.40 53.53 54.07 54.28 54.58 55.32 55.23 55.64 55.73 54.87 52.53 55.78 56.20 52.09 51.83 52.51 50.98 54.90 55.73 54.20 53.23 45.76 46.28 47.58 44.61 45.60 40.67 37.85 31.73 36.47 30.21 31.91 34.30 37.96 40.11 36.11 34.56 39.93 38.91 40.30 43.08 43.65 43.38 42.90 43.61 43.80
54.28 53.12 52.26 52.31 52.54 52.80 52.74 52.89 53.20 53.45 53.99 54.41 54.56 55.07 55.25 55.40 55.58 54.85 52.35 55.55 56.14 52.44 47.20 49.59 56.36 53.93 56.88 54.98 53.70 52.65 50.05 50.08 48.04 45.73 42.99 39.40 35.98 39.39 35.21 35.88 34.90 37.63 37.83 34.56 35.38 38.71 38.29 41.47 41.10 43.29 43.51 43.76 42.89 44.42
53.75 52.50 51.87 51.93 52.43 52.51 52.70 52.82 52.80 53.22 53.55 54.25 54.81 54.95 55.16 55.33 55.15 54.33 54.90 56.83 58.10 52.19 46.07 47.61 53.13 54.88 55.95 55.18 53.37 52.58 50.28 48.59 47.80 43.85 42.48 39.14 39.67 39.35 39.02 38.12 34.74 39.52 37.98 32.73 32.88 38.33 38.29 38.42 41.75 44.04 42.94 42.02 43.34 44.22
53.03 51.91 51.58 51.83 52.37 52.72 52.68 52.58 52.43 52.62 53.40 53.92 54.97 55.51 55.44 55.32 54.84 53.40 53.59 57.37 57.24 57.22 49.35 44.48 54.15 54.27 54.87 54.33 52.69 51.34 49.99 48.26 48.46 46.41 44.02 43.83 44.78 40.44 36.46 33.63 40.07 42.40 43.41 41.32 38.76 41.30 41.49 42.55 43.73 43.85 42.33 43.60 44.13 44.84
52.51 51.54 51.43 51.76 52.33 52.62 52.66 52.58 52.41 52.27 52.87 53.65 54.47 55.32 55.03 54.82 53.11 51.76 51.26 53.88 53.14 56.66 49.17 45.66 48.09 53.52 55.22 53.43 52.21 51.07 51.54 49.61 48.28 46.61 45.45 43.93 42.22 42.31 39.07 33.62 39.99 43.85 44.08 43.21 43.64 42.85 40.86 41.86 40.23 43.29 42.99 43.58 44.58 45.33
51.92 51.41 51.39 51.83 52.20 52.56 52.47 52.47 52.08 51.89 52.20 52.99 54.02 54.88 54.17 54.04 52.95 51.09 55.55 54.14 54.65 51.99 50.65 44.99 46.85 51.01 55.10 49.77 48.85 51.32 48.03 48.75 48.22 46.94 46.72 44.48 44.35 41.77 33.98 40.28 42.90 44.26 45.11 44.40 43.39 44.29 43.09 43.71 44.24 43.52 43.74 43.29 42.24 41.85
51.52 51.14 51.26 51.59 51.81 52.35 52.45 52.31 51.85 51.75 52.00 52.54 53.49 54.41 53.33 51.20 51.79 55.01 56.23 54.92 55.12 52.27 45.43 47.78 44.87 43.90 54.32 51.20 50.62 49.26 49.32 45.38 49.92 45.74 44.97 44.87 37.64 31.39 36.00 42.02 42.78 43.49 42.90 43.35 43.90 44.18 43.80 43.30 43.15 43.01 42.37 41.50 40.76 41.74
51.18 50.88 50.96 51.28 51.79 52.27 52.43 52.23 51.58 51.62 51.76 53.04 52.72 51.77 50.46 55.84 55.65 55.31 52.20 49.29 48.84 48.63 48.74 45.18 49.16 44.95 49.75 50.73 48.59 47.59 48.16 44.37 41.47 44.75 47.85 39.15 37.21 42.09 45.08 46.95 45.98 45.38 45.81 45.10 42.45 41.39 41.86 41.98 42.84 42.42 41.79 42.64 42.35 42.75
50.84 50.65 50.90 51.29 51.85 52.33 52.52 52.21 52.04 51.90 52.54 52.54 52.73 52.90 56.19 55.50 55.27 51.53 48.02 47.12 48.16 46.02 48.31 48.84 49.89 46.92 53.04 47.23 44.30 48.83 44.73 45.05 40.30 43.30 41.80 40.70 40.58 44.33 47.85 47.43 48.20 48.50 47.80 45.91 45.36 44.99 44.43 44.78 43.74 42.66 42.57 43.16 43.79 44.33
50.50 50.44 50.89 51.38 51.80 52.57 52.50 52.45 51.94 51.83 56.75 53.33 52.43 54.90 57.54 53.85 51.33 48.22 48.45 49.86 46.16 45.40 48.45 46.51 48.70 50.53 52.23 53.84 46.89 46.58 42.06 43.02 37.37 45.30 41.14 35.68 43.04 46.84 47.98 47.84 48.13 48.85 48.37 47.90 48.25 46.20 46.16 46.99 46.51 44.96 44.33 43.57 43.81 44.78
50.31 50.51 50.79 51.17 51.62 52.56 51.74 52.54 51.46 52.25 52.43 56.27 54.32 53.87 52.62 52.29 43.14 45.57 42.11 45.53 44.74 48.52 49.56 49.76 48.28 51.87 52.39 52.26 46.96 42.88 39.12 39.71 44.35 40.06 35.28 39.60 43.04 47.32 47.53 47.89 48.69 49.44 49.66 48.66 48.45 48.69 48.66 47.01 47.77 47.10 45.45 46.09 46.26 45.08
50.40 50.81 51.11 51.40 51.97 53.07 52.99 52.46 52.40 51.94 51.38 52.34 52.72 39.94 48.55 47.47 49.06 47.72 46.91 48.47 50.37 49.68 48.44 48.97 49.11 49.00 50.53 45.63 44.55 39.51 44.10 43.43 38.40 35.49 35.85 41.60 44.25 45.65 47.10 48.45 49.16 48.10 47.71 48.00 48.82 48.73 48.07 46.07 45.55 48.10 46.38 46.18 46.32 44.89
50.77 51.02 51.37 51.73 52.10 53.32 53.14 53.18 52.82 53.48 53.33 52.50 53.42 41.36 48.87 50.80 49.77 51.44 52.43 51.72 53.61 52.79 50.41 49.71 50.62 50.28 46.74 44.10 44.70 43.35 40.18 36.93 37.05 35.55 40.98 44.60 45.94 46.89 47.06 47.83 48.41 47.96 47.65 47.19 47.47 47.49 47.35 47.42 45.66 44.80 46.28 47.19 46.34 46.61
50.99 50.89 52.99 52.85 53.67 53.52 52.73 52.43 51.92 55.23 56.22 53.76 53.27 50.42 52.61 51.16 51.14 50.90 52.95 51.11 53.41 52.55 52.56 51.36 47.55 44.17 43.30 44.10 41.11 38.63 37.41 35.55 39.38 43.10 44.77 47.38 46.90 47.43 47.56 48.29 48.75 48.04 49.40 47.30 47.33 46.85 47.48 46.14 45.84 44.87 45.32 45.98 46.11 47.64
49.88 55.17 52.79 52.85 52.47 52.58 52.80 54.45 55.81 54.44 53.67 53.20 52.72 55.64 52.49 51.89 51.43 51.51 54.34 52.33 54.80 50.48 46.12 48.02 42.98 41.12 46.76 40.86 39.15 42.78 39.29 42.32 45.20 46.00 47.41 48.44 47.48 47.64 48.68 49.03 49.65 48.33 49.28 48.20 48.46 47.94 47.98 48.89 48.30 46.39 45.23 45.42 45.84 48.34
53.71 53.01 51.95 52.20 52.38 54.17 56.89 54.22 56.01 54.69 51.81 53.60 50.66 53.74 55.49 55.73 54.68 52.69 53.43 54.96 53.27 50.65 49.46 45.32 48.51 42.56 40.62 37.86 40.16 44.78 45.68 47.21 47.88 48.33 48.52 49.07 49.34 48.98 49.11 48.89 49.15 49.22 49.39 49.21 49.22 48.55 47.54 47.22 47.08 44.84 45.06 45.24 43.67 47.03
51.39 51.13 51.39 51.52 50.70 51.18 56.50 56.75 56.76 51.78 54.39 56.07 55.30 54.72 54.38 54.18 55.16 55.13 55.31 56.99 56.55 55.66 52.75 49.39 44.44 43.11 43.26 45.84 45.93 46.18 47.21 47.54 46.65 47.94 47.99 48.32 47.69 47.82 48.52 48.18 48.63 49.54 48.75 48.65 48.68 47.69 46.95 47.40 47.12 45.27 44.80 44.94 42.69 42.90
50.36 50.72 51.09 51.01 50.62 54.10 55.51 56.66 61.32 56.38 53.52 56.52 55.32 51.37 51.01 54.57 55.50 55.10 55.13 54.49 54.70 52.23 48.95 46.40 46.32 48.28 47.48 48.93 50.32 50.55 50.66 50.88 50.26 47.84 47.63 49.12 48.92 48.03 47.56 47.79 46.95 47.26 45.64 45.41 45.35 45.34 46.07 46.87 47.32 45.36 44.86 44.30 44.39 42.71
54.84 54.41 52.01 52.97 53.22 55.00 55.56 55.71 55.73 56.74 56.68 53.14 54.35 55.37 54.42 55.48 54.31 52.94 52.53 54.93 51.13 49.40 47.85 50.73 50.56 52.16 54.40 55.18 54.72 52.57 53.11 52.84 49.90 49.45 48.48 48.10 48.71 47.86 45.69 45.49 44.74 46.91 46.73 46.35 45.65 45.50 45.40 45.62 45.76 45.45 44.88 45.16 45.56 44.77
58.33 54.21 57.96 54.78 56.17 58.36 56.76 58.64 56.07 58.17 55.15 53.96 51.23 52.17 51.85 51.00 52.61 52.74 54.57 51.79 50.63 51.50 52.35 52.61 53.12 53.03 53.10 52.98 53.84 54.17 54.22 53.31 52.56 51.37 48.27 47.54 47.01 45.87 44.07 45.58 43.71 42.86 45.20 44.63 44.63 43.96 43.89 44.57 44.57 45.32 45.81 46.03 44.53 43.95
54.85 55.51 57.83 59.08 55.81 50.37 49.66 60.63 55.91 57.54 50.64 51.38 54.45 52.22 52.94 52.95 54.10 57.14 51.34 52.34 53.16 55.64 55.01 55.53 54.89 56.43 55.09 55.59 55.50 54.13 53.92 52.55 50.33 49.33 48.59 46.64 46.50 47.07 45.76 45.10 44.98 43.85 43.98 44.28 45.79 45.61 44.76 43.09 44.78 46.07 46.10 45.40 44.18 44.19
53.16 55.61 55.50 54.60 53.89 47.39 56.86 55.50 55.05 52.55 53.33 49.87 49.90 50.19 50.16 53.15 55.20 51.63 47.38 49.77 52.46 54.25 53.64 55.04 54.31 52.34 50.90 50.66 49.14 47.36 48.18 48.70 48.85 49.00 48.61 46.66 47.44 45.44 46.30 45.03 44.62 44.76 45.80 45.43 45.34 44.81 45.16 45.41 43.43 45.03 44.75 44.43 44.30 43.56
46.48 46.72 49.42 39.19 54.16 53.65 51.86 51.54 49.24 51.58 49.82 51.10 50.18 48.80 50.55 54.73 50.15 49.04 47.40 50.18 51.55 51.31 52.72 53.61 51.41 49.81 46.59 46.63 46.93 46.97 49.59 49.14 46.80 45.52 47.43 47.78 46.06 46.11 45.56 46.03 45.74 45.58 46.92 44.97 43.80 43.46 44.29 44.95 45.32 43.30 42.50 43.09 43.57 43.79
40.40 50.25 44.25 51.37 51.53 51.56 51.94 49.21 49.43 49.18 50.56 50.82 50.43 52.05 52.71 50.14 47.89 46.28 50.18 51.77 50.97 50.77 50.71 49.75 48.67 47.39 46.14 47.33 45.95 46.06 47.20 49.10 47.39 44.70 45.33 45.92 45.31 44.46 43.44 42.32 41.75 43.64 46.89 45.98 44.76 44.66 45.09 45.72 45.03 44.10 42.68 43.24 41.64 44.16
42.43 48.37 54.25 57.42 54.88 55.03 50.57 52.04 52.06 49.74 50.01 49.30 50.52 48.82 48.11 45.23 45.70 50.90 54.32 54.27 50.92 51.18 52.11 51.15 49.51 46.80 46.51 47.33 48.15 49.13 49.15 48.55 47.41 46.08 47.23 46.87 46.70 46.71 45.27 42.56 41.13 43.74 46.68 46.60 47.09 46.64 45.59 45.03 43.97 44.30 43.78 44.29 44.42 44.13
51.10 53.22 50.86 54.53 54.60 55.72 50.98 52.31 50.88 49.74 51.90 53.93 51.58 48.48 47.17 48.60 48.84 55.07 53.51 53.15 51.81 52.53 50.66 50.44 50.28 48.21 47.13 47.25 47.47 48.65 48.75 48.78 49.14 47.28 46.98 46.61 46.84 46.15 45.40 45.08 45.38 42.31 44.19 45.07 46.32 46.44 45.76 45.19 44.74 44.54 44.22 43.31 43.54 44.66
50.62 53.58 54.07 52.25 53.70 52.79 51.85 53.17 50.75 52.47 52.89 53.30 51.23 51.07 52.09 56.95 55.88 54.72 54.99 54.95 53.66 51.63 49.50 48.93 49.43 48.81 47.96 47.71 48.22 47.67 47.36 48.00 47.80 45.50 43.86 42.01 42.31 43.78 46.68 46.39 45.10 45.27 44.06 42.74 38.44 41.29 42.80 42.50 43.47 44.49 45.16 44.35 44.96 44.98
50.19 53.53 52.04 52.90 52.53 50.63 52.57 54.59 54.25 55.04 57.82 54.93 57.06 55.47 55.22 55.64 56.91 57.76 56.10 55.80 54.61 52.54 50.38 49.44 49.42 49.18 47.13 46.09 45.04 45.76 47.07 47.08 46.92 46.07 43.95 42.77 43.30 45.54 46.83 46.66 46.56 46.33 46.22 44.86 43.99 43.73 40.42 42.46 42.26 45.29 44.47 43.61 43.45 43.70
53.57 54.54 54.09 53.65 50.78 53.32 54.85 55.69 56.30 56.59 55.01 53.93 53.92 54.42 54.29 55.30 56.79 58.10 56.72 57.30 56.36 52.40 50.08 48.55 47.42 48.04 47.43 46.67 46.02 44.85 43.82 47.19 48.62 48.20 47.99 47.23 46.76 47.24 47.22 47.63 47.46 47.67 47.25 46.55 45.86 45.09 44.67 44.02 43.97 43.67 43.22 43.05 43.33 42.06
53.96 53.98 53.34 52.52 53.00 55.98 56.42 54.28 54.25 53.13 53.52 52.94 50.64 53.81 55.10 53.33 51.61 53.79 58.05 58.01 55.63 52.73 46.66 49.92 47.19 45.59 47.14 47.23 47.55 47.76 44.73 46.78 46.08 45.23 46.03 47.35 47.67 48.30 48.44 48.03 47.88 47.36 47.19 46.44 45.94 45.20 45.20 44.35 43.44 43.52 43.05 43.26 43.55 43.42
54.72 54.80 55.70 54.68 53.44 53.02 53.43 53.74 52.64 54.29 53.26 50.40 51.50 54.25 54.56 54.24 52.18 55.39 59.42 59.15 56.86 54.25 51.24 49.06 47.64 47.07 48.58 47.92 46.68 44.92 43.79 43.05 39.45 37.35 37.63 37.33 37.34 40.36 44.84 46.01 46.74 47.74 47.32 46.98 46.08 45.43 45.28 45.43 44.16 44.53 44.22 43.93 43.80 43.41

GFSWCAN_sfc_wetblb_066.txt.gz
Wetbulb
56.36 55.58 54.46 53.47 52.69 53.04 53.19 53.39 53.52 54.11 54.60 54.92 55.57 56.23 56.19 56.06 55.70 50.47 49.79 52.32 48.31 44.12 44.88 47.62 48.36 43.37 41.90 39.59 35.69 39.37 38.89 37.56 34.91 28.08 26.26 24.18 27.52 31.83 30.69 31.44 30.19 31.76 32.37 30.63 32.69 27.24 26.00 41.46 41.47 36.32 39.49 40.63 40.90 41.06
56.18 55.44 54.30 52.79 52.36 52.73 53.04 53.37 53.41 53.93 54.46 54.61 55.05 55.60 55.59 55.34 55.44 53.54 47.65 52.14 52.88 47.46 46.50 50.53 50.73 50.96 48.91 46.78 41.83 41.06 38.30 37.59 37.12 30.49 31.76 25.84 31.28 33.41 28.07 20.49 33.88 30.71 33.07 29.86 32.23 35.35 40.96 40.88 39.20 42.32 41.15 39.10 39.59 39.74
55.98 55.02 53.79 52.23 52.19 52.48 53.00 53.17 53.21 53.76 54.03 54.52 54.98 55.45 55.35 55.07 55.34 53.66 47.08 48.96 50.49 45.80 45.45 46.06 47.18 50.84 49.16 49.33 47.94 41.09 40.83 42.07 39.83 40.05 35.27 33.23 26.40 33.18 28.57 28.81 31.55 34.70 36.65 31.38 31.00 36.95 38.50 38.42 40.65 40.86 41.81 41.32 42.77 43.05
55.62 54.61 53.05 51.88 51.92 52.42 52.88 52.86 53.20 53.41 53.86 54.48 54.95 55.19 55.15 55.13 54.95 54.52 47.31 48.96 49.15 46.68 40.85 43.75 51.54 48.70 52.31 49.21 49.33 47.38 45.29 45.00 42.67 42.91 37.15 37.17 32.32 35.03 30.34 30.81 33.60 33.22 33.80 31.84 31.26 34.80 37.01 39.78 40.72 40.98 41.73 43.58 43.46 43.39
55.10 53.96 52.75 51.62 51.77 52.33 52.75 52.96 53.08 52.81 53.68 54.01 54.60 55.17 55.27 54.99 54.42 51.85 49.22 50.36 52.37 46.77 41.06 42.51 47.10 50.73 50.28 48.48 49.01 47.44 45.21 43.02 41.80 38.70 40.88 37.97 34.46 35.38 37.65 36.64 34.46 36.51 33.35 29.33 28.47 35.12 36.08 38.09 41.03 42.08 41.50 40.79 42.41 43.08
54.40 53.28 51.90 51.23 51.73 52.31 52.61 52.78 52.65 52.61 52.36 53.58 54.41 54.96 54.95 54.70 53.97 49.15 49.67 51.83 52.70 50.81 44.46 39.18 45.99 47.60 48.60 49.44 48.07 45.79 47.89 46.39 45.96 41.82 43.11 42.56 39.37 35.27 30.41 32.85 35.42 38.06 39.82 37.87 35.52 38.92 39.30 40.04 42.06 43.40 41.92 42.53 43.41 43.46
53.97 52.58 51.48 51.18 51.58 52.13 52.34 52.41 52.84 52.46 52.00 52.96 53.68 54.31 54.27 53.53 48.44 46.63 46.99 50.11 51.56 51.90 47.35 41.76 40.63 47.55 50.25 50.18 47.62 46.27 46.73 46.08 44.04 44.96 42.76 39.38 38.22 40.73 31.57 30.13 35.98 39.26 41.21 41.15 40.29 39.62 38.41 40.77 40.08 43.49 43.53 43.47 44.19 44.33
53.48 51.87 51.35 51.08 51.52 51.92 52.27 52.44 52.62 52.20 51.44 51.90 53.30 53.62 53.93 53.04 51.01 47.13 49.75 51.64 51.80 49.71 48.87 41.87 40.92 44.86 49.46 44.76 44.90 48.58 45.27 46.69 46.02 44.11 41.95 41.70 39.56 37.66 33.62 37.03 37.51 40.87 42.68 41.63 41.81 41.79 40.58 40.92 41.77 42.74 43.34 42.32 42.29 41.75
52.75 51.50 50.79 50.95 51.10 51.60 51.96 52.13 52.47 51.85 51.17 51.96 52.89 53.50 50.00 47.22 46.05 50.26 55.81 55.04 53.20 49.90 44.37 44.73 40.29 38.87 50.49 46.95 49.40 47.81 48.14 43.13 47.02 42.62 41.80 42.78 35.43 32.99 36.48 35.41 39.41 41.30 40.68 40.44 42.85 42.92 42.33 41.33 41.35 41.95 41.53 41.53 41.26 41.97
51.80 50.87 50.61 50.78 50.99 51.56 51.80 52.05 52.41 51.23 51.95 52.48 49.33 47.69 47.86 49.91 56.48 55.13 50.67 47.57 47.00 46.61 46.11 41.99 45.33 41.68 45.38 44.58 44.95 44.59 46.17 43.56 40.00 42.53 45.58 38.96 36.49 40.23 40.45 39.51 42.78 42.84 42.18 41.72 38.45 37.87 39.51 39.48 40.53 41.07 40.79 41.17 41.34 42.89
51.06 50.47 50.44 50.55 51.17 51.72 52.06 52.15 52.09 51.60 51.76 47.45 47.11 47.54 53.62 55.69 50.39 50.05 45.14 44.06 45.48 44.48 45.10 45.58 46.89 43.83 48.15 42.72 43.20 44.92 43.27 39.39 33.61 41.19 41.84 38.67 38.55 43.46 44.88 43.69 43.77 44.18 43.30 42.85 42.24 41.54 41.59 40.96 40.71 41.17 41.33 41.77 42.74 43.24
50.42 50.04 50.23 50.56 51.12 51.63 52.23 51.54 51.87 49.43 49.02 50.04 48.38 50.18 50.94 49.81 47.82 45.08 44.08 48.30 44.86 41.20 46.84 42.72 43.90 48.52 49.40 49.40 42.53 42.15 40.70 38.27 35.29 44.18 37.26 32.17 41.13 44.95 46.17 46.75 46.58 45.88 45.53 46.33 45.58 43.70 43.32 43.63 43.21 42.06 41.90 42.87 41.94 43.24
49.98 49.94 50.16 50.48 50.99 52.41 52.03 51.76 51.27 51.22 50.04 49.75 48.87 50.33 50.00 47.74 41.37 44.39 38.99 42.80 41.79 45.25 46.05 44.77 43.35 49.51 46.91 45.27 40.01 40.91 38.32 38.53 43.21 35.34 33.44 37.42 42.89 44.94 45.92 47.32 47.74 48.32 48.81 47.79 46.18 47.02 45.93 44.61 44.71 43.81 42.84 43.50 43.42 43.37
49.90 50.18 50.57 50.97 51.36 52.09 53.07 52.06 51.95 50.47 46.69 47.22 49.03 38.57 44.53 43.93 47.27 46.36 43.18 42.53 45.86 47.33 47.29 44.48 43.97 44.59 43.25 40.26 40.05 38.16 39.95 39.57 36.11 33.39 33.72 37.07 42.37 44.68 45.61 47.02 47.60 46.68 46.47 46.40 46.81 47.54 47.81 46.64 43.22 44.34 43.65 42.64 42.99 42.92
50.29 50.53 50.89 50.65 51.12 52.40 52.61 52.54 51.95 48.74 47.97 47.59 48.96 38.91 45.54 48.08 49.40 48.54 48.92 47.02 48.90 48.28 46.79 44.16 44.69 43.38 40.55 38.91 39.44 38.06 36.79 34.51 35.48 32.66 35.13 39.72 40.03 41.89 42.35 43.02 43.77 43.79 44.31 43.83 45.45 45.84 45.64 46.75 44.23 41.28 42.75 42.23 42.88 43.07
50.50 50.55 50.67 51.61 52.38 53.04 52.18 51.42 49.16 49.74 50.85 48.83 47.56 44.83 48.94 48.26 48.97 47.90 46.97 46.63 46.85 44.16 44.45 43.32 40.07 38.80 38.36 37.85 36.56 34.78 34.00 30.12 34.14 37.68 40.14 41.43 40.89 41.66 42.36 43.03 43.42 43.30 43.85 43.87 45.54 46.03 45.31 45.66 43.49 43.08 41.27 42.04 41.88 43.05
49.90 51.38 52.60 52.29 51.75 52.42 52.34 49.94 50.06 49.98 50.53 49.27 48.60 51.69 50.90 49.51 49.60 49.60 48.88 45.98 46.69 43.14 39.21 40.61 37.46 35.92 39.26 35.44 33.89 36.91 33.55 36.24 38.57 40.83 44.15 42.04 42.08 42.04 43.97 43.82 44.51 44.08 43.79 43.48 43.21 44.07 44.24 45.61 43.69 41.63 40.03 40.96 42.39 42.68
50.88 51.18 51.90 51.79 50.35 51.28 51.88 49.83 51.67 52.69 49.20 48.87 47.21 50.96 51.44 50.82 49.98 48.34 48.15 47.78 46.08 44.04 42.18 39.71 41.09 36.84 33.83 33.20 34.23 38.19 39.72 40.72 41.81 42.24 42.84 43.62 44.35 46.48 48.13 46.00 46.29 45.38 46.01 45.89 45.08 44.62 43.00 42.89 42.00 40.22 40.25 40.82 41.91 41.30
48.36 48.58 51.19 51.51 48.65 47.26 51.26 52.61 51.29 47.19 48.75 52.85 52.32 52.17 51.63 51.43 51.60 50.68 49.57 48.49 47.34 47.36 45.74 41.85 38.81 36.33 36.49 39.04 39.83 41.06 41.45 41.18 41.11 41.91 42.27 42.89 42.76 44.06 45.83 46.91 46.75 46.08 44.06 42.77 43.98 44.60 45.28 44.56 44.40 40.60 40.41 39.20 39.91 40.07
50.30 51.22 51.32 50.83 50.30 47.76 50.61 51.89 54.56 50.91 48.47 51.17 51.66 48.15 48.57 48.11 50.01 49.35 49.16 47.42 47.27 43.92 41.37 39.90 39.73 40.74 41.48 42.70 44.11 43.80 43.89 43.50 42.73 41.00 41.15 42.55 43.85 45.96 44.04 42.79 42.64 41.33 40.88 41.40 42.25 43.40 43.18 44.55 45.25 45.00 40.30 40.00 41.21 40.06
51.03 50.70 51.30 49.58 48.25 49.76 50.41 50.74 52.21 53.25 51.09 49.04 50.85 50.27 49.12 52.42 49.47 46.47 45.35 46.05 42.64 41.20 40.37 42.58 43.15 43.89 46.47 47.09 47.31 45.34 45.52 44.87 42.75 42.96 41.88 40.00 42.55 43.38 43.06 42.86 42.43 42.14 42.01 43.67 40.42 40.52 42.33 43.64 45.27 45.49 43.49 40.26 40.83 40.89
50.72 53.49 52.06 51.30 52.20 53.68 50.38 52.40 49.08 53.81 51.67 50.53 50.10 48.57 47.30 46.53 45.70 46.09 46.69 44.85 42.05 42.49 43.62 44.99 44.64 44.04 46.29 46.24 46.41 46.15 46.48 46.70 45.23 44.58 42.83 42.51 38.94 38.47 39.11 40.06 40.80 40.97 43.27 41.35 41.84 41.72 43.60 43.90 42.01 42.11 41.53 40.50 40.46 40.28
51.88 53.17 53.20 55.08 52.17 46.79 45.63 53.90 50.55 51.58 49.62 47.63 49.19 47.75 47.56 47.95 47.36 48.25 44.40 44.17 44.42 47.14 47.72 47.16 46.89 47.65 47.06 48.19 46.44 43.07 43.34 45.24 43.04 41.58 41.49 41.25 40.37 39.45 38.69 40.45 43.19 41.41 40.53 41.03 42.62 42.79 42.20 41.97 43.45 43.62 42.41 40.41 40.44 39.39
53.39 51.48 50.91 51.49 50.27 42.39 51.43 49.98 52.24 50.46 49.90 46.68 47.72 47.40 47.32 47.23 48.12 44.86 41.25 42.11 45.68 47.26 45.29 45.96 44.85 42.42 42.42 40.67 39.22 39.43 42.63 43.59 42.42 41.65 41.45 40.99 39.05 38.37 39.18 39.47 39.75 41.71 41.00 40.63 40.30 40.06 41.53 44.28 42.87 41.33 40.98 41.18 40.40 38.89
44.49 44.51 45.78 37.76 48.43 49.72 48.49 49.13 48.51 47.59 45.84 47.92 47.25 46.19 46.48 48.63 43.89 42.95 40.29 41.77 43.93 43.91 44.75 42.36 41.46 40.12 39.19 38.17 39.07 41.38 41.96 40.72 38.72 38.27 39.76 40.22 39.12 38.63 38.95 38.14 40.31 40.64 40.76 39.40 38.96 39.78 39.69 41.47 40.12 38.81 39.35 39.29 39.38 39.69
38.49 45.97 42.87 47.76 47.44 47.97 49.10 46.65 47.06 46.93 47.28 49.39 47.83 49.20 48.46 45.97 43.61 41.76 42.51 43.11 42.81 42.30 41.51 41.25 39.89 38.52 37.93 38.75 38.61 39.04 39.17 39.60 39.10 37.36 36.72 38.93 39.33 37.88 36.01 37.12 36.73 37.90 39.99 40.61 40.57 40.84 41.20 40.08 39.49 39.89 39.61 40.32 39.95 41.08
39.98 45.28 48.37 50.89 50.33 50.30 49.35 50.80 50.43 46.59 47.91 47.82 47.02 47.30 45.77 43.27 43.11 44.58 45.60 43.78 42.39 42.89 43.01 41.88 41.01 39.88 39.35 38.80 39.74 40.62 40.33 40.14 39.62 38.67 38.73 39.77 39.67 39.15 37.59 36.29 36.41 38.22 40.60 42.67 42.32 41.95 40.92 40.27 40.35 40.10 39.87 39.87 39.94 40.58
47.31 47.77 45.93 47.80 49.10 50.68 48.86 50.31 49.25 47.06 49.44 51.62 48.86 47.16 45.41 46.27 44.55 47.32 45.90 45.52 44.79 44.41 43.34 42.08 40.86 40.38 39.00 39.82 41.35 41.24 40.21 40.55 39.91 39.46 38.75 38.01 37.70 38.53 38.31 38.82 39.54 40.67 38.13 39.64 41.11 41.17 40.48 40.09 39.88 40.26 39.65 38.60 38.21 39.90
46.25 48.32 48.20 45.99 47.96 50.37 50.57 51.34 48.63 49.79 51.58 51.74 49.64 48.72 49.26 50.58 49.95 46.46 45.28 45.46 45.69 44.73 42.17 41.83 40.38 40.55 39.81 39.70 39.26 39.18 40.90 40.58 38.81 36.69 35.50 34.31 34.42 35.57 37.64 37.79 37.57 37.48 36.40 37.43 38.18 37.94 38.61 38.92 40.30 40.50 41.11 40.03 39.92 40.44
44.95 47.37 45.00 47.22 48.09 49.18 51.06 52.61 51.89 51.63 52.44 52.67 53.33 51.52 50.23 49.54 49.67 50.28 49.06 47.31 45.28 43.85 43.24 42.87 42.99 41.02 39.56 38.02 37.24 38.71 39.25 39.36 39.18 41.69 37.23 35.17 36.48 37.83 39.05 39.21 38.73 38.41 36.97 37.30 37.40 37.37 39.19 39.35 38.88 39.66 39.34 38.10 37.76 38.35
47.02 46.69 46.17 47.92 49.43 51.34 53.08 52.96 52.83 52.87 52.92 52.59 52.95 51.19 50.81 51.10 50.93 50.27 49.09 49.36 45.62 43.58 42.41 41.23 40.94 41.98 41.56 38.99 38.00 37.86 37.26 39.13 40.18 40.76 40.12 39.10 39.27 39.94 40.19 40.11 40.00 39.69 39.43 39.25 38.59 38.33 38.05 38.87 38.06 37.99 38.06 36.84 37.38 37.21
47.31 46.86 45.92 48.10 48.97 52.83 53.86 52.17 50.88 51.00 51.35 49.57 49.83 51.03 51.23 50.45 46.32 47.92 50.88 50.75 45.81 43.50 43.40 41.62 40.43 39.97 40.27 40.78 40.53 40.27 40.11 39.03 38.62 39.93 40.51 40.35 40.24 40.04 40.10 40.12 40.48 40.35 40.60 40.53 39.95 39.32 39.46 38.70 37.93 38.16 37.74 37.51 38.03 38.14
48.47 48.37 51.97 50.65 49.53 49.43 50.59 50.78 50.61 50.77 50.85 49.33 49.38 49.81 49.76 50.39 48.49 49.57 51.99 50.95 49.29 44.90 42.93 41.72 42.00 43.23 42.22 41.94 40.29 38.34 37.82 36.54 37.12 37.47 37.61 37.75 37.92 38.12 38.31 39.01 40.43 41.52 41.29 40.75 39.41 39.67 39.87 39.91 38.92 39.04 38.98 38.58 37.98 37.54

GFSWCAN_sfc_wetblb_069.txt.gz
Wetbulb
55.55 56.05 55.89 54.28 53.40 52.64 52.95 53.28 53.53 53.71 54.25 54.46 54.92 55.65 55.68 55.68 55.55 49.45 49.08 50.27 47.30 42.55 44.01 46.75 46.86 42.31 40.98 37.98 34.86 38.12 37.22 35.86 32.76 26.46 23.96 21.26 20.93 23.05 25.93 28.75 28.40 27.31 27.96 23.47 30.82 26.23 23.72 40.09 39.00 34.55 37.45 37.45 39.08 39.95
55.41 55.89 55.69 54.32 52.78 52.16 52.64 53.16 53.35 53.59 53.71 54.53 54.78 55.53 55.57 55.22 55.20 51.15 46.56 49.07 50.22 46.19 45.07 48.57 50.12 49.99 48.36 45.46 40.31 37.93 36.01 35.41 34.87 28.84 26.64 24.18 31.32 32.92 26.60 20.51 32.72 26.62 30.74 27.03 31.59 30.28 37.87 38.93 37.02 39.31 39.82 38.08 37.93 38.27
55.07 55.75 54.87 53.60 52.06 51.89 52.58 52.99 53.04 53.24 53.69 54.14 54.64 54.86 55.23 54.82 55.04 51.38 45.15 46.43 48.02 44.01 44.19 44.78 46.00 49.66 47.39 47.28 46.79 39.65 39.05 39.99 37.55 37.19 31.98 29.57 23.38 28.08 25.98 25.87 26.96 32.16 34.38 29.46 29.88 32.28 34.86 38.35 39.48 39.77 39.51 39.53 41.02 41.30
55.15 55.49 54.60 52.94 51.60 51.78 52.39 52.97 53.08 52.79 53.30 53.75 54.29 54.72 54.98 54.92 54.57 52.99 46.27 46.77 47.58 44.18 39.69 42.19 49.49 46.40 49.10 47.37 47.71 46.09 43.63 41.67 40.56 39.22 34.39 31.44 26.53 32.46 24.78 28.02 28.84 31.18 33.25 29.82 28.99 32.74 34.64 38.08 39.59 39.43 40.51 41.88 41.72 42.39
55.05 55.01 54.03 52.35 51.32 51.78 52.47 52.81 52.77 52.44 52.58 53.43 54.00 54.67 55.26 54.98 53.96 50.44 47.39 48.03 49.72 45.87 39.79 41.01 45.22 47.89 48.88 47.20 47.73 46.56 44.08 41.34 40.03 37.30 35.84 34.43 33.92 33.05 34.89 36.78 33.75 35.21 32.80 28.72 26.95 32.82 33.32 34.12 38.35 40.63 40.94 41.28 41.65 42.77
54.67 54.35 53.06 51.39 51.01 51.60 52.16 52.33 52.57 52.57 51.45 52.61 53.43 53.96 54.67 54.08 53.04 48.84 48.41 49.75 50.28 48.98 45.56 38.16 44.25 45.18 45.61 46.36 45.69 45.71 45.27 43.06 42.49 40.07 38.62 40.02 40.50 36.80 28.67 26.75 34.15 36.14 37.03 35.77 34.31 36.14 37.22 38.30 39.99 41.34 41.81 43.09 43.29 43.20
54.69 53.81 52.31 51.15 51.17 51.47 51.77 52.02 52.38 52.36 51.89 51.50 52.86 53.51 54.00 52.68 47.44 45.67 45.83 48.75 50.77 51.32 45.31 40.77 38.95 45.44 47.85 45.31 44.02 45.12 46.27 44.39 44.31 43.13 41.41 40.21 39.45 39.17 33.46 26.68 35.07 36.68 38.72 39.21 38.50 38.90 37.03 38.97 38.15 40.93 42.90 44.77 44.17 44.03
54.37 53.33 51.69 50.88 51.18 51.37 51.64 51.87 52.13 52.04 51.64 51.41 52.18 53.05 53.05 53.01 50.15 47.04 48.98 51.36 50.70 48.73 47.97 41.62 38.78 42.68 46.15 42.90 44.51 47.55 45.59 45.81 45.64 44.88 43.53 41.20 40.43 40.08 33.61 36.51 38.16 38.67 39.63 40.17 40.83 40.50 39.83 37.76 39.58 40.82 41.80 43.69 41.83 42.29
54.05 52.73 51.25 50.60 50.86 50.99 51.56 51.79 52.09 51.79 51.57 51.61 52.23 53.01 48.95 46.24 45.01 47.90 55.62 54.10 52.80 49.43 42.07 41.49 38.36 39.74 48.61 46.09 48.00 47.77 47.53 43.13 47.44 43.20 43.19 41.94 35.78 33.25 37.78 38.43 39.72 40.12 40.38 40.81 41.69 41.30 40.82 39.80 40.19 40.71 40.35 40.50 39.43 41.38
53.32 51.88 50.57 50.35 50.65 50.99 51.31 51.48 52.05 51.68 51.50 51.97 48.86 47.15 45.64 47.73 55.61 54.48 49.19 46.01 45.40 45.13 46.44 40.65 43.12 40.67 44.45 45.89 45.51 44.66 45.22 42.75 39.57 42.72 45.43 39.77 36.87 42.59 43.02 42.28 40.90 41.57 42.29 41.71 37.84 37.81 38.72 38.78 39.43 39.58 40.11 40.32 39.88 41.79
52.01 50.74 50.09 50.55 50.68 51.27 51.26 52.12 51.92 51.31 51.52 46.76 46.05 45.79 50.07 54.51 49.61 47.30 42.90 41.87 45.11 41.81 41.43 41.61 42.52 41.01 48.06 44.57 43.75 45.27 42.13 39.77 35.03 40.44 38.79 34.80 34.12 41.58 46.29 45.78 43.19 43.64 43.77 42.35 41.92 41.22 40.61 39.98 39.31 39.23 40.18 41.07 41.04 41.02
50.75 49.93 50.00 50.55 50.83 51.07 52.22 51.43 51.70 49.35 47.35 48.41 48.14 48.50 50.41 48.79 46.18 44.45 42.46 46.36 41.87 39.45 43.50 42.92 42.97 44.57 45.42 46.72 44.50 43.12 40.75 40.02 35.69 42.22 36.76 32.34 38.50 44.63 45.58 46.39 47.31 46.09 45.75 45.13 45.47 43.95 42.59 42.35 41.93 41.15 40.69 40.54 40.76 41.21
49.71 49.65 50.04 50.33 50.79 51.40 51.68 51.31 51.08 50.82 49.10 47.89 46.78 48.24 49.19 46.95 41.56 41.22 37.13 39.17 39.67 42.86 43.99 43.39 42.21 44.55 46.45 44.18 38.58 38.50 38.24 37.88 43.41 35.95 34.79 35.84 39.37 43.74 45.45 46.67 47.16 47.99 47.64 47.21 46.36 45.93 45.58 44.87 44.90 42.75 41.59 41.99 41.93 41.33
49.59 49.72 50.11 50.48 50.83 50.96 52.07 51.76 51.58 49.83 45.89 45.53 46.26 37.73 43.01 41.74 45.05 44.04 42.50 42.16 44.31 45.13 43.81 43.27 42.04 41.30 41.25 38.62 38.14 35.14 39.20 36.75 33.54 29.05 30.21 35.42 37.82 40.32 44.05 45.06 46.62 46.10 46.64 46.65 45.61 46.96 46.81 45.98 44.75 44.95 43.46 42.55 41.31 41.31
49.98 50.18 50.53 50.73 51.35 51.17 52.15 51.77 51.80 48.30 46.45 45.60 46.45 38.44 43.29 48.18 48.46 48.77 48.26 45.47 46.58 46.72 44.17 43.48 43.44 41.14 38.84 37.16 37.62 35.79 35.71 30.85 31.43 29.73 33.29 37.51 39.40 39.38 40.19 41.85 41.72 42.15 43.49 43.34 44.34 45.39 45.98 45.28 44.11 44.30 42.85 41.87 40.85 41.36
50.35 50.87 50.80 51.16 51.68 51.92 51.45 51.15 48.93 48.04 48.31 46.43 45.23 43.15 46.68 46.73 46.65 47.81 46.27 45.59 47.01 41.86 43.04 41.04 37.55 36.90 35.84 35.87 33.94 32.29 32.33 29.08 32.53 35.70 38.51 39.51 39.61 40.76 40.14 41.79 43.40 43.00 43.12 42.39 43.76 44.99 44.74 42.25 42.49 42.07 41.71 39.95 40.75 41.45
50.14 51.53 52.10 51.34 51.05 51.52 51.51 48.72 47.84 48.14 48.59 48.27 46.53 50.11 50.04 48.14 47.33 46.92 47.17 45.93 43.93 41.84 37.73 38.43 35.62 33.70 37.18 34.10 32.77 35.35 32.56 34.86 38.46 40.94 43.18 41.01 40.06 39.92 43.21 44.86 46.47 45.54 44.86 44.46 44.07 44.52 44.98 44.86 42.78 42.49 39.47 39.50 40.32 41.23
50.91 50.83 51.70 50.99 49.11 50.46 49.96 48.38 50.06 51.26 47.81 48.46 47.39 50.57 50.39 49.54 46.19 46.35 46.67 45.75 43.95 41.65 40.21 38.02 38.81 34.67 32.66 31.69 32.73 36.66 38.00 39.45 39.80 41.04 40.85 40.58 41.11 42.27 45.67 42.59 44.11 46.03 45.70 45.88 45.49 45.88 45.29 44.14 42.44 40.99 38.01 39.20 39.75 39.83
47.91 47.99 50.36 50.76 47.55 44.66 48.75 50.71 49.00 44.75 47.06 49.78 50.66 50.39 49.26 48.54 48.54 48.97 47.98 47.07 44.68 44.36 42.95 39.45 36.89 34.42 35.33 37.12 38.04 38.93 39.54 39.66 39.38 40.21 40.72 40.98 40.56 42.11 43.67 43.82 44.07 41.96 41.67 40.56 42.37 43.50 44.02 43.62 41.35 38.85 38.50 39.43 39.48 39.22
50.73 51.30 51.81 51.19 49.17 44.61 47.30 49.32 51.61 48.09 47.11 48.98 50.83 47.04 46.83 46.81 47.67 47.51 47.26 46.30 44.47 41.71 40.06 38.47 38.42 38.73 39.38 40.87 41.50 41.78 42.09 41.47 40.60 38.96 39.01 39.84 41.46 41.17 40.57 40.81 41.54 39.62 40.46 40.34 40.83 41.12 39.61 40.40 41.38 42.88 38.85 38.63 39.07 38.95
49.84 50.34 50.94 48.60 46.45 47.64 48.20 47.80 49.51 50.66 51.14 47.97 48.45 47.39 46.88 48.62 47.49 45.34 43.85 43.24 40.84 39.46 38.90 40.64 41.48 42.05 43.42 43.80 43.89 43.21 43.35 42.48 40.91 40.57 39.85 37.97 39.41 38.91 38.85 39.99 40.13 41.98 42.68 40.61 39.67 40.95 41.74 42.26 43.42 44.20 42.73 39.55 38.71 39.55
47.25 52.08 49.56 50.12 49.99 51.06 47.60 49.30 46.46 48.91 48.83 47.90 47.58 46.49 45.58 45.64 45.56 45.51 44.85 41.85 39.88 40.67 41.32 42.59 42.85 41.88 44.26 45.13 47.13 45.14 43.63 43.14 41.70 43.27 42.46 39.88 36.79 37.03 37.33 38.40 38.66 39.02 40.90 40.03 40.94 43.09 43.76 42.73 41.73 40.68 40.34 40.50 40.69 40.64
49.83 51.96 51.57 52.58 50.08 45.72 45.03 51.89 49.35 49.55 48.07 46.37 47.06 46.05 46.12 46.28 46.80 46.21 42.55 42.47 42.51 44.63 44.96 44.68 44.57 44.49 44.56 43.66 41.23 42.62 43.46 41.93 40.11 40.49 39.13 38.37 36.89 36.46 38.10 39.19 39.56 39.34 37.72 37.49 39.02 39.44 41.88 41.58 43.60 42.81 41.36 39.71 38.60 38.58
50.46 49.72 49.05 49.61 48.90 42.84 48.34 48.25 49.83 48.19 48.21 45.55 44.56 43.91 45.96 45.14 46.14 43.03 41.50 41.07 42.81 45.31 44.00 42.78 40.86 38.32 38.15 39.31 39.25 41.09 41.17 40.63 39.54 39.06 38.62 37.09 36.72 35.65 35.89 36.93 38.84 39.46 38.19 38.25 38.01 38.91 40.38 43.08 43.12 42.98 40.11 39.77 38.06 37.54
42.46 43.59 44.66 36.86 46.46 48.06 46.71 48.31 48.48 46.32 43.21 45.37 45.18 46.12 45.54 46.58 42.79 42.24 40.43 39.93 43.66 44.01 42.53 40.50 38.63 38.91 38.26 37.20 38.35 38.86 38.79 40.53 39.95 38.97 39.22 37.58 36.42 36.34 37.22 37.92 37.87 37.50 38.47 38.38 37.90 38.59 38.80 38.05 37.87 37.84 38.39 38.79 39.02 38.98
37.89 44.81 41.57 46.12 45.47 45.25 46.34 45.01 45.57 45.11 45.82 46.09 46.69 46.63 46.31 44.92 42.89 41.31 41.15 41.52 41.49 40.92 39.41 39.37 38.69 37.60 37.10 40.31 38.10 36.22 37.14 37.22 39.14 37.27 36.08 36.54 37.63 36.90 35.97 35.67 35.27 36.70 38.40 39.06 38.62 38.40 37.90 37.86 38.41 39.07 38.97 39.22 39.01 39.13
38.95 43.33 46.24 48.19 47.50 48.50 46.56 48.41 48.67 44.50 45.15 45.58 46.03 46.05 44.77 42.37 42.48 43.62 43.19 42.30 40.69 40.69 40.71 40.15 41.17 41.16 40.27 37.46 36.50 37.03 37.49 36.97 38.72 38.21 37.47 37.24 36.76 37.54 37.44 36.50 35.50 37.55 38.98 40.82 40.28 40.22 38.97 38.84 38.71 39.07 38.53 38.28 38.42 38.85
45.94 45.69 44.32 45.18 46.25 48.14 47.56 46.55 46.63 45.87 45.77 48.27 47.43 45.28 45.31 45.18 44.27 45.95 44.17 43.80 42.07 40.21 39.21 38.27 38.98 40.26 39.45 38.86 38.79 37.64 35.76 36.04 36.76 35.67 35.39 35.06 34.31 34.68 37.00 37.89 38.26 38.88 37.66 40.33 39.66 38.64 38.65 38.75 38.55 38.79 38.57 37.27 37.27 38.73
43.83 45.94 45.29 43.36 44.69 47.26 48.25 48.02 48.20 48.71 49.70 48.18 46.28 45.04 45.98 49.75 49.50 44.86 43.45 42.91 40.49 39.98 38.08 37.32 36.06 36.17 35.87 36.21 37.63 37.18 38.13 39.42 36.46 34.00 33.36 32.11 32.13 34.59 35.34 36.11 35.40 35.69 35.16 35.80 37.50 38.04 39.50 39.49 39.58 39.27 39.33 38.14 37.91 37.12
41.85 45.19 42.32 43.17 43.60 46.00 50.92 50.36 49.52 50.16 50.18 50.62 50.48 49.57 49.84 48.16 49.00 45.79 44.03 42.71 40.74 40.10 40.63 39.83 38.24 36.85 35.23 35.86 34.90 34.42 36.09 38.00 40.16 38.69 35.13 33.55 34.26 35.81 35.86 35.94 36.02 35.46 34.73 35.03 36.66 36.29 38.39 38.31 38.39 38.21 37.99 36.43 36.63 36.02
42.81 42.54 42.10 42.14 43.14 48.95 51.32 51.56 50.90 51.48 50.94 50.56 51.19 49.49 48.57 50.00 48.04 47.36 45.38 44.65 43.10 40.69 39.63 38.22 36.89 36.67 36.51 35.37 35.96 35.62 35.33 36.79 37.34 39.27 38.41 37.28 36.15 36.90 37.50 37.53 37.15 36.26 35.64 35.99 36.02 36.37 36.28 37.01 36.32 36.08 36.24 35.11 36.13 36.21
42.77 42.84 42.70 42.85 47.49 51.46 51.39 50.52 49.17 48.48 48.75 47.45 46.88 48.97 48.96 47.68 46.59 47.08 48.11 44.18 42.19 41.87 41.07 41.38 40.51 38.65 38.06 37.60 36.99 36.78 38.12 37.33 38.05 40.05 38.58 37.40 37.30 37.88 38.64 38.01 37.63 37.46 37.74 37.47 37.57 37.14 37.87 37.71 36.71 37.07 36.71 36.17 36.28 36.20
43.99 45.24 49.34 48.21 47.02 47.77 49.13 48.77 48.62 48.73 48.98 48.07 48.45 49.36 48.64 48.36 47.69 48.64 47.87 45.21 45.09 44.36 41.32 39.76 38.76 38.39 39.17 39.41 38.70 37.39 37.12 36.69 37.38 38.04 38.38 37.94 37.82 37.33 36.98 37.05 38.50 39.78 39.56 38.34 37.64 37.43 37.94 37.78 37.42 37.26 37.29 37.16 36.68 36.90

GFSWCAN_sfc_wetblb_072.txt.gz
Wetbulb
54.83 55.09 55.71 55.93 54.06 53.20 52.44 52.83 53.27 53.62 53.76 54.37 54.83 55.38 55.19 55.35 55.17 50.21 48.60 48.07 46.58 41.34 42.09 45.04 45.15 40.67 39.42 37.00 34.30 36.62 35.60 34.13 31.01 25.08 23.85 23.76 19.62 26.84 22.86 27.29 26.11 25.78 22.61 23.84 27.09 24.04 23.48 40.17 38.76 34.26 36.30 38.34 39.79 39.48
54.61 54.71 55.42 55.59 53.89 52.46 52.23 52.79 52.98 53.41 53.66 54.02 54.56 54.95 55.19 54.96 54.96 49.80 45.55 47.00 48.84 45.52 43.58 46.45 47.85 47.94 47.29 44.13 39.06 36.19 35.03 34.03 33.17 28.59 26.67 22.99 21.78 27.72 26.34 18.28 30.58 24.24 29.60 26.88 29.35 28.70 36.81 38.88 37.45 39.33 39.66 38.09 39.04 38.82
54.27 54.42 55.44 54.83 53.36 51.83 52.02 52.54 52.77 53.27 53.39 53.78 54.25 54.78 54.82 54.80 54.94 50.08 44.19 44.83 46.69 43.53 42.82 43.65 44.79 47.22 46.37 46.20 45.60 38.55 37.66 38.23 35.42 35.18 30.09 26.73 25.32 25.19 23.16 22.55 26.62 30.33 33.42 30.17 29.54 31.07 34.59 38.17 39.11 39.63 40.15 39.30 40.59 40.66
53.77 54.40 55.37 54.38 52.63 51.46 51.87 52.44 52.53 52.53 52.80 53.43 53.94 54.47 55.13 55.00 54.41 51.70 45.76 45.68 46.44 42.82 38.71 40.26 48.37 44.79 47.40 46.15 46.19 44.63 41.65 40.03 38.22 37.17 32.19 29.78 25.85 30.62 23.43 26.48 26.64 30.30 33.33 29.94 28.66 32.02 33.44 36.18 39.15 39.95 40.46 41.59 41.40 41.67
53.45 54.24 55.11 53.76 51.96 51.18 52.02 52.39 52.46 52.41 52.28 52.82 53.70 54.19 54.94 54.62 53.60 48.27 46.09 46.80 48.19 45.40 39.40 40.49 43.90 45.60 46.60 45.89 46.12 44.70 42.86 40.35 38.63 36.57 34.29 32.19 31.97 32.51 31.18 33.02 30.76 33.54 31.34 29.07 28.56 33.31 33.38 34.04 38.68 40.47 40.11 40.53 41.83 42.66
53.12 53.96 54.27 53.15 51.27 51.01 51.85 51.94 52.26 52.18 52.43 51.39 52.86 53.64 54.23 53.39 51.39 48.27 46.24 48.32 49.38 47.52 42.79 37.89 42.99 44.10 45.94 45.23 45.12 43.45 44.08 43.50 41.40 38.25 37.14 38.63 37.39 34.93 29.38 30.98 33.10 35.24 36.01 35.55 33.96 35.12 36.74 38.35 40.02 41.26 40.46 41.01 44.23 43.86
53.41 53.98 54.01 52.66 51.10 51.05 51.35 51.73 52.03 52.20 51.91 51.13 51.83 52.87 53.22 52.75 46.71 45.06 44.66 47.92 50.02 50.39 45.02 39.13 38.74 44.39 46.70 42.64 42.12 42.65 45.42 44.93 44.53 43.04 41.30 40.88 38.99 38.32 31.01 29.05 35.98 36.48 38.26 37.61 37.57 38.43 37.21 38.87 38.69 40.99 41.45 43.50 45.83 44.94
53.23 54.12 53.27 52.08 50.78 51.01 51.31 51.67 51.86 51.83 51.33 50.93 51.41 52.59 52.90 52.32 49.72 46.73 48.75 51.48 50.63 47.89 46.99 38.83 38.16 41.72 44.81 41.87 42.62 46.71 44.36 45.36 45.09 44.53 44.18 41.40 39.84 39.77 33.36 37.80 40.64 39.25 38.64 38.30 39.16 39.94 39.52 39.34 40.07 40.57 41.44 41.99 42.22 41.54
53.09 53.70 51.90 51.31 50.44 50.51 51.16 51.58 51.68 51.69 51.18 51.30 51.75 52.67 48.22 46.15 45.18 47.59 54.85 52.87 52.21 48.69 41.80 38.91 35.85 37.50 46.55 43.32 44.43 46.98 47.45 42.36 47.28 43.03 43.21 41.57 34.63 32.27 37.10 40.88 42.11 42.30 39.83 39.61 40.29 40.60 40.22 39.55 39.96 40.48 40.54 40.77 40.20 40.47
53.54 52.30 51.30 50.61 50.25 50.35 51.21 51.36 51.76 51.40 51.15 51.67 48.11 46.75 45.76 47.23 53.33 53.35 48.27 44.06 44.49 45.37 45.37 41.17 39.97 41.49 43.29 42.87 45.48 43.62 45.71 42.14 39.25 41.64 44.69 38.36 35.88 42.39 43.83 44.92 44.62 42.84 43.42 42.74 39.77 38.79 39.85 39.58 40.16 40.58 40.59 40.79 40.48 40.95
52.59 51.40 50.76 50.30 50.27 50.76 51.07 51.73 51.75 50.94 51.03 45.82 45.79 45.23 48.76 53.23 48.40 45.50 41.37 40.62 45.50 42.05 40.15 40.38 40.15 39.22 45.26 43.44 43.18 45.25 41.86 40.25 35.64 39.92 38.46 36.47 35.25 38.44 45.86 45.55 45.49 45.93 43.35 43.42 43.33 43.33 42.29 41.46 40.74 40.18 39.88 40.87 41.22 41.39
51.39 50.89 50.00 49.78 50.42 50.81 51.78 51.59 51.27 49.20 46.35 47.75 47.59 47.63 48.49 46.67 45.34 42.34 41.21 46.22 41.27 39.45 41.50 43.07 42.28 44.33 44.09 46.42 43.84 43.41 40.67 39.89 33.69 41.54 37.33 31.08 34.92 39.85 43.03 46.01 46.64 46.70 45.20 45.33 45.02 43.55 43.41 42.23 41.60 40.86 40.99 41.38 41.02 41.70
50.46 49.70 49.55 49.87 50.30 51.16 51.23 50.95 50.78 50.79 48.61 47.12 46.12 48.75 46.35 43.89 37.97 39.30 34.39 38.03 38.96 41.90 42.74 42.37 41.09 43.80 47.19 44.68 37.76 36.75 37.94 37.65 42.61 36.41 33.72 34.44 36.95 40.91 41.97 46.36 46.62 47.73 48.29 47.62 47.06 46.60 45.55 44.76 44.96 43.24 42.49 42.35 42.40 41.77
49.39 49.46 49.72 50.22 50.43 50.85 51.57 51.14 51.19 49.61 45.35 43.51 44.52 37.70 42.75 39.49 43.80 44.52 42.13 41.70 44.07 43.23 42.31 41.91 40.89 40.13 39.61 37.57 37.23 33.97 38.47 37.99 33.41 28.71 28.19 34.55 37.50 38.97 40.58 43.34 44.85 46.20 45.53 45.17 45.74 45.94 45.85 45.85 45.77 45.74 44.74 43.58 42.65 41.90
49.90 50.10 50.37 50.61 51.29 50.68 51.77 51.56 51.22 47.84 45.06 43.79 44.68 37.19 42.53 45.77 48.92 46.96 46.39 44.77 45.28 44.78 43.26 43.44 43.08 39.77 37.42 36.42 36.37 34.99 34.96 30.64 30.50 29.38 32.61 36.96 38.08 39.16 39.98 40.93 41.43 41.89 42.66 43.09 43.55 43.50 45.70 46.59 45.88 45.09 44.31 43.16 42.60 41.90
50.18 51.03 50.20 51.03 51.37 51.58 51.53 50.76 48.31 46.69 46.49 44.25 42.74 41.14 43.79 44.45 46.59 45.75 44.83 44.43 45.44 41.95 41.38 39.69 36.26 35.53 34.15 34.77 33.21 32.57 32.04 29.13 32.01 34.89 37.86 38.96 40.72 39.92 40.16 41.48 42.97 43.15 42.92 44.07 44.60 45.17 45.25 44.27 43.33 43.28 43.86 42.61 41.14 42.03
50.74 51.55 51.60 50.85 51.02 51.23 51.02 47.59 46.76 46.83 46.44 46.21 45.27 46.28 45.52 46.87 45.86 44.82 46.23 45.57 42.05 39.98 37.09 37.13 34.69 33.83 35.81 32.99 32.55 34.55 31.93 34.37 36.48 40.71 39.48 39.45 39.14 39.66 40.24 42.97 45.92 46.34 43.73 44.63 45.51 45.49 45.49 46.20 45.56 43.47 42.68 44.37 42.28 42.54
50.19 51.10 51.48 50.62 48.16 50.18 48.77 47.54 50.00 50.33 46.31 47.20 45.29 47.24 47.84 48.18 45.89 45.29 45.85 44.74 42.66 40.25 38.80 37.32 37.81 34.07 32.58 31.58 32.18 35.94 37.03 38.28 39.53 39.43 39.82 39.80 40.18 41.17 43.44 43.17 45.86 45.20 44.23 45.91 46.32 45.87 45.62 45.53 45.58 44.46 43.83 42.30 42.66 43.26
47.91 48.03 50.01 50.40 47.56 43.61 47.05 49.25 47.41 42.71 45.46 47.12 47.77 47.81 47.59 47.48 47.07 46.48 46.77 45.64 43.08 42.59 41.36 38.43 36.36 33.68 34.74 37.43 37.15 38.32 38.47 38.79 39.58 39.28 39.71 39.93 40.46 41.21 41.72 42.01 45.35 43.53 42.63 41.39 42.71 42.87 43.87 44.37 44.67 43.38 42.64 42.07 42.94 42.05
50.88 51.02 51.34 51.11 48.70 42.80 44.14 46.96 49.44 45.74 45.25 47.18 47.88 46.51 45.97 45.50 46.19 46.23 46.19 45.59 43.40 41.80 40.08 38.49 38.43 38.59 38.29 40.13 40.57 41.53 41.30 40.95 40.18 39.37 38.85 38.75 39.69 40.08 39.74 39.67 41.51 41.56 40.23 41.36 42.13 41.99 42.41 42.97 43.45 41.59 41.68 43.78 42.71 42.10
49.15 49.79 50.59 47.82 45.46 47.27 46.78 46.03 47.11 48.74 47.79 47.05 47.11 45.99 45.45 46.49 46.35 45.39 43.97 42.44 40.96 39.38 38.47 40.32 40.88 42.27 41.98 42.88 42.63 42.98 41.93 42.48 40.82 40.83 42.70 37.96 38.71 38.52 39.18 39.80 39.98 41.46 40.38 39.87 40.59 42.83 43.44 43.00 42.96 45.14 43.22 42.60 42.74 42.26
46.35 51.70 50.17 49.58 48.57 48.95 47.30 47.48 44.98 45.72 47.36 46.57 46.15 45.49 43.42 44.45 45.34 45.36 44.58 42.26 40.67 41.11 41.00 42.87 42.59 42.70 42.88 43.82 44.24 43.56 43.03 42.80 41.07 41.21 40.21 39.24 37.45 37.89 38.33 38.91 39.11 38.86 38.87 39.25 41.36 41.80 42.28 43.96 42.79 43.59 42.21 41.97 43.03 43.44
49.14 50.81 50.16 51.08 49.38 45.15 44.09 49.66 46.66 47.16 45.47 44.70 45.71 44.72 45.00 45.22 45.88 46.45 43.02 42.56 43.13 42.38 42.53 45.00 44.07 44.47 44.32 42.22 42.59 42.80 42.76 41.08 39.39 38.66 38.41 37.64 37.32 36.96 37.39 38.34 39.42 38.99 38.40 39.17 39.89 41.67 41.83 41.05 42.72 41.85 41.11 40.94 41.17 40.82
49.12 48.28 47.39 47.70 47.21 41.61 47.52 46.45 48.33 47.28 46.91 44.72 44.17 42.87 44.58 44.88 45.44 42.50 41.29 41.85 42.93 44.43 43.24 42.00 40.94 38.90 40.13 41.14 41.24 40.87 40.62 39.95 38.80 38.34 37.62 37.27 37.04 36.70 36.69 37.85 39.03 39.27 39.66 39.56 39.76 40.32 41.86 42.70 42.21 40.96 40.70 40.55 39.73 39.35
41.92 42.19 44.18 36.97 45.20 46.29 45.79 46.04 45.98 45.22 42.22 43.52 43.74 43.91 44.40 45.76 42.80 41.55 41.83 40.62 43.13 42.63 41.18 38.48 38.29 39.09 38.57 38.80 38.82 39.55 39.68 40.31 39.19 38.16 39.02 38.21 36.74 37.47 38.08 38.16 38.39 38.66 39.35 39.75 39.52 39.25 39.33 40.36 40.15 40.02 40.71 40.64 40.71 40.41
36.69 42.51 41.37 44.93 44.18 43.69 44.53 43.80 44.24 44.10 44.42 44.28 45.56 45.98 45.09 43.66 42.90 41.34 41.35 41.53 43.14 41.79 39.34 39.23 38.13 37.66 38.24 39.55 38.92 37.62 38.65 39.53 39.50 38.16 37.74 38.04 38.59 37.99 36.95 36.64 36.90 38.90 40.07 40.49 39.87 39.04 39.38 39.73 40.19 40.52 40.61 40.58 38.61 40.54
37.31 41.07 44.60 46.23 45.65 47.24 45.21 46.39 47.05 43.85 43.86 44.10 44.59 44.09 43.18 41.01 42.13 43.53 43.82 42.17 41.50 41.13 41.10 40.82 40.58 40.08 39.99 38.68 37.11 37.01 37.42 39.28 39.76 39.17 38.68 38.01 38.15 38.13 38.50 38.24 38.70 39.70 40.73 41.78 41.79 41.24 40.54 40.46 40.67 40.65 40.49 40.68 40.77 40.77
44.68 44.58 43.07 43.95 44.83 46.55 45.56 45.39 45.41 44.68 45.78 46.62 46.34 43.42 42.68 43.43 43.63 45.91 44.19 43.11 41.66 40.55 40.38 39.13 38.91 39.81 39.35 39.40 38.14 36.85 35.58 36.12 36.04 36.11 36.71 36.75 35.77 36.24 38.34 39.36 40.06 38.44 40.29 42.07 41.58 41.62 41.41 40.84 41.10 41.02 40.57 40.01 40.13 41.13
41.98 44.97 44.60 42.27 43.25 43.48 46.32 46.41 46.76 48.20 48.90 47.81 44.97 44.51 45.12 48.19 49.39 45.83 43.59 40.76 39.13 40.10 38.79 38.14 37.33 37.65 37.06 37.25 36.71 36.27 37.00 37.29 37.45 35.97 35.41 34.80 35.01 36.74 37.70 38.78 38.21 38.36 37.94 38.63 37.42 39.45 41.50 41.16 41.37 41.08 40.98 40.50 39.76 39.87
40.36 43.87 41.49 41.33 40.78 41.14 46.00 48.58 48.41 50.29 50.07 49.44 49.31 49.06 49.33 48.40 48.96 44.04 40.96 39.43 39.48 40.68 41.35 40.88 38.73 39.27 37.88 38.28 36.67 35.98 36.67 37.31 38.95 38.01 35.95 34.92 35.99 37.80 37.73 38.36 38.05 38.08 37.78 38.80 39.26 39.56 38.65 40.69 40.08 41.36 40.60 40.01 39.77 39.30
41.43 41.54 40.80 39.86 39.07 42.32 47.91 50.15 50.62 51.20 50.10 49.17 50.06 48.69 47.72 48.90 47.51 44.95 42.29 42.54 40.56 38.93 39.07 38.04 37.01 37.14 37.83 37.31 38.15 37.91 36.55 38.34 37.29 38.66 39.49 38.79 38.03 38.24 38.51 38.73 38.82 38.13 37.72 38.39 38.71 39.05 39.14 39.67 39.89 39.59 39.42 39.30 39.48 38.99
41.69 41.27 40.82 40.33 41.96 49.33 50.82 49.73 48.33 47.87 47.94 47.14 46.27 48.10 48.39 47.72 45.66 45.89 46.89 42.53 40.71 40.11 40.96 40.95 39.80 39.15 39.54 40.05 39.78 39.75 39.27 41.85 40.81 39.64 39.90 39.11 39.10 39.50 39.73 39.30 39.06 39.10 39.20 38.87 39.26 39.36 39.65 39.92 39.34 39.31 38.94 39.90 39.79 39.81
41.98 42.18 43.48 45.97 46.71 46.78 48.17 48.37 47.50 47.81 48.11 47.41 47.43 47.96 47.63 48.02 46.82 48.50 46.75 45.08 45.67 45.03 43.96 43.28 42.93 40.97 39.94 39.71 39.79 39.39 38.50 39.50 38.71 38.05 37.95 37.77 37.69 38.44 39.69 39.94 39.80 40.37 40.57 40.17 40.07 39.75 40.23 40.21 39.81 40.14 40.21 40.05 40.08 39.99

GFSWCAN_sfc_wetblb_075.txt.gz
Wetbulb
54.99 55.07 55.11 55.57 55.83 53.78 53.03 52.58 53.03 53.51 53.84 54.16 54.74 55.29 55.34 55.16 55.19 54.72 52.86 52.96 52.91 49.60 49.24 48.62 48.39 45.51 44.53 45.15 42.77 43.47 42.94 41.91 40.62 37.61 37.96 35.25 35.93 33.97 33.43 36.03 36.14 36.35 35.50 35.06 35.63 33.46 30.84 44.14 42.83 39.07 42.39 44.17 44.20 43.98
54.77 54.53 54.79 55.37 55.27 53.57 52.33 52.49 53.03 53.31 53.69 54.06 54.53 54.90 55.07 55.04 54.86 51.94 52.29 52.22 53.50 52.02 49.82 51.27 52.40 52.51 51.61 50.34 46.63 44.29 43.05 41.68 41.88 38.08 36.90 37.38 34.85 33.97 33.36 33.03 38.00 33.89 38.73 37.93 38.63 38.56 42.89 44.68 43.52 44.89 44.50 42.42 43.44 43.76
54.25 54.19 54.45 55.53 54.42 53.03 52.00 52.43 52.83 53.28 53.10 53.67 54.21 54.72 54.94 54.98 54.86 52.25 51.52 51.64 53.17 50.93 50.18 50.94 50.74 53.02 52.97 52.21 53.17 46.13 45.01 44.87 42.73 43.69 40.24 38.62 34.81 37.72 32.35 33.12 36.37 38.67 39.84 38.53 37.08 41.04 42.82 44.99 44.70 44.77 45.10 44.47 44.69 44.63
53.69 53.98 54.29 55.43 54.13 52.41 51.68 52.45 52.62 52.73 52.56 53.20 53.80 54.35 55.02 54.82 54.24 52.56 52.65 51.92 52.55 49.48 46.66 47.14 52.45 51.81 52.53 52.29 51.56 51.29 47.83 45.96 45.43 45.44 42.32 40.31 39.92 38.92 37.35 37.10 37.49 40.27 40.15 39.63 38.67 40.20 40.82 42.81 43.66 44.75 44.98 45.37 44.67 45.17
53.32 53.66 53.81 54.97 53.29 51.91 51.79 52.22 52.33 52.42 52.40 52.08 53.14 53.98 54.63 54.43 52.85 52.23 52.72 53.03 54.09 50.92 46.70 48.22 50.82 51.49 51.95 51.66 50.83 49.66 48.44 46.85 46.45 44.25 43.15 41.93 41.17 39.62 40.21 39.73 38.37 40.15 40.25 38.86 39.18 43.74 43.30 42.55 45.05 46.25 44.75 44.74 45.36 45.16
53.08 53.35 53.67 54.13 52.60 51.62 51.62 51.89 52.20 52.23 52.26 51.10 52.24 53.35 53.84 53.37 51.61 54.05 52.07 53.71 54.49 53.45 49.52 44.98 50.04 49.98 50.72 50.30 49.50 48.15 48.42 46.30 46.29 44.57 44.13 44.16 43.18 42.71 38.99 36.03 43.10 43.00 44.03 45.63 43.51 45.19 45.27 45.82 46.37 46.88 45.54 45.76 46.39 46.50
53.24 53.30 53.95 53.50 52.02 51.52 51.18 51.70 51.96 52.00 51.97 51.25 51.02 52.33 52.97 52.85 52.40 50.79 50.55 52.41 52.18 53.64 48.97 44.91 45.68 49.69 50.04 49.01 49.05 48.78 49.01 47.97 47.98 44.94 43.71 43.74 41.12 40.69 37.60 35.20 43.19 43.27 44.55 44.31 44.29 43.76 42.39 44.07 44.36 46.21 46.54 47.29 47.34 47.96
52.94 53.10 54.02 53.43 51.78 51.45 51.05 51.58 51.73 51.72 51.48 50.89 50.90 52.21 52.75 52.21 51.79 52.46 54.39 52.34 51.97 51.87 51.05 44.01 44.69 48.35 50.80 48.44 47.31 50.25 46.57 47.52 46.24 45.28 45.54 43.49 40.87 40.94 34.11 41.44 44.94 44.56 43.17 43.84 43.98 45.58 45.75 47.51 47.28 46.48 47.25 47.38 46.62 46.69
52.63 53.07 53.46 52.00 51.00 50.93 50.77 51.24 51.66 51.72 51.07 51.07 51.49 52.50 52.02 52.23 52.51 53.03 54.44 53.35 54.35 51.55 46.79 45.38 43.20 43.30 52.50 50.44 49.77 50.19 48.89 40.76 46.34 42.07 42.68 42.24 35.92 32.84 38.62 41.89 43.42 45.12 43.61 42.84 43.95 44.31 44.73 45.19 46.56 46.76 46.35 46.46 46.19 46.67
52.81 53.03 51.90 51.11 50.91 50.61 50.67 51.41 51.71 51.37 51.06 51.52 51.70 51.29 51.35 53.28 54.77 54.54 53.14 50.02 50.58 50.13 49.73 45.67 46.79 45.57 49.00 49.28 46.47 46.03 47.06 43.19 40.32 42.24 46.27 40.63 38.86 44.88 46.46 47.57 47.66 46.28 44.75 45.03 41.97 41.07 42.78 43.89 45.83 46.53 46.50 47.64 47.44 47.31
52.94 51.93 51.05 50.16 50.61 50.48 51.02 51.39 51.61 50.78 51.17 50.84 51.01 51.50 53.56 53.43 53.13 51.53 47.07 46.65 47.09 45.09 47.27 47.12 46.80 46.27 51.21 46.23 45.35 48.27 45.39 44.11 37.86 41.60 40.15 38.51 37.98 44.30 47.13 47.93 47.27 46.86 46.27 46.96 46.91 46.90 47.17 47.82 47.44 47.20 47.12 47.34 47.60 47.81
51.81 50.90 50.50 50.58 50.23 50.68 51.39 51.88 51.47 50.11 50.67 51.32 51.48 51.67 53.37 51.49 49.05 46.18 45.98 46.61 45.07 45.51 47.64 46.68 48.19 47.65 48.71 50.76 46.49 45.60 42.39 42.61 37.17 43.22 38.88 33.72 42.58 46.49 47.21 47.42 46.18 46.40 47.43 48.30 48.91 47.41 47.76 47.11 47.79 47.81 47.70 47.48 48.03 48.96
50.52 50.42 49.99 49.97 50.51 51.02 51.16 50.95 50.78 50.64 50.60 51.15 50.77 50.49 49.93 48.47 40.27 43.38 41.42 44.85 45.73 48.07 48.81 49.25 48.20 48.18 48.43 47.06 44.99 44.63 39.54 38.91 44.35 37.80 36.52 40.55 45.95 46.81 47.64 48.16 47.83 48.39 48.83 49.37 49.60 50.14 49.81 48.44 49.21 47.42 47.74 49.05 49.07 48.82
49.89 49.35 49.44 49.94 50.58 50.96 51.23 51.11 51.27 50.98 49.99 47.85 48.28 38.12 45.39 44.72 46.43 47.80 48.14 48.94 51.08 50.19 49.28 49.72 48.56 48.22 47.48 45.22 45.38 40.27 42.89 42.70 36.33 34.40 35.40 43.75 46.60 47.03 47.66 48.18 48.54 48.72 49.37 49.26 49.14 49.51 49.47 49.30 50.21 50.27 49.38 49.67 49.47 48.88
49.74 50.00 50.59 50.87 50.83 50.69 51.78 51.31 51.29 50.85 49.86 46.95 48.78 39.32 45.82 50.49 51.24 51.38 51.87 51.50 51.83 51.56 50.07 47.45 46.29 47.68 45.42 43.42 44.37 42.16 38.64 36.02 37.20 37.40 42.45 46.12 46.85 47.11 47.62 47.87 47.78 48.06 48.20 48.58 49.17 48.76 48.75 48.75 49.20 49.77 50.32 49.78 49.28 49.07
50.32 51.00 51.16 51.18 51.32 51.71 51.26 51.40 51.23 51.12 50.42 47.43 47.00 46.04 49.30 48.54 49.62 51.03 51.54 51.46 51.73 49.86 48.43 47.53 43.73 42.04 41.45 42.98 39.36 37.45 36.42 34.94 39.85 43.69 46.02 47.01 47.45 47.42 47.64 47.82 47.86 47.41 46.93 48.54 47.79 48.65 49.35 49.26 47.51 48.61 48.37 48.66 48.14 47.62
51.13 52.71 51.07 50.85 51.40 51.34 50.68 50.99 50.45 48.94 48.74 48.99 49.17 51.50 50.07 50.92 51.24 52.25 51.82 52.18 49.59 47.90 45.67 44.88 40.29 39.39 43.32 40.32 38.40 41.89 40.09 42.84 45.30 46.59 47.95 47.13 47.26 47.36 48.07 48.80 49.06 48.29 46.88 46.99 47.74 47.89 47.07 47.54 47.75 47.46 47.25 48.29 46.92 46.00
51.58 52.56 51.14 49.79 49.85 51.35 52.19 51.74 50.44 50.14 47.36 50.79 48.50 51.98 52.91 54.17 53.36 52.33 51.49 51.17 48.44 48.17 46.30 44.57 44.85 40.86 38.97 36.67 39.98 45.07 45.54 47.10 47.56 48.16 47.89 47.89 48.41 48.21 47.97 47.92 48.46 47.44 45.57 45.94 45.17 46.71 48.41 46.91 46.11 46.34 45.89 45.35 45.24 46.08
49.56 50.42 50.31 50.14 49.69 47.50 48.98 51.29 50.55 46.30 48.87 52.44 53.21 53.55 53.82 54.25 54.02 53.40 52.23 50.56 50.19 49.43 47.35 45.96 42.76 41.42 42.14 45.32 45.99 47.58 47.70 47.43 48.13 48.06 48.23 47.27 47.32 46.85 46.84 47.17 46.82 45.93 45.47 46.82 46.59 46.33 46.21 46.95 44.34 45.61 45.83 45.61 45.33 45.35
50.87 51.19 51.65 51.23 49.80 47.61 45.62 49.24 53.27 49.89 49.26 52.87 53.88 53.08 53.32 52.96 52.59 52.30 52.50 51.49 49.86 48.97 46.68 45.51 45.81 47.03 46.80 49.37 49.71 50.57 50.18 49.99 48.44 48.14 47.39 46.86 46.77 46.89 46.32 45.73 45.44 46.62 46.27 46.77 46.60 44.56 46.04 45.57 45.73 44.78 45.76 46.43 46.38 44.38
50.48 50.56 50.68 50.32 49.05 49.84 50.21 50.59 51.72 53.51 53.78 52.86 53.73 53.18 52.52 52.44 51.83 51.43 50.92 50.50 48.50 48.62 47.48 48.20 48.69 49.55 49.90 50.65 50.41 50.08 49.61 49.68 49.65 48.83 47.13 44.74 45.42 45.32 45.48 45.46 46.28 46.25 46.24 45.84 45.45 44.89 44.24 44.08 44.79 45.29 46.11 46.58 46.61 45.69
49.48 51.44 52.02 50.81 51.32 50.12 48.73 51.65 49.84 51.06 52.12 53.22 52.36 52.17 50.67 50.01 51.25 51.54 49.95 47.64 48.34 50.20 49.38 49.61 49.98 49.24 49.40 50.41 50.08 50.36 50.20 49.63 48.44 45.27 43.19 43.88 44.01 43.97 44.48 45.48 45.50 45.14 45.76 45.28 45.24 45.12 46.17 46.68 45.79 46.16 44.68 46.24 44.76 46.40
50.27 51.64 52.56 51.56 49.17 46.77 45.52 53.78 51.01 51.93 49.58 51.03 51.24 49.36 50.44 50.78 51.72 51.07 49.01 50.40 50.56 50.56 49.56 50.76 49.84 50.88 50.71 49.64 49.61 49.44 49.17 48.18 46.21 45.87 45.53 45.25 44.56 44.78 45.08 45.54 46.02 44.99 44.89 45.28 46.74 46.67 46.41 42.69 44.56 47.12 46.66 47.01 47.30 46.16
49.20 50.64 49.95 49.65 47.89 43.59 50.99 50.28 52.71 52.19 52.21 51.02 49.70 48.28 49.82 51.31 51.07 48.82 47.43 49.37 50.12 49.84 49.69 49.62 48.85 47.49 47.72 48.96 48.41 48.02 47.24 47.36 45.88 45.43 46.06 45.74 44.39 43.87 45.37 45.05 45.80 46.21 46.12 46.48 46.38 46.76 48.07 47.83 43.89 46.38 46.67 46.25 46.19 45.33
44.05 44.72 45.59 37.37 48.49 49.12 48.88 48.77 49.75 50.14 48.05 48.37 47.70 48.44 50.42 51.46 48.73 47.53 47.18 49.33 48.62 48.88 48.52 48.37 48.02 48.62 46.96 47.11 47.24 47.15 47.36 47.39 45.63 44.72 45.41 46.17 44.76 45.04 44.80 45.35 45.32 46.04 47.44 46.51 44.74 45.52 45.91 47.32 47.18 46.36 46.06 45.89 45.11 44.18
37.55 44.88 42.94 48.01 47.68 46.87 47.92 46.89 47.73 48.29 48.61 47.72 49.14 51.68 51.18 49.14 46.30 46.43 49.01 48.91 48.94 48.91 47.33 47.50 47.19 45.50 46.01 47.69 46.42 46.35 46.88 47.85 47.29 45.57 46.17 46.42 46.45 44.57 43.55 42.89 43.58 44.59 47.54 47.04 45.83 45.34 45.60 45.79 45.48 44.92 45.04 43.97 39.83 44.59
38.20 42.75 47.39 50.10 49.14 49.56 49.60 50.46 51.41 49.34 47.47 47.19 50.21 49.17 48.12 44.71 45.49 50.28 51.57 49.79 49.72 50.41 49.82 48.99 48.63 47.87 46.92 46.84 46.93 46.74 47.38 48.35 47.75 46.20 47.10 46.85 46.32 46.43 46.35 44.42 43.82 45.88 48.29 48.15 47.67 46.83 46.00 45.59 45.02 44.91 44.87 45.70 45.69 45.71
47.19 47.58 44.88 48.03 48.35 50.50 48.13 49.16 49.05 48.89 49.78 51.64 51.45 47.56 46.39 46.55 48.08 53.30 52.74 51.17 50.10 49.17 49.25 48.36 48.41 49.20 48.67 48.36 47.55 45.39 46.20 46.24 45.24 45.42 45.37 44.84 45.33 45.76 46.42 47.25 47.81 38.60 47.71 47.90 48.02 48.04 47.60 47.32 46.53 45.76 44.77 44.66 46.32 47.01
45.15 48.28 48.26 45.66 46.71 47.36 48.89 49.24 50.66 53.08 54.21 52.49 50.74 49.77 50.82 54.26 55.89 53.88 52.19 48.64 48.17 48.43 46.61 45.48 45.03 46.91 46.21 46.56 45.63 45.72 46.01 45.70 44.35 42.49 42.13 41.38 42.06 43.15 46.66 46.91 46.18 47.01 47.47 45.70 38.10 41.96 46.16 46.64 46.64 46.22 45.55 45.45 45.77 45.66
44.84 47.93 46.03 45.16 44.48 45.12 50.34 53.25 54.21 55.80 55.10 55.28 54.95 54.60 54.84 55.15 55.51 53.40 48.07 46.81 46.72 47.82 48.67 48.35 46.75 46.36 45.59 44.99 44.05 43.25 44.74 46.29 46.83 45.54 43.37 42.33 43.27 45.26 45.80 46.17 45.51 45.76 45.74 46.21 46.13 45.60 39.20 45.12 43.24 46.62 45.49 45.49 45.51 44.94
46.65 45.88 45.06 45.12 44.31 47.98 50.94 54.35 55.17 55.11 54.41 54.31 55.03 53.39 53.74 55.05 53.87 51.11 48.18 48.49 48.71 47.92 46.85 46.26 45.49 46.30 45.36 45.18 44.67 43.73 42.91 44.61 44.86 45.87 46.71 47.08 46.47 45.68 46.20 46.52 46.23 45.64 45.51 45.69 45.75 46.10 46.27 45.74 45.40 44.55 43.96 43.51 43.34 42.79
46.82 45.57 45.25 44.25 46.51 52.06 55.11 54.36 53.76 53.05 53.25 52.65 52.47 53.21 53.38 52.89 51.22 51.02 49.12 46.98 46.18 46.08 45.37 46.64 45.56 44.60 45.87 47.46 48.03 48.17 41.57 48.00 45.71 45.23 45.45 45.14 46.14 46.76 47.04 46.96 46.37 45.77 45.42 45.07 45.07 45.14 45.06 44.48 44.70 44.57 44.20 43.37 43.46 43.48
47.48 46.55 46.66 46.01 46.91 50.17 52.96 52.62 51.91 51.39 52.79 52.54 52.45 52.31 52.10 52.21 50.44 52.95 50.22 49.76 48.61 48.10 47.46 47.57 46.58 46.22 46.45 46.57 46.79 47.15 42.72 47.48 45.51 40.46 39.79 40.24 40.78 43.01 46.42 46.94 46.67 46.36 45.95 45.74 45.78 45.57 44.94 44.84 44.68 44.29 44.20 44.00 43.80 43.72

GFSWCAN_sfc_wetblb_078.txt.gz
Wetbulb
54.94 55.02 55.08 55.14 55.54 55.52 53.07 52.68 52.64 53.40 53.77 54.24 54.98 55.31 55.38 55.36 55.45 56.04 57.67 59.27 57.11 53.73 53.23 52.64 51.81 50.08 50.09 50.35 48.62 48.15 46.84 46.08 46.27 43.59 44.56 43.47 43.41 41.77 40.19 43.05 42.13 41.28 40.16 39.84 41.32 38.19 36.07 48.67 46.98 42.96 48.09 50.02 49.50 48.78
54.86 54.80 54.68 54.78 55.72 54.34 53.05 52.29 52.72 53.26 53.69 53.95 54.51 55.27 55.35 55.34 54.98 53.70 56.89 59.08 59.10 55.79 54.43 56.68 56.35 56.13 54.49 53.66 52.73 50.12 47.56 45.82 47.47 45.45 46.38 45.06 41.24 40.43 40.30 38.60 43.82 39.55 44.10 44.10 42.92 44.44 48.07 49.98 49.41 50.36 49.08 47.73 48.71 49.13
54.30 54.24 54.42 54.64 55.44 54.20 52.45 52.22 52.70 53.01 53.05 53.69 54.20 54.88 55.32 55.32 54.98 53.86 58.23 58.92 58.34 55.62 54.55 54.20 53.47 56.81 58.13 57.21 57.86 51.06 51.44 49.79 48.96 50.13 47.57 46.39 37.42 44.93 39.99 40.67 41.67 43.93 45.60 42.48 42.19 46.06 46.97 48.77 49.28 49.44 48.86 48.68 49.00 48.97
53.74 54.18 54.24 54.26 55.16 53.57 52.03 52.06 52.49 52.55 52.57 53.11 54.06 54.51 54.93 54.75 53.77 53.42 58.36 58.79 57.97 55.48 50.23 51.21 57.50 55.47 57.51 57.69 56.78 55.23 53.24 53.12 51.58 50.87 49.36 47.36 46.29 45.89 44.71 44.51 42.99 46.94 45.43 43.70 44.11 46.32 45.71 48.45 49.28 49.03 48.38 48.71 48.23 48.67
53.40 53.66 53.88 54.14 54.76 52.73 51.76 52.06 52.05 52.20 52.43 51.95 53.09 54.02 54.45 54.12 52.88 57.11 60.52 59.36 59.35 54.69 50.39 52.22 55.17 55.80 57.25 56.57 55.26 54.73 53.67 51.85 50.63 48.98 47.84 47.45 48.45 46.09 47.76 46.04 43.90 46.44 44.81 42.90 42.50 46.94 47.33 46.59 49.78 49.95 48.66 48.18 48.49 47.87
53.02 53.27 53.54 54.08 53.90 51.83 51.51 51.89 52.03 51.95 52.05 51.72 51.73 53.22 53.61 53.65 53.03 57.54 55.04 59.02 60.00 58.25 53.45 49.45 54.41 54.36 55.33 55.63 54.67 53.50 53.60 54.13 50.48 47.60 46.66 50.43 49.16 47.82 44.33 42.66 47.05 48.70 49.51 50.08 47.44 49.72 49.08 49.63 50.12 50.40 49.05 49.13 48.98 48.43
53.04 53.32 53.47 54.16 53.29 51.40 51.47 51.59 51.90 51.91 51.79 51.37 51.07 52.13 52.91 52.96 56.13 54.99 53.82 55.86 54.14 58.81 53.36 49.67 50.20 54.05 54.38 54.45 54.66 53.72 53.61 53.43 48.71 47.03 45.96 47.55 44.76 46.12 39.88 39.88 46.68 48.96 50.17 50.16 49.90 48.66 46.83 48.30 47.85 50.18 49.66 49.82 49.17 49.58
52.79 53.00 53.16 54.01 52.40 51.48 51.47 51.72 51.86 51.53 51.27 50.90 51.05 52.02 52.84 52.42 52.47 56.18 58.45 54.23 54.79 55.76 54.67 50.19 49.52 51.91 55.10 53.44 50.31 52.88 49.11 49.39 47.94 45.58 45.46 42.76 41.72 41.71 35.35 44.87 47.33 47.77 49.35 47.36 45.90 48.61 49.17 50.82 50.27 49.84 50.20 49.97 48.96 48.99
52.63 52.86 53.28 53.16 51.41 51.28 51.19 51.46 51.72 51.20 50.83 50.76 51.54 52.38 55.44 56.39 57.40 56.41 54.21 53.51 59.66 55.91 52.11 52.70 47.64 46.54 56.28 55.03 52.71 51.26 50.34 44.04 49.94 44.31 42.95 43.89 38.59 34.98 44.41 47.55 48.28 47.98 46.28 46.14 46.64 45.74 46.18 48.70 49.31 49.05 49.09 49.10 48.51 48.92
52.68 52.88 52.99 51.79 50.92 50.84 50.92 51.47 51.47 51.00 50.67 51.38 54.93 55.61 54.40 57.21 54.26 55.09 56.17 54.65 54.80 55.55 55.03 51.87 54.04 49.60 53.11 53.76 51.13 48.98 48.85 45.42 41.38 43.82 47.70 42.16 41.67 48.98 49.79 49.94 49.49 50.28 48.95 47.48 43.48 41.97 44.78 46.04 47.27 48.45 48.38 49.51 49.93 49.86
52.74 52.57 51.84 50.83 50.76 50.73 51.15 51.33 51.72 50.77 50.07 56.03 56.00 54.96 57.35 54.06 57.28 54.85 51.70 50.48 52.67 49.87 53.33 54.52 53.10 49.77 54.87 49.10 49.68 52.00 48.36 48.06 40.91 44.23 44.05 40.82 42.37 47.08 49.60 50.34 51.00 49.24 46.98 46.79 47.16 48.74 48.90 47.98 46.81 47.43 49.46 50.30 50.81 50.74
52.01 51.44 50.52 49.91 50.49 50.92 51.22 51.85 51.53 52.53 55.80 54.26 55.39 56.03 58.12 55.04 50.73 48.19 49.15 49.62 48.33 48.69 52.60 52.76 52.19 52.59 51.19 53.32 49.23 50.56 45.39 47.10 38.34 48.56 41.74 36.82 46.56 48.27 49.67 49.76 51.05 49.10 48.56 49.55 50.35 49.95 50.97 50.58 51.03 50.72 50.64 50.67 51.04 51.44
51.02 50.46 50.54 50.36 50.43 51.30 50.87 51.44 51.48 51.26 52.00 56.13 54.54 53.39 52.77 52.32 41.17 46.45 44.24 48.44 50.02 52.53 53.29 53.20 50.25 51.29 50.56 51.19 48.31 48.08 41.36 41.55 48.84 42.24 37.55 43.28 47.74 49.52 50.53 51.33 51.39 51.77 50.39 51.94 51.72 52.05 52.00 51.47 52.07 51.69 50.90 51.19 50.55 51.44
50.04 49.59 49.60 49.98 50.73 51.44 51.59 51.32 51.45 52.09 53.27 51.75 50.99 39.60 48.95 48.56 50.91 52.69 51.43 51.70 54.77 55.88 55.35 54.90 50.21 47.43 48.95 48.31 50.13 42.31 46.65 47.14 37.42 37.34 38.52 45.61 48.57 49.85 50.99 51.49 51.51 50.88 51.69 51.60 51.59 51.76 51.71 51.86 51.98 52.85 52.31 52.77 52.13 51.38
50.25 50.46 51.16 51.61 50.95 51.12 51.64 51.37 51.26 55.49 53.64 49.71 50.97 41.66 50.03 55.10 56.63 56.97 54.29 56.50 56.61 57.31 54.30 51.38 51.56 50.91 49.47 47.05 48.57 46.17 41.36 38.81 41.66 40.73 44.52 47.93 50.35 50.33 50.08 50.26 50.45 50.77 51.39 51.50 51.93 51.37 51.47 51.75 51.57 51.91 53.12 53.56 53.24 52.95
50.65 51.21 52.94 51.36 51.20 51.33 51.23 51.51 54.23 55.76 54.01 50.75 49.96 48.88 54.45 53.86 53.82 55.72 55.50 54.53 56.11 55.14 54.37 52.19 48.11 45.07 44.77 46.88 42.36 40.28 39.29 37.82 43.45 46.16 48.65 50.17 49.62 50.45 50.68 50.99 51.31 51.25 51.48 51.26 51.34 50.15 50.96 51.21 50.91 51.17 52.06 52.61 52.53 52.63
50.86 53.84 51.55 51.76 51.81 51.59 51.60 54.23 54.18 51.41 51.25 49.80 50.58 53.02 52.24 53.02 54.03 56.53 57.19 56.22 57.07 52.87 49.40 49.51 41.28 41.32 47.92 42.94 40.92 46.21 42.76 45.06 47.80 48.68 50.17 51.01 50.63 50.52 50.98 50.71 50.81 50.59 50.31 50.03 49.75 50.03 49.91 50.30 51.25 48.25 46.15 47.67 48.87 50.75
54.86 53.84 51.05 50.95 51.40 52.49 55.00 54.75 52.33 52.59 49.17 52.02 50.25 55.09 56.30 57.30 56.76 57.31 57.41 56.87 53.74 53.24 52.72 48.72 50.70 44.25 42.05 38.75 42.68 47.14 49.10 51.15 51.90 50.70 51.06 51.56 51.62 50.89 49.99 49.46 49.49 49.37 49.11 49.00 49.26 49.49 49.76 49.37 47.13 46.13 45.80 46.82 46.88 47.80
52.67 53.31 51.55 50.93 51.52 50.64 51.38 53.84 54.34 49.69 51.14 54.88 56.10 57.39 57.47 57.69 59.33 59.13 58.71 57.19 56.70 57.05 54.28 51.72 46.62 45.93 46.94 48.64 47.41 49.23 51.17 50.91 50.03 50.88 51.47 51.02 50.38 49.47 49.39 49.59 49.74 48.57 48.32 48.80 48.71 48.73 48.53 48.74 49.80 46.40 47.13 46.24 45.03 46.25
51.20 51.65 51.74 51.46 51.05 52.31 49.36 52.11 57.80 53.89 52.74 56.57 57.56 56.80 57.29 57.92 58.86 57.82 57.11 56.10 54.74 53.81 51.31 49.53 49.40 50.71 51.05 52.59 53.03 52.31 52.95 54.20 52.58 50.32 48.13 49.13 50.34 49.04 48.84 48.36 47.64 48.23 48.30 48.32 48.41 45.43 48.27 47.93 48.59 48.70 47.66 45.55 44.76 45.17
50.35 52.94 50.62 52.74 53.50 53.04 53.40 53.81 53.73 56.30 57.28 55.98 58.63 57.75 56.92 57.72 55.82 55.47 55.32 56.81 53.71 52.43 51.58 53.84 53.89 54.65 55.54 54.71 55.03 55.26 53.98 54.67 53.08 50.92 49.97 47.09 48.96 49.02 48.65 49.55 49.36 48.00 47.45 47.53 46.83 46.63 44.87 43.68 45.42 47.26 46.42 47.51 49.90 50.61
54.04 51.54 55.00 54.41 54.59 53.63 52.56 55.73 53.35 55.15 53.28 54.90 55.36 56.05 53.04 53.02 54.43 55.68 57.18 53.08 53.04 54.34 55.51 55.37 56.28 54.80 54.49 54.12 54.13 55.31 54.94 53.87 51.97 47.34 44.54 44.19 46.57 47.05 47.95 49.48 48.75 47.15 48.27 47.85 46.75 47.12 46.69 46.81 47.63 48.80 48.52 48.12 48.27 48.99
51.06 52.80 54.60 53.66 51.12 48.08 48.29 57.85 52.92 54.24 50.01 53.17 55.90 52.89 53.60 54.48 56.33 56.42 53.19 54.97 56.07 58.04 57.41 56.33 56.11 56.66 55.10 55.56 55.04 54.10 53.93 51.85 49.01 48.12 47.41 47.44 47.57 48.24 49.44 48.83 48.94 48.43 47.56 48.09 50.27 49.00 47.82 43.22 47.44 49.71 49.34 50.13 50.37 49.07
49.29 53.04 51.42 51.02 49.77 46.62 54.94 52.97 55.53 54.52 54.67 53.44 52.47 50.37 52.57 55.64 56.31 53.61 51.56 55.24 56.01 55.59 54.28 54.65 54.75 53.51 53.57 53.49 51.50 50.87 51.00 50.54 49.02 48.23 48.56 47.59 46.59 46.84 48.86 48.08 48.82 49.27 49.35 49.99 49.60 48.92 49.56 49.98 44.63 48.08 47.87 48.99 48.16 46.01
45.75 45.82 46.70 38.92 50.83 48.85 49.65 50.60 51.45 51.66 49.62 51.95 50.43 51.33 53.37 55.21 52.13 51.28 51.12 54.07 54.30 54.27 54.32 54.25 54.11 53.65 51.50 50.59 50.05 49.75 51.35 49.93 48.24 46.84 48.09 49.92 47.88 47.32 47.07 47.94 48.78 49.47 51.88 48.13 47.69 47.38 48.14 50.08 47.86 46.77 47.52 46.38 45.64 45.80
38.21 47.95 44.67 48.69 49.84 48.92 50.06 48.09 49.35 49.54 51.24 49.93 51.83 56.06 55.36 53.04 48.74 48.51 53.16 55.23 54.98 54.84 54.38 53.96 52.86 51.62 50.92 50.67 48.39 48.32 49.19 50.89 49.86 47.81 48.08 49.00 49.01 48.16 46.19 45.52 45.92 46.82 50.33 49.76 48.25 47.25 47.09 47.14 46.85 45.82 45.57 44.31 40.41 45.04
39.18 45.22 49.67 53.48 52.42 52.08 51.32 53.42 53.61 51.60 49.52 49.23 53.44 52.04 52.01 47.14 47.53 53.37 56.48 56.86 56.11 56.48 56.37 55.78 54.11 51.67 50.46 49.92 49.92 50.74 50.92 50.91 50.57 49.58 49.68 49.93 49.90 50.45 48.85 46.40 46.33 47.93 50.14 49.65 49.60 49.15 48.02 47.55 46.53 45.88 45.50 45.67 45.73 45.33
48.94 49.46 45.98 49.47 50.01 51.31 48.34 49.56 48.83 49.02 52.11 55.98 54.79 48.72 47.59 49.21 50.75 56.43 57.28 56.78 56.71 56.73 55.65 54.66 53.22 52.03 50.95 50.54 50.29 49.83 50.55 50.56 49.66 49.46 49.53 49.39 49.51 49.11 49.49 50.56 50.27 39.87 51.03 50.07 49.92 49.76 50.25 49.44 48.05 47.08 46.40 47.09 46.73 46.87
47.98 51.13 50.38 46.98 48.53 48.93 50.04 49.61 50.27 54.78 57.76 56.31 52.60 51.63 52.60 58.24 60.20 58.87 56.96 55.13 55.75 55.12 51.90 50.75 50.61 51.42 51.02 51.11 50.75 50.38 50.60 49.25 47.32 45.19 44.69 44.34 44.33 45.82 48.56 49.04 48.88 49.51 49.65 48.16 36.60 42.68 47.93 48.33 47.48 47.32 46.83 47.45 47.93 48.97
48.12 51.01 47.93 47.07 45.94 45.65 48.63 52.31 52.94 58.83 59.23 58.24 58.12 56.68 56.88 58.15 60.26 60.75 56.34 53.34 52.64 50.91 51.20 50.86 50.42 49.65 48.91 48.27 48.01 48.65 50.00 49.97 49.21 47.88 46.16 45.45 45.97 47.56 48.30 48.01 48.19 48.76 48.57 48.49 48.18 47.52 39.16 45.45 43.68 48.10 47.91 48.61 47.97 46.83
52.35 49.94 47.62 48.11 47.59 49.47 50.66 52.51 54.45 55.09 55.40 54.80 56.28 55.47 55.61 58.04 59.87 58.65 56.40 54.52 53.41 52.65 51.70 49.85 49.20 49.95 49.22 48.16 48.25 48.35 47.53 49.80 50.35 50.15 50.16 50.34 48.85 47.70 48.20 48.47 48.44 48.47 48.71 48.59 48.64 48.53 48.36 47.94 49.08 47.88 47.49 46.31 45.66 44.66
50.35 48.26 47.15 45.88 48.24 53.57 56.42 55.20 55.12 54.61 56.43 56.05 55.90 57.92 57.21 56.53 54.35 55.39 54.05 53.34 50.66 50.47 48.24 49.94 49.26 48.63 49.82 49.71 50.41 50.93 42.54 50.86 50.25 50.21 50.24 49.19 49.20 48.91 48.35 48.92 48.82 48.63 48.35 48.36 48.29 48.24 47.61 46.98 48.01 47.81 47.73 46.01 46.03 45.91
50.01 50.03 49.95 48.94 48.05 48.52 52.80 53.24 53.52 53.86 55.69 56.19 56.64 56.50 55.75 54.55 52.37 54.24 52.11 49.61 48.18 47.90 47.68 46.90 46.66 47.39 49.13 49.13 49.29 49.62 45.46 50.80 48.63 43.10 41.77 42.25 42.84 45.22 48.27 48.85 47.85 47.91 48.02 47.77 47.87 48.03 47.38 46.98 46.88 46.50 46.26 46.33 46.38 46.31

GFSWCAN_sfc_wetblb_081.txt.gz
Wetbulb
55.23 55.33 55.31 55.21 55.37 55.81 53.54 52.52 52.62 53.27 54.11 54.69 55.29 55.66 55.65 55.67 55.69 56.47 59.58 60.99 58.31 55.06 55.23 54.51 53.30 52.49 51.50 52.29 49.98 50.54 48.76 48.92 48.43 46.67 47.64 46.52 45.21 45.51 43.86 46.80 45.40 44.60 43.28 43.12 44.15 41.87 39.07 51.40 49.25 45.31 51.14 53.77 53.45 53.28
54.85 54.95 54.89 54.85 55.01 55.43 52.89 51.95 52.54 53.31 53.81 54.30 54.98 55.43 55.84 55.75 55.51 54.63 58.53 61.88 61.52 57.59 56.82 58.22 57.56 57.79 56.12 55.64 54.05 52.10 50.37 48.42 49.60 49.79 49.56 49.30 45.96 46.02 43.96 42.13 47.87 43.20 47.63 47.02 45.87 47.06 52.13 52.39 52.13 54.40 54.35 52.44 51.73 52.22
54.43 54.45 54.43 54.55 54.79 55.23 52.76 52.03 52.64 53.01 53.13 53.91 54.49 55.15 55.65 55.46 55.22 54.90 59.78 61.33 60.75 56.78 56.20 55.60 55.00 58.16 59.66 58.51 59.04 52.34 53.37 52.58 51.26 53.18 50.73 49.41 41.87 48.16 43.90 44.10 45.05 46.92 48.89 46.28 45.83 49.62 49.91 50.82 52.64 52.82 52.28 51.91 52.64 52.47
53.87 54.19 54.23 54.37 54.41 54.97 52.10 51.64 52.50 52.67 52.81 53.08 53.93 54.71 55.16 55.04 54.73 54.07 59.90 60.98 59.86 56.78 52.24 54.10 58.57 56.58 59.65 59.44 58.26 57.43 55.87 56.15 55.63 52.78 50.07 48.75 47.26 50.09 47.17 47.63 45.35 49.10 48.95 45.65 46.30 49.14 49.31 51.09 52.09 52.37 51.43 51.56 51.26 51.81
53.32 53.62 53.81 53.99 54.35 53.83 51.06 51.64 52.08 52.34 52.53 52.32 53.06 54.07 54.63 54.79 54.30 56.95 62.40 62.88 62.08 57.25 52.96 53.61 56.72 57.80 58.87 58.62 56.84 56.21 55.57 55.08 53.84 51.06 49.15 47.59 50.81 49.52 49.13 48.49 46.23 49.71 47.02 45.34 45.11 50.15 50.18 49.57 52.61 52.89 50.97 50.26 50.80 50.48
53.02 53.32 53.64 53.85 54.35 53.01 51.30 51.44 51.54 52.09 52.36 52.32 52.07 53.27 53.95 54.24 54.44 59.36 56.75 61.52 61.90 60.46 55.22 50.77 56.58 56.11 57.90 57.43 56.55 55.02 55.84 54.69 54.01 52.17 49.90 52.11 51.50 49.78 46.57 45.28 50.27 51.31 51.46 51.83 50.03 52.48 52.18 51.88 52.00 53.03 51.43 51.65 51.77 51.23
53.02 53.28 53.48 53.66 54.24 52.11 51.54 51.84 51.34 51.82 52.07 52.00 51.56 52.28 53.35 53.52 56.51 56.73 55.21 57.07 54.39 60.68 55.26 51.20 51.75 56.35 57.14 56.85 56.22 54.21 54.83 52.91 52.78 49.50 47.77 45.98 44.60 48.35 45.65 43.31 48.96 51.51 52.17 52.08 53.47 52.17 49.91 50.78 50.05 52.00 52.33 52.51 50.51 51.74
52.78 52.88 53.16 53.59 53.55 51.65 51.29 51.14 51.25 51.71 51.54 51.40 51.52 52.42 53.21 53.34 53.70 55.38 59.29 55.98 55.94 58.09 56.88 51.53 50.44 52.62 57.53 54.38 52.24 55.03 53.43 53.68 51.87 49.44 46.58 43.96 42.70 41.87 35.31 44.91 48.55 51.07 51.87 51.48 51.89 52.55 52.29 51.30 52.37 52.27 52.68 52.22 50.75 50.32
52.55 52.94 53.23 53.74 52.35 51.27 50.98 51.13 51.15 51.50 51.19 51.34 51.84 52.86 57.25 56.31 55.76 58.18 55.17 54.38 60.84 58.30 53.98 52.94 48.67 48.20 57.07 56.53 56.44 56.25 54.92 48.75 51.05 46.40 47.29 44.73 39.61 35.13 43.27 47.68 48.87 49.86 49.31 50.19 51.54 51.52 52.06 49.12 49.13 50.83 51.60 51.16 50.39 50.56
52.71 52.89 53.07 52.46 51.20 50.97 50.88 50.64 50.91 51.25 50.94 51.36 55.64 57.73 54.33 58.50 53.64 55.80 58.49 56.94 57.15 57.06 56.25 53.30 54.61 48.13 53.71 53.63 51.16 50.99 51.59 48.74 44.69 46.85 49.02 43.60 43.59 49.84 51.83 51.45 52.06 51.97 52.39 51.78 48.84 48.03 48.18 47.11 46.60 48.20 50.06 51.60 51.46 51.10
52.59 52.87 52.48 51.32 50.81 50.79 51.27 50.85 51.82 51.10 49.62 57.77 56.85 56.45 59.53 54.72 58.23 55.61 52.39 53.68 55.57 51.31 54.28 54.60 53.41 50.03 56.08 50.92 50.80 52.87 48.91 48.60 43.47 45.14 44.83 42.70 45.26 48.18 50.17 51.01 52.49 52.87 52.01 51.12 50.98 50.36 49.17 47.98 47.09 48.30 49.33 50.72 50.75 50.87
52.24 51.81 50.77 50.09 50.42 50.55 51.06 51.67 51.92 53.59 58.53 55.54 56.45 58.04 61.05 55.77 53.38 49.88 50.52 53.02 51.34 50.01 55.57 53.04 53.03 53.26 54.71 56.32 51.47 52.31 47.46 48.46 41.20 49.12 43.72 40.68 46.31 50.13 49.90 50.46 51.84 52.65 52.10 51.19 51.64 50.24 49.72 49.47 49.78 50.51 50.99 50.67 50.55 51.66
51.16 50.73 50.09 50.44 50.34 51.08 51.16 51.78 51.58 52.50 52.55 59.25 56.61 53.65 53.75 53.08 43.06 47.42 45.38 48.45 49.09 53.26 53.24 53.96 51.08 54.41 54.66 54.51 52.32 50.84 42.88 43.56 51.72 43.26 41.70 44.62 50.12 51.33 51.35 51.52 51.38 52.94 52.83 52.53 51.60 52.30 52.00 51.64 52.65 51.32 50.68 52.41 52.93 52.25
50.38 49.96 49.91 50.13 50.64 51.44 51.68 51.83 51.39 53.53 54.88 54.15 52.61 42.30 49.62 49.74 51.64 51.56 52.21 54.06 56.35 55.44 54.67 52.30 52.76 53.19 53.48 49.78 50.55 43.96 48.36 49.48 41.97 38.79 40.05 46.81 50.84 51.79 51.85 51.98 51.36 50.84 51.26 51.60 51.44 52.02 52.03 52.30 52.28 53.09 53.47 53.30 52.76 51.36
50.68 50.57 51.65 51.90 51.17 51.63 51.77 51.72 51.78 56.74 56.07 51.91 52.46 42.23 51.34 54.17 57.84 56.55 57.89 57.29 56.49 56.86 54.47 52.53 52.80 52.22 49.43 47.85 49.31 47.35 43.05 40.31 42.51 41.08 46.37 50.10 52.44 51.73 51.32 51.39 51.33 51.27 51.54 51.03 51.77 52.06 51.10 51.00 50.92 50.72 51.84 53.75 54.26 52.91
51.40 49.57 53.85 51.72 51.76 51.39 51.75 52.32 55.93 58.36 56.31 52.85 52.04 50.63 54.74 53.60 53.78 57.54 56.49 54.49 56.08 55.17 55.23 53.07 49.54 47.22 45.93 48.36 44.06 41.88 40.69 39.00 44.30 48.19 49.58 51.70 51.90 51.66 51.59 51.86 51.71 51.29 51.52 51.76 51.93 51.78 51.45 51.21 51.29 51.21 52.17 52.83 53.16 52.46
49.55 56.83 52.19 52.47 52.46 52.09 52.09 55.75 57.36 53.80 52.89 51.40 51.54 53.72 55.07 56.73 54.83 57.15 58.32 56.68 56.79 54.01 51.97 50.90 43.26 42.98 48.23 44.47 42.36 48.35 43.99 46.46 48.90 50.11 51.80 53.63 52.66 51.59 51.77 51.16 50.97 50.58 50.48 50.37 50.37 50.71 50.77 51.36 51.71 50.59 49.90 50.41 50.09 51.19
55.92 55.37 51.82 52.05 51.75 53.67 57.20 56.26 55.81 54.26 50.86 53.03 51.77 55.23 56.56 57.78 57.03 57.14 57.57 58.08 55.16 54.40 53.99 49.45 52.22 46.63 45.18 40.94 43.89 48.45 49.78 51.14 52.50 52.15 52.19 53.23 53.15 52.34 51.26 50.03 50.13 50.23 50.09 50.13 49.89 50.06 50.48 49.48 49.71 49.63 49.72 50.72 49.98 49.94
53.44 54.75 51.44 51.69 52.30 52.17 53.71 55.85 57.16 51.12 52.83 54.35 55.99 56.93 58.02 58.00 59.73 60.21 60.34 58.72 57.46 58.73 55.08 53.12 48.23 47.30 46.96 50.97 50.54 49.84 51.58 52.03 51.67 52.11 52.97 53.65 52.17 50.71 50.53 51.22 50.63 50.01 49.18 49.15 49.49 48.84 48.93 49.16 50.27 49.98 49.83 47.57 46.26 47.38
51.25 51.72 51.98 52.14 51.16 53.60 52.02 53.83 59.73 54.52 52.79 56.94 57.41 56.95 59.26 58.04 58.30 59.47 59.17 58.47 57.19 55.43 52.43 50.11 50.75 52.61 50.99 53.31 55.14 53.69 53.06 53.99 52.41 50.27 50.69 51.45 51.59 50.88 50.27 49.77 49.02 49.66 49.98 49.69 49.18 46.47 48.58 47.86 50.10 50.02 49.49 47.71 45.02 45.21
49.68 54.05 51.63 54.14 53.97 54.15 54.69 55.00 54.33 55.32 56.29 55.74 57.47 58.33 56.82 57.86 57.52 56.71 56.02 58.42 56.14 54.50 51.96 54.73 52.38 55.98 58.10 56.76 56.45 56.48 54.92 54.44 52.59 51.73 50.46 51.20 50.73 52.02 49.94 50.17 50.80 50.65 48.34 47.93 47.88 47.83 47.19 47.66 48.91 48.80 49.09 48.09 46.86 49.04
56.35 51.85 57.68 56.62 55.70 56.14 54.86 56.45 54.23 56.33 54.46 53.56 55.46 56.14 54.47 54.32 54.15 54.54 59.41 55.25 55.41 55.52 56.83 56.11 57.68 57.64 56.91 55.35 55.34 55.79 57.24 56.07 53.87 49.73 45.99 46.98 48.64 48.75 49.26 51.21 50.19 50.54 49.09 49.36 48.12 48.96 48.58 49.84 50.42 49.49 48.30 48.20 47.89 48.44
50.27 53.19 55.28 55.75 52.17 50.91 49.01 58.13 53.46 54.09 50.77 52.79 55.29 53.62 54.23 54.91 57.30 60.43 55.10 56.32 56.76 59.56 60.47 60.68 59.88 59.57 57.99 57.63 57.12 56.61 56.03 53.43 50.95 50.75 49.13 50.28 50.26 50.71 50.10 50.81 50.81 50.15 49.23 49.21 48.62 48.18 48.60 43.79 48.16 48.84 49.09 49.39 49.37 49.75
49.03 53.80 51.59 51.59 50.53 47.69 54.46 53.26 56.02 55.18 55.21 53.88 53.50 51.57 53.88 56.59 58.62 55.56 53.16 55.11 57.66 59.21 58.07 58.72 58.03 56.60 56.30 56.04 53.95 53.21 52.93 52.66 51.42 50.55 50.68 49.62 48.70 48.96 51.35 51.10 51.69 51.34 51.90 50.15 49.03 48.38 48.98 48.94 46.86 49.35 48.64 49.59 48.16 47.60
46.75 45.76 48.34 41.03 52.83 49.65 49.54 51.62 52.60 52.28 51.05 53.14 52.45 52.72 55.60 57.38 53.59 52.14 52.79 53.86 56.51 56.79 57.58 57.86 57.02 56.37 54.83 54.41 53.24 51.80 53.54 51.53 50.24 48.87 49.91 50.83 50.39 48.99 48.86 50.23 51.39 52.41 51.67 50.15 48.63 48.48 48.54 49.03 49.95 49.63 48.92 48.73 46.69 46.82
41.20 49.46 45.61 48.86 49.48 49.30 50.08 47.96 49.63 50.96 52.90 51.06 52.92 57.09 57.26 55.17 50.26 50.10 53.22 55.13 56.44 57.36 57.47 56.74 55.75 55.03 54.36 53.78 51.39 50.71 50.51 52.44 51.70 49.21 49.62 50.48 50.08 49.34 48.26 47.69 47.97 48.77 51.76 51.12 49.93 49.20 48.42 49.09 48.48 47.20 47.32 45.82 40.93 45.58
40.65 47.36 51.62 54.35 53.52 52.81 51.03 52.19 53.69 52.47 51.07 49.89 54.75 52.07 51.27 47.73 48.87 53.21 58.30 59.98 58.68 59.23 58.84 58.27 56.92 55.26 53.40 52.48 52.19 52.35 52.42 52.46 51.78 52.01 51.51 51.26 51.71 51.95 50.49 48.10 48.36 49.91 51.60 52.01 51.45 50.81 49.32 49.00 47.82 47.88 47.87 48.19 47.86 46.87
50.75 51.43 48.04 50.42 50.70 51.71 48.76 49.98 50.53 49.94 51.87 55.51 54.28 49.50 48.46 49.38 50.30 56.77 59.15 60.91 61.03 59.46 58.19 57.18 56.93 54.60 53.18 52.41 52.36 52.10 51.79 52.16 51.66 51.24 51.03 50.90 51.90 50.65 50.98 52.62 51.70 41.73 50.30 51.16 51.84 51.13 50.52 51.03 50.15 49.21 48.50 47.89 47.89 49.04
50.53 53.02 52.16 48.68 49.98 50.26 50.69 50.85 51.63 54.10 56.44 55.69 53.38 51.95 52.64 57.07 58.52 58.57 60.40 61.58 60.05 58.04 56.00 53.77 52.73 52.44 52.11 52.53 52.45 51.63 52.00 50.60 48.64 46.79 45.85 45.53 46.00 47.32 49.89 50.92 50.42 49.80 50.52 49.46 37.38 42.11 48.83 48.59 48.40 48.63 48.55 49.41 50.14 50.50
51.01 53.55 50.34 50.41 48.69 47.71 50.27 52.17 52.37 55.21 57.36 58.72 58.36 57.94 58.04 57.97 59.11 62.76 62.04 60.87 57.39 56.65 55.38 53.99 51.41 50.95 50.25 50.02 49.23 49.22 50.43 51.25 50.13 48.89 46.66 46.77 48.10 49.68 49.64 49.59 49.75 50.26 51.07 49.80 48.79 48.29 41.00 45.58 45.22 48.56 47.71 49.14 49.44 48.19
53.71 53.08 50.63 50.70 49.82 51.75 52.88 53.53 53.60 54.37 55.54 55.84 57.05 55.25 54.97 58.18 58.70 60.79 59.52 58.42 57.65 55.81 53.28 51.35 50.41 50.89 50.35 50.09 48.03 46.86 47.21 50.03 50.79 50.86 50.97 51.37 51.43 50.14 50.23 50.25 50.30 50.52 49.55 49.52 49.72 49.43 49.36 48.36 49.08 49.13 47.71 47.50 46.78 45.49
52.50 51.52 50.52 48.86 49.42 53.16 54.36 53.47 54.14 54.47 55.03 55.51 56.69 58.62 58.86 57.59 55.47 52.83 53.55 54.73 54.03 51.09 47.15 50.27 49.15 49.88 52.66 52.86 51.51 51.10 43.27 52.21 52.12 51.46 51.83 50.89 50.72 50.74 50.76 50.60 50.58 50.10 49.64 49.40 49.11 49.27 49.01 48.41 48.74 49.38 48.12 47.27 47.55 46.86
52.76 52.89 52.56 51.55 51.01 50.95 53.06 52.84 53.85 54.05 55.03 55.61 55.80 56.74 56.29 55.56 51.61 51.26 52.46 50.80 48.53 47.34 45.86 47.13 48.60 51.13 51.61 51.08 50.44 50.65 46.62 52.96 50.16 43.91 42.34 43.30 42.39 46.28 50.49 50.52 50.64 50.06 49.55 49.02 48.98 48.85 48.57 48.52 48.56 48.77 48.00 48.29 48.16 47.85

GFSWCAN_sfc_wetblb_084.txt.gz
Wetbulb
54.72 54.99 55.37 55.37 55.33 56.09 54.31 52.88 53.02 53.68 54.51 55.10 55.56 56.01 56.38 56.49 56.00 55.75 60.41 62.03 57.82 56.16 55.40 54.60 53.52 52.39 51.57 52.62 49.78 50.89 49.36 49.81 48.88 46.63 46.07 45.94 44.94 46.83 44.69 47.49 45.86 44.22 42.55 42.15 43.13 41.02 38.82 52.17 49.62 45.37 52.08 54.87 54.45 55.39
54.26 54.82 54.86 54.99 55.15 55.49 54.49 52.44 52.87 53.41 53.94 54.65 55.12 55.90 56.26 56.31 55.85 55.40 58.95 62.03 61.71 57.72 56.88 57.61 57.42 57.81 56.97 55.85 53.58 52.08 50.44 49.85 50.29 48.58 48.43 48.31 45.43 46.25 44.08 42.08 49.00 44.08 47.24 46.05 46.56 46.44 52.43 53.56 52.94 55.10 54.74 53.38 53.73 53.81
53.01 53.96 54.50 54.70 54.87 55.05 55.01 52.00 52.69 53.17 53.65 54.00 54.92 55.56 56.04 56.27 55.87 55.37 59.71 60.96 59.92 57.23 56.54 55.23 54.87 57.46 59.23 58.32 59.02 52.52 53.57 53.47 51.78 53.88 50.94 48.89 43.68 47.92 43.92 44.57 46.70 48.08 50.16 47.61 47.44 50.80 51.38 52.40 53.93 54.24 54.73 53.63 53.59 54.05
53.22 53.46 54.16 54.48 54.48 54.81 54.47 51.85 52.54 52.81 53.22 53.67 54.16 55.04 55.51 55.85 55.68 54.97 59.62 60.85 59.48 57.70 52.16 54.40 59.86 56.61 59.45 59.37 58.09 57.84 56.62 56.00 55.06 52.50 49.53 48.50 46.74 50.72 46.35 48.09 46.25 48.76 49.60 45.57 46.87 49.69 50.68 51.53 52.65 53.18 52.42 53.18 53.23 53.01
53.21 53.35 53.75 54.06 54.24 55.03 53.29 51.68 52.18 52.50 52.93 53.42 53.36 54.32 55.14 55.34 54.92 56.12 61.09 62.26 61.81 57.65 53.12 53.04 57.08 57.75 58.86 58.74 56.79 56.60 55.95 55.04 53.68 51.61 49.79 47.77 50.83 50.46 50.03 48.64 46.68 49.90 47.86 45.42 44.66 50.58 50.84 51.28 53.70 54.32 52.46 51.25 52.05 51.73
52.94 53.19 53.59 53.92 54.10 54.67 52.41 51.55 52.08 52.49 52.74 53.05 52.98 53.27 54.05 54.66 54.45 58.10 56.71 61.80 61.70 60.58 55.58 50.14 57.71 56.07 57.56 57.69 56.64 55.51 56.41 54.72 53.74 51.24 49.58 51.37 52.50 49.44 47.23 46.17 50.28 52.15 52.93 53.36 50.41 53.04 52.93 53.09 52.93 53.84 52.51 51.92 52.05 51.81
53.12 53.19 53.39 53.70 54.00 53.98 51.69 51.49 51.90 52.25 52.65 52.61 52.65 52.56 53.35 53.76 55.19 56.45 54.59 57.20 55.14 60.72 56.34 51.39 52.30 56.75 57.18 57.18 56.52 55.06 56.30 55.54 53.10 51.74 51.43 50.42 48.62 48.82 46.85 43.90 50.06 50.79 51.65 52.32 53.88 53.50 51.07 52.16 50.58 53.09 52.81 53.01 52.65 52.89
53.00 53.01 53.17 53.49 53.99 53.09 51.83 51.27 51.59 52.26 52.41 52.28 52.61 52.93 53.53 53.58 53.49 56.61 59.74 54.65 56.01 58.78 57.20 50.92 50.07 52.90 57.66 51.49 52.43 55.75 52.84 52.54 51.91 50.46 50.70 47.66 46.88 43.49 37.13 47.01 49.45 50.75 51.54 51.53 51.78 52.75 52.12 52.09 52.74 53.51 53.07 52.93 51.41 50.65
52.82 53.01 53.03 53.28 53.81 52.38 51.69 51.11 51.54 52.28 52.22 52.48 52.54 53.02 57.33 57.11 57.48 58.10 56.60 56.31 61.25 58.74 54.27 52.80 48.72 48.81 56.85 54.05 55.56 55.57 53.59 48.46 51.61 47.50 48.90 48.07 41.97 35.13 43.96 48.04 49.65 50.81 50.22 50.03 51.07 51.30 51.34 50.79 51.70 51.12 50.39 51.38 50.76 50.66
52.89 52.85 52.90 53.51 52.11 51.26 50.91 51.49 51.70 52.09 52.04 52.15 55.02 57.84 56.15 58.35 54.31 55.29 58.06 57.64 57.47 57.16 56.54 51.91 53.72 49.48 53.59 53.26 52.22 52.30 52.78 49.42 44.67 47.15 49.23 44.88 43.52 48.86 51.77 52.75 53.21 52.22 51.52 51.29 49.21 48.56 48.93 49.27 49.93 51.46 50.08 50.33 50.60 51.44
52.90 52.80 52.81 51.50 50.83 50.86 50.87 51.57 52.00 52.27 50.40 57.05 57.46 56.02 59.57 55.50 60.08 57.90 53.92 52.47 52.37 51.37 54.19 54.37 53.34 49.51 56.03 48.79 49.67 52.04 48.93 49.21 43.19 46.37 44.75 43.93 44.70 48.80 52.51 50.74 53.02 53.80 52.53 51.74 51.93 51.73 51.74 51.20 50.40 51.21 50.20 50.73 51.68 51.77
52.54 51.96 50.93 50.19 50.32 50.63 51.33 51.81 52.25 53.25 58.29 55.12 55.14 58.43 61.29 56.38 54.25 50.62 51.02 52.77 51.37 49.00 53.79 51.92 52.55 53.37 53.65 55.06 50.86 51.76 46.96 48.39 41.19 49.86 45.15 41.64 47.21 51.45 51.08 50.56 51.90 53.12 53.01 51.85 52.02 51.36 52.00 51.71 51.71 51.26 50.24 50.41 50.73 51.28
51.26 50.45 50.20 50.35 50.35 51.06 52.06 52.19 52.17 52.42 53.57 59.76 56.45 54.30 52.91 53.44 43.39 47.84 46.07 49.70 50.22 53.02 54.72 54.01 52.02 53.88 53.52 53.79 50.50 49.98 44.20 44.56 49.86 44.71 42.60 45.04 50.30 50.14 52.24 52.21 51.33 52.76 53.02 53.02 52.43 52.86 52.79 52.35 52.53 52.20 51.78 52.28 53.21 52.44
49.58 49.82 50.03 50.49 50.64 51.11 51.86 52.04 51.62 54.04 54.57 54.49 52.28 40.40 50.04 48.69 51.34 51.14 50.61 51.36 54.55 54.17 53.31 52.11 52.17 51.40 52.45 50.18 49.07 44.66 46.99 47.47 41.55 39.63 40.95 48.52 50.91 52.44 52.55 52.12 51.45 50.98 51.93 51.56 51.96 52.83 52.35 51.44 51.99 52.24 51.64 53.82 50.96 51.81
51.90 51.50 51.77 52.31 51.50 51.71 52.14 51.91 52.22 56.31 56.28 52.33 52.42 43.31 51.10 54.74 56.06 56.29 56.14 56.21 56.11 56.18 53.93 52.40 53.21 51.34 50.49 48.16 48.61 46.40 42.74 40.33 42.57 41.04 45.86 50.87 52.81 52.13 51.31 51.38 50.87 50.48 50.17 49.98 50.99 51.33 51.36 51.78 52.36 52.44 52.46 51.05 51.60 52.58
52.02 49.32 54.28 52.25 52.35 51.77 51.91 52.77 55.91 58.36 56.23 53.03 52.34 51.04 53.93 53.75 53.59 55.38 55.46 54.85 56.02 54.84 55.14 52.92 49.19 47.07 45.38 47.72 43.90 42.63 41.50 39.61 43.79 48.10 51.26 52.63 52.78 52.58 51.80 51.44 50.87 50.32 49.99 50.47 49.73 50.02 50.15 49.98 49.61 50.66 50.77 52.52 52.89 51.51
49.41 57.97 52.73 52.81 52.56 52.36 52.13 55.03 58.02 54.50 52.99 52.05 51.52 53.82 53.81 55.37 54.33 55.69 56.49 56.84 57.39 54.22 50.79 51.43 45.06 44.26 48.47 44.16 42.62 46.30 44.23 46.53 49.43 51.12 53.44 54.04 53.04 52.24 51.58 50.90 50.69 50.10 50.17 49.91 49.68 50.28 50.33 50.13 50.49 50.03 49.40 51.47 51.77 51.53
58.08 52.33 52.61 52.39 51.54 55.29 58.05 55.49 55.35 54.05 51.06 53.09 51.06 53.78 56.38 58.50 56.64 56.86 57.10 58.02 55.29 54.83 53.96 50.61 52.56 47.23 44.89 42.53 44.10 49.08 49.79 50.86 52.10 52.99 53.88 54.12 54.09 53.17 51.60 50.18 50.56 50.15 49.86 49.68 49.87 49.84 50.19 49.22 48.38 48.60 49.85 50.70 50.00 49.60
52.77 52.87 52.03 51.92 52.65 52.18 53.42 55.88 56.60 50.89 52.65 53.81 54.77 55.44 58.76 58.38 56.92 59.83 57.64 59.63 58.14 57.10 55.13 52.98 49.52 48.06 48.16 51.07 51.07 51.11 50.41 50.96 50.91 53.52 54.31 54.83 53.44 51.60 50.85 50.80 50.71 50.22 49.72 50.52 50.12 48.52 49.08 49.75 49.42 50.17 50.91 49.85 46.45 47.58
50.87 51.21 52.19 52.14 51.41 53.16 52.74 53.57 58.74 53.98 51.85 55.38 55.88 54.40 56.04 56.36 58.68 58.98 58.41 59.27 57.53 55.52 52.87 49.83 51.03 51.93 52.22 54.70 55.77 54.08 53.07 52.96 52.24 50.79 51.94 53.02 52.50 51.68 50.68 49.88 49.35 50.40 50.25 50.66 49.77 47.25 48.87 48.10 48.90 48.94 49.07 47.42 47.03 46.43
49.66 54.56 52.36 54.40 53.17 53.55 53.78 54.14 54.41 54.61 54.56 54.20 56.11 56.14 55.90 57.86 56.62 53.26 56.29 56.35 53.51 52.68 52.02 54.58 52.97 53.61 58.05 58.95 57.48 56.12 55.98 54.10 52.37 52.22 51.22 51.53 52.06 51.20 50.47 50.54 50.52 50.23 49.25 49.18 47.68 47.21 47.54 47.87 48.83 50.36 49.64 49.27 50.13 49.73
56.27 52.58 56.63 56.25 55.18 56.09 54.63 56.09 53.46 55.56 54.64 54.73 53.50 55.14 54.52 53.57 54.72 55.73 58.60 53.60 55.12 54.70 55.54 57.54 57.62 57.87 57.71 57.43 56.69 56.57 58.50 56.74 54.87 50.74 46.59 47.57 49.12 49.10 49.41 50.10 49.62 49.39 49.73 49.17 48.87 47.38 48.30 48.67 49.98 50.83 50.22 49.91 48.87 49.99
52.49 53.28 54.40 55.32 52.52 50.06 48.42 56.26 52.66 54.05 50.21 52.28 54.12 51.01 51.34 53.18 55.14 57.18 54.32 56.11 56.90 59.79 59.89 60.05 61.86 61.74 60.28 59.04 57.92 57.70 56.79 53.93 51.34 50.97 49.66 49.81 50.83 50.84 50.00 49.91 49.72 49.91 48.84 49.15 50.27 50.63 49.19 45.47 47.91 49.12 49.40 49.52 49.61 48.36
49.67 53.04 51.59 51.37 51.50 47.01 53.55 51.72 54.27 53.32 53.57 52.75 52.19 51.71 53.49 52.05 57.03 55.13 52.87 54.84 55.87 58.78 60.03 61.42 59.56 57.75 57.77 57.55 55.44 54.95 54.53 53.21 52.27 51.39 51.00 50.20 48.83 49.06 50.46 50.38 50.60 50.74 50.68 50.98 50.23 49.46 49.45 48.70 46.02 48.92 48.75 48.70 48.01 47.40
45.61 44.70 47.21 40.29 52.64 50.69 48.61 49.53 50.77 51.24 49.60 51.71 52.15 51.87 53.43 53.98 52.57 51.84 52.73 53.79 52.14 57.41 58.77 59.36 58.07 57.46 55.39 55.30 55.43 54.61 55.40 52.95 51.01 50.01 50.81 51.04 50.48 49.72 48.61 49.56 50.90 51.45 51.87 50.29 50.07 49.28 48.99 49.80 49.03 48.91 48.00 46.89 46.41 47.13
41.64 48.97 44.20 49.68 49.31 48.25 48.53 47.24 50.15 50.56 51.68 51.12 51.46 52.77 52.91 48.48 47.43 49.03 52.84 56.28 55.17 58.13 58.50 57.96 56.60 55.74 55.67 56.08 53.88 52.55 52.32 52.80 52.60 50.38 50.86 50.98 50.29 48.95 48.17 47.80 47.97 49.03 51.25 51.08 50.07 49.49 49.00 49.13 48.43 47.57 47.84 45.53 40.48 45.55
42.57 47.75 52.42 54.91 52.99 52.69 51.19 51.74 52.64 51.12 49.52 49.29 51.10 51.72 51.33 45.95 46.57 51.18 53.08 53.77 58.19 59.65 60.29 59.86 58.16 56.44 55.87 55.30 54.63 54.19 53.39 53.18 52.74 51.76 52.73 51.67 51.33 52.34 50.44 48.86 48.28 50.49 51.40 51.03 50.56 50.16 49.42 48.98 48.86 48.10 48.02 48.53 48.24 47.87
50.73 52.08 48.21 51.77 51.20 51.97 48.62 49.44 49.59 49.29 51.03 53.86 54.28 49.26 48.51 49.00 50.33 53.16 54.38 56.84 60.91 61.26 60.27 59.37 58.44 57.65 55.64 54.59 53.78 53.02 52.37 52.33 52.26 51.72 51.61 51.26 52.22 50.69 50.85 51.57 50.71 41.41 51.19 50.56 50.53 50.81 50.14 50.23 49.86 48.80 48.43 47.84 48.65 49.34
50.86 53.42 53.37 50.32 51.07 50.77 50.43 49.91 50.33 52.47 55.81 54.50 50.86 48.84 51.33 53.96 57.82 58.80 60.72 61.34 61.26 60.19 58.23 56.82 55.84 54.40 53.70 53.79 53.06 52.41 51.97 50.07 47.71 47.13 46.37 46.15 46.74 47.63 50.28 51.10 51.17 51.12 50.94 50.45 38.80 44.89 47.76 47.82 47.76 48.19 49.06 49.34 49.29 49.56
51.14 54.30 50.90 50.60 49.53 48.60 50.79 52.39 51.92 54.38 55.85 56.11 57.35 57.78 56.91 57.52 57.25 58.49 58.45 57.99 58.35 57.85 58.21 57.15 54.31 52.30 51.01 50.55 48.68 49.42 50.84 50.01 49.65 49.30 47.55 47.33 48.55 50.29 50.22 50.15 50.33 49.93 50.77 50.46 48.83 48.07 42.14 45.88 46.07 48.67 48.16 48.99 49.10 48.89
54.13 53.48 51.82 51.37 50.36 52.85 54.01 54.76 54.70 54.26 53.72 53.29 54.90 54.90 55.69 57.16 57.88 57.93 53.70 55.84 55.68 52.85 54.72 53.00 50.51 50.90 50.42 49.22 48.01 47.52 47.21 49.89 51.43 51.49 51.61 51.25 51.64 51.16 50.80 50.75 51.00 51.41 51.68 50.94 49.84 48.95 48.58 47.55 48.46 48.46 48.76 48.18 48.09 46.54
52.28 51.04 50.65 49.56 50.93 54.35 54.82 52.90 52.53 52.66 53.91 54.45 54.64 56.17 54.35 55.04 52.14 54.91 55.09 53.96 52.58 49.49 46.60 48.44 48.14 49.05 50.85 52.21 51.90 51.36 43.82 50.55 52.01 52.32 52.07 51.06 50.95 51.62 51.39 51.14 51.12 50.96 50.69 49.76 49.81 49.56 49.75 48.99 48.39 48.57 48.48 47.90 48.06 48.36
53.68 53.43 53.14 52.16 51.39 51.56 53.22 52.98 51.91 51.83 53.75 52.04 51.91 53.89 54.23 53.96 51.51 55.21 56.87 54.08 53.02 53.10 53.02 52.13 51.39 50.91 50.53 51.23 52.04 52.34 47.45 52.49 50.64 42.03 42.48 41.81 42.06 46.59 50.93 51.05 50.85 50.60 50.01 49.58 49.57 49.26 48.96 48.98 48.22 48.69 48.75 48.62 48.38 48.32

GFSWCAN_sfc_wetblb_087.txt.gz
Wetbulb
52.85 53.89 54.92 55.29 55.39 55.51 56.54 54.65 53.77 54.21 54.47 54.72 55.47 55.92 56.80 56.80 56.13 54.59 57.09 61.53 56.84 53.19 53.61 54.69 54.21 52.12 51.63 50.36 45.92 48.38 46.72 47.11 45.38 42.86 42.78 41.86 40.71 43.51 41.19 43.34 41.72 39.81 36.94 37.30 38.46 36.69 34.83 51.18 50.25 44.85 47.37 49.21 51.78 52.84
53.89 53.12 53.77 54.68 55.05 55.27 55.83 55.42 53.41 54.02 54.45 54.31 55.17 55.89 56.46 56.35 56.22 55.58 57.84 61.07 60.93 55.79 55.40 57.48 56.96 57.11 56.20 54.36 50.38 49.18 46.83 47.96 46.07 45.85 45.20 44.82 41.57 41.90 39.97 36.70 45.00 38.98 42.37 41.22 43.12 41.74 47.98 50.44 49.59 51.02 51.13 49.82 49.86 49.08
53.72 53.59 53.59 54.44 54.73 54.99 55.29 55.50 53.37 53.97 54.15 54.14 54.46 55.33 55.93 56.18 56.02 55.19 56.89 59.86 58.04 55.64 55.61 53.35 52.80 57.03 57.21 56.53 56.41 49.34 50.54 51.88 49.80 50.56 46.87 45.83 41.25 44.20 39.25 40.15 41.32 44.87 46.31 42.74 44.45 47.66 48.77 50.62 51.53 52.05 52.27 50.32 51.46 50.26
53.54 53.55 53.71 54.02 54.46 54.59 55.13 55.13 53.12 53.79 53.77 54.14 54.21 54.27 55.20 55.74 55.55 55.11 56.93 60.28 58.61 56.80 50.91 52.16 58.38 56.03 58.28 57.13 56.92 55.49 53.72 52.91 51.28 49.30 45.25 44.34 44.44 47.70 42.76 44.08 41.29 44.89 44.60 41.86 42.50 46.43 47.95 50.04 50.91 50.58 50.56 52.25 51.27 51.38
53.36 53.41 53.43 53.61 54.00 54.58 55.33 54.44 52.99 53.39 53.57 53.80 53.98 53.96 54.26 55.15 54.68 54.40 56.84 59.67 60.63 55.39 51.34 52.03 55.72 56.72 57.09 56.84 56.29 55.26 54.04 53.15 51.06 48.78 46.75 45.11 47.88 46.37 47.28 46.03 43.85 47.17 44.51 41.19 40.19 46.83 45.97 47.41 50.24 51.48 49.65 49.16 50.12 49.30
53.15 53.44 53.46 53.35 53.76 54.10 55.15 53.33 52.69 53.25 53.57 53.70 53.91 54.01 53.84 54.41 53.88 56.52 56.23 59.36 58.10 58.50 53.86 49.83 56.03 55.92 56.73 56.98 55.57 54.31 54.29 52.33 51.42 48.55 47.85 48.94 49.24 45.73 42.64 39.92 47.25 48.50 49.42 49.21 46.54 49.85 49.58 50.31 51.38 52.86 50.96 49.65 50.34 49.56
53.23 53.34 53.34 53.41 53.68 54.14 54.78 52.44 52.14 53.04 53.31 53.66 53.80 53.89 53.72 53.54 53.30 55.68 53.94 55.87 52.75 58.78 55.08 50.97 48.99 55.86 56.96 55.96 54.46 53.02 53.97 52.05 51.57 49.46 48.19 47.53 45.37 46.71 43.95 39.73 46.97 49.11 49.59 50.10 50.23 50.14 48.11 49.99 47.60 50.28 51.15 51.51 51.58 50.39
53.13 53.26 53.28 53.37 53.58 54.47 53.74 51.94 52.40 52.86 53.42 53.56 53.66 53.60 53.43 53.27 53.01 55.46 58.39 55.12 53.45 56.62 57.23 49.96 49.72 51.94 56.21 50.41 49.45 53.77 50.75 51.57 50.24 48.47 47.99 45.40 44.83 43.41 35.48 43.81 47.18 48.86 49.58 50.19 49.93 49.88 49.50 48.97 48.82 49.47 51.51 50.72 48.78 48.24
52.86 52.98 52.99 53.11 53.46 54.05 52.67 51.42 52.40 52.55 53.06 53.02 53.10 53.17 55.05 54.58 57.58 57.85 58.00 57.28 58.64 57.91 52.97 50.83 48.22 46.25 55.84 52.74 53.15 52.82 52.78 47.09 50.56 46.43 46.68 46.10 40.01 34.02 39.73 44.95 47.01 49.10 47.94 48.45 49.47 49.59 49.12 49.71 48.80 50.17 49.35 49.57 48.79 47.63
52.93 52.91 52.98 53.20 53.55 52.21 50.78 50.68 52.09 52.52 52.61 52.73 51.92 55.83 55.01 58.96 56.41 56.35 57.86 56.33 55.81 57.04 56.20 51.63 53.76 49.27 52.73 51.41 50.24 49.59 50.48 47.02 43.12 45.61 47.45 43.27 40.43 44.47 48.11 48.95 50.62 50.81 49.91 48.76 45.26 47.02 47.05 47.40 48.10 48.44 49.45 49.23 49.44 49.81
52.95 52.90 52.99 52.24 50.77 50.82 50.72 51.27 52.00 52.26 52.05 54.21 55.35 55.30 59.02 57.08 58.96 57.55 53.12 52.83 53.28 51.01 53.27 53.24 52.79 49.30 54.82 47.98 48.01 51.01 47.12 47.26 41.43 44.31 43.55 42.38 41.92 47.33 50.90 50.79 50.73 51.36 51.06 50.62 49.64 48.97 48.84 48.18 48.33 48.83 49.20 49.69 49.57 50.36
52.41 51.86 50.84 50.48 50.62 50.68 51.04 51.96 52.07 51.65 56.26 52.26 52.23 55.58 60.00 57.14 53.59 50.53 50.80 52.37 51.25 48.75 53.22 51.68 52.16 52.39 52.75 53.70 49.18 49.82 46.20 46.86 40.80 47.95 43.53 38.80 44.89 49.36 50.67 49.87 50.54 50.82 51.50 51.53 51.55 50.32 50.56 51.17 49.97 49.04 48.80 49.50 49.84 49.88
50.65 50.36 50.45 50.06 50.02 50.89 52.52 52.06 52.12 52.10 52.65 58.18 54.96 54.83 53.60 52.50 42.52 46.19 45.86 49.23 49.60 53.66 54.00 52.41 51.35 53.44 52.73 52.91 49.27 48.16 44.04 42.92 48.78 43.01 41.27 42.92 47.82 48.36 48.31 50.90 50.66 51.05 52.91 52.50 52.74 52.08 51.51 51.39 51.40 50.34 49.49 49.98 51.04 49.81
50.97 49.93 49.99 50.36 50.66 51.27 52.25 52.22 52.42 53.19 52.64 53.18 51.86 39.05 48.16 47.77 49.95 51.71 51.02 51.93 54.80 53.87 52.88 53.14 51.13 50.00 51.09 48.91 48.56 45.04 46.69 46.90 41.02 38.64 40.68 46.85 48.55 49.92 50.96 50.50 49.69 49.43 49.99 49.03 50.31 51.02 51.00 51.65 50.30 50.92 51.21 50.70 50.38 50.28
52.32 52.33 52.06 52.34 52.42 51.63 52.15 52.34 52.41 54.30 54.85 52.10 52.27 40.12 49.03 53.68 53.92 55.80 55.80 55.95 55.83 55.71 53.37 51.67 52.33 50.51 49.17 48.12 48.21 45.81 43.43 40.88 41.82 41.12 44.33 50.11 51.43 49.93 49.49 49.80 48.98 48.72 48.35 48.19 48.32 47.58 48.37 49.59 49.16 50.04 50.91 51.02 50.86 50.90
52.14 50.98 53.11 52.20 52.50 51.98 51.52 51.94 53.92 56.50 56.01 52.80 52.16 49.56 52.63 53.07 53.38 52.55 55.63 55.30 56.53 54.54 55.08 53.34 50.43 47.59 46.41 46.86 45.07 43.03 41.50 39.30 43.01 47.37 49.17 52.19 51.46 51.04 49.76 49.64 49.69 48.81 48.30 47.98 47.39 48.69 47.78 47.03 47.18 47.12 48.27 48.79 49.37 49.69
48.33 55.26 52.56 52.96 52.59 52.15 52.02 52.54 57.13 54.03 51.74 51.17 50.29 53.10 52.54 53.69 51.04 52.45 53.00 53.92 58.26 54.21 50.51 51.45 46.08 45.53 47.93 43.15 43.74 45.57 42.95 46.13 49.23 50.52 51.71 52.59 51.78 50.85 49.80 49.52 48.60 48.75 48.17 47.31 47.32 47.76 49.14 48.45 47.79 46.72 46.66 47.94 48.77 48.74
55.04 53.30 53.04 52.30 51.85 54.28 56.13 53.15 53.49 52.86 49.85 51.78 49.70 51.86 53.96 56.13 55.26 53.75 54.37 56.45 56.36 54.70 54.44 51.36 53.90 47.49 45.03 43.42 44.05 48.88 48.62 50.83 52.32 51.99 51.92 52.75 52.61 52.07 50.77 48.78 48.99 48.42 47.91 48.02 48.05 48.18 47.94 46.95 46.26 46.06 47.23 47.88 46.80 46.28
51.77 51.76 52.34 52.36 52.02 50.58 51.67 54.46 55.68 49.45 51.41 52.73 53.93 54.97 54.35 55.23 60.69 60.68 59.67 58.70 57.36 59.01 55.91 53.67 49.66 47.68 48.18 48.98 50.81 51.36 50.11 50.81 51.05 51.80 52.77 53.31 52.44 50.55 49.72 49.88 49.58 49.12 48.95 48.59 47.26 46.80 46.78 47.74 46.45 47.06 47.58 45.96 44.13 44.70
50.97 51.47 51.97 52.19 50.62 51.05 51.07 53.02 59.19 53.56 50.04 54.36 55.20 54.50 55.86 58.04 59.17 59.24 58.54 59.06 55.03 54.06 52.26 50.70 50.32 52.76 51.35 51.35 53.68 53.19 53.16 52.05 51.68 51.29 50.49 50.19 50.58 50.26 49.41 48.96 48.73 49.26 48.48 47.92 46.19 46.55 46.51 47.00 47.15 46.46 45.87 45.24 44.68 43.78
53.62 53.86 52.67 53.34 51.42 51.15 50.92 52.49 53.52 54.08 54.14 52.76 54.76 54.92 55.09 57.95 55.99 57.58 56.50 59.74 56.00 53.48 51.73 53.90 54.76 56.23 55.22 54.51 55.56 57.58 54.34 53.24 52.16 51.85 50.96 49.09 50.20 49.56 48.69 48.50 49.03 48.72 47.68 46.79 45.87 45.22 45.37 46.20 47.48 47.68 47.13 46.34 46.78 45.81
55.10 53.08 55.07 54.79 53.66 54.67 53.44 55.56 52.55 54.68 53.21 53.73 53.82 54.81 52.55 51.74 53.14 54.77 57.57 54.79 53.59 55.10 56.29 55.82 56.66 56.12 55.34 55.93 56.73 57.32 56.19 54.22 51.99 47.94 47.40 47.56 48.01 48.33 48.21 48.58 48.15 47.36 47.19 46.94 46.53 46.02 46.23 46.56 46.56 48.03 48.54 48.13 46.49 47.68
53.46 52.95 52.92 53.89 51.86 48.44 46.88 56.95 51.90 53.37 49.59 51.53 53.75 51.15 51.32 51.44 53.60 57.47 52.78 56.15 56.81 58.41 57.53 57.89 59.77 58.45 57.15 58.53 57.68 57.36 56.24 52.83 50.81 50.61 48.24 48.27 49.94 50.27 49.00 48.11 47.68 47.65 46.83 47.27 48.17 47.93 47.15 44.34 45.79 45.77 46.73 46.97 47.02 46.33
50.97 51.75 50.79 49.80 50.05 44.90 52.25 51.29 53.51 52.66 52.66 50.87 50.07 49.47 50.78 52.92 54.34 51.54 50.99 53.90 55.07 55.57 54.43 57.34 57.61 56.01 56.78 56.67 54.74 54.21 53.63 53.29 52.50 50.32 49.87 49.65 47.21 47.77 49.64 48.46 48.41 49.45 48.92 49.13 47.98 47.15 48.19 47.81 46.31 46.41 47.55 47.53 46.60 45.66
44.24 42.74 45.16 37.60 51.38 49.98 48.77 48.22 49.38 49.52 47.97 49.74 49.67 49.42 52.71 52.91 49.46 48.70 49.53 52.49 54.41 54.85 55.87 57.29 57.36 56.63 54.87 54.96 55.21 54.22 54.91 52.33 51.00 48.73 50.36 50.63 49.08 48.47 47.24 47.82 49.39 48.86 49.99 48.41 47.83 47.47 47.11 47.82 47.57 47.41 46.59 44.99 44.36 45.92
39.99 47.53 41.80 47.73 48.03 47.00 48.00 46.79 49.49 49.73 50.00 49.84 50.42 50.89 51.29 49.50 47.44 46.24 50.62 52.93 53.14 53.95 54.28 56.13 57.35 56.56 56.16 56.37 54.49 52.27 52.24 53.31 53.39 49.75 49.14 50.33 49.61 47.67 46.44 46.24 46.66 47.13 49.78 49.61 48.71 48.11 47.91 47.19 46.84 47.88 44.61 43.46 40.19 44.87
40.56 46.46 51.32 54.58 51.60 51.20 50.23 51.90 52.54 49.50 48.82 49.31 51.83 50.52 49.06 45.84 46.56 50.99 55.31 55.27 53.81 55.63 56.41 56.61 58.62 57.24 56.28 55.35 54.46 54.20 53.44 53.59 52.62 50.12 51.17 51.39 50.70 51.22 49.58 48.03 47.62 49.09 50.21 50.20 49.37 49.08 48.37 48.07 47.57 47.25 46.77 47.05 46.93 46.50
49.00 50.80 47.27 50.65 50.95 52.58 48.92 49.23 47.79 47.66 49.62 52.76 53.16 48.41 47.52 48.48 50.25 54.44 54.66 56.95 57.32 57.84 57.94 59.52 60.33 58.93 55.02 52.61 52.51 51.96 51.16 50.82 50.34 50.34 49.56 50.40 50.86 49.96 50.22 49.13 47.34 44.07 48.96 49.70 49.96 49.11 48.25 48.51 48.63 48.18 47.94 47.05 47.03 47.79
48.85 51.75 51.80 49.03 50.47 51.21 51.17 49.51 49.46 50.97 53.08 52.34 49.92 48.87 49.81 54.76 53.75 54.44 57.08 58.50 59.62 57.80 54.89 54.02 54.56 54.22 52.57 52.44 51.99 50.61 49.14 48.51 47.28 45.52 45.60 44.11 45.55 46.59 49.54 49.28 49.19 49.66 49.35 46.33 42.11 45.88 47.94 46.49 46.11 45.86 47.91 48.02 47.46 47.54
48.99 52.71 50.30 50.18 48.73 48.41 51.63 53.32 51.71 53.30 53.64 53.80 56.05 56.25 55.20 54.78 55.29 56.60 56.60 56.90 56.46 56.29 57.06 56.06 54.74 50.35 49.19 48.50 47.71 48.21 49.44 49.54 48.30 46.69 46.37 46.19 47.34 48.62 48.67 49.42 49.09 48.78 49.63 48.30 46.57 45.69 42.07 45.38 44.39 47.03 46.75 47.66 47.60 47.12
52.83 52.38 50.81 51.00 50.02 52.21 53.69 55.13 55.67 55.32 54.39 54.95 57.06 55.16 53.91 55.16 55.93 57.53 55.55 53.50 53.20 51.41 50.52 48.11 47.74 49.11 48.22 47.59 46.86 45.75 45.97 49.80 49.63 50.10 50.59 50.84 50.69 49.77 49.38 50.04 50.29 50.05 49.97 49.90 47.76 46.90 45.78 45.23 45.66 46.11 47.16 47.35 47.87 45.79
52.42 51.20 49.97 48.82 50.52 54.45 55.78 53.62 52.83 52.65 54.01 53.77 52.44 53.83 54.00 55.07 51.99 53.96 54.18 53.27 52.59 50.83 47.95 49.32 48.06 47.59 49.57 49.32 49.65 49.33 47.62 51.08 50.87 50.62 52.28 51.47 51.81 51.64 51.30 50.69 50.66 50.41 50.44 50.06 49.50 48.43 48.15 47.18 47.04 47.81 47.51 48.32 48.68 48.21
52.71 52.04 51.47 51.02 51.16 51.61 53.09 53.06 52.08 51.07 52.30 51.19 51.52 53.49 53.66 53.68 49.84 53.83 55.76 54.76 53.94 53.57 53.01 52.07 51.46 51.20 52.19 51.43 51.08 50.72 47.27 52.12 51.19 44.66 42.41 40.67 42.56 46.19 50.28 50.71 50.52 50.75 50.18 49.19 48.90 48.74 48.72 49.15 48.14 48.40 49.21 48.70 48.40 48.53

GFSWCAN_sfc_wetblb_090.txt.gz
Wetbulb
54.36 54.31 53.55 53.30 54.92 55.36 55.70 56.38 54.81 53.70 54.53 55.06 55.36 55.78 56.43 56.36 56.11 52.12 51.17 53.99 50.39 46.50 48.58 49.60 51.27 47.02 46.19 43.47 39.97 42.78 43.33 42.90 39.79 38.08 38.00 36.45 34.91 37.00 36.05 41.20 38.06 36.55 33.49 33.83 35.77 33.80 31.33 49.32 49.23 44.29 45.59 47.80 50.67 49.59
53.99 54.17 54.09 53.72 54.43 55.02 55.40 55.80 55.20 53.32 54.06 54.57 55.13 55.67 56.07 56.03 55.86 54.63 51.36 55.79 55.85 49.87 50.26 51.47 51.03 51.94 50.89 48.80 45.40 43.81 41.13 40.61 40.42 38.20 39.22 38.99 35.45 37.33 35.37 31.79 42.19 36.68 39.08 38.37 40.05 39.34 45.20 46.71 46.70 49.14 48.94 48.65 48.09 49.25
53.92 53.94 54.03 53.91 54.15 54.62 55.08 55.56 55.30 53.24 54.04 54.27 54.80 55.09 55.45 55.56 55.62 53.72 50.09 52.85 52.37 49.50 48.99 46.70 47.18 50.25 53.26 51.72 50.72 44.88 44.95 45.90 44.17 44.29 40.88 41.05 36.81 38.54 31.51 33.37 38.14 41.44 42.83 42.19 41.99 44.30 45.70 47.62 48.27 49.52 50.20 47.87 49.05 50.48
53.68 53.96 53.99 53.99 53.90 54.23 54.61 55.52 54.61 53.01 53.47 54.06 54.65 54.84 54.98 55.02 54.77 54.04 48.99 53.09 52.78 50.34 45.05 46.51 53.47 49.90 50.97 52.87 52.28 50.27 48.26 48.18 45.50 42.40 38.76 39.23 37.84 42.01 37.86 38.77 37.13 40.55 41.36 37.61 40.07 43.89 46.32 47.82 48.09 47.76 49.83 50.11 49.03 48.61
53.38 53.64 53.71 53.81 53.76 54.05 54.53 55.38 53.77 52.68 53.47 53.90 54.28 54.71 54.47 54.51 53.77 51.44 50.13 52.77 52.91 50.43 45.66 47.93 49.51 50.66 51.39 51.63 51.96 51.20 49.14 47.17 45.06 43.02 41.71 40.99 41.98 41.75 41.96 40.54 39.91 43.20 40.55 37.50 37.04 43.45 42.49 44.49 48.43 49.69 48.47 48.48 48.40 47.69
53.16 53.46 53.56 53.59 53.34 53.68 54.29 55.12 52.58 52.39 53.01 53.61 53.96 54.30 54.00 53.75 53.13 52.41 50.73 53.72 52.31 52.22 48.31 44.47 48.78 48.52 50.88 51.83 51.66 50.61 48.94 47.08 45.66 43.67 42.73 43.90 43.82 41.90 34.81 35.73 43.34 44.66 45.54 44.93 43.35 46.18 46.28 47.02 49.68 50.53 48.23 48.35 48.34 46.64
53.37 53.52 53.56 53.59 53.50 53.78 54.27 54.02 51.74 52.22 52.86 53.19 53.40 53.67 53.42 52.90 49.07 50.62 50.37 52.97 50.72 52.63 49.91 45.12 44.52 52.64 52.37 50.09 49.48 48.28 48.39 46.55 45.69 43.78 42.13 41.55 41.01 41.94 36.06 31.32 43.43 44.39 45.99 46.55 46.44 46.19 45.20 46.83 44.70 47.95 49.02 49.55 50.55 48.35
53.12 53.32 53.42 53.35 53.34 53.73 54.26 52.64 51.45 52.45 52.64 53.13 53.11 52.99 53.06 52.64 51.66 51.69 53.36 52.31 51.45 51.20 51.50 44.67 47.08 47.15 49.65 46.27 45.69 47.25 45.33 45.48 44.82 42.85 42.10 39.41 39.02 39.28 33.61 38.93 42.40 45.13 45.83 45.48 45.56 45.65 45.38 46.87 47.00 46.84 47.85 47.97 46.49 46.37
52.91 53.05 53.05 52.90 53.18 54.06 53.27 51.30 51.22 52.09 52.22 52.41 52.74 52.75 51.21 51.08 51.36 52.68 57.16 55.36 52.28 52.61 47.30 46.06 43.52 41.28 49.86 47.40 48.54 47.10 45.53 41.23 44.99 40.50 40.61 40.06 35.59 31.33 35.85 38.63 42.31 44.83 43.04 44.11 44.60 45.59 46.14 45.75 46.26 47.82 48.82 47.60 45.04 44.97
52.89 53.07 52.99 53.03 53.66 52.35 50.79 50.77 51.40 51.64 51.72 52.06 50.20 51.77 50.18 53.81 57.39 56.53 53.46 49.94 50.42 50.83 50.01 47.75 47.37 44.77 47.58 45.53 43.57 43.48 43.62 40.70 37.05 40.22 42.28 36.63 34.13 38.92 41.05 42.22 45.07 46.58 46.56 45.32 41.32 41.24 42.15 42.91 45.40 45.03 46.10 47.46 48.43 47.98
52.99 52.95 53.14 51.75 50.71 50.45 50.83 51.02 51.28 51.38 51.59 49.24 50.30 50.35 53.68 56.54 53.80 51.22 47.52 47.44 47.19 44.87 46.41 46.64 45.32 46.41 47.53 43.45 43.01 44.32 41.09 41.25 34.15 38.91 38.10 35.63 35.15 42.64 45.22 45.83 47.08 47.77 47.56 46.39 45.96 45.77 46.02 45.56 45.42 45.39 45.84 47.94 47.73 48.18
52.03 51.27 50.40 50.40 50.46 50.33 51.34 52.17 51.76 48.92 50.01 48.74 47.66 50.62 52.26 51.70 47.21 45.34 45.30 47.82 45.34 43.40 46.63 45.67 45.41 45.44 45.97 45.80 42.69 45.27 42.20 41.01 35.64 42.97 37.51 31.25 39.51 43.87 46.56 47.65 47.92 46.52 47.46 48.00 49.03 47.97 47.47 48.09 47.27 46.31 45.53 46.28 47.28 48.79
50.40 50.28 50.20 49.95 50.03 50.54 52.31 51.85 51.56 51.41 50.30 51.10 50.08 49.18 48.65 48.23 39.17 43.08 41.28 43.20 42.65 46.77 47.92 47.32 46.74 45.18 45.50 45.65 42.33 41.04 38.95 37.82 43.94 38.15 34.01 37.09 42.10 45.23 44.65 45.66 45.98 46.89 48.23 48.61 48.91 49.60 49.05 48.57 49.12 47.38 46.72 47.34 47.19 46.92
51.42 50.84 50.33 50.52 50.67 50.52 51.64 51.96 52.07 50.66 49.31 48.10 47.77 37.88 44.55 42.85 45.51 45.64 45.81 45.63 48.15 47.93 47.87 47.36 44.83 43.00 43.37 41.46 41.52 38.78 40.81 41.67 36.90 32.74 35.53 40.43 43.52 45.05 44.88 46.95 45.47 45.42 45.78 46.50 47.27 48.03 48.45 47.91 47.66 47.95 48.12 48.16 47.96 47.38
51.34 51.80 51.82 51.89 52.35 51.78 51.00 51.47 51.70 49.60 49.80 48.50 47.94 38.44 44.46 47.79 50.23 50.61 49.66 49.67 49.07 47.16 45.20 43.81 43.94 42.86 41.28 41.52 41.73 40.27 39.14 36.96 37.03 35.57 38.71 43.06 44.30 44.81 44.91 44.63 44.03 44.41 44.32 44.30 43.72 44.09 44.97 45.60 45.65 44.77 46.29 46.52 46.96 48.35
51.16 50.76 50.32 51.87 51.83 51.71 50.78 49.93 49.73 50.53 51.37 49.03 47.02 44.14 46.04 46.51 49.79 48.88 48.84 48.52 50.01 46.30 45.96 45.36 43.31 40.58 41.20 41.11 40.06 38.93 37.51 34.87 36.67 39.50 42.69 45.38 44.70 44.14 44.08 44.52 44.31 43.54 42.67 42.42 42.72 43.45 43.40 43.27 42.64 42.08 44.45 45.08 45.24 45.74
49.98 50.72 51.79 52.18 52.10 51.48 51.02 48.49 51.59 51.30 49.51 47.95 45.29 46.33 45.87 45.31 48.22 48.87 49.77 50.22 52.27 47.85 43.80 45.09 41.15 39.88 39.72 36.86 36.94 39.60 36.78 38.36 43.49 44.13 45.92 45.84 45.25 44.93 43.85 43.85 43.15 43.30 41.80 41.54 41.85 43.27 43.01 43.41 43.93 43.54 42.41 43.31 43.93 44.03
51.05 50.33 52.04 51.42 50.45 50.88 51.35 48.41 48.98 49.98 47.06 46.92 43.68 44.97 46.47 47.81 48.39 48.70 50.04 51.26 50.65 47.68 48.78 46.99 45.14 39.27 38.36 38.41 39.12 41.20 41.30 45.21 46.22 46.61 47.68 47.23 46.08 44.72 44.94 42.27 43.26 43.39 42.27 42.81 43.60 43.12 42.71 42.43 41.55 41.46 41.47 42.14 41.34 41.41
50.31 49.83 51.12 51.35 50.35 46.60 46.89 50.53 50.93 46.37 47.43 47.36 47.76 47.83 47.92 49.52 54.13 54.12 53.11 52.83 53.68 53.89 48.97 46.72 45.60 41.17 41.07 43.06 44.36 45.54 45.54 46.68 47.21 46.35 46.66 46.71 46.36 45.07 44.19 44.09 43.61 42.05 42.92 42.00 42.00 42.11 42.43 42.11 42.22 42.54 41.62 40.71 39.59 40.77
51.01 51.34 51.56 51.64 50.24 46.47 47.04 47.98 52.94 49.13 47.40 47.08 47.45 46.29 47.49 49.11 51.84 52.25 52.30 51.77 51.07 50.04 49.78 45.70 43.90 44.44 46.60 47.06 48.80 48.64 47.06 48.67 49.19 46.75 45.67 46.07 45.69 44.09 43.47 43.15 42.43 43.92 43.18 42.37 42.02 42.37 41.50 41.06 41.48 41.98 41.98 41.12 40.17 40.35
51.81 51.51 51.73 50.43 48.04 47.15 45.64 46.40 48.32 49.43 48.69 46.54 47.64 47.75 47.51 50.52 50.13 48.89 51.21 52.62 50.06 48.34 47.64 49.44 49.09 49.23 52.25 51.15 50.98 49.90 49.71 50.69 49.78 48.73 47.75 44.68 45.27 44.11 43.92 43.27 43.48 44.26 41.43 40.83 41.34 40.91 41.74 41.58 42.41 42.35 41.88 41.91 41.51 42.25
50.21 52.47 51.14 50.61 50.23 51.12 46.91 49.16 47.23 48.93 46.44 46.79 46.65 47.58 46.25 44.96 45.42 47.12 53.36 50.32 48.71 49.96 50.56 50.83 51.72 52.30 52.08 51.44 51.51 52.60 51.37 46.75 46.44 47.47 47.69 46.10 44.04 42.80 42.66 42.80 42.01 42.00 42.60 41.62 41.03 40.78 41.13 41.81 42.38 43.71 44.78 43.61 43.54 44.15
50.59 51.03 49.32 51.02 49.97 45.52 43.91 51.11 47.80 48.55 44.73 45.16 46.66 45.46 45.42 44.65 47.56 51.56 48.46 49.59 50.49 52.30 53.60 54.83 55.38 55.11 53.64 53.54 53.28 51.20 48.88 46.07 43.91 42.90 45.63 46.25 47.00 46.56 44.33 43.23 42.88 43.44 41.28 41.28 42.54 42.10 41.59 41.71 41.33 43.18 42.51 42.27 43.20 42.47
51.52 49.44 47.27 46.37 45.77 41.38 49.18 47.05 48.57 47.09 47.20 45.19 45.19 44.27 45.73 47.66 50.24 48.64 47.68 49.18 51.00 53.01 52.40 53.01 54.32 53.16 52.69 51.85 50.68 49.60 48.30 45.99 44.56 41.52 41.49 42.80 44.17 42.55 43.57 42.59 43.58 45.81 44.91 43.74 43.17 42.67 42.55 41.34 42.35 41.31 42.49 42.23 42.66 41.39
43.94 42.07 41.81 35.64 46.46 47.74 47.01 46.16 45.54 45.94 43.79 44.82 47.08 47.59 48.91 49.72 47.65 46.82 46.57 50.19 51.19 51.68 53.31 54.35 52.63 52.99 50.43 50.03 50.06 49.76 48.72 46.10 45.21 43.89 43.09 45.56 44.12 43.59 42.29 42.87 45.05 46.34 45.98 43.77 41.96 42.19 43.15 43.01 42.96 42.47 41.34 39.92 40.19 40.90
38.49 45.74 39.90 44.10 44.43 44.42 45.06 43.61 47.09 46.67 47.39 45.81 46.77 47.81 47.45 46.84 46.87 46.22 47.78 50.78 52.72 53.25 53.46 52.62 54.00 54.31 53.73 52.46 51.48 51.01 51.74 48.04 46.27 44.07 44.81 46.40 46.60 44.94 42.54 41.59 42.94 41.98 45.13 46.35 44.22 43.59 43.61 43.18 42.22 42.30 40.79 40.18 39.75 42.10
39.64 43.25 46.61 48.72 48.48 47.36 45.66 46.87 48.74 46.79 45.73 45.33 46.74 47.92 46.98 44.15 45.54 49.10 53.21 53.26 52.54 54.98 55.96 55.98 55.41 54.55 54.08 54.77 54.78 52.73 52.01 50.25 48.47 47.35 47.04 46.96 46.62 46.72 45.86 44.17 43.01 43.89 44.68 45.60 44.75 45.17 43.99 43.35 42.89 42.51 40.89 40.02 41.01 41.97
45.17 46.68 43.53 46.69 48.15 49.77 45.59 47.30 45.86 43.20 46.38 50.77 50.24 47.08 46.46 47.49 47.36 50.74 52.29 54.97 56.35 56.42 56.76 55.75 54.14 51.75 52.29 52.60 53.07 49.72 48.92 49.44 49.41 48.85 47.72 46.29 44.71 45.26 44.70 44.56 44.03 42.45 44.86 45.33 44.81 44.23 44.24 44.27 43.83 43.78 43.46 42.17 42.00 43.00
44.43 47.20 47.22 45.23 46.78 48.55 47.95 46.71 45.81 45.71 48.43 50.06 46.89 45.99 47.28 51.53 53.29 52.72 54.01 54.87 54.85 55.45 54.65 53.01 49.80 48.23 47.78 46.68 47.70 49.17 49.20 48.71 45.52 43.54 43.21 41.51 39.52 42.71 43.11 43.74 43.41 42.89 42.98 43.06 41.98 42.77 43.63 42.85 42.96 43.17 44.13 43.20 42.45 42.57
44.62 47.90 45.81 46.89 46.18 46.50 47.57 48.50 46.62 48.35 48.13 48.30 52.60 51.83 51.36 51.02 52.24 53.55 53.03 51.61 51.03 51.70 50.69 52.85 51.01 45.27 45.90 45.89 45.34 45.67 46.62 47.32 47.09 45.64 41.20 41.13 42.01 42.41 42.97 43.56 43.35 42.88 41.35 41.21 41.00 40.43 40.95 41.24 41.04 42.07 42.36 42.85 42.35 41.79
48.01 47.36 45.98 46.29 46.70 48.72 50.93 49.87 50.16 49.93 50.25 52.11 52.68 50.29 49.48 50.17 51.66 53.50 51.48 50.22 47.30 45.67 45.57 44.77 47.03 47.37 46.26 45.44 45.45 44.83 43.92 45.47 45.18 45.22 44.98 45.50 45.20 45.63 44.92 44.38 43.99 42.73 43.04 41.79 41.05 40.25 39.55 40.24 41.05 42.10 42.34 42.38 43.47 42.42
48.29 48.13 47.51 45.57 47.14 50.21 50.57 48.43 48.08 50.35 50.63 50.18 50.18 51.36 51.36 51.68 50.05 51.92 50.66 49.19 47.71 46.21 45.92 46.22 46.47 46.34 45.77 46.18 47.00 47.67 44.59 47.26 45.13 45.59 45.71 45.12 44.23 44.01 45.11 45.04 44.28 43.60 43.67 43.93 42.95 41.83 41.44 41.11 41.17 41.72 41.90 43.12 43.64 44.37
48.67 48.88 48.49 46.83 46.51 47.72 51.22 51.58 49.95 49.02 48.94 47.86 48.45 50.72 52.60 50.16 46.77 49.31 50.45 50.74 50.10 48.54 47.22 46.19 46.35 46.88 46.62 45.57 46.30 47.15 45.75 46.26 45.30 44.10 43.37 42.06 40.74 42.78 43.82 44.13 44.26 44.74 45.09 44.44 43.85 43.02 43.15 42.76 42.76 43.06 44.05 44.39 44.29 43.99

GFSWCAN_sfc_wetblb_096.txt.gz
Wetbulb
54.00 54.41 54.59 54.69 54.79 54.83 54.48 54.91 55.50 55.80 55.25 54.02 54.50 55.21 55.58 55.55 55.58 50.95 50.46 51.41 48.43 43.65 44.44 47.12 48.03 43.65 42.97 40.39 37.93 40.01 40.37 39.90 37.78 36.07 35.27 33.23 32.08 34.29 35.41 39.66 38.47 35.82 32.13 33.20 32.59 30.86 33.26 47.35 47.15 43.94 44.88 47.20 51.94 52.48
53.08 53.78 54.23 54.41 54.45 54.59 54.65 54.85 55.29 55.68 54.91 54.06 54.19 54.94 55.52 55.25 55.31 53.05 49.14 52.03 51.80 47.37 46.95 49.64 47.80 48.47 48.36 47.52 43.12 39.97 40.19 38.71 39.96 37.49 35.75 34.75 32.45 33.96 32.45 31.95 41.58 36.24 37.74 36.90 36.33 36.31 44.04 47.06 46.01 48.15 49.66 49.24 50.25 51.00
53.08 53.48 54.05 54.15 54.35 54.45 54.53 54.59 55.11 55.82 54.50 53.67 54.07 54.41 55.02 54.91 54.71 52.28 47.12 48.59 49.65 46.00 45.62 45.12 45.85 48.89 48.96 48.07 48.00 43.49 41.78 42.18 40.15 39.96 38.88 36.81 34.98 33.98 28.88 32.03 35.67 41.22 40.95 39.17 39.04 41.73 44.40 46.35 48.26 48.87 50.41 51.05 52.16 52.56
53.28 53.71 53.93 54.15 54.27 54.35 54.49 54.30 54.83 55.60 53.68 53.52 53.79 54.10 54.65 54.77 54.26 53.42 47.54 47.94 49.32 46.68 41.16 43.89 50.76 47.03 49.78 49.85 50.35 47.40 45.42 44.09 41.50 40.08 38.17 35.97 36.10 38.14 34.55 35.97 37.15 40.84 40.77 38.47 39.35 43.26 44.99 46.58 46.73 47.66 49.21 51.04 52.01 53.57
53.19 53.53 53.67 53.63 53.85 54.25 54.35 54.08 54.55 55.36 52.70 53.01 53.85 53.83 54.10 54.26 53.53 49.59 47.71 49.11 49.45 48.52 43.42 42.92 46.79 47.77 48.03 49.26 49.81 48.76 45.96 44.40 42.71 42.71 40.54 38.00 38.18 38.53 37.55 38.47 37.48 40.98 39.74 38.34 38.55 41.77 42.02 43.57 46.85 48.47 48.86 48.78 50.00 50.21
53.12 53.22 53.44 53.54 53.80 54.05 54.00 54.06 54.61 54.49 52.07 52.82 53.46 53.60 53.58 53.36 52.63 51.66 47.69 50.59 49.89 49.29 46.55 40.69 45.74 47.01 48.25 48.88 48.73 47.71 46.05 43.52 43.07 41.97 39.14 39.65 40.53 38.88 31.67 29.63 40.76 42.39 43.24 42.41 41.95 44.64 44.15 46.20 47.73 48.60 47.74 48.49 49.01 48.84
53.28 53.26 53.36 53.72 53.78 53.79 53.66 53.84 54.63 52.63 51.80 52.73 52.84 52.94 52.90 52.22 48.39 49.47 48.34 50.95 50.29 50.43 47.65 41.85 41.84 47.99 49.13 46.36 45.61 45.42 44.99 43.43 43.24 39.73 38.89 38.44 38.06 38.03 33.42 31.68 41.72 43.29 43.84 44.32 44.86 45.01 44.23 46.14 45.14 47.30 48.07 48.82 48.54 49.03
53.05 53.27 53.39 53.57 53.61 53.68 53.62 54.13 53.63 51.40 51.78 52.30 52.34 52.47 52.49 52.43 51.53 50.91 51.90 51.27 50.57 50.30 47.74 41.63 42.15 43.77 46.56 43.77 42.98 44.31 43.13 42.57 42.04 39.17 38.41 36.70 35.62 37.97 31.25 37.31 40.67 43.11 44.36 44.34 44.54 44.93 44.22 45.42 47.02 47.56 47.57 47.28 47.06 46.45
52.82 52.84 52.92 53.17 53.02 53.18 53.79 53.70 51.08 50.83 51.51 51.86 52.26 52.70 51.08 50.86 49.93 51.16 55.58 53.54 51.87 50.79 45.23 43.12 40.81 39.79 46.72 44.57 43.93 43.65 41.97 39.50 41.20 37.87 37.67 37.50 35.51 27.34 35.20 37.91 40.73 43.18 42.53 43.16 43.98 45.02 45.08 44.42 44.59 45.99 47.19 47.29 46.71 45.72
52.86 52.96 52.97 52.82 53.14 53.79 52.31 50.36 50.60 51.11 51.32 51.76 50.33 51.29 48.90 51.38 56.56 55.52 51.32 46.23 48.50 48.43 46.83 42.18 43.39 41.45 44.66 42.06 41.63 41.31 40.12 37.56 35.39 37.68 38.80 34.62 32.93 36.81 38.18 39.45 42.97 44.54 44.38 43.88 41.33 40.73 41.38 42.15 43.54 44.23 44.85 46.31 46.66 47.01
52.94 52.95 52.74 51.79 50.63 50.41 50.23 50.64 51.58 51.57 52.10 49.31 49.14 48.99 50.42 53.91 51.20 48.35 45.60 44.54 44.86 43.08 44.81 45.16 43.56 43.23 45.40 43.30 43.91 41.07 37.86 37.36 31.95 35.92 36.22 33.14 33.47 38.52 42.52 40.98 41.25 43.88 45.30 45.65 44.47 44.41 44.07 43.63 44.37 44.75 44.83 45.80 46.14 47.38
51.39 50.76 50.14 50.05 50.19 50.28 51.79 51.47 51.14 47.85 47.56 47.65 48.28 48.37 49.45 48.19 44.61 42.78 42.43 43.76 42.63 41.94 43.56 43.24 43.16 43.34 42.97 43.24 42.18 40.56 38.17 38.06 33.98 39.78 35.36 29.40 37.32 40.81 43.43 43.27 43.74 43.59 44.81 46.59 47.26 46.30 45.79 46.33 46.26 45.58 45.10 45.51 45.83 46.66
50.94 50.49 50.23 50.26 50.22 50.30 51.15 51.61 51.39 51.12 49.22 48.83 49.67 46.77 46.01 44.88 37.68 39.78 38.91 40.94 39.95 43.56 44.27 43.54 42.34 42.42 42.06 42.43 40.23 38.88 37.02 35.73 40.49 35.88 31.76 35.97 39.14 41.23 43.38 44.59 44.97 45.59 46.79 47.57 47.07 47.60 47.14 47.04 47.56 46.56 46.13 46.48 46.75 46.53
50.86 50.97 51.14 51.39 51.15 51.32 50.94 51.11 51.37 50.02 47.13 46.10 45.13 36.13 42.48 39.68 42.34 42.02 42.29 43.02 45.45 45.49 44.49 43.73 42.00 41.35 40.77 39.60 38.59 36.72 37.54 40.07 35.53 31.30 33.90 38.51 40.52 42.14 43.91 44.76 44.66 45.17 45.98 46.08 46.70 47.48 47.28 46.85 46.88 47.09 47.11 47.00 47.07 46.67
51.12 51.12 50.90 51.54 51.49 52.26 51.80 50.56 50.65 47.60 48.40 45.54 45.73 38.11 42.83 45.61 45.92 47.00 47.00 46.15 46.91 46.24 44.47 42.32 40.91 40.52 38.42 38.73 38.55 38.14 37.26 35.48 36.09 34.68 37.13 40.11 41.26 42.25 43.38 43.61 43.28 44.06 44.32 43.81 43.57 44.34 44.85 44.92 44.24 43.96 44.55 44.63 44.88 45.18
51.51 50.92 50.39 51.33 51.36 51.26 50.64 49.00 48.67 49.22 48.48 45.54 44.35 43.17 43.71 42.99 43.02 45.50 46.05 46.12 45.23 44.06 43.16 42.77 39.31 38.31 38.80 38.90 38.27 37.07 36.40 34.01 36.43 38.41 40.44 40.27 41.43 42.51 42.97 43.83 43.41 43.43 42.91 42.58 42.42 42.65 42.51 42.77 42.13 41.85 43.60 43.53 43.58 44.48
51.42 48.37 50.93 50.84 51.07 51.02 50.28 47.16 49.61 48.85 47.42 45.89 43.51 44.52 43.33 43.32 43.02 44.35 47.78 47.50 45.19 45.48 42.05 40.62 38.81 38.81 38.20 37.09 36.14 38.32 36.13 38.60 39.86 40.24 39.89 41.40 42.96 43.01 43.50 43.41 43.05 42.78 42.35 42.35 41.76 42.34 42.15 42.38 43.01 42.78 41.79 41.99 42.34 42.43
49.75 49.16 51.21 51.14 49.71 49.82 48.91 46.74 46.44 47.52 46.04 46.12 42.65 41.58 43.47 45.17 43.37 44.66 50.58 48.32 45.12 43.55 45.89 44.03 44.26 37.48 36.25 35.15 34.72 37.63 38.67 39.44 40.57 41.74 42.24 43.01 43.66 43.86 44.39 42.85 42.58 41.93 41.29 41.64 42.25 42.42 42.66 42.41 41.90 41.89 41.23 41.11 41.44 42.21
50.54 50.64 51.59 51.54 49.36 44.30 43.35 46.19 46.44 42.07 44.19 44.62 44.72 44.44 44.82 45.55 45.26 45.80 46.32 47.57 48.31 47.32 45.86 46.11 44.15 38.89 38.80 39.83 40.88 42.70 43.04 41.81 43.55 44.40 44.45 44.45 43.81 43.44 42.77 42.35 41.53 40.50 40.67 41.41 41.62 41.78 42.15 42.06 42.18 41.81 41.53 40.89 41.60 41.97
51.55 51.65 51.81 51.77 49.74 44.24 43.80 44.12 48.86 45.05 43.71 45.26 44.09 43.32 43.13 43.94 44.66 46.77 48.17 48.44 48.49 47.28 44.87 42.90 42.44 43.22 42.65 44.17 44.48 46.02 47.59 45.60 45.34 44.90 44.71 44.99 43.65 43.21 42.62 42.56 41.53 40.85 40.39 41.76 42.43 41.90 41.39 41.63 42.28 41.92 41.46 40.83 41.03 41.53
50.49 51.08 51.37 48.93 45.93 43.86 42.52 41.69 43.17 46.10 46.51 44.51 44.56 44.69 44.50 45.56 45.92 45.77 46.10 47.62 47.38 46.29 44.97 46.28 46.41 49.00 47.90 47.84 47.72 47.32 47.22 48.33 47.38 48.50 47.65 44.95 44.50 44.20 42.15 43.48 42.26 41.37 41.02 41.59 42.61 42.18 41.68 42.03 42.42 42.14 41.97 42.40 42.48 42.26
50.31 51.95 50.27 49.19 47.24 48.35 43.45 44.65 42.01 43.69 43.71 43.77 43.05 43.47 42.92 42.87 42.65 43.09 46.67 46.79 46.67 47.88 47.71 47.67 47.68 48.73 49.48 49.21 49.83 49.87 51.88 49.99 51.05 48.73 46.47 46.43 42.36 43.22 43.31 43.28 43.38 42.12 41.95 42.75 43.27 42.72 42.86 43.16 42.89 42.50 42.52 43.04 43.19 43.95
49.80 49.86 48.14 49.05 47.83 44.13 42.49 47.74 45.42 45.98 42.94 43.46 43.74 43.10 42.71 41.94 42.41 47.13 44.29 45.27 46.72 47.78 49.55 50.09 50.58 51.61 51.28 51.76 51.76 51.97 52.57 51.48 49.29 49.22 48.38 47.95 48.25 47.33 45.70 44.85 45.45 44.22 42.84 42.12 44.04 43.17 43.09 41.88 41.96 42.58 43.39 43.68 43.63 44.05
49.90 48.67 46.11 42.59 42.10 38.47 45.06 44.38 46.36 45.05 44.49 43.52 42.66 42.09 42.08 43.66 46.31 44.46 43.39 44.61 47.02 48.99 48.70 49.04 50.08 49.78 50.08 50.38 50.08 50.23 50.79 49.87 48.16 47.99 47.11 47.57 46.12 44.75 46.26 45.52 46.08 46.65 46.27 45.23 43.42 43.06 43.31 42.77 41.20 41.78 42.86 43.57 43.16 42.74
43.49 42.28 42.20 36.22 44.74 45.40 43.07 44.22 43.98 44.78 42.93 43.32 42.59 42.62 44.31 46.43 43.35 43.32 42.88 44.92 47.01 48.52 49.29 50.48 50.21 50.54 49.50 49.83 51.38 51.53 48.33 45.27 44.92 45.02 45.49 47.92 46.01 44.13 43.03 43.42 44.54 45.44 45.03 42.98 42.16 43.21 43.02 42.42 42.16 42.10 42.57 42.71 42.51 42.74
36.61 41.19 38.51 40.96 40.93 42.15 43.74 42.64 44.85 44.51 44.40 43.09 42.75 45.05 46.16 43.83 43.17 42.02 44.50 47.76 49.37 50.25 50.54 50.24 50.18 50.97 50.46 51.53 50.96 50.80 49.76 45.92 44.28 44.56 43.01 46.06 46.76 45.76 44.08 42.06 41.87 42.44 44.42 46.33 45.18 44.06 43.58 43.18 42.74 42.70 42.25 42.16 39.67 42.67
38.49 40.20 43.87 44.56 43.02 43.45 42.21 43.23 44.66 45.37 43.44 43.06 45.78 45.85 44.17 40.60 42.90 45.86 48.69 50.10 50.21 50.95 52.03 52.41 52.25 53.22 52.25 51.70 52.57 54.33 50.60 48.72 47.77 45.90 46.36 49.48 49.98 49.26 46.52 43.76 42.66 43.94 44.91 45.98 46.06 45.77 44.88 44.29 44.00 44.04 43.83 43.47 42.82 42.11
42.30 41.94 40.45 43.12 43.14 46.89 44.64 43.79 43.95 43.97 43.80 46.26 46.76 44.56 44.85 44.25 44.23 47.17 49.36 51.56 52.31 51.79 51.34 51.46 51.36 53.16 51.73 50.69 51.66 50.84 48.71 48.76 48.68 49.47 49.77 49.35 49.47 45.01 45.51 44.61 43.42 41.51 45.79 46.80 46.39 46.21 45.65 45.50 44.86 44.63 43.36 42.41 41.98 42.50
41.17 42.97 43.44 41.62 42.96 43.30 44.44 44.66 44.62 45.11 44.36 45.85 43.90 44.12 45.28 47.80 49.83 50.00 50.78 50.88 49.34 48.49 45.93 46.17 47.15 44.69 46.19 46.73 48.72 48.75 48.17 48.28 46.65 45.01 44.28 43.69 43.40 43.53 41.92 42.66 43.01 42.84 43.69 45.31 41.11 43.63 45.66 45.32 45.03 44.62 44.23 43.58 43.18 43.41
40.87 43.31 41.00 41.59 41.60 42.10 45.36 46.97 47.06 47.97 48.00 49.05 49.06 49.45 48.82 48.91 50.49 51.55 49.27 47.86 46.31 45.10 44.69 44.13 45.98 43.44 43.25 45.82 45.01 44.68 47.48 48.80 48.38 46.90 44.69 43.57 42.94 43.34 42.46 42.80 42.64 42.18 42.24 42.99 42.49 41.69 39.63 42.23 41.08 43.45 42.88 42.65 43.11 42.82
44.35 42.24 41.06 41.78 42.02 44.64 47.33 49.54 49.17 50.17 50.21 49.50 49.80 47.72 47.31 48.21 50.07 51.10 49.36 47.65 46.15 44.81 43.44 43.50 42.57 42.46 43.20 43.19 44.44 44.47 44.59 44.96 45.70 47.07 45.40 44.86 43.43 44.20 43.58 43.25 42.90 42.06 42.57 42.68 42.34 42.33 41.89 41.89 42.23 43.00 43.42 43.12 43.49 42.12
42.89 42.67 42.78 41.83 43.45 47.16 48.86 47.75 47.09 48.08 47.79 46.90 46.69 48.55 49.11 48.33 46.44 48.56 49.24 48.17 46.96 44.10 42.82 42.12 41.61 42.15 43.11 43.92 44.68 45.06 41.84 45.08 45.22 45.06 44.95 44.46 44.83 45.57 45.79 44.84 43.00 42.78 42.86 42.71 42.64 42.57 43.00 42.55 42.18 42.54 42.92 43.75 43.98 44.37
43.77 44.30 44.32 43.91 44.52 45.26 45.73 47.61 46.45 45.34 45.62 45.40 46.31 48.10 48.64 49.00 44.64 46.52 49.24 48.99 48.59 46.96 43.64 43.57 43.85 43.89 44.25 44.90 45.25 44.84 43.59 45.86 45.31 40.57 40.47 40.70 41.00 42.31 42.98 42.56 43.35 44.01 43.55 42.86 42.50 41.99 42.18 42.35 42.72 43.16 43.39 43.37 43.68 43.95

GFSWCAN_sfc_wetblb_099.txt.gz
Wetbulb
53.57 52.89 53.52 54.21 54.66 54.92 55.02 55.14 55.26 55.61 55.28 55.19 53.97 54.80 55.36 55.38 55.47 54.89 56.49 56.56 55.13 51.70 52.05 52.21 52.12 50.35 49.50 49.24 47.53 48.11 47.71 47.68 48.12 45.30 45.40 44.15 43.76 44.35 43.23 43.96 43.18 41.97 41.15 42.58 41.39 40.27 37.72 51.21 51.36 46.82 49.46 53.76 56.12 56.08
52.75 53.00 53.73 53.97 54.30 54.52 54.74 54.94 54.96 55.22 55.89 54.88 53.67 54.69 55.27 55.39 55.16 54.46 56.00 55.99 55.66 54.51 53.16 54.56 53.93 53.56 53.27 53.06 52.06 48.26 48.23 46.80 49.09 46.48 45.93 45.10 43.82 42.84 41.51 41.28 45.66 42.54 44.30 45.10 44.20 44.27 49.75 51.63 50.53 52.58 53.03 53.38 55.21 55.76
52.69 53.34 53.71 54.08 54.38 54.38 54.56 54.80 54.78 55.10 55.91 54.35 53.53 54.31 54.89 55.06 54.88 53.80 54.61 53.92 55.57 54.32 53.28 53.59 52.28 54.62 55.51 53.87 53.99 50.87 49.80 48.68 48.15 48.80 48.45 46.22 43.31 44.56 42.75 42.96 43.04 45.12 45.98 45.94 45.65 47.36 48.74 50.76 52.57 53.19 53.98 54.29 55.39 56.42
53.29 53.56 53.80 54.00 54.16 54.36 54.42 54.68 54.56 54.90 55.61 53.60 53.48 53.85 54.56 54.96 54.29 53.72 54.85 54.05 55.53 52.48 50.23 50.92 55.24 53.60 55.17 56.14 54.67 53.49 51.37 49.50 49.34 49.49 47.70 46.91 45.98 45.44 44.72 44.81 44.64 47.42 46.75 45.41 45.53 47.55 49.07 50.12 51.05 50.77 54.30 55.66 55.39 55.75
52.61 53.03 53.64 53.68 53.84 53.88 54.22 54.72 54.54 54.60 55.31 52.69 53.35 53.95 54.17 54.27 53.45 53.51 54.81 54.99 55.26 54.47 50.56 50.97 52.70 53.67 55.03 55.66 54.68 54.38 53.39 52.20 51.52 50.11 48.52 46.00 47.30 47.01 46.89 46.91 46.84 48.91 46.44 47.17 46.12 47.91 49.09 48.68 50.92 51.54 53.10 54.62 55.74 54.32
52.77 53.23 53.47 53.67 53.87 53.76 54.06 54.42 54.21 54.58 54.64 52.25 53.06 53.43 53.61 53.20 52.75 56.42 54.34 56.43 55.79 55.85 53.60 48.06 53.11 52.85 54.35 54.83 54.25 53.19 52.63 51.47 51.53 50.55 47.69 47.69 46.45 46.96 46.08 45.84 47.74 48.29 48.60 48.55 48.66 50.27 50.14 50.73 51.90 52.24 51.01 52.38 53.93 54.55
53.27 53.36 53.52 53.68 53.70 53.96 54.02 53.88 53.95 54.86 52.73 52.16 52.70 52.81 52.68 52.21 53.56 55.21 53.34 55.75 52.94 56.82 54.67 49.21 49.58 53.67 54.05 53.58 53.03 53.18 52.32 50.57 51.28 48.74 48.31 48.18 46.77 46.93 45.93 44.65 49.60 49.79 50.13 50.50 51.05 51.33 49.96 51.45 49.86 52.46 52.17 51.76 52.21 53.62
53.10 53.19 53.24 53.56 53.80 53.94 53.74 53.71 54.26 54.01 51.72 51.89 52.29 52.31 52.21 52.50 52.79 55.72 57.03 53.04 54.33 56.28 54.28 48.76 49.31 50.53 53.31 51.74 51.05 51.47 51.73 51.52 48.58 47.50 47.23 46.46 45.18 43.85 41.18 46.54 48.84 49.76 50.12 50.27 50.75 51.38 51.10 51.78 52.40 52.47 53.41 52.70 51.32 51.25
53.03 53.07 53.10 53.07 53.24 53.31 53.37 53.96 54.10 51.68 51.20 51.75 52.13 52.53 54.65 55.56 55.75 56.36 55.19 54.98 57.75 56.47 52.52 50.96 48.16 46.75 53.28 51.52 51.53 51.18 50.49 48.41 48.70 47.46 46.88 46.51 41.18 36.75 45.42 46.62 49.20 49.84 50.01 50.20 50.21 50.62 50.15 49.65 50.45 51.17 51.58 52.07 51.69 51.56
53.04 52.93 53.04 52.87 52.91 53.15 53.78 53.01 50.88 50.86 51.14 51.91 52.76 55.01 53.51 56.00 57.00 56.93 55.43 52.70 53.92 55.02 53.28 50.83 50.95 48.84 51.80 50.86 49.38 49.97 49.00 47.30 44.94 46.08 46.78 44.92 43.71 46.68 47.01 48.90 52.16 51.29 51.00 51.13 49.01 48.19 48.00 48.47 49.28 50.11 50.59 51.68 52.31 52.28
52.41 52.04 51.36 50.95 50.73 50.38 50.27 50.74 51.52 51.62 51.97 53.35 53.95 53.71 54.33 54.45 56.43 54.23 51.56 49.98 51.04 50.23 51.96 52.10 51.11 49.83 52.37 49.49 48.46 48.78 47.08 46.66 43.00 44.43 44.59 43.62 43.18 47.06 49.55 48.65 50.88 52.45 52.16 51.73 51.65 51.82 51.28 50.50 50.58 50.31 50.29 50.94 51.70 52.05
50.59 50.48 50.24 49.85 50.29 50.46 51.36 51.49 51.15 50.92 52.64 51.79 52.55 52.49 55.03 53.61 50.87 48.92 48.43 49.27 48.83 48.13 50.05 49.94 50.11 51.60 50.13 51.91 49.96 48.10 45.93 45.97 40.53 46.81 44.24 41.44 46.75 49.98 49.68 49.23 49.95 51.31 52.30 51.99 52.49 52.69 52.39 51.59 51.87 51.79 51.49 51.80 52.11 52.39
50.92 51.03 51.04 50.82 50.53 50.50 50.52 51.58 51.55 51.32 51.04 53.81 53.86 51.92 51.02 49.10 41.59 43.08 42.80 46.86 47.23 49.40 49.60 49.04 48.50 50.72 49.53 50.92 48.14 47.60 43.52 43.04 47.12 44.02 42.48 44.90 49.49 49.97 51.05 51.22 50.43 51.36 51.60 51.94 52.61 53.03 52.55 52.39 52.61 52.07 51.99 52.40 52.54 52.59
50.80 51.14 51.31 51.24 51.41 51.52 51.56 50.61 51.53 51.58 51.15 51.04 48.77 35.99 45.45 44.39 45.91 46.94 47.82 49.91 52.58 51.76 50.78 50.99 48.46 50.13 49.45 48.03 47.43 43.20 44.58 46.19 41.50 39.43 41.15 48.08 51.31 51.57 51.17 51.98 51.11 50.08 51.27 52.04 52.25 52.82 52.74 52.54 51.95 52.40 52.42 52.90 52.75 51.99
50.89 51.32 51.55 51.19 51.69 51.50 51.96 50.40 50.66 51.77 51.97 49.07 50.01 41.06 46.00 49.87 50.43 51.61 51.90 51.66 52.91 52.76 50.99 49.29 48.36 49.82 47.28 45.68 46.64 44.32 41.79 40.31 42.17 41.85 46.62 50.54 53.01 51.99 51.00 51.30 51.82 51.59 51.83 51.82 52.17 52.03 52.04 51.84 51.63 50.57 50.85 50.83 50.32 50.74
51.35 51.35 50.58 51.21 51.28 51.36 50.58 50.15 51.01 52.70 51.75 49.11 48.72 47.65 49.53 48.07 48.85 50.46 51.29 52.08 52.48 51.73 51.32 51.88 47.47 46.13 45.35 46.17 43.28 42.59 41.65 40.68 44.52 47.94 50.82 51.23 51.32 51.23 51.80 51.83 51.84 52.26 52.07 51.16 50.86 51.02 50.49 49.58 48.80 48.96 49.46 49.59 49.54 49.73
51.15 51.18 50.99 50.93 50.91 50.98 50.14 50.97 52.83 51.24 49.31 48.15 46.75 50.21 49.38 48.79 48.28 50.09 51.89 53.46 52.91 51.58 49.86 49.25 45.61 44.62 45.82 44.53 43.04 46.02 44.39 47.72 49.94 50.30 50.42 51.36 52.89 52.85 51.84 51.91 51.51 51.31 50.79 50.38 49.73 49.44 49.17 49.24 49.51 49.22 47.76 48.25 48.68 48.52
50.30 50.97 51.19 51.42 50.80 51.55 52.43 50.84 50.02 50.16 47.49 49.49 46.85 48.48 49.35 50.80 48.75 50.19 53.77 52.25 51.75 50.71 48.88 48.05 47.80 44.25 43.55 42.25 43.94 47.34 48.85 51.31 51.20 51.07 51.15 50.87 51.35 52.12 51.60 51.34 50.98 50.82 50.68 50.10 49.99 49.06 48.50 48.58 48.54 47.92 48.16 47.94 47.90 48.64
51.52 51.70 52.01 51.90 50.98 48.02 47.12 50.20 50.49 44.48 46.40 49.49 50.46 50.63 50.16 50.66 51.37 51.74 52.51 53.30 52.59 53.97 52.20 49.52 47.46 45.18 47.21 48.57 49.30 51.09 51.08 49.85 50.51 52.13 51.24 52.62 52.17 51.19 51.44 51.61 50.81 50.36 49.92 49.54 48.85 48.25 48.80 49.16 48.51 48.10 48.63 48.16 47.23 48.01
51.53 51.78 52.12 52.07 51.04 47.21 45.56 47.85 52.44 49.13 47.73 50.35 50.15 48.98 49.61 49.95 51.20 51.57 52.16 52.32 52.59 52.53 51.27 48.97 49.67 51.71 52.21 54.55 54.03 54.08 54.61 53.98 49.57 49.33 51.92 51.65 49.73 49.41 49.89 50.48 50.09 50.22 49.69 49.51 49.21 46.33 47.86 47.34 47.84 47.82 47.95 47.92 47.39 47.51
50.81 51.60 51.07 50.26 49.07 47.63 46.41 46.73 48.09 50.04 51.18 49.92 51.33 50.25 50.65 50.83 50.21 51.39 52.20 53.69 53.25 53.00 51.95 53.95 54.56 56.18 58.75 55.83 54.84 53.36 54.06 54.13 53.74 55.19 55.92 50.27 48.01 48.18 47.62 48.53 49.00 49.02 47.82 47.27 47.45 47.05 45.85 47.23 47.60 48.07 47.94 47.92 48.42 49.10
51.06 51.76 50.39 50.34 49.35 49.46 48.03 49.46 46.56 48.78 47.55 49.12 48.01 48.99 48.05 48.05 49.57 50.68 52.02 52.41 52.38 54.45 55.01 55.77 56.02 56.05 56.71 57.35 57.77 56.66 56.22 56.15 55.83 54.92 49.45 48.46 46.34 47.66 46.59 47.42 45.90 45.98 47.67 48.22 48.25 48.05 47.88 48.55 48.57 48.37 48.43 49.04 46.92 50.20
49.85 50.19 49.78 50.29 48.59 45.12 44.01 51.67 48.62 50.19 46.59 48.34 48.23 46.37 47.03 47.64 49.15 51.45 49.25 51.36 53.07 55.16 55.59 56.62 57.00 57.14 56.90 57.66 57.35 57.44 57.26 56.08 54.80 54.21 53.12 51.95 51.64 49.21 47.39 46.91 47.08 46.58 46.05 47.09 48.56 49.10 48.99 46.21 45.87 48.26 49.43 48.89 49.61 50.05
49.85 49.01 46.48 45.18 44.76 40.22 47.99 47.48 50.33 49.12 48.16 47.45 46.69 45.88 47.09 49.15 51.97 50.10 49.07 51.76 54.57 55.85 55.86 56.10 56.61 56.39 56.86 56.58 55.89 56.19 56.52 56.05 55.28 54.45 52.94 50.54 49.67 49.85 49.10 46.74 47.36 48.70 48.16 48.21 48.05 48.32 48.63 48.05 46.28 48.33 49.19 49.02 49.04 49.08
43.43 42.40 43.84 36.22 46.60 45.15 44.93 46.28 46.50 46.75 45.16 47.01 46.01 47.22 49.17 51.66 48.71 48.32 48.76 51.73 53.42 55.42 56.13 56.55 56.55 56.25 54.71 55.40 56.38 56.67 55.12 52.02 51.68 51.77 51.65 52.66 51.44 48.10 47.14 47.88 47.87 49.09 49.59 47.28 47.06 47.78 48.17 49.35 49.26 49.03 49.01 48.67 48.68 48.57
37.99 43.86 40.47 44.28 45.06 44.84 45.37 44.67 46.00 45.97 46.57 45.71 46.43 49.41 50.69 48.96 46.24 46.10 50.14 53.53 54.43 55.31 55.76 55.33 55.75 54.31 54.78 56.46 55.61 56.27 56.43 51.80 49.67 49.91 48.98 50.69 49.55 47.10 46.20 45.55 46.55 46.97 48.60 49.73 49.45 48.91 49.76 49.82 49.49 48.89 48.61 47.79 41.80 47.35
37.22 41.70 46.78 49.30 47.41 47.16 46.31 47.57 47.08 46.41 45.27 45.47 49.03 48.41 47.83 43.88 44.76 50.55 54.13 55.34 55.41 56.79 57.10 57.11 56.17 55.03 54.35 54.70 57.05 58.00 54.43 52.45 51.19 50.57 48.69 50.06 50.04 50.21 49.63 49.01 49.05 50.37 50.87 51.20 51.58 51.31 50.56 50.24 49.46 49.22 48.98 49.48 49.34 48.92
44.57 45.35 42.73 46.82 46.60 47.67 45.23 46.65 46.39 46.11 47.60 50.41 50.44 46.45 45.24 46.06 48.42 53.91 55.52 56.62 56.19 54.48 53.92 54.32 54.30 53.90 53.51 53.78 56.32 53.00 49.60 50.29 50.33 50.67 50.74 51.15 51.11 51.38 52.60 52.64 51.63 42.53 51.19 51.96 52.08 52.10 51.97 51.68 50.77 50.03 49.67 49.53 49.94 50.20
42.54 47.21 46.86 44.21 46.35 46.87 47.04 46.66 47.45 50.28 50.04 51.30 48.96 48.12 49.64 52.82 54.64 55.40 55.82 55.71 54.28 51.81 50.46 50.14 51.99 51.73 52.40 53.18 53.92 53.77 50.10 49.28 48.30 46.97 47.42 48.02 49.34 50.88 50.64 50.20 50.15 49.58 51.06 51.14 42.56 47.64 51.83 51.64 51.53 51.05 50.91 50.61 50.76 50.38
43.17 47.01 44.97 44.27 42.76 42.78 47.53 50.83 51.27 52.44 52.42 52.29 53.19 53.18 53.32 54.00 55.25 56.24 54.40 53.01 52.21 50.93 49.71 48.78 49.97 51.18 51.87 52.28 50.97 50.76 52.57 52.65 51.87 50.81 49.07 49.39 50.56 52.73 51.97 50.97 50.56 50.20 50.13 50.75 50.66 49.34 40.30 47.19 44.55 49.69 49.11 49.40 48.83 48.70
46.25 45.94 44.14 43.79 43.29 46.98 48.68 50.81 51.82 52.00 53.42 54.37 54.37 52.50 51.78 52.64 54.46 55.74 54.94 52.72 51.56 50.87 49.24 49.70 49.75 50.23 50.83 51.51 51.04 50.09 49.81 51.78 51.89 52.62 52.90 52.44 52.57 51.68 50.98 50.87 51.08 50.46 50.06 50.21 50.15 49.92 49.70 48.96 49.76 49.59 49.42 48.97 48.55 47.01
45.96 45.03 44.77 43.30 44.84 49.08 49.67 48.51 49.50 51.18 52.47 52.06 51.81 53.13 53.70 53.21 50.49 53.84 54.12 53.40 53.21 50.97 45.87 48.48 49.34 49.17 49.93 51.60 52.02 52.81 43.55 53.54 52.44 52.43 52.32 51.88 51.14 51.67 51.33 50.93 50.47 50.16 49.95 50.03 49.85 49.75 49.52 49.22 48.96 48.93 49.14 49.24 49.13 48.43
46.08 46.43 46.41 46.00 46.45 47.46 48.65 50.65 50.49 49.37 50.65 50.64 51.37 52.89 53.01 51.36 47.24 52.20 55.38 54.65 54.51 53.16 50.76 50.73 50.69 50.92 50.38 50.66 51.36 51.65 46.15 52.41 49.12 42.48 42.06 42.85 43.51 46.40 51.36 51.93 50.90 49.83 49.58 49.11 49.00 49.24 48.84 48.44 48.09 48.32 48.75 48.91 49.15 49.08

GFSWCAN_sfc_wetblb_102.txt.gz
Wetbulb
53.79 53.70 53.53 53.13 53.70 54.42 55.02 55.25 55.43 55.29 55.53 55.99 55.75 54.62 55.36 55.43 55.62 56.83 61.76 62.49 60.24 56.94 55.64 56.07 55.37 54.17 54.54 54.38 50.12 53.18 51.52 51.74 51.09 47.44 47.81 49.73 47.56 49.89 47.11 48.47 47.26 46.28 44.53 44.51 46.34 43.26 40.61 54.81 54.55 50.28 54.31 56.63 58.47 58.48
53.65 53.40 53.04 53.79 54.32 54.68 54.86 55.11 55.23 55.29 55.25 56.08 55.44 54.52 55.44 55.43 55.43 54.91 60.37 62.67 62.85 58.77 56.61 58.86 57.62 57.59 56.87 56.20 54.09 55.07 52.27 50.74 53.18 51.46 51.10 51.72 48.54 48.34 47.25 43.46 50.62 45.76 49.21 48.15 48.20 48.19 53.95 56.04 55.35 57.83 58.18 55.84 58.48 58.85
53.33 53.38 53.56 53.73 54.04 54.46 54.50 54.78 55.11 55.27 55.29 55.91 54.91 54.02 54.94 55.27 55.33 54.63 60.16 60.57 61.58 57.45 55.60 56.28 55.26 58.10 60.06 58.49 59.10 53.09 55.29 54.32 55.03 55.61 53.80 52.16 45.68 50.08 45.15 47.41 48.03 50.26 50.05 50.33 50.04 51.47 52.45 54.21 56.64 58.75 59.19 58.43 59.72 59.92
53.08 53.63 53.55 53.30 53.75 54.24 54.38 54.48 54.90 55.15 55.14 55.85 53.94 53.62 54.61 54.89 54.56 53.72 60.29 60.74 60.85 58.71 53.24 53.76 58.89 57.29 59.79 59.91 58.63 58.08 56.51 56.41 56.82 56.28 53.43 51.12 49.12 52.24 49.25 49.46 48.99 52.18 51.69 50.51 49.77 51.73 52.93 54.01 55.38 57.24 58.95 59.67 58.87 59.39
52.98 52.97 53.04 53.39 53.85 54.06 54.34 54.40 54.74 54.99 54.96 55.73 53.32 53.49 54.10 54.26 53.62 56.58 61.74 62.28 62.34 58.18 53.91 54.23 57.19 57.94 59.32 59.32 58.01 58.00 58.48 57.02 55.54 52.72 51.50 50.71 53.79 51.75 53.45 52.14 49.31 52.96 50.83 49.70 48.81 53.52 54.03 53.12 54.56 56.58 57.26 57.90 58.69 57.85
52.77 53.18 53.61 53.77 53.83 53.99 54.12 54.16 54.68 54.74 54.86 55.33 52.84 53.40 53.56 53.39 53.21 60.01 55.38 61.50 63.05 62.53 56.33 50.45 57.47 56.63 58.00 58.48 57.72 57.15 57.83 57.86 57.58 54.70 54.02 54.50 52.40 52.16 50.18 49.22 52.21 52.88 53.42 54.04 53.05 55.06 55.31 55.13 55.39 55.48 55.86 57.03 58.03 58.65
53.19 53.49 53.50 53.68 53.92 53.92 53.88 54.22 54.36 54.20 54.90 53.78 52.40 52.69 52.64 52.40 56.28 57.28 55.40 58.45 55.45 61.95 56.94 51.96 52.75 56.60 57.76 57.59 59.04 58.89 58.39 57.01 55.45 55.84 55.20 55.16 52.68 51.48 51.96 48.39 53.34 54.17 54.50 54.67 55.63 55.64 53.48 54.43 53.89 55.43 55.40 55.34 55.30 57.71
53.32 53.33 53.33 53.33 53.70 54.08 54.13 53.96 53.90 54.26 54.70 52.31 52.04 52.38 52.29 52.88 53.18 57.17 60.49 55.77 57.32 59.96 59.60 52.14 52.51 53.72 57.45 54.86 54.27 58.90 56.87 56.31 54.67 54.23 53.50 52.65 51.59 51.92 46.39 51.56 54.25 54.57 54.75 54.24 54.16 55.18 55.24 55.30 55.30 55.33 56.12 55.72 54.88 55.46
53.32 53.35 53.36 53.33 53.33 53.38 53.50 53.57 54.04 54.48 52.31 51.54 52.04 52.56 56.89 57.26 57.54 59.50 55.21 54.77 62.73 59.13 54.34 54.21 50.94 49.42 56.85 56.58 57.77 55.77 56.61 51.95 55.20 52.53 52.49 51.68 48.66 39.26 48.66 51.21 53.20 54.30 54.13 54.16 54.42 53.92 53.45 52.59 52.99 53.33 53.71 54.02 54.58 54.72
53.12 53.18 53.32 53.30 53.22 53.13 53.36 53.97 53.65 51.41 51.01 51.96 53.56 56.47 54.99 59.13 56.01 56.91 57.69 55.66 56.30 57.15 57.41 53.79 57.90 51.74 55.46 54.81 53.64 54.06 54.64 51.44 49.02 51.33 53.13 48.83 47.61 52.16 52.67 53.55 55.50 55.87 55.58 55.01 52.02 51.39 51.23 50.81 51.31 52.00 52.34 54.09 55.09 55.64
51.24 51.44 50.81 50.40 50.08 50.26 50.63 51.08 51.69 51.90 50.93 54.88 55.28 56.90 58.51 54.60 58.77 57.20 53.11 51.40 52.68 51.24 54.44 54.90 54.94 52.78 57.69 51.63 52.21 54.62 51.90 51.80 46.30 48.82 48.20 48.16 46.70 50.93 53.52 53.60 56.31 56.14 55.40 54.44 53.65 53.34 52.64 52.75 52.39 52.43 52.65 53.32 53.68 53.89
51.04 50.87 50.56 50.53 50.54 50.57 50.84 52.02 51.69 52.08 57.40 54.55 57.09 57.14 59.71 57.06 55.06 51.50 50.29 52.56 51.13 48.90 54.44 53.12 53.98 56.44 55.42 58.45 52.91 52.75 49.61 50.10 43.55 52.56 48.25 45.13 49.68 54.09 53.46 53.09 55.18 55.91 55.07 54.23 54.36 53.28 53.21 53.18 53.40 53.20 53.69 53.93 54.70 55.08
50.80 51.12 51.19 51.30 51.12 50.85 50.82 51.15 51.75 51.74 51.95 57.08 56.03 54.54 54.18 52.87 43.34 45.03 44.46 48.17 49.74 53.27 54.80 54.02 52.25 54.68 54.26 55.32 53.43 50.35 45.46 45.99 52.90 47.41 46.07 47.99 53.62 54.66 54.61 54.08 54.23 55.76 55.46 54.79 54.17 54.86 55.08 54.90 55.58 55.29 54.64 55.49 55.43 55.71
50.70 51.10 51.37 51.51 51.40 51.57 51.65 51.23 51.53 52.19 51.52 51.92 50.96 38.71 47.50 46.45 47.69 49.13 49.56 52.09 55.86 56.09 55.01 54.76 53.19 52.95 54.52 50.79 52.28 45.53 49.85 50.25 44.35 42.22 43.05 49.33 54.21 55.50 55.90 55.28 53.88 53.81 54.64 54.62 54.72 55.34 55.43 55.90 55.61 56.06 55.95 55.99 55.71 55.03
50.71 51.12 51.57 51.41 51.70 51.69 51.85 51.25 50.87 52.78 52.99 50.15 51.20 42.92 46.68 51.48 55.18 55.86 56.52 56.34 56.72 57.47 55.69 54.05 53.60 53.74 50.79 49.02 50.35 49.24 44.88 42.79 44.92 44.73 49.62 52.62 56.04 56.84 56.39 55.84 55.30 54.38 54.44 54.50 55.60 55.54 55.58 55.49 54.88 54.59 55.52 55.43 54.20 53.38
51.07 51.25 50.87 51.21 51.42 51.37 50.90 50.59 53.64 55.26 53.41 50.41 51.03 49.81 53.15 51.71 51.89 54.21 54.96 55.20 57.61 56.71 56.60 55.26 51.93 49.54 47.96 49.71 46.53 45.08 43.86 43.19 48.30 51.59 53.79 56.03 57.58 57.64 57.44 56.82 56.57 56.55 55.86 55.66 56.29 56.08 55.43 54.76 53.91 53.94 53.83 52.89 52.88 52.35
51.00 53.44 50.81 50.96 50.99 51.17 50.51 53.40 53.97 51.42 49.54 48.49 47.87 51.55 52.06 53.15 53.38 55.63 56.78 56.61 58.89 55.60 52.17 52.96 48.14 47.02 52.12 47.58 46.08 50.38 47.69 51.23 54.70 55.97 57.39 58.59 59.02 58.78 58.06 57.47 57.12 56.94 56.62 56.63 56.31 55.55 54.46 54.14 53.59 52.45 51.26 51.87 52.87 52.92
50.23 51.77 51.86 51.77 52.17 52.44 55.08 53.94 51.86 50.38 47.32 49.51 47.89 49.60 52.31 52.65 53.68 55.15 55.75 57.87 56.66 55.57 55.12 51.92 54.94 48.83 47.13 45.68 47.95 52.05 53.69 54.92 55.94 55.91 56.54 58.39 59.12 58.80 58.41 57.77 57.00 56.36 56.15 56.18 55.51 54.62 53.70 52.65 51.73 51.11 52.01 51.87 51.48 51.84
52.31 51.90 52.16 52.20 52.92 51.96 50.80 52.32 52.84 46.54 48.09 50.44 52.18 52.96 53.14 53.09 54.73 55.43 56.91 57.45 58.12 59.50 56.98 54.07 49.93 49.04 49.80 52.66 53.09 54.43 55.26 56.23 55.97 56.98 57.94 58.80 57.92 57.40 57.43 57.51 57.14 55.92 55.34 54.53 53.60 52.71 52.26 52.71 51.83 51.32 50.84 50.88 49.80 50.50
51.43 51.71 52.00 52.22 52.22 50.13 47.40 49.78 55.43 50.82 48.24 52.50 52.96 51.00 51.77 51.15 54.14 54.22 53.09 55.01 55.53 54.63 51.99 51.63 52.45 54.24 54.42 56.04 57.30 57.32 57.82 58.43 56.72 55.66 56.57 57.63 56.87 54.98 55.49 54.97 54.15 54.29 53.55 53.56 53.77 48.78 51.29 51.27 51.20 51.07 50.74 50.14 50.02 49.35
51.19 52.65 51.77 51.54 50.36 50.68 49.31 48.79 50.29 52.58 53.61 52.20 55.92 55.04 53.03 54.51 53.12 52.15 52.95 56.19 53.92 52.83 52.77 55.38 56.14 57.28 59.85 60.57 61.15 60.35 59.63 59.59 58.00 57.76 57.14 55.73 55.98 54.16 53.00 54.08 53.78 52.45 52.75 51.54 49.75 48.77 48.16 49.25 48.98 50.39 50.05 50.03 50.73 51.26
51.46 52.12 50.29 50.28 49.21 50.80 50.73 54.05 50.39 53.25 51.63 52.78 53.61 53.54 52.00 51.25 51.56 52.37 55.71 53.32 52.81 54.39 56.23 56.61 57.12 58.63 58.86 60.26 61.02 61.72 61.70 61.28 61.22 59.19 50.91 52.37 56.03 54.52 53.78 51.75 50.14 50.00 51.76 50.57 49.63 48.98 49.66 49.81 49.84 50.35 50.13 50.26 48.89 51.16
50.32 51.07 50.71 50.47 48.28 46.59 46.70 55.26 50.44 51.62 47.95 50.21 52.14 48.91 49.46 50.57 53.20 55.63 50.96 52.95 53.79 57.26 58.92 59.32 60.39 61.53 60.71 61.15 61.29 61.05 61.43 60.62 59.45 59.46 59.28 58.59 58.02 55.91 53.70 53.69 49.21 47.86 48.29 48.91 50.61 50.54 50.00 48.14 48.55 49.52 50.21 50.54 51.07 51.23
50.01 49.24 46.46 45.84 47.40 44.26 51.70 49.61 52.75 51.93 51.78 49.97 49.06 47.29 49.11 51.12 54.37 51.53 48.72 51.15 53.88 58.85 58.52 60.27 60.09 59.13 59.75 60.40 59.28 59.80 59.92 60.08 58.86 58.93 59.49 58.02 55.13 51.32 49.22 48.15 49.29 50.40 49.17 48.92 51.50 50.11 50.55 50.95 47.45 49.68 50.39 50.86 50.69 50.58
43.18 43.76 46.06 40.02 49.53 46.42 46.32 47.45 48.32 49.13 46.87 49.00 47.32 47.95 50.82 55.22 49.90 49.66 49.94 54.42 56.58 57.22 58.79 60.14 59.60 58.89 57.30 57.93 58.67 59.60 61.10 59.59 57.40 56.89 59.13 57.60 56.37 54.20 49.23 49.08 48.75 49.32 50.65 48.73 48.52 49.51 50.78 51.94 51.52 50.55 50.31 50.65 50.22 50.33
38.25 47.16 42.40 46.87 47.27 46.06 45.92 44.96 46.74 47.06 48.00 47.28 48.87 52.61 53.98 50.45 46.66 46.12 51.31 55.38 57.74 58.90 58.95 58.88 57.79 57.20 57.50 58.50 57.94 58.02 59.50 60.42 56.59 54.64 56.57 57.12 55.31 50.04 46.26 46.01 46.53 49.94 51.20 50.78 51.00 51.02 51.64 52.45 52.01 50.99 50.08 49.57 43.07 49.64
38.41 44.02 49.07 53.05 51.22 49.84 48.63 49.40 49.72 47.63 46.75 46.08 49.26 49.53 49.30 45.15 45.91 49.56 57.50 58.89 59.06 60.09 59.57 58.55 57.19 56.29 55.68 55.92 56.76 57.54 58.16 58.47 55.60 54.56 55.61 55.20 51.75 51.20 50.21 48.80 49.24 49.34 51.94 53.47 53.49 53.30 52.43 52.50 52.36 51.53 50.54 50.87 51.12 50.66
46.61 46.82 44.33 47.87 48.63 49.47 46.62 48.14 47.15 46.34 48.56 52.64 51.19 46.33 46.01 47.15 48.90 56.77 59.21 60.36 59.06 57.85 56.50 56.37 56.34 56.21 55.52 56.21 55.71 53.59 53.98 55.37 54.39 53.75 53.07 52.01 52.03 52.94 54.46 53.85 52.79 44.30 54.67 55.08 54.67 54.54 53.91 53.54 53.10 51.94 51.26 50.71 51.10 51.91
45.45 49.05 48.44 45.74 47.56 47.88 48.24 47.35 48.89 52.95 54.13 54.35 50.64 49.66 51.02 55.38 58.25 59.07 58.93 58.43 57.88 55.90 55.01 54.39 56.13 57.60 57.67 57.19 56.13 54.22 52.15 52.59 51.44 49.22 48.71 49.79 50.58 52.58 56.02 55.86 55.28 54.45 53.77 53.84 43.37 48.58 54.31 53.88 53.40 52.67 52.18 52.06 52.31 52.58
45.13 48.84 46.02 45.92 45.65 45.59 49.66 52.23 52.61 55.20 55.89 54.87 55.22 55.21 56.11 57.72 58.32 57.97 57.55 57.07 55.30 54.36 54.01 53.74 55.72 56.63 55.29 54.58 54.48 55.07 56.51 56.86 57.42 55.51 52.76 50.50 51.76 53.68 54.80 53.90 53.67 54.24 53.97 54.10 53.61 53.30 42.08 50.80 49.14 53.22 51.95 52.29 52.30 51.96
50.52 48.42 46.05 46.26 45.55 48.45 50.47 52.82 54.23 54.98 54.24 54.02 56.73 54.70 54.44 57.02 57.57 59.26 58.85 57.69 56.12 55.53 53.79 54.53 55.26 55.56 56.06 54.73 54.21 53.59 52.90 55.99 56.22 56.02 55.92 55.67 56.49 55.85 55.36 54.66 54.57 54.07 54.03 54.07 53.78 53.15 52.54 51.70 52.46 52.17 51.84 51.70 51.86 50.16
46.69 45.77 45.46 44.87 47.06 50.96 51.18 49.84 50.42 51.19 53.18 54.02 53.80 56.53 56.49 55.99 52.58 55.68 58.05 55.98 54.79 54.91 47.19 53.21 56.12 54.87 56.18 58.21 58.63 57.64 43.17 56.07 56.88 56.51 55.26 55.82 56.37 55.39 55.07 53.56 53.30 53.34 53.33 53.04 53.33 53.01 52.95 52.16 51.78 51.90 51.77 52.07 52.16 51.94
47.77 48.21 48.32 47.89 48.78 49.44 51.36 50.95 51.35 51.26 52.66 53.22 54.02 54.18 54.27 52.93 50.24 55.50 58.98 59.03 56.93 55.27 54.14 54.83 56.00 56.68 54.95 54.88 55.65 56.53 48.51 56.17 51.32 41.91 42.38 42.75 43.73 48.72 53.11 53.58 53.14 52.80 52.19 51.90 51.72 51.59 51.19 50.98 50.64 51.06 51.49 51.48 51.53 51.52

GFSWCAN_sfc_wetblb_105.txt.gz
Wetbulb
54.86 54.63 54.35 54.18 53.73 54.18 54.83 55.18 55.48 55.50 55.69 55.75 56.37 56.30 55.12 55.81 56.14 56.41 63.97 65.59 62.44 57.26 57.33 56.96 55.96 55.03 56.06 54.95 51.67 55.05 52.42 53.55 51.34 48.18 48.56 48.16 48.15 50.30 48.40 49.85 47.62 40.49 42.47 46.62 47.81 42.93 39.84 56.02 55.54 51.33 55.91 58.75 59.31 60.09
54.78 54.33 54.10 54.14 53.94 54.22 54.59 55.02 55.22 55.38 55.72 55.69 56.37 56.29 55.31 55.82 55.79 55.26 61.74 64.38 64.87 60.79 58.04 59.56 58.85 59.02 57.94 56.43 55.01 56.03 53.55 54.23 53.11 51.20 52.31 50.82 50.35 49.48 48.93 44.33 52.78 45.75 51.00 47.12 46.10 48.54 55.55 57.95 57.33 59.44 59.44 57.41 59.67 60.49
54.15 53.89 53.66 53.86 54.13 54.15 54.33 54.88 55.00 55.16 55.36 55.67 56.00 56.15 54.77 55.50 55.62 54.76 61.32 62.52 62.84 58.60 56.62 57.07 56.70 59.42 61.15 59.63 59.92 54.05 57.32 56.23 55.12 57.02 53.63 53.52 47.17 51.38 45.62 47.16 49.78 52.45 53.93 49.62 50.81 52.80 54.53 56.20 58.76 60.38 60.76 59.92 60.90 61.65
53.85 53.54 53.70 53.76 53.74 53.80 54.27 54.80 54.86 54.89 55.24 55.38 55.87 55.46 54.48 55.05 55.01 54.08 61.10 63.67 62.34 60.24 53.59 55.85 60.74 58.72 61.18 61.17 59.23 58.65 57.57 58.58 57.08 56.14 52.91 51.50 49.25 53.73 49.39 50.26 49.82 52.39 53.61 50.46 50.31 52.43 54.57 55.40 57.06 59.26 60.54 60.77 60.46 61.04
53.06 53.14 53.40 53.60 53.85 54.15 54.33 54.76 54.88 54.77 55.18 55.08 55.71 54.35 54.35 54.67 54.13 55.78 62.28 63.41 63.68 60.23 55.11 55.66 58.82 59.77 60.81 60.84 59.38 59.46 59.25 57.25 55.72 53.43 51.89 50.33 54.71 52.71 51.54 51.83 49.51 54.01 52.03 49.90 49.82 54.99 55.31 55.03 56.74 58.44 58.50 59.71 58.81 58.71
52.89 53.14 53.33 53.78 54.20 54.36 54.50 54.58 54.53 54.63 55.02 54.91 55.65 53.28 54.11 53.74 53.54 59.58 55.88 61.26 64.52 63.80 58.19 51.70 59.15 58.13 59.59 60.19 59.49 59.14 58.71 57.57 56.25 54.87 54.95 55.85 55.82 52.74 50.13 49.00 53.04 54.81 55.42 56.79 55.54 57.19 57.25 57.34 57.25 57.63 57.40 58.42 60.26 59.86
52.81 53.45 53.82 53.95 54.17 54.29 54.34 54.17 54.29 54.68 54.73 55.04 54.27 53.02 53.20 52.95 55.15 57.23 56.45 59.48 55.41 63.60 57.14 52.80 54.09 58.61 59.80 59.59 59.25 59.22 59.06 58.24 55.24 56.54 54.75 55.32 54.35 52.36 50.89 49.16 52.98 54.89 56.60 56.80 57.82 57.75 55.59 56.56 55.80 57.28 57.20 57.53 58.05 60.89
53.55 53.87 53.83 53.93 53.85 54.05 54.27 54.43 54.27 54.05 54.71 54.83 52.66 52.56 52.55 52.66 53.73 56.35 61.21 55.58 57.69 60.46 58.55 52.59 53.81 55.78 59.62 55.79 53.43 59.77 56.10 56.95 55.73 55.48 55.26 52.72 55.10 53.36 50.48 53.69 55.40 56.54 56.86 56.69 56.99 57.80 57.43 58.03 57.73 57.53 57.88 57.78 57.00 57.58
53.49 53.77 53.95 53.83 53.69 53.74 53.91 53.90 54.00 54.35 54.71 52.31 52.02 52.56 56.36 56.71 56.47 59.36 57.67 56.34 62.95 60.41 54.25 52.80 51.45 49.71 59.14 55.98 58.15 57.31 57.92 51.52 56.74 52.33 53.89 53.61 50.57 43.09 49.92 52.74 54.14 56.24 55.66 56.07 56.68 56.41 55.92 55.48 55.70 56.01 56.34 56.50 56.14 56.53
52.37 52.75 52.17 52.96 53.57 53.26 53.46 53.64 54.31 53.26 51.32 51.55 52.93 55.89 54.33 58.87 56.70 57.62 58.26 56.26 56.13 56.27 58.43 54.92 56.55 52.61 56.18 55.85 53.64 54.97 55.58 52.11 49.12 53.18 55.29 49.80 50.06 53.42 54.83 55.45 56.24 57.17 57.41 57.57 54.95 53.23 53.70 52.98 53.36 54.11 54.36 55.73 56.50 57.18
51.25 51.36 51.13 50.49 50.67 50.57 50.94 50.75 51.07 51.55 50.71 53.82 54.94 56.76 60.96 55.43 59.17 56.94 53.03 51.89 52.75 51.17 54.51 54.33 56.26 54.36 58.91 53.58 51.90 56.42 53.43 53.10 47.23 50.75 49.43 50.05 48.20 52.92 55.58 55.20 57.20 58.30 58.41 56.88 56.33 55.83 55.49 54.31 53.82 53.64 53.85 54.66 55.22 55.56
51.27 51.40 51.36 51.15 50.61 50.71 50.94 52.10 51.91 52.18 56.61 54.01 57.11 59.90 60.75 57.05 54.73 51.20 50.59 52.39 51.61 49.89 55.31 53.76 55.40 57.32 57.06 59.55 54.22 54.13 51.02 51.50 45.73 54.72 49.51 47.08 51.84 56.13 55.29 54.79 56.63 57.49 56.30 55.59 55.45 54.71 54.16 54.29 54.59 54.71 54.96 54.86 55.13 55.89
50.79 51.22 51.33 51.45 51.41 51.18 50.92 51.17 51.83 52.12 52.16 58.72 56.15 55.24 54.11 53.12 44.81 46.26 45.40 48.70 49.81 53.90 55.83 55.89 54.48 56.60 57.19 56.33 54.97 53.65 47.10 47.83 54.69 48.10 48.38 49.91 55.18 55.56 55.79 55.48 55.87 56.77 56.46 55.76 55.15 55.26 55.12 55.02 55.54 55.41 55.18 56.14 56.35 56.08
50.75 50.95 51.37 51.77 51.70 51.56 51.64 51.81 51.32 52.74 53.93 54.33 51.67 42.42 48.27 47.05 48.08 49.29 50.24 51.44 54.93 56.32 56.43 56.23 55.13 54.13 55.73 52.75 53.36 47.72 51.92 53.01 45.78 44.66 45.56 50.99 55.89 56.20 56.68 56.23 55.42 55.33 55.88 55.62 55.40 55.43 55.39 55.85 55.94 56.77 56.54 56.67 56.51 56.04
51.07 50.91 51.36 51.72 51.82 51.68 51.64 51.79 50.75 54.02 53.73 50.90 50.46 44.32 47.99 51.86 53.65 54.23 54.78 57.87 58.57 58.79 56.78 55.04 54.89 55.08 52.70 50.80 51.85 50.54 47.02 44.44 46.89 47.00 51.81 54.74 57.49 57.78 57.38 56.81 56.11 55.86 56.12 55.79 56.09 55.81 56.09 56.53 56.45 56.43 56.66 56.63 56.46 56.68
51.28 50.99 51.29 51.48 51.86 51.37 51.13 50.43 52.24 53.72 52.74 49.42 51.16 49.69 52.20 51.47 51.07 53.71 54.89 54.72 58.26 58.10 57.64 56.46 52.54 50.87 49.76 50.77 48.32 46.97 45.69 45.14 50.07 52.89 56.73 57.93 58.74 58.59 59.03 58.66 57.96 57.51 56.97 56.74 56.57 56.68 56.94 56.83 56.23 56.37 56.48 56.04 55.23 54.69
50.58 52.18 51.43 51.02 50.96 51.16 50.77 51.11 53.87 51.80 49.57 48.56 48.89 51.85 51.59 52.08 52.78 53.93 55.84 55.98 59.55 56.75 52.74 52.91 49.36 48.80 53.23 49.72 48.15 51.66 49.01 52.55 56.88 56.55 57.70 60.83 60.26 61.30 60.54 59.99 59.03 58.63 58.28 57.93 57.48 57.39 57.52 57.92 57.23 55.26 54.04 54.41 54.27 54.15
51.14 51.85 52.18 51.83 51.64 52.72 54.29 52.92 51.20 49.50 47.00 50.10 48.25 50.44 52.09 52.64 53.40 55.49 58.82 58.00 57.14 55.82 54.74 51.86 54.75 50.18 48.92 47.76 49.64 53.40 55.12 57.40 58.07 57.81 58.11 60.49 61.53 62.52 61.34 60.65 60.42 59.99 59.29 59.00 58.42 58.37 58.06 56.35 54.95 52.66 53.51 54.71 53.91 53.32
52.74 52.03 52.19 52.27 52.76 52.70 52.17 51.89 53.11 47.40 49.11 50.60 51.12 52.60 53.08 53.09 54.50 56.58 58.52 59.63 60.23 60.88 57.53 53.64 50.81 50.42 51.60 53.65 53.82 55.42 56.19 57.08 56.38 59.02 55.21 61.63 63.06 61.96 61.59 60.84 60.89 60.11 59.23 58.72 58.06 55.47 55.01 55.86 53.24 52.11 53.47 53.51 51.70 52.61
51.64 51.74 51.91 52.41 52.59 51.99 49.08 50.83 55.52 50.13 47.72 50.57 52.12 51.38 52.32 52.49 53.71 55.03 56.73 58.22 58.52 57.52 54.82 51.64 51.49 53.38 54.30 57.26 58.33 58.19 59.60 61.07 57.50 57.31 57.58 58.42 59.83 61.98 60.90 60.17 59.04 59.18 56.62 57.29 56.09 51.55 53.81 51.62 51.80 52.00 52.48 51.82 51.73 51.52
50.84 52.50 52.49 52.86 53.34 52.21 50.75 50.93 50.80 51.94 52.43 51.77 54.43 54.14 53.17 54.32 52.41 52.41 53.80 56.27 54.97 54.40 52.94 55.31 55.99 57.83 59.98 61.12 61.10 61.63 61.40 60.49 58.93 58.37 57.31 56.37 58.11 59.34 60.12 59.39 59.59 58.16 56.67 55.39 54.34 50.60 49.26 50.37 50.57 51.16 51.83 51.43 52.25 52.11
51.76 52.59 50.94 50.81 49.21 51.53 51.12 53.71 51.49 53.44 53.40 52.66 53.33 54.20 52.22 52.17 52.74 53.01 54.13 52.74 53.56 55.19 56.49 56.74 57.44 57.84 58.78 61.61 60.99 62.32 62.75 63.19 62.98 61.12 55.07 56.23 59.52 59.26 59.23 59.15 58.53 56.96 56.68 55.16 52.70 49.56 50.92 51.30 50.87 51.30 51.75 51.47 49.49 52.19
51.12 51.97 51.16 49.96 46.74 46.22 45.82 55.63 51.59 51.98 48.78 51.12 52.89 50.85 51.39 52.08 54.16 57.64 51.63 52.72 53.79 57.44 58.37 58.28 61.24 62.26 61.63 62.06 62.36 62.82 63.30 62.57 61.17 60.77 60.33 60.49 60.19 60.49 60.09 59.74 58.42 55.26 53.81 52.60 50.48 49.45 50.95 48.23 48.59 50.88 51.44 51.26 51.49 51.67
50.15 49.44 47.27 46.57 47.00 44.89 52.41 50.15 53.52 52.42 50.81 50.88 50.16 48.75 50.18 51.36 55.48 52.59 49.80 52.46 54.58 55.83 56.02 60.80 59.85 58.27 58.66 62.10 60.18 60.49 60.96 61.78 61.10 60.96 60.90 60.84 60.36 60.02 58.72 56.46 52.90 51.26 50.20 49.94 50.81 50.50 49.55 50.30 48.94 50.23 51.00 50.76 51.76 51.57
43.49 44.55 45.56 41.12 49.87 48.20 47.37 47.89 49.08 50.20 48.50 50.09 48.95 48.63 51.46 55.36 50.70 49.51 49.41 51.72 54.60 57.48 58.36 59.20 59.44 58.56 57.28 58.13 59.15 60.70 63.22 61.15 60.27 59.41 59.69 62.82 60.59 57.29 54.57 53.74 53.68 50.83 50.71 49.25 48.84 48.58 48.41 51.37 51.40 50.74 51.11 51.72 51.60 51.48
39.96 48.54 43.09 47.97 47.86 47.25 48.45 44.78 47.21 48.25 49.07 48.21 48.62 52.44 54.88 50.87 47.58 46.14 51.27 54.85 56.86 57.80 59.33 59.32 58.08 58.11 58.79 59.96 58.63 59.53 60.78 61.92 60.70 58.42 58.74 60.07 59.48 56.10 53.98 49.45 48.35 48.03 51.29 51.50 49.66 48.29 49.35 51.02 51.57 51.73 50.79 50.78 44.83 50.70
40.22 45.76 50.81 53.74 50.04 49.42 47.89 50.19 51.72 51.53 47.79 47.11 50.62 49.59 49.82 45.29 45.46 49.21 55.63 58.54 58.38 60.87 61.59 60.62 58.87 57.08 56.10 56.47 57.79 59.17 59.69 59.36 58.74 58.03 58.24 58.74 58.10 58.14 55.61 52.94 51.11 49.33 51.85 51.16 50.29 50.57 50.75 51.80 52.18 52.29 51.57 51.99 52.09 51.33
48.03 48.46 45.62 49.38 49.66 51.49 46.71 46.94 47.37 47.66 50.81 51.96 51.69 46.71 46.90 47.68 48.25 54.15 56.20 59.37 61.44 60.95 58.52 58.62 59.53 59.27 58.26 58.64 59.47 59.51 57.80 58.22 57.87 57.59 56.64 55.74 55.49 54.29 55.02 55.38 52.71 45.35 52.50 52.94 53.43 53.54 54.14 54.16 53.53 53.17 52.39 51.70 51.77 52.40
47.52 50.27 50.17 47.54 47.78 48.09 48.59 48.27 48.29 50.85 54.65 53.16 50.65 48.91 50.80 55.61 58.58 59.26 59.74 60.40 59.86 57.75 56.57 57.02 57.95 59.59 58.98 58.82 58.56 58.19 57.28 55.58 54.31 52.69 52.50 52.14 53.00 53.25 56.29 56.26 52.03 51.55 53.48 53.78 46.36 46.68 54.53 53.59 54.42 54.42 53.67 52.77 52.90 53.21
47.39 50.82 48.20 47.73 47.24 45.86 49.93 51.50 51.43 53.89 55.46 54.83 55.88 55.64 55.40 58.97 60.11 60.74 59.86 58.69 57.04 55.54 56.00 56.85 58.41 57.48 56.77 56.18 55.71 55.98 57.72 58.51 57.66 54.62 51.56 51.11 52.67 55.05 55.66 53.13 54.26 55.31 56.12 55.76 54.66 54.70 44.17 51.49 50.30 54.25 52.63 52.44 52.05 51.52
49.71 49.11 47.64 48.21 47.87 50.45 52.04 53.47 54.31 55.71 54.54 55.10 55.65 56.34 54.32 56.27 59.17 60.22 59.91 59.32 58.03 57.81 55.62 55.73 56.57 57.44 57.08 56.42 56.34 55.32 54.72 57.36 57.26 56.87 56.45 57.13 56.18 55.23 54.77 55.62 55.61 55.48 55.58 55.09 54.98 54.29 53.65 52.53 53.09 52.76 52.12 51.97 51.77 50.64
48.95 47.43 46.34 45.37 48.44 52.12 53.00 51.73 52.24 52.39 53.09 53.55 53.96 55.66 56.52 56.15 54.29 56.60 58.57 58.07 56.57 55.06 49.53 52.72 56.77 56.96 57.88 58.15 59.37 58.16 41.73 57.11 57.47 58.03 56.91 57.07 57.61 56.75 55.46 55.65 56.42 55.60 54.98 54.53 54.33 53.96 53.43 52.48 52.12 51.81 51.88 52.22 52.45 52.42
47.14 47.27 47.12 46.71 48.55 50.09 51.42 50.90 50.96 51.50 52.12 52.72 52.40 54.58 54.13 52.50 51.19 55.41 58.58 59.96 57.41 55.44 54.99 55.52 56.08 57.27 57.34 57.17 57.32 58.25 51.74 57.80 52.28 44.40 44.79 43.64 42.17 47.60 55.22 56.15 54.88 54.57 54.11 53.70 53.51 53.35 53.21 53.26 52.44 52.46 52.39 52.47 52.38 52.67

GFSWCAN_sfc_wetblb_108.txt.gz
Wetbulb
56.22 56.14 55.75 55.33 54.89 54.70 54.16 54.25 55.07 55.41 55.60 55.86 56.42 56.74 56.80 55.82 56.14 55.61 59.58 65.46 61.78 58.82 58.72 57.04 55.98 54.62 55.32 54.23 51.59 54.87 53.21 54.36 51.77 48.63 47.53 48.38 48.28 49.18 46.63 45.61 41.55 44.35 43.56 43.69 46.28 42.05 41.48 54.29 55.60 49.52 55.40 57.68 57.34 59.38
55.98 55.78 55.41 55.09 54.70 54.54 54.78 54.78 54.68 55.11 55.19 55.50 56.13 56.52 57.16 55.52 55.86 55.40 57.39 65.16 64.41 60.03 58.79 59.79 59.02 58.36 56.94 56.09 54.49 55.07 53.88 53.99 54.30 50.84 51.59 50.71 48.07 49.70 48.19 43.87 52.94 46.20 48.49 44.70 46.70 47.57 53.62 56.59 55.77 58.67 58.47 58.22 59.13 59.87
55.68 55.46 55.11 54.49 54.22 54.14 54.50 54.36 54.54 55.21 55.31 55.50 55.93 56.30 56.94 55.14 55.58 54.79 56.06 61.70 61.71 58.13 57.10 56.74 55.89 58.86 60.12 59.26 59.96 53.49 56.62 57.83 55.37 56.53 52.56 51.76 47.91 51.35 45.73 46.76 48.82 50.16 53.96 49.97 50.23 50.93 50.81 56.45 58.36 59.77 60.30 59.80 60.79 60.44
55.20 55.08 54.51 53.94 53.99 53.95 54.20 54.38 54.83 55.31 55.17 55.23 55.76 56.07 56.40 55.02 55.05 54.01 56.18 62.02 61.71 60.15 55.02 55.06 61.05 58.63 60.49 61.50 59.55 58.81 57.31 57.99 56.72 56.12 51.93 50.56 49.04 53.97 49.32 50.36 49.69 52.64 54.29 50.38 51.23 53.25 54.49 55.52 57.81 59.11 60.06 60.79 59.80 59.31
54.40 54.01 53.45 53.66 53.80 54.03 54.38 54.89 54.95 55.25 55.17 55.19 55.54 55.99 55.67 54.64 54.04 54.73 57.59 60.90 63.18 59.55 55.12 55.69 59.47 60.37 59.88 61.28 59.37 59.97 59.23 57.54 55.65 53.30 51.98 50.35 53.77 53.66 52.83 50.74 49.18 53.86 53.22 50.68 49.86 54.65 56.11 55.43 57.09 58.85 59.59 59.05 59.64 58.38
52.93 53.10 53.40 53.54 53.90 54.41 54.79 55.03 54.89 54.72 54.93 55.15 55.27 56.01 54.42 53.84 53.34 56.01 54.72 60.35 62.80 62.58 57.43 53.60 59.43 58.33 59.77 60.68 59.66 58.98 59.03 57.00 55.79 54.28 53.30 55.18 57.67 54.24 48.65 48.36 53.43 56.57 57.27 57.95 54.06 57.17 56.14 57.65 57.49 58.24 57.74 60.29 60.08 58.68
52.53 53.00 53.74 54.17 54.47 54.65 54.51 54.77 54.56 54.58 54.91 54.99 55.19 55.11 53.20 52.82 53.22 54.88 54.89 58.72 53.92 63.00 57.72 52.68 53.70 58.80 59.70 59.40 58.94 58.68 59.96 57.58 54.97 54.05 54.42 53.27 54.59 53.28 49.07 49.86 54.36 56.22 56.47 56.57 58.34 57.59 55.47 56.04 54.95 57.42 57.55 58.47 60.02 59.72
53.13 53.76 54.13 54.36 54.50 54.28 54.28 54.69 54.79 54.71 54.72 55.01 55.23 52.97 52.55 52.42 52.30 54.05 59.20 55.84 55.96 58.66 56.89 51.34 52.98 56.27 59.86 55.75 54.53 59.66 56.20 56.80 55.79 54.19 55.45 52.46 55.27 54.42 50.71 53.18 55.57 56.44 56.55 56.26 56.43 57.15 56.68 57.18 58.30 57.58 58.10 57.71 57.32 57.67
52.39 53.82 54.30 54.34 54.40 54.20 53.97 54.26 54.28 54.24 54.74 55.07 52.94 52.43 53.83 54.72 55.01 56.17 58.61 57.60 61.67 59.35 54.06 53.11 50.30 50.12 59.17 56.24 57.69 57.45 57.64 51.33 57.05 53.20 52.35 53.78 51.25 44.27 50.72 52.53 54.41 56.51 55.35 55.37 56.68 56.51 56.43 56.17 56.00 56.56 56.51 56.85 55.96 57.36
51.80 52.24 52.73 51.98 52.65 53.70 53.79 53.87 53.99 54.64 54.60 51.92 51.64 53.02 52.54 56.39 56.75 58.60 57.63 54.87 54.76 54.96 58.38 54.75 55.62 53.01 57.26 55.46 54.23 53.94 55.77 51.83 49.56 53.03 55.87 51.55 50.58 55.65 55.83 55.91 57.05 56.85 57.19 56.91 54.69 54.00 54.15 53.62 54.19 54.72 55.02 56.04 56.47 56.71
51.86 51.84 51.57 51.82 50.79 50.52 50.89 52.59 52.76 52.22 50.24 52.49 53.60 55.65 60.75 56.24 58.86 55.77 51.59 50.26 51.58 49.42 52.47 52.76 54.50 55.35 58.87 53.66 52.70 55.80 52.08 53.07 47.14 49.89 50.59 48.64 49.26 55.06 56.84 56.12 57.42 58.16 58.45 57.70 58.00 57.25 56.40 55.47 54.32 53.94 53.90 54.63 55.36 56.09
51.66 51.84 51.69 51.73 51.52 51.15 51.30 51.65 52.73 51.95 55.63 53.27 54.32 58.91 59.91 55.47 53.39 50.10 49.46 51.37 50.66 48.24 53.70 52.13 53.09 56.31 57.14 58.76 54.80 54.82 50.24 51.54 45.35 54.76 50.27 47.23 52.63 58.31 56.52 55.20 56.37 58.02 58.02 57.23 56.86 55.77 55.77 54.95 55.49 55.20 55.26 54.83 55.36 56.37
51.22 51.34 51.36 51.51 51.82 51.80 51.85 51.59 52.34 52.36 52.40 58.48 56.41 54.63 53.75 52.61 42.79 45.74 44.59 47.71 48.55 53.11 54.55 55.11 52.59 57.28 57.91 57.07 53.46 53.05 48.32 47.43 54.66 49.36 47.12 50.34 57.47 56.96 57.58 55.78 56.15 57.53 56.71 56.09 55.55 55.68 55.23 55.02 55.53 55.64 55.60 56.37 56.50 56.51
50.79 50.88 51.25 51.40 51.84 51.89 51.92 51.91 52.09 52.36 52.81 54.20 51.57 41.95 48.06 46.16 48.69 49.89 49.81 51.40 54.21 54.96 55.60 55.68 54.82 54.66 55.93 52.55 53.03 48.14 50.96 52.68 46.51 44.59 46.71 52.92 58.51 57.83 57.72 56.11 55.58 55.11 55.74 55.16 55.34 55.27 54.96 55.29 55.57 56.62 56.32 56.69 56.46 56.09
51.39 51.24 51.19 51.41 51.94 51.91 51.85 51.88 51.80 53.57 54.90 51.43 51.87 43.69 47.18 51.87 53.64 53.25 53.92 54.28 56.02 56.82 56.52 55.17 55.27 54.74 53.10 51.17 51.97 50.22 48.09 45.10 47.17 47.20 51.93 56.50 59.06 59.43 59.00 57.46 56.20 56.14 55.99 55.79 56.07 55.46 55.36 55.66 56.02 56.20 57.35 57.12 56.81 56.90
51.47 51.11 51.56 51.60 52.06 51.80 51.09 51.55 51.74 53.46 53.47 51.44 51.46 49.21 51.78 50.98 51.41 52.92 53.89 53.94 57.41 57.37 57.71 56.09 53.13 50.96 50.30 50.74 48.81 47.33 45.95 45.24 49.82 53.15 56.52 59.38 61.10 61.22 61.33 60.34 59.61 58.57 58.88 57.43 57.16 57.61 57.50 57.00 56.92 57.03 57.16 56.77 56.77 56.13
50.79 51.52 51.74 51.32 51.49 51.63 51.44 50.49 53.17 50.69 49.14 48.66 48.86 52.62 52.45 52.53 52.23 53.56 54.73 55.07 57.82 55.77 52.74 53.03 49.29 48.55 52.92 49.48 47.89 51.31 48.86 52.00 55.17 56.03 58.89 62.36 62.55 63.27 62.92 62.02 60.82 60.51 60.47 59.93 59.97 60.22 59.32 59.20 58.06 57.47 56.53 56.32 56.13 56.64
51.32 51.60 52.04 51.69 51.81 52.68 53.43 50.99 51.09 48.76 46.63 49.47 47.88 50.81 52.56 52.82 52.05 52.61 56.71 54.47 56.91 55.98 56.14 52.81 55.12 49.97 48.23 47.61 49.37 53.92 55.57 56.86 60.06 59.67 60.81 64.06 65.65 65.15 63.03 63.57 63.24 62.72 62.11 61.34 60.83 60.60 59.58 58.67 57.65 56.04 57.37 56.36 55.73 54.41
52.73 52.45 51.90 52.48 52.42 51.62 49.62 49.96 52.15 46.06 48.69 50.45 51.77 53.00 52.52 52.82 55.59 56.13 55.26 54.05 58.20 58.20 53.87 55.32 50.73 50.60 51.79 54.15 54.54 55.86 56.94 57.02 56.97 58.54 60.93 63.81 64.55 64.59 64.57 63.81 64.05 63.45 62.51 62.15 61.46 58.20 58.30 58.61 56.73 55.67 54.39 53.89 53.01 52.98
51.46 51.65 52.26 52.56 52.43 51.57 48.61 49.48 53.81 48.89 47.67 50.33 52.76 51.38 51.87 52.14 54.26 53.86 54.28 55.76 56.11 53.36 52.44 52.62 51.29 54.61 55.28 55.89 59.18 58.68 58.86 59.80 58.82 57.55 57.92 59.04 56.60 59.80 64.36 62.64 60.80 62.12 61.00 61.59 59.94 54.55 57.27 56.74 56.09 53.45 52.81 53.10 52.46 51.78
50.54 52.61 52.04 52.50 52.45 51.45 50.52 49.62 50.45 50.72 51.00 50.03 52.54 52.12 51.04 53.02 51.74 52.02 51.84 54.88 54.24 54.54 53.57 55.76 56.14 57.23 58.66 61.72 61.49 59.26 56.25 56.53 56.42 59.05 58.73 57.62 58.71 58.27 58.86 61.53 62.00 60.89 59.56 59.12 57.87 56.43 52.94 55.36 51.98 51.61 51.43 52.07 52.39 52.95
52.39 52.91 51.49 51.64 49.47 50.10 49.68 51.86 49.48 53.53 51.41 52.11 52.25 51.61 51.22 50.85 51.78 52.17 53.21 51.54 52.26 53.47 56.14 57.11 58.15 58.08 59.80 61.67 60.62 61.45 59.67 63.45 64.02 59.20 53.86 55.82 58.03 59.14 57.25 57.27 55.98 55.80 55.78 56.04 55.32 53.64 51.99 50.45 50.32 50.58 51.92 50.51 50.18 52.21
51.07 51.74 50.49 49.62 46.71 44.80 43.57 52.46 50.19 51.00 47.84 49.96 52.38 50.25 50.26 52.00 53.96 55.04 51.59 52.72 52.79 55.66 57.00 57.69 62.05 65.12 62.15 62.62 61.97 59.13 58.64 61.16 59.91 59.89 60.48 60.30 59.42 59.69 60.93 60.47 58.32 57.55 56.05 52.21 51.16 49.86 49.19 48.04 48.35 48.99 50.65 51.53 51.37 51.20
50.46 48.62 46.28 45.48 45.16 43.34 49.26 49.23 52.27 51.34 51.03 49.89 49.31 47.79 49.50 51.68 55.04 51.81 49.68 52.98 54.85 56.19 56.84 62.86 58.72 58.10 60.08 63.33 58.19 58.04 60.51 59.30 60.37 59.93 60.67 59.90 57.10 59.10 60.43 59.46 59.05 59.34 56.54 53.34 52.29 49.94 49.96 49.05 47.47 49.57 50.97 50.95 50.63 50.45
42.97 43.82 45.31 39.52 47.90 46.66 46.98 47.75 49.76 49.86 47.97 49.78 49.44 49.85 51.09 54.83 50.16 49.36 49.75 51.87 55.04 55.89 57.11 58.46 58.27 57.76 56.27 56.10 57.93 61.23 59.89 55.86 54.55 59.64 61.40 60.53 61.13 59.18 57.93 57.40 56.35 55.81 54.57 52.77 49.76 49.87 50.11 49.68 49.93 50.40 50.98 50.16 50.19 50.63
41.02 46.18 43.71 47.35 48.51 48.09 47.96 45.31 46.83 48.04 49.00 47.51 49.03 52.41 52.76 49.85 48.16 47.04 52.49 55.25 53.11 55.35 54.39 57.58 57.76 57.75 58.74 55.47 54.37 58.09 61.46 62.06 61.03 59.26 59.58 59.33 59.56 57.73 56.98 53.37 50.74 50.71 54.31 52.36 50.29 50.25 49.64 49.15 49.43 50.78 49.99 49.94 45.76 50.49
40.32 45.28 50.57 53.34 51.94 50.42 48.89 51.09 51.70 48.96 48.59 48.04 51.32 50.09 49.57 45.61 46.21 51.58 56.28 57.25 56.41 58.72 58.75 60.15 59.18 57.14 56.34 56.84 58.07 59.70 60.17 59.91 59.34 58.90 59.27 58.85 58.89 59.24 56.39 54.82 52.02 51.54 52.44 51.65 51.41 50.84 49.26 49.09 51.02 51.63 50.82 51.51 51.96 51.94
47.84 49.25 46.16 49.49 49.48 51.02 47.20 47.83 47.40 47.65 49.38 52.81 51.31 48.53 47.32 47.87 48.30 53.43 55.34 58.06 58.57 60.95 59.52 59.39 58.98 58.51 59.11 59.29 59.53 58.83 58.60 58.92 58.74 58.55 57.97 57.31 57.58 57.41 57.17 56.92 56.50 45.97 54.02 54.04 52.37 50.76 51.39 52.36 52.21 52.66 52.25 51.33 51.59 52.47
48.09 50.45 50.19 47.08 48.17 48.96 49.56 48.03 47.69 52.31 53.97 53.13 51.10 49.92 51.01 52.71 53.68 55.12 56.83 59.47 60.82 58.36 57.10 56.65 57.69 59.05 58.72 59.24 58.60 58.07 58.57 57.78 55.63 53.80 52.94 52.69 53.77 54.53 56.84 55.81 53.92 53.51 55.05 54.23 44.77 49.50 52.90 52.71 52.05 54.03 53.87 53.45 52.89 53.37
47.84 51.16 48.84 48.34 47.74 47.07 50.51 51.74 51.07 54.78 54.53 54.94 55.71 55.30 53.93 54.03 53.96 58.75 59.47 59.00 57.54 56.00 55.91 55.25 57.16 57.02 56.48 56.30 55.80 56.04 57.72 57.99 57.22 55.23 53.21 52.46 53.89 56.08 56.13 54.36 53.60 53.09 53.66 54.57 53.44 52.77 44.95 48.53 51.24 53.36 52.68 52.81 53.27 52.11
51.57 51.32 48.63 48.72 48.58 51.12 52.98 54.95 55.72 55.89 55.24 55.56 55.94 53.92 52.74 53.89 53.99 59.09 59.66 59.04 57.65 56.93 55.25 54.88 56.12 56.70 56.37 55.73 55.75 55.50 54.63 57.18 57.63 57.15 56.71 56.59 56.92 56.83 57.24 56.85 56.36 55.77 55.16 54.90 54.98 54.10 54.14 52.46 53.48 53.24 53.01 52.83 53.20 50.74
49.97 47.39 47.47 46.65 48.39 52.46 53.78 52.22 52.20 51.95 52.63 53.36 53.00 56.08 54.98 52.86 53.28 56.53 57.45 57.64 56.68 55.32 51.02 53.18 55.46 56.45 57.29 57.33 58.12 57.84 46.46 57.17 57.40 57.66 57.42 56.94 57.07 57.39 57.62 57.53 57.26 56.60 55.94 55.54 55.35 54.83 53.34 53.02 52.29 52.33 52.39 52.79 52.36 52.39
48.51 47.96 47.82 47.89 49.89 50.51 52.41 51.22 50.71 50.41 52.42 51.91 52.50 53.69 53.84 52.82 50.74 54.23 58.57 59.32 56.91 55.37 54.90 55.14 55.43 56.13 57.18 56.82 56.96 57.00 54.38 58.09 53.32 44.71 46.01 45.00 43.06 46.98 54.05 56.54 55.90 56.03 55.68 54.69 54.14 53.93 53.30 53.41 52.68 52.23 52.36 52.69 52.59 52.85

GFSWCAN_sfc_wetblb_111.txt.gz
Wetbulb
55.62 55.96 56.56 56.56 56.20 55.74 55.21 54.91 54.97 54.24 54.40 55.17 55.47 55.92 56.64 57.42 55.70 53.93 53.55 57.19 59.58 56.50 57.09 59.31 57.35 53.65 53.77 52.52 48.66 51.53 50.71 51.87 50.17 45.15 43.81 44.95 44.62 45.55 41.80 43.78 42.87 41.76 40.93 40.05 41.16 39.28 37.65 52.36 53.14 47.99 50.34 53.46 56.80 57.29
55.25 55.68 56.18 56.42 56.02 55.41 54.91 54.58 54.79 53.97 54.05 55.05 55.67 55.83 56.72 56.89 55.57 55.26 52.81 60.09 60.12 58.36 57.36 60.42 58.66 57.93 58.30 55.45 51.65 51.92 50.51 51.58 51.33 46.94 46.87 47.44 45.26 43.69 43.63 40.94 47.03 42.16 44.81 42.60 44.49 43.82 50.34 53.35 52.67 53.34 54.28 56.47 57.00 55.33
55.02 55.34 55.74 55.96 55.30 54.61 54.28 54.42 53.83 54.14 54.83 55.23 55.70 55.69 56.44 56.79 55.45 54.43 52.53 55.77 58.95 57.22 55.34 55.44 55.21 57.22 57.13 57.69 57.12 50.80 53.22 55.28 54.06 54.80 49.64 47.29 44.67 47.08 40.72 42.46 46.44 47.51 50.18 46.04 46.48 48.63 51.46 52.51 56.44 56.35 58.11 57.05 57.00 56.23
54.58 55.14 55.46 55.14 54.49 54.22 54.12 54.30 54.81 55.03 55.29 55.39 55.78 55.61 56.15 56.59 54.98 53.98 52.50 55.93 56.52 58.10 53.37 54.63 58.82 56.18 61.33 59.43 58.89 57.52 54.66 55.81 53.93 52.98 48.77 46.65 44.44 50.75 45.32 46.51 45.65 49.19 48.99 47.73 47.11 48.52 50.63 53.57 56.31 57.82 58.66 57.99 56.76 56.24
54.38 54.78 54.46 53.90 53.72 53.85 53.91 54.77 55.03 55.15 55.31 55.29 55.44 55.42 55.93 56.31 54.10 53.05 53.18 55.66 58.11 56.25 52.51 54.64 59.56 58.90 57.95 59.31 59.89 58.81 56.90 54.98 52.77 50.54 48.67 46.77 51.05 50.32 49.49 47.15 44.98 51.45 49.57 47.16 45.12 49.76 50.81 52.07 55.65 59.04 57.50 57.16 56.58 55.40
52.92 53.04 53.36 53.28 53.60 54.13 54.49 54.71 54.97 54.93 54.89 55.01 55.07 55.48 55.84 55.15 53.19 52.94 53.98 58.14 58.53 59.71 55.62 51.55 58.61 57.44 57.73 59.32 58.53 58.32 56.94 55.34 53.81 50.90 49.96 53.10 54.61 50.82 44.52 45.27 49.99 53.73 54.20 54.01 51.35 54.70 53.09 54.61 55.85 59.01 57.69 57.76 57.42 55.65
52.27 52.88 53.51 53.96 54.41 54.73 54.69 54.53 54.67 54.89 54.69 54.97 55.37 55.51 55.70 53.25 50.76 52.07 53.94 57.04 52.82 55.74 56.78 52.15 52.33 57.23 58.91 58.49 57.22 56.62 57.89 55.97 52.92 50.51 50.25 51.20 50.46 49.83 44.94 42.26 50.73 54.10 53.69 54.94 56.43 55.55 53.30 54.86 52.31 56.15 58.70 58.79 57.82 56.89
52.20 53.37 54.17 54.45 54.57 54.73 54.49 54.31 54.51 54.93 54.89 54.91 55.05 55.45 53.72 52.26 51.20 50.87 54.16 53.77 54.18 58.06 56.34 48.99 50.72 54.28 58.19 53.98 52.59 57.21 54.17 55.19 53.86 51.12 52.70 49.99 51.94 51.49 45.48 49.35 51.83 54.71 54.39 53.83 55.28 55.10 54.33 55.16 56.13 55.47 55.56 57.94 56.65 55.21
51.99 52.03 53.28 53.14 52.87 54.20 54.49 54.08 54.48 54.42 54.54 55.05 55.15 53.04 51.39 51.21 53.28 55.43 59.57 56.24 59.39 57.44 51.89 49.65 48.16 48.54 58.70 55.08 55.70 55.62 56.28 49.94 54.94 50.40 50.50 51.43 46.91 38.49 47.77 49.99 51.02 53.90 52.80 52.68 54.46 54.48 55.74 54.35 54.56 54.42 55.06 55.81 55.86 55.11
52.44 52.40 52.12 52.23 51.58 51.53 53.27 53.94 53.87 54.06 54.91 53.40 50.16 50.44 50.84 56.07 58.25 59.29 57.80 55.42 55.12 54.70 56.69 52.83 55.35 50.18 55.71 54.92 53.26 53.24 53.86 50.60 46.02 50.96 53.17 49.28 47.80 51.87 53.60 53.00 54.01 55.47 54.92 54.78 51.86 50.85 51.20 50.90 52.45 52.78 52.22 53.12 54.28 57.04
51.69 51.88 52.15 52.18 51.99 51.11 51.07 51.76 52.39 52.59 51.20 50.58 50.60 53.20 60.11 57.12 58.90 56.65 51.88 49.38 50.40 48.11 49.80 50.84 53.28 51.04 57.25 52.19 51.18 54.69 50.36 50.58 45.27 47.81 48.41 46.77 46.11 51.58 55.11 54.07 54.78 55.99 56.10 54.98 55.79 55.61 53.83 52.43 51.54 50.97 51.61 52.90 52.89 54.34
51.56 51.50 51.69 51.78 51.81 51.88 51.33 51.55 52.43 51.48 53.01 50.11 50.04 53.48 58.92 55.36 52.75 49.21 48.23 50.45 49.38 45.50 51.56 47.66 48.18 51.16 54.84 57.12 54.03 53.79 49.95 49.93 44.42 53.21 48.74 45.17 50.91 54.47 54.19 54.78 54.87 55.86 56.51 56.10 57.34 55.71 55.13 54.95 53.83 52.81 52.33 51.62 51.79 53.77
51.11 51.09 51.32 51.35 51.62 51.99 52.01 51.68 51.55 51.61 51.59 53.95 54.15 53.26 52.85 51.10 40.74 44.59 42.70 46.40 46.25 51.46 51.53 52.40 50.08 53.66 56.22 57.02 52.70 51.86 47.81 46.06 52.48 47.42 45.96 48.45 53.70 55.14 54.43 53.88 54.40 56.71 57.10 56.78 55.52 55.32 54.58 54.12 54.72 54.24 53.33 52.96 53.79 53.55
51.15 50.92 50.88 51.13 51.43 52.00 51.94 51.83 52.12 51.99 50.38 51.61 50.00 38.67 46.92 45.78 46.97 47.81 48.21 48.57 52.68 52.34 53.27 53.85 51.90 54.74 55.84 52.63 52.54 49.09 50.44 50.47 46.03 43.47 44.73 51.00 53.32 54.92 54.59 54.59 54.55 54.37 54.91 54.26 54.25 54.30 53.39 53.97 53.01 53.96 54.01 54.26 53.63 52.88
51.46 51.33 51.37 51.19 52.04 51.88 51.83 51.88 52.18 52.02 51.54 49.97 50.39 41.03 46.89 50.76 52.37 53.04 53.23 52.40 54.42 55.44 54.63 53.70 53.79 53.51 51.50 51.03 51.21 50.68 48.12 45.23 46.13 45.02 50.57 54.11 54.99 54.75 54.02 54.16 54.14 54.06 53.85 53.42 53.81 53.10 53.41 53.62 53.51 53.75 54.12 54.10 53.57 53.18
51.40 51.08 50.91 51.71 51.87 51.69 51.17 51.67 51.21 52.74 52.04 50.28 50.18 48.28 51.43 50.40 50.30 51.75 53.07 53.17 56.36 56.52 55.99 54.86 52.33 49.26 49.11 50.42 48.25 46.87 45.34 44.61 47.66 52.66 54.83 55.80 55.18 55.69 55.86 55.70 55.37 55.05 54.59 54.49 54.73 54.26 53.88 53.31 53.48 53.72 55.18 55.32 53.44 54.04
50.55 50.76 51.96 51.99 52.19 51.81 51.45 50.89 52.15 49.57 48.89 48.36 47.40 51.40 50.72 50.05 50.82 52.35 53.85 53.15 55.74 53.35 49.25 50.86 49.32 48.72 51.76 48.37 47.30 49.04 46.77 49.75 53.58 55.00 56.41 56.41 56.90 57.35 58.10 57.98 57.57 56.91 56.17 55.23 55.41 55.31 54.78 55.15 55.26 55.30 52.85 52.68 53.11 53.34
50.07 53.03 51.98 51.65 51.73 52.53 51.82 50.61 50.09 48.02 44.64 47.47 46.38 48.99 51.36 53.05 52.11 52.20 53.77 56.28 55.68 54.15 52.21 47.91 54.78 50.23 48.00 46.57 48.02 50.53 53.66 56.63 58.39 57.82 57.77 59.57 60.86 61.06 60.16 59.13 59.44 58.78 58.11 57.88 56.97 56.63 56.12 55.24 54.64 54.04 53.29 52.98 52.72 52.35
51.72 52.27 52.27 52.44 52.13 51.30 48.95 48.67 50.12 44.80 46.43 49.37 50.90 51.51 51.62 52.04 54.10 54.37 56.90 58.36 57.15 56.94 54.72 52.51 49.54 48.93 50.44 53.68 53.79 55.65 55.52 56.83 57.23 59.20 60.83 62.35 62.78 62.22 61.68 61.65 61.81 60.75 59.86 59.54 58.35 57.25 56.62 56.07 55.52 54.85 53.62 52.32 50.79 51.18
51.57 51.69 52.00 52.26 52.34 50.11 47.86 48.36 52.04 47.46 45.84 50.19 51.27 50.17 50.86 51.20 52.52 52.41 54.73 54.69 53.33 53.24 50.87 51.32 50.36 52.84 54.58 54.64 57.68 58.04 58.56 57.31 55.75 54.28 55.89 56.47 59.05 61.76 61.20 60.91 60.92 60.86 61.08 60.35 60.21 54.64 56.63 54.98 55.09 54.04 52.90 51.49 50.85 49.77
50.52 52.48 51.80 52.11 52.31 50.16 48.98 48.84 48.77 49.77 50.40 49.02 51.65 51.38 49.67 51.69 50.31 50.03 51.00 54.09 52.54 50.93 48.83 55.14 54.99 54.08 55.80 58.27 61.93 58.90 58.73 57.12 53.64 53.42 52.03 51.66 54.67 57.09 56.24 60.30 61.73 60.65 57.44 57.67 56.52 54.40 53.05 54.20 51.44 49.89 49.28 49.30 50.22 50.53
51.41 52.74 50.94 50.97 49.00 49.98 48.69 51.39 48.95 51.30 49.66 50.40 50.38 51.49 49.94 49.58 49.79 51.06 53.39 50.66 51.54 53.55 54.17 54.22 55.11 54.27 53.62 54.38 60.11 61.89 59.93 56.58 54.46 53.34 51.35 52.55 53.63 55.99 57.28 59.19 58.68 57.90 58.04 57.05 56.66 54.22 48.85 49.18 50.03 49.90 49.52 49.28 48.96 50.00
50.74 51.50 50.14 49.43 45.90 44.16 43.08 51.77 47.82 49.50 46.66 49.47 52.03 48.64 48.89 50.03 52.40 57.00 51.81 53.48 53.61 55.10 56.78 57.95 57.87 57.53 57.27 61.61 62.10 60.45 59.79 58.33 56.90 57.04 57.06 58.06 59.48 58.48 56.15 56.00 57.58 57.24 56.49 55.90 53.02 49.93 48.74 47.25 48.28 49.97 49.83 49.26 48.82 48.61
50.34 48.07 46.37 45.24 44.88 41.52 48.45 47.23 50.40 49.35 50.50 48.56 47.92 46.76 49.52 51.86 54.79 50.83 48.65 51.30 54.07 57.02 56.72 58.85 61.84 59.95 60.41 61.97 60.49 59.20 59.53 58.86 57.53 57.71 57.50 57.45 57.99 58.58 55.64 55.51 56.44 56.87 55.66 53.92 51.19 49.26 49.24 49.34 47.46 49.08 48.96 48.27 48.63 48.93
41.40 42.39 43.74 37.10 46.05 44.00 45.05 46.78 47.89 48.57 46.49 48.76 47.77 48.09 51.43 54.19 50.51 49.95 49.67 53.87 54.92 53.97 54.99 54.76 58.03 57.41 56.21 57.04 58.07 59.50 59.47 57.54 54.73 53.75 53.97 56.78 56.64 58.11 57.00 56.35 56.42 56.26 55.18 52.45 50.47 49.36 49.39 49.29 48.52 48.23 48.58 48.80 48.64 48.62
37.01 44.55 39.59 43.92 45.80 44.97 46.90 45.45 46.83 47.51 48.25 46.74 47.73 49.38 51.44 49.50 45.76 46.07 52.79 54.28 54.11 53.04 54.59 55.26 54.60 53.35 54.67 57.39 56.46 56.68 59.25 59.26 55.48 54.81 54.91 55.56 55.96 56.71 55.03 52.40 51.93 52.60 54.67 53.63 51.67 49.92 49.23 49.03 48.81 48.87 48.88 48.60 45.25 49.30
39.95 42.26 47.51 49.79 50.54 50.49 48.67 50.12 48.87 48.77 47.02 46.17 48.90 49.29 49.19 45.36 45.84 51.86 56.65 56.09 54.52 53.60 54.77 55.59 55.42 54.49 55.84 57.29 57.76 58.94 59.44 59.51 59.02 58.20 58.12 57.98 57.79 58.47 57.31 54.53 52.52 52.56 54.05 53.41 52.22 51.00 50.22 49.64 49.18 49.54 49.70 50.11 49.84 49.58
45.57 48.35 45.79 49.25 49.23 50.56 47.46 47.76 47.60 47.61 49.08 51.83 51.61 48.15 46.94 47.18 47.64 53.05 56.24 56.41 57.69 58.11 57.61 57.39 56.05 59.03 58.20 58.25 58.53 57.96 58.06 58.16 58.64 57.74 57.11 57.01 56.99 56.60 56.69 55.48 55.91 46.47 53.36 53.71 52.90 53.04 52.02 50.26 49.69 50.45 50.95 49.56 49.75 51.12
47.67 50.12 49.47 47.27 48.01 48.49 48.73 48.00 48.46 49.96 50.74 51.32 49.93 49.44 51.07 53.02 52.42 53.37 55.05 57.07 58.95 58.71 57.63 56.65 56.93 58.35 58.10 58.18 58.32 58.23 57.75 56.97 55.65 53.93 53.26 52.27 52.99 53.81 56.20 53.38 52.66 53.52 53.50 52.68 45.26 49.67 51.55 50.92 51.19 51.84 51.43 51.68 52.53 51.53
46.46 50.15 47.52 47.62 46.27 45.75 49.43 51.34 51.42 53.17 54.17 54.98 55.68 53.61 52.71 52.81 54.39 56.44 56.40 56.39 56.89 57.01 56.78 55.57 55.81 56.69 55.67 55.93 55.26 55.74 56.98 57.27 56.90 54.89 53.12 52.33 53.51 55.88 55.77 54.24 53.51 53.98 54.57 53.82 52.36 51.60 43.69 47.68 48.93 51.22 51.16 51.35 51.27 50.82
49.06 49.51 47.71 47.84 47.49 50.20 52.55 53.88 54.69 54.88 55.26 53.40 54.32 52.52 52.43 53.95 55.84 57.78 56.66 57.44 59.44 58.48 56.36 54.52 55.35 56.16 55.71 55.21 55.03 53.24 54.04 56.81 57.76 57.17 56.58 56.26 56.56 56.66 56.05 55.45 54.37 54.14 53.98 53.35 52.34 51.55 51.25 50.00 50.47 50.63 50.93 50.12 51.07 49.81
49.10 47.94 47.58 46.24 47.70 52.13 53.77 52.54 52.14 51.72 52.57 53.37 53.24 53.85 53.19 51.06 49.49 53.40 57.43 59.74 57.17 56.14 52.58 53.55 54.14 54.50 56.04 56.59 57.03 56.35 48.24 57.53 57.56 57.30 57.67 55.35 57.05 57.47 57.21 56.76 55.94 54.91 54.06 53.53 53.60 53.41 52.51 51.86 51.05 51.22 50.94 51.90 51.23 50.63
48.04 48.32 48.35 47.85 48.06 48.80 51.13 51.18 50.11 50.30 52.37 52.92 52.72 53.89 53.84 52.98 51.55 55.77 59.98 60.98 57.65 55.11 54.71 55.22 55.23 56.63 58.31 58.76 57.62 57.07 51.77 58.42 53.84 46.56 46.46 46.56 46.48 48.99 54.20 56.97 56.65 56.13 55.76 54.43 54.33 54.11 53.94 53.34 53.02 52.55 52.41 51.87 52.36 52.09

GFSWCAN_sfc_wetblb_114.txt.gz
Wetbulb
55.11 55.19 55.33 55.49 55.82 56.92 56.35 55.79 55.13 54.70 54.52 54.42 54.69 55.71 55.27 56.45 56.70 52.21 49.23 51.50 52.25 51.73 52.91 55.34 55.76 48.90 48.90 46.93 43.11 45.47 45.37 45.66 44.18 40.01 38.74 40.16 39.51 41.07 39.88 41.85 41.21 37.71 36.00 35.62 40.59 38.58 36.05 51.21 51.40 46.95 48.79 51.09 55.77 56.17
54.93 54.95 55.27 55.67 55.87 56.39 56.03 55.43 54.84 54.60 54.48 54.09 54.41 55.84 56.22 56.26 56.36 54.11 47.59 54.06 53.87 53.15 53.27 56.72 56.65 56.25 52.82 51.18 46.79 44.96 44.69 45.57 45.20 42.23 41.40 41.59 41.67 39.29 37.74 35.87 43.75 37.94 41.11 39.32 41.50 41.72 47.22 50.12 49.87 52.50 52.77 54.85 54.03 55.13
54.65 54.69 55.03 55.41 55.69 55.88 55.49 54.68 54.60 54.42 54.82 55.07 55.00 55.73 56.26 55.94 56.20 53.48 46.49 49.20 52.74 53.18 52.32 50.44 50.91 54.90 52.40 52.20 52.24 46.12 46.19 48.42 46.77 47.75 43.68 40.93 39.05 41.03 36.43 37.75 42.30 44.80 47.37 42.51 43.64 46.23 48.05 51.27 52.63 56.74 55.64 55.15 55.15 54.30
54.25 54.59 54.97 55.18 55.32 54.93 54.44 54.22 54.15 54.64 55.13 55.43 55.59 55.54 55.80 55.83 55.95 54.24 46.27 49.81 49.33 51.52 49.37 50.73 58.43 51.03 54.38 55.06 53.87 51.40 49.89 49.96 48.27 46.26 42.61 40.06 39.18 43.74 39.37 41.18 42.15 44.65 46.39 44.14 43.20 46.63 48.87 51.54 54.33 56.82 56.58 55.72 54.26 53.78
53.96 54.40 54.96 54.62 54.14 54.08 54.03 54.36 54.52 54.93 55.11 55.37 55.29 55.55 55.39 55.75 55.29 51.35 48.34 48.68 51.24 51.34 48.47 49.46 54.59 56.23 54.35 54.32 54.65 53.74 51.45 48.35 46.33 44.78 42.30 41.77 43.67 44.47 43.71 42.58 41.49 46.17 44.53 43.57 41.51 46.76 46.55 48.74 53.71 57.64 55.66 54.32 53.60 52.63
53.13 53.30 53.42 53.31 53.41 53.80 54.32 54.71 54.75 54.63 54.77 55.01 55.13 55.31 55.45 55.43 52.98 47.30 47.00 51.53 52.42 54.32 51.23 46.99 54.07 53.70 51.33 53.90 53.53 51.95 51.48 49.23 46.75 45.10 43.41 45.65 48.54 45.60 40.92 38.45 46.25 47.58 47.88 49.83 48.99 50.13 50.87 53.00 57.41 58.27 55.73 55.35 54.77 53.23
52.21 52.85 53.49 53.72 54.32 54.53 54.63 54.46 54.37 54.37 54.59 54.93 55.21 55.11 54.81 54.32 46.33 45.29 48.35 52.63 50.85 48.94 52.09 48.17 47.19 52.72 54.45 52.22 51.00 50.86 51.02 50.06 48.22 43.06 42.71 45.08 45.16 45.39 39.12 37.48 45.38 48.68 49.27 51.71 52.40 52.29 49.44 51.40 53.53 57.17 57.00 56.62 55.22 54.55
51.59 51.85 53.39 54.10 54.50 54.46 54.34 54.16 54.04 54.30 54.69 54.95 54.84 54.66 54.44 52.83 49.68 45.58 48.91 50.95 50.04 51.26 51.59 44.45 44.33 49.13 52.07 47.71 46.84 49.72 48.84 48.36 48.09 44.67 45.21 44.43 46.15 44.40 37.63 42.76 47.35 49.20 51.12 52.02 52.90 53.65 51.34 51.64 56.60 56.91 57.23 56.00 54.72 53.27
51.83 51.68 51.87 52.41 52.70 52.32 53.90 53.86 53.81 54.12 54.12 54.44 54.65 54.01 48.22 46.25 45.58 49.51 57.59 54.70 53.57 52.44 46.45 44.54 42.14 44.76 52.09 48.79 48.62 48.77 48.27 43.82 47.11 44.00 43.59 46.06 40.47 36.78 43.35 45.40 47.04 50.70 49.53 49.73 51.97 51.49 52.15 51.94 52.64 55.71 56.39 55.88 54.20 53.79
52.18 51.91 51.95 51.81 51.81 51.35 51.47 51.80 53.58 53.91 54.40 53.77 47.69 45.53 45.15 50.93 57.02 56.89 51.24 49.88 50.61 50.08 50.19 47.75 47.88 43.42 49.25 47.40 46.32 46.43 46.12 43.40 41.01 45.99 46.70 42.92 41.43 44.43 46.28 47.55 47.05 49.82 50.58 50.28 47.88 46.28 49.07 50.34 52.45 52.39 51.69 55.66 55.32 54.57
51.98 51.37 51.31 51.44 51.73 51.79 51.03 51.36 51.65 52.19 51.12 45.43 44.10 46.05 53.74 57.20 52.73 51.00 47.80 44.77 45.49 43.85 43.60 46.46 48.80 46.61 50.49 47.00 46.65 50.62 46.55 43.51 39.12 41.86 43.01 40.70 40.46 45.58 49.61 48.03 48.56 50.28 51.16 50.75 50.93 50.31 49.57 49.36 48.79 48.39 49.07 51.99 54.58 54.98
51.45 51.17 51.12 51.19 51.53 51.69 51.76 51.27 51.14 50.02 47.76 47.24 46.68 48.33 52.25 51.84 48.94 45.21 44.09 45.07 44.17 41.55 44.48 42.62 42.97 46.82 49.18 51.69 48.18 49.01 46.03 43.20 38.28 45.28 42.94 37.71 43.56 48.59 49.91 49.88 49.25 51.03 51.83 51.97 53.98 52.50 50.81 51.26 49.38 49.04 48.24 49.79 51.04 51.31
51.48 51.28 50.74 50.91 51.16 51.57 52.07 51.70 51.41 50.97 49.74 49.06 48.97 48.80 49.93 48.72 39.02 42.27 40.64 43.39 41.19 45.23 45.43 45.48 42.66 44.42 49.27 49.40 48.47 48.47 43.78 40.97 45.29 41.93 40.72 42.08 46.60 50.00 48.86 50.15 49.80 51.53 52.76 52.48 53.00 52.65 52.25 51.45 51.61 49.98 48.80 49.76 50.88 49.94
51.61 51.04 50.96 50.86 51.23 51.30 51.90 51.50 51.70 51.27 48.15 46.97 48.15 38.44 43.95 43.47 44.54 44.72 44.50 43.38 46.84 46.63 46.90 47.25 44.94 48.02 48.31 46.89 45.70 42.79 44.55 44.07 40.59 37.72 40.00 43.26 47.73 49.64 49.29 49.55 49.54 50.86 52.28 52.23 51.26 50.76 50.27 49.99 49.99 51.00 49.94 49.32 50.88 49.37
51.68 51.26 51.27 51.13 51.76 51.81 51.50 51.86 51.77 50.13 48.71 47.61 48.39 38.27 43.57 48.06 48.49 48.37 48.71 47.71 49.51 49.98 49.85 49.38 48.13 48.01 45.49 44.92 44.51 44.45 42.00 40.58 41.29 39.94 42.45 45.94 48.46 49.87 48.49 48.64 48.79 49.66 49.90 49.23 49.13 48.77 49.17 49.14 48.73 49.26 49.99 49.73 50.04 51.36
51.54 50.90 50.24 51.54 51.67 51.43 51.15 51.40 49.93 49.40 49.95 48.59 46.71 44.86 47.39 46.61 46.79 48.90 50.36 48.32 51.36 52.81 51.61 50.51 47.89 46.49 44.30 45.21 43.29 42.38 41.30 40.13 42.10 43.52 47.83 50.13 49.83 48.81 47.55 48.66 49.57 49.96 49.19 48.87 48.73 48.38 48.39 48.51 48.52 48.46 49.16 49.09 49.19 51.15
50.87 48.70 51.85 51.72 51.98 51.77 51.34 50.40 51.21 48.13 46.92 46.91 43.71 47.05 47.32 46.84 46.15 48.11 50.72 51.06 51.77 50.70 48.12 49.57 46.30 45.31 48.38 43.95 43.21 43.81 41.54 43.52 45.40 48.51 50.79 50.82 50.28 49.12 49.02 49.44 49.92 50.08 49.40 49.01 48.95 48.50 48.48 49.10 48.89 48.58 47.79 49.25 49.04 50.99
49.44 52.14 51.98 51.65 51.25 51.66 49.73 49.48 48.93 46.92 43.29 43.45 42.19 45.13 46.35 48.27 46.87 47.61 49.53 53.06 52.36 50.15 49.27 46.40 50.60 47.58 45.14 43.70 42.83 46.82 45.79 47.90 50.66 50.55 51.41 52.66 51.48 50.95 52.38 51.14 51.60 51.54 50.43 50.22 50.21 50.31 49.26 48.48 48.71 49.70 50.00 48.54 48.38 48.10
51.22 51.52 51.81 51.90 51.68 50.48 47.96 48.06 49.29 43.83 44.94 45.58 45.88 46.90 45.95 46.30 48.75 50.52 51.98 54.16 53.21 53.18 52.19 50.50 47.34 47.01 47.35 49.75 48.80 49.44 50.39 50.77 52.02 53.09 53.90 53.95 55.01 54.68 54.97 54.59 54.33 53.87 53.34 52.55 51.58 51.61 52.48 51.92 52.04 51.24 51.11 49.96 49.45 49.17
50.63 51.70 52.24 52.27 52.26 48.98 46.87 47.10 50.60 46.23 43.55 45.62 45.87 45.22 44.88 45.57 48.74 48.09 50.06 51.81 50.44 48.85 46.99 48.46 48.66 49.82 51.01 51.49 52.33 51.98 53.34 54.00 53.32 51.70 50.89 50.38 52.38 53.33 54.71 56.18 56.53 57.14 56.71 55.31 54.15 50.58 51.46 50.13 49.93 53.21 52.34 50.42 49.58 49.16
50.61 51.53 51.90 51.40 50.42 49.10 47.55 48.11 47.06 47.47 47.76 45.91 46.97 46.42 45.64 46.70 46.08 46.11 46.26 50.58 48.80 47.10 45.81 49.30 50.08 52.42 54.97 53.34 54.98 54.43 54.92 53.27 50.55 51.97 52.26 51.95 52.40 52.37 52.28 53.13 53.46 55.13 55.23 54.27 51.92 50.66 50.46 49.04 50.17 50.35 50.00 49.93 50.41 49.93
50.66 52.56 50.19 50.44 47.97 48.97 47.67 47.56 46.59 48.14 46.67 45.91 45.82 47.46 46.70 46.20 45.29 45.45 47.75 47.14 48.02 48.85 50.31 50.97 51.91 52.29 50.37 50.99 52.30 55.33 56.85 55.45 54.52 52.34 50.10 49.27 48.08 48.86 50.57 52.90 52.71 53.29 53.31 52.67 52.81 53.43 52.30 51.65 51.69 50.15 49.64 50.18 50.17 51.25
50.99 51.15 49.63 48.76 45.78 43.16 41.43 47.10 43.76 44.92 42.32 44.77 47.87 46.55 46.52 46.84 48.21 51.31 47.13 48.29 48.62 49.57 51.99 51.72 51.54 52.78 52.70 51.69 53.26 55.77 54.70 55.29 54.51 52.82 50.03 50.34 52.09 53.82 54.80 55.05 55.37 53.89 53.33 52.55 51.49 49.11 48.75 47.41 48.07 49.25 49.28 50.29 50.41 49.84
50.18 48.00 45.82 44.71 43.90 40.48 46.95 43.60 46.39 44.71 45.90 45.22 45.09 44.99 46.84 47.89 50.06 47.92 45.63 47.16 49.41 50.70 50.20 51.48 53.34 51.85 51.78 54.58 55.15 57.07 57.35 56.33 55.23 54.29 53.41 53.00 52.68 53.36 52.46 52.14 53.99 53.61 53.13 50.16 47.48 46.63 47.44 48.07 47.36 49.60 50.28 50.03 49.63 48.56
40.95 40.14 42.55 36.42 45.14 43.26 42.06 44.74 45.44 46.03 44.51 45.63 45.30 45.11 46.79 48.44 44.62 44.78 44.65 47.86 49.04 49.23 51.33 52.57 52.61 52.24 52.15 52.69 53.36 52.75 53.75 54.39 52.29 49.57 50.46 53.11 54.22 52.14 52.09 54.32 53.24 52.12 49.94 48.28 46.16 46.65 47.06 48.32 49.53 49.70 49.65 49.01 48.88 47.35
35.65 42.32 39.22 42.78 43.80 41.79 43.64 44.65 45.79 46.00 46.54 45.84 46.58 46.94 47.15 46.18 44.28 43.15 47.08 49.50 49.46 48.63 49.76 51.29 50.12 49.12 49.75 52.44 51.46 52.20 54.39 53.20 52.27 51.81 52.41 51.87 53.56 53.57 51.85 48.97 48.24 48.50 50.48 49.47 47.84 47.61 47.60 48.39 49.05 48.88 48.16 46.80 43.63 45.81
37.32 41.19 45.26 46.46 46.49 47.96 47.58 47.95 47.13 46.20 46.21 45.84 47.08 47.19 46.92 44.05 44.25 47.31 52.56 52.51 51.09 52.29 53.32 53.95 54.52 52.40 51.99 52.70 53.65 53.89 54.53 55.85 54.17 52.80 52.46 51.86 52.79 53.54 52.76 50.79 49.38 50.17 51.26 50.93 49.30 49.11 48.42 48.60 48.83 48.13 46.80 45.56 46.37 45.58
43.33 46.26 42.45 47.01 46.57 47.44 45.33 44.43 44.52 44.85 46.25 49.60 49.28 46.36 45.93 45.92 45.68 49.73 50.93 53.18 53.76 54.94 55.47 55.31 54.62 54.06 53.12 53.79 53.63 53.32 53.06 53.35 52.35 51.78 51.45 51.08 51.21 51.27 50.73 50.82 51.05 45.94 50.65 51.47 50.01 49.50 50.74 50.32 48.99 47.19 46.80 46.69 45.34 45.98
45.03 48.12 47.82 43.95 46.20 46.52 46.44 45.06 46.24 47.95 49.47 49.68 47.77 46.57 48.28 51.10 51.50 50.52 52.09 54.03 54.06 53.57 52.92 52.92 53.93 54.31 52.49 52.13 52.43 52.70 52.86 52.17 50.42 48.42 48.31 47.59 47.55 48.13 48.75 48.70 49.06 49.44 49.80 49.19 45.26 48.30 51.53 50.02 47.81 48.89 48.36 46.87 47.18 46.85
42.74 45.40 42.97 45.54 45.30 44.35 44.71 46.80 46.61 51.28 51.54 52.19 52.51 52.33 51.80 50.06 51.77 54.37 53.40 53.22 51.75 50.82 51.16 50.41 52.56 52.90 51.32 52.62 52.25 51.47 51.62 51.87 52.19 50.47 48.31 46.92 48.59 49.76 49.08 49.06 49.15 49.26 49.42 49.41 48.34 47.23 43.50 47.28 45.39 46.97 46.84 46.49 46.16 45.78
44.36 43.65 43.46 44.96 43.18 45.74 48.93 49.33 48.88 49.80 52.23 50.58 52.93 51.66 49.27 51.28 52.79 54.04 54.40 53.10 52.31 52.30 50.66 48.78 48.12 49.22 51.95 53.61 52.31 50.52 48.51 50.92 52.63 51.92 49.61 50.08 51.12 50.95 50.32 49.59 49.87 49.69 50.51 49.95 48.83 47.64 46.11 45.77 46.17 46.43 46.54 46.25 47.08 45.96
44.79 44.12 43.29 42.53 43.78 48.79 49.59 49.01 48.46 47.96 50.45 50.43 49.46 50.65 51.11 47.96 47.77 51.72 52.76 52.69 51.69 49.69 47.84 48.21 47.93 47.89 51.08 50.65 50.72 50.30 47.21 51.02 50.09 50.33 51.84 51.58 51.94 52.02 51.86 51.12 50.30 49.77 49.75 49.89 48.97 47.61 47.37 46.75 46.65 46.55 46.46 47.58 48.15 48.23
44.09 44.27 44.32 43.57 43.74 44.39 46.11 46.34 47.62 49.56 48.65 49.03 48.99 50.15 50.36 48.91 47.42 51.75 54.91 54.08 49.86 48.35 47.80 48.20 48.78 49.15 50.18 49.85 50.74 49.42 48.32 51.67 50.49 46.24 45.69 46.55 46.59 49.61 52.19 52.09 51.63 51.55 50.84 50.31 49.79 49.32 48.52 48.22 48.09 48.26 47.78 47.80 47.83 48.51

GFSWCAN_sfc_wetblb_117.txt.gz
Wetbulb
54.63 55.13 55.37 55.45 55.47 55.29 55.75 56.30 56.50 55.59 55.01 54.72 54.47 54.73 55.75 56.09 56.24 51.24 47.19 50.41 48.58 49.17 50.67 53.97 55.36 49.49 48.06 46.43 43.20 44.76 44.83 44.80 41.69 38.87 37.41 39.30 37.85 39.76 37.46 38.85 38.00 36.01 35.61 34.94 36.69 34.01 33.75 50.07 50.11 45.25 47.95 51.32 55.10 54.16
54.69 54.85 54.91 55.13 55.17 55.53 55.79 56.26 55.94 54.95 54.56 54.52 54.53 54.69 55.32 56.22 55.86 53.34 45.21 50.94 51.25 47.04 49.76 54.78 57.51 57.60 53.78 51.10 45.96 43.62 44.14 43.57 44.02 40.78 39.49 40.75 40.29 39.00 37.54 34.27 40.76 36.34 39.40 38.40 39.54 39.11 46.15 49.02 50.00 51.00 52.21 54.02 54.65 53.47
54.45 54.43 54.57 54.77 54.95 55.36 55.58 56.10 55.23 54.62 54.38 54.80 55.40 55.16 55.48 55.84 55.61 53.81 45.48 46.55 49.22 49.97 50.79 49.23 51.29 52.93 51.08 50.69 51.25 45.64 44.65 47.24 44.51 44.81 41.46 39.08 38.55 39.99 36.36 37.62 40.17 42.36 44.94 40.62 41.92 44.19 46.80 49.76 53.31 54.90 56.21 55.19 54.41 53.38
54.21 54.47 54.54 54.70 54.92 55.18 55.56 54.99 54.46 54.48 54.36 55.09 55.27 55.64 55.62 55.70 55.57 55.31 45.74 46.93 45.97 46.27 46.48 49.41 57.32 53.37 54.60 52.60 51.92 50.40 48.91 47.16 45.37 44.18 41.18 38.64 37.50 41.43 37.52 39.41 40.68 43.41 44.81 42.49 42.00 45.01 47.60 49.60 52.04 55.23 54.62 54.11 53.05 52.82
53.86 54.24 54.48 54.56 54.37 54.25 54.14 54.16 54.32 54.50 54.77 54.86 54.99 55.13 55.57 55.45 54.81 53.16 47.58 47.05 47.94 46.83 46.11 47.62 52.61 54.80 54.66 52.50 53.85 52.22 49.76 46.64 44.37 43.07 40.25 39.73 39.81 42.38 41.26 41.11 39.79 45.67 42.79 42.16 41.41 46.71 46.45 47.83 53.12 55.67 53.71 52.81 52.14 51.24
52.89 53.04 52.88 53.07 53.21 53.57 53.86 54.30 54.77 54.73 54.59 54.52 54.83 54.99 55.17 54.95 54.16 45.83 43.19 47.95 48.14 50.18 48.99 45.08 52.70 53.38 50.40 51.81 52.55 51.13 49.86 46.82 44.95 43.56 42.17 42.21 46.67 43.87 39.86 38.33 44.99 48.22 47.60 47.79 46.03 48.63 48.93 50.96 55.88 56.47 53.99 53.32 52.95 51.71
52.21 52.23 52.79 53.74 53.77 54.15 54.45 54.47 54.25 54.33 54.29 54.47 54.85 54.91 54.81 54.00 47.00 43.49 42.79 47.99 48.69 48.04 49.82 46.81 46.32 50.91 52.25 49.85 49.49 49.41 48.89 47.42 46.54 41.81 41.10 42.11 43.55 42.77 38.80 37.43 45.13 47.37 47.73 48.36 50.53 50.97 48.79 53.88 53.58 56.49 55.28 54.81 54.11 53.06
51.88 51.51 51.50 52.54 53.41 53.67 53.44 53.96 54.21 53.98 54.20 54.45 54.56 54.40 54.18 53.70 50.17 44.72 46.80 50.55 47.90 45.28 49.64 43.31 44.07 47.27 50.72 47.35 46.26 47.22 46.35 46.62 45.77 43.41 42.99 43.28 44.22 41.58 36.17 41.25 42.72 46.36 48.29 50.19 50.43 50.76 50.38 52.78 55.24 55.30 55.27 54.05 52.62 51.59
52.06 51.66 51.59 51.58 51.75 52.15 51.97 52.87 53.48 53.64 53.64 53.88 54.46 53.86 47.37 45.03 42.68 46.11 55.88 53.27 48.64 48.77 43.77 43.52 40.89 42.67 49.89 46.20 46.74 46.92 45.93 43.30 45.49 42.73 41.06 45.07 38.58 36.82 43.07 43.89 45.40 47.53 48.11 49.66 51.63 50.73 50.82 53.67 54.35 54.78 54.24 53.50 51.75 51.58
53.02 52.08 51.47 51.57 51.50 51.59 51.59 51.33 51.76 52.99 53.58 53.53 47.79 44.58 42.07 46.93 54.28 55.87 49.46 47.37 47.79 47.62 48.06 46.32 45.81 40.56 47.81 45.48 44.42 45.22 44.07 42.55 39.78 43.30 44.71 41.20 39.86 44.23 44.74 45.87 48.66 48.99 49.61 49.42 48.02 46.18 47.20 51.23 52.90 54.03 53.91 54.23 53.63 52.73
52.96 52.26 51.22 51.15 51.32 51.51 51.58 51.28 51.41 52.03 50.81 45.15 43.54 44.06 49.60 53.77 50.50 48.73 44.84 43.08 44.43 42.43 45.16 48.26 47.53 45.81 49.20 46.01 44.60 46.05 43.42 44.45 37.99 41.46 42.42 38.63 39.57 43.97 46.89 46.61 46.57 48.95 50.30 49.19 50.49 50.10 50.29 52.13 51.87 52.85 52.40 54.37 54.28 53.56
52.35 51.50 51.04 50.95 51.22 51.25 51.75 51.57 51.03 49.83 47.78 47.21 46.41 47.73 47.83 49.48 46.45 43.82 42.84 43.41 43.00 40.81 43.40 41.33 44.74 47.92 47.44 49.59 45.93 45.74 43.20 42.26 38.09 42.87 40.91 36.19 42.26 44.77 47.35 47.85 47.14 47.62 50.17 50.17 51.07 49.95 50.09 50.95 49.55 49.39 49.95 50.92 53.27 53.83
51.89 51.58 51.10 50.77 50.98 51.08 51.36 51.80 51.49 50.96 49.63 47.51 47.72 48.33 46.96 44.98 37.00 40.50 38.65 41.44 41.39 44.27 43.05 41.21 39.13 45.42 47.77 47.40 46.11 45.28 42.81 40.39 43.46 41.00 39.90 41.58 43.03 47.49 48.14 47.40 47.10 48.61 50.60 50.73 52.01 51.61 50.38 49.52 49.14 48.94 49.41 50.66 51.61 51.74
51.57 51.38 51.12 50.82 51.12 51.34 51.47 51.68 51.47 51.04 47.85 45.17 46.47 39.99 40.95 40.75 42.85 43.67 43.23 44.20 46.38 44.78 44.28 42.04 40.43 42.79 44.52 44.90 43.83 41.78 44.10 42.70 38.61 35.34 38.35 41.63 44.71 47.48 47.61 48.10 47.68 49.42 50.05 50.33 50.99 50.49 49.71 49.42 48.59 48.68 49.76 49.83 48.97 48.44
51.43 51.38 51.23 51.06 51.68 51.86 51.61 51.38 51.66 50.05 47.58 46.55 46.36 36.40 41.43 46.23 46.88 47.49 48.19 46.89 47.68 47.80 47.43 46.33 46.48 46.46 43.70 43.37 42.94 42.55 40.47 39.16 39.27 38.96 41.01 43.83 44.74 47.32 47.53 47.40 46.89 48.79 49.53 49.19 48.79 48.88 48.64 48.69 48.42 47.98 47.39 48.31 48.56 48.18
51.45 51.01 49.53 51.12 51.56 51.47 51.34 51.09 49.74 48.76 48.75 48.14 46.66 43.39 45.98 45.82 45.99 47.97 49.36 47.99 49.47 49.26 48.20 48.70 46.28 46.32 43.53 42.17 40.96 41.18 40.30 39.09 41.05 42.40 44.54 45.19 46.19 47.40 47.46 47.22 47.53 48.04 48.47 47.95 47.47 47.16 47.35 46.83 47.48 48.27 47.62 47.39 48.57 49.21
51.23 47.86 51.76 51.35 51.68 51.45 50.99 49.94 50.51 47.11 45.48 45.84 42.79 45.24 45.91 46.46 46.36 47.28 48.70 47.60 51.47 48.85 46.43 46.71 44.02 44.43 47.53 42.29 41.15 42.29 40.29 42.55 44.49 44.90 46.19 48.34 47.84 48.45 47.73 47.30 47.42 47.91 47.82 46.89 46.50 46.10 46.33 47.80 46.51 45.73 46.02 46.27 46.99 48.99
49.21 51.82 51.96 51.73 51.27 51.18 49.81 49.06 48.31 46.45 42.69 44.66 40.55 43.96 45.78 47.61 47.20 47.52 47.70 51.47 50.82 48.09 47.75 46.13 48.78 43.97 44.21 42.47 41.57 43.77 45.33 45.31 45.02 45.29 46.64 49.50 47.96 47.98 48.35 47.45 47.88 48.24 47.95 47.69 47.16 47.09 46.05 44.99 45.42 47.08 47.92 47.79 47.14 47.52
50.94 51.10 51.83 51.59 51.35 50.23 47.38 47.18 48.64 43.31 44.41 45.51 44.54 44.12 44.01 44.19 45.84 48.83 50.05 52.55 52.46 52.97 49.72 47.00 44.79 43.71 44.81 48.84 48.41 49.15 49.29 49.76 49.25 49.69 49.91 50.25 49.66 49.13 49.30 49.19 48.94 48.77 48.47 48.16 47.55 48.43 49.25 48.53 49.45 49.71 48.88 47.18 48.75 48.93
50.47 50.95 52.17 52.25 52.26 48.75 46.46 46.77 49.98 44.63 41.38 44.06 44.30 43.02 43.32 43.95 45.86 46.13 47.43 51.59 51.03 48.16 45.81 45.69 45.57 47.50 48.31 51.22 52.08 51.58 51.77 51.76 51.02 49.20 49.03 50.06 52.34 54.13 54.09 53.27 52.95 52.59 52.50 52.38 51.61 48.65 48.91 48.77 48.68 48.01 48.68 49.01 49.89 49.02
49.85 51.02 52.00 51.43 49.82 48.59 47.00 46.82 46.06 46.10 46.37 43.58 44.93 44.65 43.80 44.11 44.31 45.02 44.65 48.94 45.99 44.88 43.90 47.54 49.41 51.16 50.91 50.81 53.87 54.11 54.14 51.95 50.54 50.93 51.25 51.62 54.44 54.38 52.41 51.12 51.76 50.60 50.70 51.83 52.12 52.34 50.22 52.30 52.35 50.63 50.22 50.86 50.57 49.83
50.22 52.26 49.93 50.20 47.54 48.47 47.11 48.33 45.37 46.35 46.24 44.32 43.73 45.01 43.38 43.87 43.71 44.01 46.18 45.78 45.04 46.75 47.15 47.28 48.44 49.53 50.81 51.78 52.69 54.88 55.42 54.99 54.56 53.28 50.34 50.47 51.34 50.31 48.06 48.98 49.67 50.82 51.46 51.51 51.29 51.02 50.98 49.40 49.85 50.78 49.04 48.90 48.84 49.61
50.87 51.01 49.59 48.42 45.33 42.92 40.61 46.34 42.70 43.35 42.27 42.59 47.11 44.87 43.85 44.07 46.45 47.58 43.71 45.96 47.05 50.07 49.93 49.53 50.40 50.88 50.87 52.04 52.75 53.54 55.57 54.01 52.35 52.81 54.38 53.85 53.03 51.00 49.84 52.00 53.24 52.36 51.44 51.54 51.31 50.59 49.43 45.95 47.49 48.01 48.47 48.99 49.02 48.34
50.02 47.90 45.17 44.45 43.92 39.94 46.23 42.83 44.75 43.69 42.66 41.96 42.06 41.46 43.47 45.32 49.27 45.62 44.34 46.10 47.29 48.70 49.67 50.74 52.19 51.80 50.90 52.07 53.08 52.77 53.34 53.62 52.99 53.10 54.02 52.40 52.07 52.15 52.23 52.39 52.03 52.18 52.20 50.22 48.23 46.82 46.89 47.18 46.15 47.97 48.87 48.80 48.85 48.80
40.26 38.85 41.34 35.96 44.87 42.47 41.71 41.03 43.84 42.88 41.75 42.94 42.40 42.72 44.39 48.00 45.10 45.25 45.20 47.83 48.90 48.79 49.99 51.01 50.88 52.15 51.27 51.60 52.15 52.30 52.26 52.77 51.73 51.15 51.61 52.28 51.41 51.60 51.03 49.85 49.85 50.02 48.87 47.94 46.22 46.00 45.50 46.66 48.00 48.68 49.31 49.07 49.01 49.39
36.04 41.13 38.40 42.18 42.82 40.53 40.85 42.20 44.79 45.18 46.02 45.74 46.41 46.64 46.21 44.32 43.20 42.17 44.13 48.86 48.21 48.42 48.76 49.35 49.31 49.26 49.76 50.62 51.00 51.56 52.49 51.47 50.86 50.00 50.86 49.96 52.14 51.63 49.88 48.75 47.70 48.66 50.54 49.71 46.87 46.39 46.69 47.59 48.22 48.73 49.43 48.61 44.64 48.76
35.91 39.84 43.46 45.16 45.42 46.25 45.48 46.86 47.23 46.15 45.70 45.03 46.23 45.40 44.78 42.25 42.66 45.34 50.95 50.92 49.27 50.21 51.02 51.19 50.67 48.56 48.87 50.48 50.71 51.01 53.68 52.40 53.29 51.72 51.28 51.94 52.51 53.22 53.11 50.84 49.27 50.27 50.28 48.89 47.97 47.75 47.34 47.81 48.63 49.25 49.30 49.09 49.48 49.14
42.64 44.69 41.61 45.35 43.63 46.69 43.90 44.78 43.85 44.71 46.80 48.26 47.32 46.17 45.83 45.65 44.38 47.26 49.09 51.27 52.22 52.74 52.80 52.85 54.21 54.14 52.90 53.03 52.49 51.91 51.57 51.16 50.21 49.68 49.38 48.95 48.46 48.53 49.09 50.72 50.76 45.66 49.85 49.43 48.25 48.18 48.15 48.30 49.29 48.70 48.22 47.51 46.93 46.15
43.15 47.04 45.94 44.11 45.76 45.79 44.70 43.63 44.72 47.59 48.40 48.84 47.51 44.64 47.29 50.72 50.26 48.27 50.41 52.20 51.67 52.34 50.70 50.60 51.64 52.76 51.20 50.65 50.94 51.24 50.86 49.70 48.78 47.05 46.49 46.16 46.50 47.45 47.57 47.56 47.97 48.30 48.69 48.19 44.24 46.43 48.62 48.70 49.55 48.81 48.57 48.07 46.33 45.54
43.69 47.18 44.21 43.63 43.38 41.99 44.09 45.12 45.86 50.27 52.08 51.61 52.05 50.02 48.86 48.52 50.00 51.66 50.57 51.10 50.54 49.11 49.52 48.89 50.26 51.38 49.73 49.81 50.57 50.36 50.21 50.37 50.44 48.91 47.36 47.07 47.98 48.48 47.65 47.65 47.65 47.52 47.63 48.17 47.39 44.87 42.13 46.06 44.26 46.63 45.62 45.10 44.80 44.67
42.01 41.33 40.93 41.66 42.09 44.72 47.47 48.77 48.33 51.06 50.92 48.91 52.03 48.76 47.21 49.26 49.74 51.57 52.00 51.79 50.81 50.98 46.79 45.17 45.10 47.73 49.97 49.60 48.63 47.90 47.70 49.35 50.02 51.14 51.53 49.87 48.52 48.66 48.52 48.42 48.46 47.99 47.95 48.01 47.07 45.92 46.32 46.80 45.37 45.33 45.59 45.23 45.11 44.43
41.36 41.01 40.66 39.84 41.12 45.17 46.50 45.44 45.09 46.08 47.87 49.74 49.64 49.15 48.97 46.47 46.41 49.46 51.08 50.24 48.10 47.04 45.65 44.72 47.30 46.97 47.89 48.91 49.49 50.30 46.08 49.44 49.24 49.34 49.29 48.74 49.61 49.84 49.28 48.59 48.45 48.77 48.84 48.35 47.91 47.02 46.40 46.95 46.93 46.82 45.85 45.88 46.01 45.65
41.24 41.46 41.94 41.62 41.88 42.18 43.42 45.78 46.97 45.67 46.70 46.49 47.49 48.96 49.41 46.88 46.49 48.83 52.21 51.29 47.39 46.86 45.82 45.39 46.40 47.22 47.25 46.56 47.84 47.19 46.42 49.85 48.15 43.55 42.77 43.33 45.07 47.03 48.64 48.78 49.20 49.71 49.28 48.90 48.07 47.65 46.67 46.06 46.05 45.51 45.81 45.81 46.26 46.83

GFSWCAN_sfc_wetblb_120.txt.gz
Wetbulb
54.56 54.80 55.13 55.39 55.61 55.61 55.59 55.57 55.81 56.39 56.57 55.45 55.13 54.91 55.07 55.54 56.04 53.45 48.76 50.01 47.14 47.73 48.10 53.35 54.05 48.31 47.10 45.01 42.67 44.40 44.66 44.83 41.11 37.98 36.38 37.75 36.58 39.31 36.64 37.62 36.87 35.16 33.91 33.69 35.39 33.34 33.73 49.67 50.04 44.93 46.65 51.78 56.18 55.00
54.64 54.80 54.84 54.98 55.19 55.23 55.39 55.63 55.93 56.25 55.59 55.02 54.84 55.18 55.09 55.53 55.89 53.31 46.04 50.14 50.50 44.52 46.15 52.88 55.63 56.74 54.80 53.16 45.16 42.74 44.18 43.62 43.10 39.98 38.39 39.72 38.78 37.67 36.01 33.99 39.62 35.58 37.99 36.56 38.02 37.85 44.11 47.76 48.04 51.23 52.27 53.74 55.12 53.05
54.46 54.56 54.62 54.77 54.85 55.01 55.21 55.61 55.93 55.79 54.94 54.70 54.96 55.71 55.98 55.61 55.75 54.86 47.32 46.99 48.59 48.36 49.37 49.44 51.85 51.61 52.55 52.55 50.32 45.43 45.08 46.55 43.37 43.49 40.41 38.96 37.58 38.98 35.08 36.31 38.27 41.17 42.74 40.78 41.69 42.76 46.42 49.14 52.08 53.39 55.79 55.47 53.94 53.38
54.18 54.29 54.53 54.73 54.79 55.01 55.43 55.59 55.08 54.62 54.66 54.66 55.14 55.27 55.63 55.79 55.49 55.12 49.71 46.60 45.76 44.77 45.68 47.72 54.74 52.78 54.61 51.08 50.65 49.98 47.93 45.42 43.79 42.87 39.96 37.73 36.75 40.75 37.54 39.26 39.58 41.99 44.26 41.27 41.58 43.97 46.86 49.04 50.61 54.70 54.40 54.11 52.93 52.47
53.66 53.96 54.04 54.00 53.94 54.02 54.22 54.33 54.33 54.48 54.72 54.84 54.78 55.04 55.35 55.65 54.94 54.53 52.53 50.82 47.53 45.27 44.26 45.74 50.14 52.07 53.65 50.55 51.67 50.30 48.42 45.50 43.11 41.92 39.14 38.48 38.10 40.62 39.65 40.08 38.80 44.48 43.37 42.06 40.62 45.07 45.44 46.87 52.52 55.34 53.65 53.10 52.33 51.28
53.07 53.17 52.72 53.22 53.76 53.96 53.98 54.34 54.52 54.94 54.72 54.62 54.58 54.80 55.22 55.14 54.28 47.33 44.03 47.14 49.32 46.54 45.58 43.48 48.96 51.23 49.71 51.40 51.00 49.65 48.20 45.30 43.63 42.89 41.01 40.93 43.75 42.88 38.77 36.96 43.06 45.49 46.27 46.97 45.80 47.64 48.76 51.23 55.26 55.63 53.60 53.17 52.67 51.62
52.91 52.46 51.93 52.14 53.71 54.22 54.24 54.40 54.58 54.30 54.42 54.26 54.40 54.76 54.96 54.34 50.53 44.40 42.56 45.57 47.98 47.49 46.25 45.00 44.40 49.82 51.39 49.56 48.45 48.24 47.27 45.62 45.13 41.10 40.46 40.72 42.53 42.64 38.64 37.09 44.32 47.32 49.27 48.27 49.24 50.73 50.15 53.83 53.34 54.90 54.58 54.23 53.59 52.29
52.82 52.15 51.43 51.56 52.05 52.82 52.80 52.75 53.90 54.14 54.08 54.10 54.36 54.36 54.20 53.74 51.50 47.50 48.77 51.60 48.44 43.79 48.36 42.40 42.12 45.64 49.25 46.95 45.76 45.59 45.23 45.27 44.32 42.55 41.77 42.75 42.60 39.96 35.27 41.45 42.73 45.50 48.56 47.91 50.02 51.03 50.21 53.92 55.36 54.43 54.37 53.47 51.86 50.84
52.80 52.39 51.86 51.69 51.87 51.77 51.87 51.93 51.95 52.51 53.55 53.57 54.00 53.53 47.92 46.08 42.09 44.85 54.73 53.12 47.13 46.63 42.30 41.47 39.88 41.13 48.12 45.60 45.91 45.99 44.62 42.26 44.05 42.68 40.79 43.27 37.72 36.08 42.81 44.44 44.75 45.78 47.08 47.41 49.81 50.46 53.22 54.41 54.43 54.03 53.57 52.72 51.08 50.71
52.62 52.93 52.44 51.63 51.54 51.44 51.61 51.90 51.64 51.93 52.21 52.75 47.80 42.69 40.12 44.67 53.71 53.50 49.07 46.50 45.03 45.67 45.52 43.80 44.80 41.00 45.98 43.99 44.01 44.49 43.02 42.02 39.92 42.44 43.43 40.03 39.04 43.46 45.63 46.09 46.93 47.35 48.11 50.17 48.29 47.40 50.37 51.85 53.34 53.00 52.94 53.33 52.62 52.23
52.31 52.75 52.98 51.66 51.36 51.32 51.55 51.81 51.70 51.15 51.12 44.96 41.27 42.31 48.61 52.39 50.20 48.20 44.18 42.62 42.55 40.73 42.89 45.11 46.35 44.49 48.10 44.92 43.71 44.61 42.73 42.48 38.08 40.70 41.86 38.31 38.21 43.28 45.95 45.51 46.54 47.80 48.98 50.12 51.24 51.67 51.43 53.71 53.65 53.71 53.43 53.78 53.51 52.81
52.06 52.19 52.04 51.25 51.07 51.22 51.12 51.44 51.54 49.29 48.61 46.19 45.50 48.31 47.35 49.28 46.20 44.35 42.69 41.92 40.78 39.19 43.53 43.40 45.54 46.97 46.33 48.25 45.83 45.16 42.28 40.82 37.68 42.03 40.23 35.58 41.24 44.52 45.28 47.46 47.11 47.35 49.55 50.46 51.24 50.82 50.73 52.47 54.25 54.82 54.69 54.17 54.17 54.15
51.51 51.88 51.86 51.50 51.09 50.97 50.97 51.00 51.43 51.31 50.18 48.11 47.19 46.65 46.76 44.96 37.45 39.85 38.37 40.34 40.41 44.70 43.56 40.33 40.33 44.39 45.72 46.96 44.99 44.06 41.27 39.61 43.09 40.20 39.21 40.79 43.58 44.70 46.78 47.91 46.75 47.28 50.19 50.73 50.61 51.07 50.95 51.08 52.38 52.90 52.47 53.13 53.93 53.74
51.17 51.60 51.76 51.62 51.42 51.36 51.44 51.28 51.61 51.05 48.00 44.39 46.23 38.53 41.40 39.49 41.34 41.44 42.07 41.99 44.80 44.36 43.47 41.54 39.53 42.02 43.36 43.91 43.87 41.96 43.43 41.72 37.58 34.97 37.63 41.47 44.27 45.65 47.17 47.12 46.30 47.12 49.48 49.75 50.85 50.75 49.62 49.34 49.34 50.25 51.05 51.59 52.04 52.19
51.28 51.56 51.68 51.31 51.60 51.90 51.81 51.47 51.58 50.79 46.59 44.87 46.91 37.58 40.92 43.80 45.29 47.10 46.37 45.61 46.73 46.34 45.64 44.84 45.05 44.70 42.18 42.56 42.02 41.20 39.65 38.56 38.58 38.42 40.79 43.33 43.68 45.34 47.00 46.94 46.50 47.59 48.58 48.40 49.71 49.88 49.54 48.99 48.15 48.41 49.42 50.29 51.18 51.24
51.89 51.17 49.51 50.99 51.30 51.19 51.03 50.89 50.16 49.23 47.63 47.14 46.75 42.93 44.25 43.17 44.27 44.92 48.77 48.44 49.14 48.30 47.51 47.95 45.32 43.61 42.59 41.25 40.21 40.54 39.33 37.83 40.46 41.80 44.12 43.66 44.49 45.31 47.31 47.66 47.02 47.91 48.86 48.59 48.50 48.87 48.71 48.02 47.67 48.02 47.59 48.82 49.01 49.39
51.39 47.08 51.54 51.43 51.48 51.26 50.89 49.40 49.61 46.37 44.84 44.76 44.28 44.59 44.44 46.05 45.13 47.20 47.88 48.42 49.14 47.94 45.86 46.85 44.25 43.33 45.67 41.88 40.53 41.44 39.82 41.66 43.43 44.30 44.11 44.63 46.71 47.85 47.31 47.88 47.10 47.48 48.47 48.17 47.82 46.96 47.74 47.94 47.34 47.19 46.47 47.05 48.21 49.03
49.26 51.32 52.03 51.65 51.16 50.81 49.50 48.68 47.86 46.12 42.59 44.76 41.43 43.58 44.99 46.10 48.19 48.43 48.26 49.82 49.31 47.61 47.95 46.48 47.26 43.47 42.72 42.35 41.01 43.18 45.44 47.15 47.31 46.86 46.23 45.05 48.05 48.57 48.59 47.66 47.80 47.87 47.94 48.08 48.00 47.85 46.52 45.99 46.07 46.92 47.54 48.09 47.46 48.12
50.93 50.66 51.96 51.72 51.43 50.18 46.85 46.58 47.73 42.54 43.65 44.04 43.89 44.22 42.71 43.21 44.58 48.42 48.85 49.52 52.99 52.44 48.97 46.19 44.20 43.25 44.20 46.37 46.43 47.15 48.07 48.82 49.02 49.23 49.12 49.47 49.29 48.59 48.24 47.81 47.90 47.51 47.66 47.73 46.91 47.43 47.76 47.33 48.56 48.39 47.80 46.42 48.20 48.92
50.49 50.58 51.55 51.92 51.74 48.40 46.47 46.44 49.45 42.64 40.64 42.76 43.81 42.10 42.11 42.40 44.34 44.27 46.43 46.41 50.17 48.32 46.03 45.00 44.42 45.53 47.14 49.21 50.69 50.48 51.09 50.74 50.41 49.18 49.12 50.54 51.62 51.03 50.55 49.72 50.04 49.22 48.61 48.81 48.68 46.04 47.73 47.98 47.69 47.91 47.72 47.90 48.32 48.07
49.14 49.55 51.69 51.63 49.63 48.62 46.58 46.04 45.93 45.54 43.93 42.92 45.37 44.35 42.12 42.76 42.18 42.58 43.21 47.79 45.80 44.78 43.60 46.60 47.73 48.78 50.18 50.30 52.40 53.42 53.20 52.53 52.16 51.92 51.64 50.90 52.07 51.31 51.62 51.90 53.08 53.10 52.87 51.83 52.06 52.13 49.75 51.08 52.29 51.55 49.73 48.81 50.15 51.69
49.12 52.20 50.01 50.08 47.28 47.93 46.70 47.35 45.63 46.88 44.84 45.36 43.74 45.72 43.21 42.35 42.53 42.17 44.23 44.51 44.44 45.48 46.45 47.02 47.49 49.06 48.53 49.72 51.33 52.63 52.94 53.36 53.65 52.74 48.10 50.05 52.29 52.56 51.26 51.39 50.88 51.03 51.37 51.92 52.06 52.22 53.03 52.79 51.79 51.81 51.06 50.92 49.90 50.96
49.87 50.56 49.11 47.97 44.70 42.42 40.75 45.98 43.47 42.84 40.89 42.23 45.97 45.20 42.37 42.51 44.12 46.16 42.66 44.18 45.94 47.89 49.63 49.08 49.20 48.04 48.61 50.11 51.72 52.05 53.72 53.89 53.32 53.84 53.47 53.22 52.66 51.64 50.44 51.43 52.25 51.94 52.04 52.11 52.13 52.13 52.05 46.36 48.35 49.11 49.18 49.48 49.62 49.45
49.97 47.54 44.88 44.16 42.94 39.31 45.16 42.43 45.24 43.53 42.61 40.85 40.73 40.77 42.14 44.36 47.48 45.72 43.04 43.02 46.06 46.82 47.26 48.17 49.43 49.85 50.26 49.57 50.60 51.93 53.01 54.94 53.63 53.03 52.67 52.15 51.09 51.63 53.15 53.32 53.01 53.57 53.43 52.29 51.12 50.62 49.80 49.55 46.80 49.29 49.29 48.66 48.78 48.50
40.76 39.62 40.61 35.68 44.57 41.76 40.87 41.82 43.07 42.62 40.76 41.41 40.59 40.67 42.08 44.98 42.57 42.59 42.75 45.45 48.34 48.15 48.96 50.69 51.31 51.69 51.22 51.62 51.82 51.45 52.32 52.85 52.00 51.40 51.78 52.60 52.08 51.73 51.67 51.57 51.43 51.57 50.90 49.59 48.82 48.95 48.89 48.82 48.41 48.66 48.92 48.77 48.55 49.08
35.78 41.31 37.03 40.96 41.88 40.53 40.59 40.31 41.66 43.56 45.13 44.79 45.58 47.56 45.56 42.58 41.85 41.12 43.09 47.60 48.92 49.96 50.48 50.56 50.78 50.98 51.04 51.57 51.81 51.65 52.91 53.65 52.95 51.92 52.14 51.61 51.39 51.38 50.89 50.52 50.12 50.98 50.42 50.46 49.78 49.30 48.68 48.33 48.45 48.81 49.06 48.50 44.77 49.48
35.37 38.41 41.77 42.94 44.88 45.09 44.10 45.15 45.77 43.87 44.14 43.98 45.33 45.07 44.45 41.57 41.63 44.96 49.94 52.22 50.15 51.08 52.34 51.86 51.46 49.38 48.77 50.02 50.72 52.43 52.29 52.10 52.67 52.53 51.72 51.92 51.94 53.29 53.43 52.12 51.23 51.77 51.75 50.92 49.95 49.49 48.80 48.44 48.73 49.30 49.49 49.85 50.06 51.04
37.96 40.51 38.19 43.23 42.28 44.14 41.87 42.87 43.75 44.17 46.07 47.84 46.65 44.71 44.88 45.63 44.99 47.73 49.08 51.54 52.22 52.67 52.48 53.58 54.24 53.66 52.37 51.84 52.01 53.23 52.59 51.58 49.94 49.78 49.73 49.66 49.65 50.03 50.66 51.34 51.27 45.47 50.78 50.98 50.07 49.40 49.17 49.19 49.40 49.74 49.84 50.01 49.74 50.82
41.96 45.87 45.12 42.11 44.40 44.75 43.86 42.23 44.16 47.17 49.25 48.54 46.89 44.42 46.78 49.90 50.19 48.19 49.84 52.36 52.48 51.92 49.94 49.36 51.64 52.14 50.85 51.44 51.28 51.25 50.51 49.80 49.55 48.39 48.17 47.21 47.56 49.02 49.47 49.74 49.81 49.96 50.05 49.60 43.41 46.48 49.21 49.11 49.65 49.74 49.76 49.92 50.24 49.20
42.88 46.43 43.70 44.81 43.36 42.11 44.65 47.11 46.41 50.63 51.63 51.90 51.72 48.23 46.89 47.51 49.32 52.23 51.60 50.96 51.29 49.74 49.57 49.47 50.12 51.46 50.55 50.41 50.53 50.81 50.92 50.36 50.29 49.58 48.09 47.63 48.92 50.49 49.38 49.35 49.50 49.53 49.39 49.56 48.77 48.00 42.68 46.66 45.17 48.61 47.73 47.43 46.94 46.44
42.51 43.17 42.64 41.28 41.71 44.94 46.90 47.36 47.05 50.04 50.92 50.20 50.22 47.95 46.43 48.57 48.96 51.28 52.95 52.80 52.46 50.83 46.66 45.71 46.26 50.11 50.55 49.69 49.29 49.20 49.28 50.79 51.28 51.63 51.98 51.68 51.33 50.33 49.64 49.76 49.98 49.46 49.47 49.46 48.37 47.37 47.57 47.52 47.61 47.06 47.05 46.92 47.05 46.37
40.82 40.65 40.77 39.76 41.59 45.43 46.69 44.81 44.74 46.50 47.51 48.57 48.68 50.22 48.11 46.24 47.11 49.10 50.60 50.68 48.39 47.02 45.37 46.30 47.83 47.97 49.14 50.68 51.25 51.37 45.69 51.26 51.65 51.18 51.82 52.04 51.55 50.77 50.35 49.95 49.74 49.69 49.86 49.69 48.96 47.76 47.72 48.32 47.46 47.39 47.57 48.09 47.70 47.72
40.29 40.43 40.97 40.62 41.49 42.24 43.60 45.15 46.66 44.41 46.75 46.66 47.70 49.58 48.45 46.71 46.26 48.64 50.97 50.29 47.72 46.19 45.85 46.50 47.39 47.88 48.09 48.46 48.76 48.03 45.46 49.78 48.53 42.14 41.36 42.04 43.06 46.78 50.07 50.35 50.22 50.87 50.36 49.82 49.60 48.87 47.92 47.87 47.99 48.37 48.17 48.30 48.19 48.61

GFSWCAN_sfc_wetblb_123.txt.gz
Wetbulb
54.57 54.77 55.03 55.03 55.13 55.39 55.61 55.53 55.75 55.99 56.20 57.10 56.10 55.46 55.17 55.23 55.70 54.90 52.87 53.03 49.69 48.68 51.88 55.22 56.25 52.95 52.04 50.83 49.88 50.14 50.38 50.54 49.47 47.25 45.57 45.83 45.85 47.59 45.59 46.09 45.49 45.11 44.02 44.06 44.27 42.40 39.53 53.76 52.90 49.48 52.95 56.12 58.11 57.85
54.04 54.61 54.38 54.66 54.97 55.17 55.41 55.41 55.63 55.73 56.41 56.15 55.31 55.41 55.74 55.70 55.49 54.78 50.56 51.85 52.65 48.62 50.38 52.58 53.79 55.49 56.50 57.19 53.10 49.56 51.66 51.60 51.52 48.29 47.68 48.47 46.59 46.05 46.75 42.71 47.28 43.55 47.02 46.83 46.83 47.16 51.02 54.45 54.05 55.67 55.57 56.58 58.29 57.73
52.31 53.52 54.63 54.71 54.85 55.09 55.21 55.53 55.79 56.14 55.69 55.21 55.15 55.25 55.74 55.92 55.66 55.29 51.83 51.42 50.65 49.41 50.78 52.54 52.49 57.99 58.17 58.76 59.24 51.88 51.73 52.77 51.19 51.93 50.23 50.46 47.56 48.55 44.93 45.74 46.66 48.59 48.57 48.32 48.26 50.51 50.75 54.15 55.60 56.77 58.09 59.23 59.19 58.51
51.81 53.60 54.53 54.65 54.65 54.77 54.93 55.15 55.19 54.87 54.76 54.74 55.05 55.25 55.27 55.61 55.65 55.45 52.47 51.21 49.57 47.65 46.66 52.38 57.97 56.74 59.18 56.58 56.71 56.56 53.63 51.51 51.73 51.95 50.74 49.63 47.55 49.65 48.05 47.78 47.88 50.11 49.55 49.58 49.74 51.61 51.88 54.33 55.68 57.81 58.57 58.59 57.72 57.78
51.78 53.68 53.66 53.49 53.55 53.85 53.95 54.14 54.22 54.48 54.74 54.96 54.84 54.88 55.07 55.45 54.95 55.27 54.60 53.60 52.64 48.44 46.53 49.32 54.01 56.39 57.61 55.74 54.53 54.49 53.91 53.10 51.67 49.81 49.61 48.63 48.66 48.36 48.55 48.40 47.63 50.73 51.41 48.81 47.93 53.88 54.36 53.56 56.92 59.41 57.86 57.42 57.31 56.25
52.63 53.49 53.29 52.68 53.39 54.39 54.51 54.55 54.67 54.85 54.89 54.70 54.50 54.44 54.72 55.03 54.47 51.29 46.99 51.65 53.87 52.11 46.23 47.10 55.28 55.65 55.43 54.77 54.41 53.67 53.86 52.29 52.78 53.10 52.08 50.62 50.02 50.59 47.69 46.91 52.99 53.00 54.24 55.93 53.61 54.38 55.13 56.00 58.52 59.94 58.55 58.09 56.83 55.67
53.00 53.26 52.99 52.03 52.03 52.84 53.32 53.15 53.44 54.24 54.30 54.26 54.01 54.56 54.69 54.43 52.63 48.98 46.99 49.05 50.46 51.87 48.16 48.18 50.58 54.88 54.49 55.04 54.80 54.08 53.80 52.62 54.48 52.32 50.61 51.17 51.25 51.33 49.69 47.78 53.64 54.44 54.86 54.63 54.95 56.52 55.24 57.80 57.56 58.82 58.36 57.23 55.74 56.31
52.92 53.08 52.85 51.66 51.89 52.07 52.18 52.39 52.61 53.09 53.57 53.96 53.96 54.30 54.04 53.91 53.02 50.24 53.81 52.08 50.66 49.04 50.49 48.33 48.72 50.32 54.48 52.92 52.05 52.42 52.98 53.93 52.52 53.12 50.02 50.63 49.14 49.45 47.75 51.89 54.13 53.13 54.16 54.52 54.68 56.67 55.50 59.55 59.49 58.04 57.96 56.50 55.44 55.11
52.99 52.86 52.89 52.26 51.88 52.02 51.85 51.82 52.06 52.06 52.18 53.33 53.90 53.10 51.33 50.96 48.38 49.13 54.01 54.15 52.17 48.99 46.68 47.55 46.18 46.55 54.34 52.05 52.81 52.12 53.09 50.65 51.91 51.24 50.69 51.08 48.94 43.63 51.77 54.03 53.87 52.82 53.67 55.69 54.63 55.26 56.12 58.20 57.87 57.32 56.64 56.19 55.33 54.89
52.89 52.61 52.99 52.86 51.88 51.44 51.48 51.91 52.24 51.86 51.47 52.34 51.25 47.55 44.93 48.25 52.50 53.59 52.41 47.56 46.74 48.18 49.52 47.42 50.90 48.34 51.84 51.47 50.54 52.27 51.99 51.31 48.72 50.98 50.35 48.41 48.93 54.01 56.55 57.14 57.85 56.67 54.96 55.47 53.57 52.87 56.21 57.55 57.43 56.98 56.35 56.84 56.50 56.21
52.49 52.17 52.55 52.99 52.13 51.30 51.26 51.39 51.78 51.42 51.17 48.35 46.21 46.15 51.96 52.68 53.71 51.85 47.86 45.02 45.35 45.82 48.89 49.07 50.14 48.56 53.56 50.72 51.09 51.96 50.64 50.62 46.85 49.38 48.77 48.42 47.56 52.22 53.59 54.24 55.35 55.83 55.75 56.77 57.93 58.03 59.14 59.47 58.50 57.95 57.67 57.53 57.26 56.94
52.18 51.90 52.31 52.38 51.74 51.24 51.18 50.96 51.28 50.70 49.71 48.46 48.62 49.71 50.81 52.21 50.04 46.98 46.25 46.54 45.37 44.35 47.30 47.31 49.38 50.91 51.90 54.59 52.93 51.50 49.81 48.67 45.26 49.61 47.99 46.04 50.97 54.70 53.94 54.00 54.12 54.90 55.32 56.54 57.75 57.38 59.46 60.17 60.17 59.53 59.23 58.29 58.02 58.04
51.85 51.56 52.02 51.99 51.96 51.63 51.20 50.83 50.96 51.37 50.72 49.33 47.66 47.12 48.23 48.55 40.32 42.70 40.77 44.20 43.65 47.84 48.47 47.23 47.75 50.66 51.41 52.87 51.39 51.22 47.73 46.97 49.67 46.68 46.40 49.44 54.67 54.34 54.40 55.22 54.38 54.56 55.54 56.44 56.81 57.90 58.29 59.18 60.36 60.24 59.70 60.23 59.78 59.24
51.51 51.40 51.73 52.02 51.88 51.79 51.47 51.53 51.51 51.08 48.71 44.15 44.86 38.40 44.84 43.43 44.66 45.65 45.79 47.02 50.56 49.62 49.24 47.31 46.95 48.59 49.72 49.97 50.81 47.59 49.80 48.88 44.81 42.86 44.87 51.92 56.28 55.52 54.61 55.44 54.27 53.38 55.08 56.14 56.47 56.79 57.08 57.46 57.93 59.87 60.37 60.79 60.01 59.15
51.22 51.24 51.73 51.66 51.80 52.09 51.82 51.81 51.62 51.71 46.83 43.50 45.38 41.05 44.62 48.16 48.55 49.67 50.28 49.95 51.74 51.65 50.47 48.57 48.23 49.36 48.93 48.06 48.70 47.33 45.02 44.02 45.46 44.96 49.83 54.19 55.08 54.07 55.19 54.90 54.82 54.91 55.81 56.38 57.13 56.73 56.86 57.17 57.00 57.27 58.56 59.89 59.88 60.17
51.22 51.50 51.08 51.17 51.19 51.32 51.09 51.43 51.17 50.01 47.44 46.15 46.49 44.79 47.92 46.75 47.97 48.59 50.38 51.01 53.31 53.11 51.91 51.37 48.88 47.74 46.50 47.40 45.42 45.28 44.75 43.73 47.15 51.09 53.54 53.57 54.92 55.07 55.29 56.13 55.76 55.65 56.40 56.83 56.83 57.29 57.39 56.64 56.62 57.49 57.80 57.88 58.28 58.66
51.49 49.20 51.37 51.62 51.41 51.22 51.17 50.40 49.30 46.19 44.68 44.09 44.10 48.76 47.53 47.34 47.21 48.96 50.14 50.14 53.06 52.61 49.72 51.30 45.80 45.19 49.12 46.39 44.29 47.60 46.00 49.68 52.55 54.35 54.75 54.89 54.97 55.88 56.20 55.60 56.09 55.28 56.17 56.95 57.13 57.24 57.50 57.43 56.43 55.45 54.95 56.17 57.47 58.03
50.06 51.81 52.12 51.57 51.59 51.26 50.61 49.15 47.32 45.91 42.82 44.66 42.74 46.13 48.00 49.03 49.57 51.17 51.63 52.06 51.10 50.81 50.99 48.92 51.06 47.77 45.89 44.28 46.73 50.58 51.53 54.38 54.93 55.68 56.55 56.68 56.01 56.49 56.31 55.91 56.30 55.75 56.53 57.21 57.40 57.27 56.93 55.15 54.78 55.15 56.59 57.31 55.83 56.39
51.34 51.73 52.02 51.92 51.78 50.37 46.92 46.55 47.34 42.31 43.89 45.53 47.02 47.44 46.73 47.04 49.10 50.35 53.28 52.23 53.69 54.84 52.31 51.07 48.48 47.83 48.88 52.11 52.94 53.92 53.92 54.76 55.14 56.43 56.14 56.77 56.75 56.88 56.76 55.61 56.13 55.61 56.08 56.64 56.23 56.10 56.29 56.57 56.68 56.88 56.51 55.83 54.97 55.66
51.11 50.83 51.46 51.96 51.74 48.09 46.36 46.58 49.92 44.80 42.82 45.95 47.38 45.92 46.36 47.06 49.10 49.13 49.54 50.43 52.21 50.51 47.71 48.38 48.98 50.85 52.30 54.87 55.77 55.87 57.03 57.05 56.30 55.68 56.19 57.23 57.85 55.37 54.92 54.90 55.20 56.11 55.74 55.71 55.51 50.61 55.35 55.42 55.68 55.54 55.69 55.22 55.16 55.20
49.27 49.92 51.20 51.74 49.81 48.62 46.72 46.33 45.91 45.54 45.89 44.99 47.17 46.01 46.59 47.51 46.78 47.11 47.49 49.96 48.20 48.48 46.35 50.28 51.72 53.62 55.42 55.88 56.97 58.20 57.60 57.21 57.46 57.35 57.02 56.46 57.27 57.78 57.60 57.97 57.36 56.93 57.01 57.03 57.71 57.27 52.41 56.23 57.48 57.24 55.92 54.96 55.21 55.44
49.60 51.89 50.36 50.41 47.08 47.52 46.31 47.82 45.60 48.00 45.98 46.27 46.48 47.55 46.07 45.70 46.44 47.13 49.72 47.59 47.45 48.96 50.71 50.92 52.17 53.73 54.59 54.41 55.37 56.40 57.95 58.15 58.23 56.84 50.12 52.25 56.76 56.51 56.48 57.10 57.63 57.94 59.06 59.68 59.45 59.21 59.65 59.74 59.21 59.08 58.33 58.34 54.34 56.51
49.32 50.52 48.87 47.64 44.45 42.30 41.60 48.32 44.52 45.82 43.01 44.87 47.17 45.41 45.30 46.11 48.07 49.53 46.77 48.22 49.21 52.35 53.38 53.29 54.64 56.09 55.00 55.85 55.44 56.56 57.16 56.80 56.45 56.86 57.46 57.14 56.87 56.11 55.96 56.56 56.96 57.42 57.23 57.99 58.69 57.86 58.55 50.84 54.49 56.45 57.46 56.23 56.23 55.84
49.54 47.14 44.97 43.85 43.10 39.57 45.79 43.94 45.93 44.60 45.11 43.98 43.04 42.44 45.10 47.83 48.91 47.21 45.76 48.82 51.59 52.94 52.19 54.24 53.34 52.49 53.28 54.24 54.21 54.24 56.26 56.40 56.43 58.09 58.50 58.01 55.78 54.42 56.63 57.60 57.97 57.70 58.17 58.59 57.18 58.04 57.75 56.91 50.32 53.81 54.59 54.28 54.26 54.15
40.78 40.16 41.78 35.34 44.23 42.20 40.97 41.63 43.19 43.39 42.07 43.95 43.11 44.09 46.63 49.84 47.31 46.76 46.71 51.44 53.28 52.90 53.66 54.36 53.87 53.87 53.13 55.63 56.65 57.07 56.82 57.46 56.46 55.48 57.08 57.31 57.24 56.82 57.05 57.32 57.26 57.84 57.73 56.37 54.71 54.26 54.63 54.73 54.54 54.74 54.26 53.83 53.44 53.09
35.65 41.54 37.73 40.77 42.65 41.21 41.30 40.05 41.57 41.76 43.69 43.69 45.34 48.69 48.54 47.24 45.01 44.95 49.25 52.98 53.66 53.98 54.52 55.20 55.50 55.08 55.40 56.11 55.80 55.55 56.34 56.86 57.04 55.92 56.54 56.52 56.62 56.65 55.82 55.66 56.36 57.63 57.16 56.87 56.59 55.40 54.80 54.25 53.99 53.32 53.19 50.09 45.76 52.54
36.14 39.29 43.53 46.02 44.98 44.74 43.76 45.11 45.84 43.53 40.27 42.25 45.82 46.00 45.33 42.77 43.11 49.36 53.86 55.23 53.78 55.82 55.64 55.69 55.39 54.11 53.72 54.52 55.21 56.29 56.83 57.15 57.40 56.57 56.24 56.44 56.33 57.10 57.18 55.36 54.32 56.66 57.44 56.25 55.71 55.29 54.65 53.28 52.45 52.25 53.10 54.24 53.60 53.45
40.90 41.88 39.81 43.65 43.36 45.15 41.81 41.78 41.46 43.71 45.09 48.17 47.10 43.89 44.53 45.44 45.86 51.71 53.81 54.99 55.71 56.47 56.34 56.05 56.42 56.75 56.38 56.49 56.87 56.09 55.80 54.92 55.10 55.46 55.71 55.72 55.85 56.30 56.48 57.24 55.95 42.79 55.65 57.55 57.11 56.51 55.89 55.37 54.41 53.96 53.80 53.64 53.96 54.52
41.37 45.30 45.00 42.17 43.26 44.38 43.99 42.75 43.55 47.82 50.55 48.52 46.39 47.47 48.72 52.98 54.62 53.73 55.29 56.82 56.75 56.40 55.05 54.22 56.08 56.56 55.94 56.35 57.16 57.31 56.68 55.64 54.55 52.69 51.79 52.39 53.76 55.42 56.46 56.78 56.80 56.96 56.80 56.55 44.05 49.40 53.93 53.86 53.83 54.06 54.31 54.52 54.77 53.73
42.44 46.09 42.38 43.53 43.41 43.28 47.07 48.36 48.32 51.17 51.72 52.55 53.99 53.62 52.92 53.81 55.19 56.50 56.28 56.13 55.71 55.76 55.76 55.89 57.48 57.67 57.09 56.60 56.21 56.62 56.89 57.13 56.56 55.14 53.64 53.77 55.62 57.46 57.32 56.62 56.24 56.36 55.89 55.71 55.25 53.89 43.47 49.68 47.55 52.94 52.65 53.35 53.65 52.03
45.62 45.37 43.70 44.27 43.77 47.02 50.02 51.60 50.90 50.36 52.46 51.82 53.94 52.92 51.51 53.44 55.38 56.80 56.67 57.16 56.85 56.24 53.85 53.89 55.80 57.14 56.98 56.50 56.55 56.28 56.10 58.41 57.73 57.53 57.49 57.50 57.67 57.71 57.57 57.02 56.59 55.99 55.26 55.00 54.50 53.88 53.29 52.24 52.44 51.83 50.14 49.26 49.51 49.84
44.30 43.09 42.71 42.25 44.56 48.97 49.98 48.61 49.38 49.37 50.56 50.53 51.46 53.38 51.89 51.54 51.50 53.80 54.71 55.58 54.78 53.30 48.59 52.87 54.33 53.94 56.13 57.69 58.06 57.98 46.22 56.39 56.69 56.69 56.69 56.84 57.47 58.06 57.75 56.78 56.17 55.57 54.83 54.30 54.08 53.82 53.48 53.00 52.45 51.39 49.94 48.66 49.42 50.46
44.30 45.15 45.33 44.81 45.49 46.27 48.40 47.68 48.61 48.15 49.93 50.36 51.23 51.88 50.76 50.07 48.38 50.97 54.28 53.30 53.78 52.25 52.67 53.77 53.66 54.14 54.79 55.08 54.88 54.57 50.28 55.33 49.66 41.35 41.17 40.97 41.30 46.36 54.37 54.95 54.03 54.63 54.78 54.29 54.07 54.05 53.02 53.02 52.95 52.36 51.54 50.48 51.75 51.52

GFSWCAN_sfc_wetblb_126.txt.gz
Wetbulb
54.36 54.64 54.70 55.25 54.94 55.15 55.59 55.79 55.79 55.85 56.03 56.36 57.24 56.55 55.67 55.41 55.52 55.23 56.82 58.26 54.02 51.83 54.10 56.36 57.60 55.71 55.53 53.38 51.96 54.99 52.72 53.23 52.17 49.74 49.10 49.52 48.28 50.54 48.52 49.57 47.93 47.00 46.32 45.79 47.10 44.11 41.74 56.12 55.63 51.63 56.34 59.94 59.80 62.04
52.53 53.13 53.81 54.27 54.72 55.09 55.43 55.47 55.61 55.67 55.93 56.65 56.64 55.74 55.55 55.92 55.60 55.41 54.12 57.05 56.58 51.11 53.02 56.28 56.55 56.99 57.53 58.60 56.26 55.13 55.24 55.01 54.75 52.43 54.14 53.57 50.29 51.93 49.78 44.90 52.99 46.37 50.17 48.65 48.59 48.98 55.72 58.02 57.29 59.82 59.11 58.83 61.34 60.72
51.29 51.71 52.63 54.56 54.83 55.09 55.29 55.41 55.65 56.05 56.29 55.77 55.55 55.31 55.49 55.73 55.72 55.05 54.00 57.25 54.78 51.28 52.71 53.72 53.02 57.59 58.96 58.00 59.77 55.07 56.34 57.22 56.88 58.68 56.78 53.35 50.26 52.79 47.31 48.55 49.97 52.52 54.42 50.55 50.68 52.95 54.71 57.15 58.95 59.41 60.03 60.43 62.42 61.94
50.54 51.59 52.76 54.20 54.20 54.11 54.17 54.48 54.82 55.00 54.86 54.84 55.17 55.27 55.43 55.45 55.65 55.62 53.74 55.46 55.14 51.42 47.51 53.56 60.53 58.83 61.66 61.06 60.64 60.25 58.10 58.00 58.56 58.50 53.43 51.43 49.52 54.57 49.52 51.19 50.56 52.69 54.52 52.04 52.32 54.90 56.18 57.39 58.70 59.59 60.76 62.61 62.38 61.75
50.47 51.77 53.12 53.92 53.48 54.07 54.56 54.48 54.46 54.56 54.76 54.90 55.21 55.06 54.95 55.19 55.08 55.72 55.58 55.17 56.34 51.93 49.39 52.12 55.10 56.89 59.56 60.58 59.63 59.94 57.75 57.14 56.24 54.36 53.02 51.29 54.99 53.18 53.11 52.62 50.32 54.47 52.56 50.22 48.70 55.30 55.50 55.82 59.79 61.13 61.70 61.59 61.62 60.64
51.00 52.32 53.42 53.49 52.63 53.09 54.26 54.50 54.58 54.78 54.92 54.76 54.56 54.49 54.35 54.86 54.71 54.43 52.15 56.23 55.15 55.16 49.93 47.86 57.13 57.50 59.09 59.82 58.87 57.75 58.45 57.61 56.77 55.03 54.83 57.54 56.01 53.44 49.22 48.45 53.82 54.95 56.14 56.55 55.47 58.84 58.13 59.70 60.79 62.93 61.80 61.32 61.26 60.19
51.70 52.47 53.41 53.25 52.24 52.23 52.57 52.98 53.06 53.39 54.44 54.42 54.33 54.25 54.74 54.53 55.05 51.51 51.79 53.01 53.18 57.15 50.18 49.70 51.38 56.92 58.33 58.25 57.50 57.32 57.96 57.37 56.62 55.75 54.86 54.73 54.49 53.74 51.15 48.26 54.32 56.53 57.96 58.62 59.53 59.24 57.66 59.19 59.42 62.14 61.99 61.16 58.85 60.17
51.33 52.19 53.33 53.07 52.28 52.20 52.26 52.19 52.32 52.59 52.46 53.12 53.95 54.15 54.04 53.90 53.47 51.45 57.97 52.12 54.97 53.35 52.84 50.10 51.56 53.18 58.48 54.63 53.76 58.65 55.77 56.71 56.70 55.49 57.48 54.21 55.20 54.80 50.92 54.99 56.55 57.08 57.72 58.36 58.81 59.81 58.96 61.40 62.50 61.23 60.99 59.59 58.48 58.20
51.04 51.70 53.12 52.89 52.48 52.14 51.95 51.82 52.22 52.49 52.26 52.38 53.58 53.77 53.73 52.63 51.60 54.94 54.24 53.93 56.43 53.02 50.20 51.90 49.01 48.82 57.30 56.42 57.19 56.67 57.28 52.18 57.89 54.02 54.70 56.61 53.59 48.29 54.40 56.18 56.78 57.63 57.29 57.56 59.10 59.39 59.50 60.41 61.02 60.09 59.34 58.52 57.72 57.33
50.89 51.63 52.87 52.77 53.01 52.07 51.54 51.68 52.02 52.32 51.95 51.90 53.50 52.69 51.00 53.23 54.81 55.63 53.50 50.62 50.54 52.39 52.15 49.41 55.60 51.04 55.36 54.98 53.69 54.00 55.09 51.76 50.18 53.91 56.63 52.69 52.06 57.32 58.53 59.21 59.27 58.99 59.49 58.52 57.00 57.05 57.76 59.01 60.00 59.32 58.57 58.60 58.16 58.28
51.17 51.91 52.50 52.70 53.02 52.37 51.45 51.32 51.58 51.85 50.92 54.12 49.66 51.69 56.06 53.05 55.54 53.70 50.47 48.75 49.97 47.08 50.37 49.84 51.27 50.33 56.93 52.62 52.46 56.27 52.23 53.23 48.06 51.38 51.63 50.88 50.51 55.08 58.24 59.27 60.80 61.39 60.78 59.98 59.85 59.74 60.61 61.30 60.83 59.71 58.73 58.46 58.81 59.26
51.36 52.20 52.01 52.54 52.65 51.91 51.37 51.15 51.00 53.08 53.60 50.19 50.91 53.70 54.98 53.66 52.29 48.51 47.92 49.56 47.99 46.80 52.00 50.22 50.52 51.70 54.45 59.09 56.02 54.82 51.24 53.28 46.44 54.62 51.14 48.38 54.36 57.64 58.33 58.20 59.04 60.74 60.31 59.50 59.68 59.78 60.32 61.59 62.15 61.05 59.56 59.23 59.43 60.30
51.60 52.11 51.86 52.00 52.43 52.19 51.80 50.95 50.90 51.13 51.57 53.23 49.33 48.82 50.62 51.24 41.80 42.97 41.93 45.57 46.30 50.01 51.05 50.46 50.05 52.76 54.33 55.78 55.16 53.95 49.36 47.46 54.98 49.95 48.39 50.92 57.30 59.68 59.26 59.53 59.04 60.17 59.83 59.93 59.62 61.54 62.06 62.39 62.95 61.40 60.30 60.56 60.44 60.83
51.89 51.71 51.59 51.71 52.08 52.09 51.94 51.56 51.49 51.76 49.86 45.24 45.20 38.96 45.70 45.32 47.17 48.24 48.39 49.87 51.98 54.23 53.82 52.43 51.11 51.41 52.43 50.19 53.31 47.82 51.30 52.98 47.25 45.69 47.23 53.15 57.41 59.39 60.23 60.15 59.76 58.72 59.24 59.26 59.62 61.01 61.47 62.15 62.19 62.38 62.17 62.18 61.18 61.05
51.57 51.26 51.54 51.63 51.94 52.04 52.20 51.81 51.82 52.56 48.11 43.71 45.93 39.70 44.85 50.84 53.48 53.82 54.05 53.33 54.69 56.20 54.19 52.25 51.50 52.51 50.00 48.84 51.98 50.67 47.60 45.41 47.49 47.70 52.42 56.53 59.50 59.63 59.42 59.67 59.08 59.28 59.41 59.43 59.56 60.46 60.75 60.87 61.35 61.86 63.11 63.48 63.41 62.68
51.23 51.01 51.54 51.70 51.36 51.56 51.57 51.83 52.25 51.92 48.25 45.40 45.01 44.49 48.16 49.85 50.41 52.19 52.74 52.42 56.62 56.47 56.38 54.34 50.19 47.21 46.39 47.77 46.58 45.69 44.98 44.26 48.74 52.40 56.50 58.60 59.92 60.17 60.30 60.80 60.38 60.24 60.43 59.81 59.87 60.44 61.11 61.24 61.08 60.63 62.09 62.68 63.32 63.68
51.35 50.64 51.36 51.50 51.53 51.27 51.46 52.68 51.52 47.52 46.47 44.58 44.06 49.98 49.95 50.99 50.69 52.63 54.08 53.68 57.14 55.43 50.72 50.44 46.43 45.77 51.23 45.73 44.54 48.36 47.03 50.73 54.01 57.37 58.70 61.10 61.59 61.98 61.44 60.94 60.80 60.39 60.47 60.36 60.49 61.08 61.15 61.83 61.13 60.48 60.49 62.06 62.36 63.46
50.91 54.05 52.02 51.55 52.05 51.42 51.09 50.75 47.27 45.82 43.12 45.96 46.69 49.67 51.51 52.56 51.82 53.50 54.23 55.22 55.79 53.89 53.29 47.96 52.07 47.55 45.36 43.67 45.86 50.03 52.90 54.41 58.51 58.80 59.61 61.95 62.65 62.67 62.39 61.78 61.62 61.05 60.66 60.65 61.09 61.48 61.71 61.18 60.65 59.75 61.17 62.20 61.77 61.68
52.06 53.26 51.91 51.76 52.49 51.11 48.01 47.27 48.12 42.44 44.76 47.62 49.82 51.28 51.76 51.50 53.33 53.52 53.99 56.46 56.72 56.49 54.45 52.13 48.40 46.51 47.15 51.65 52.44 53.82 56.69 57.20 56.60 57.84 59.50 61.63 62.10 62.20 62.66 62.54 62.06 61.35 61.06 61.04 60.90 60.13 60.41 61.53 60.06 59.30 60.01 60.47 59.19 59.44
51.34 51.23 51.92 52.15 52.10 48.50 46.12 46.37 49.20 45.67 44.56 47.81 50.27 49.64 50.39 50.58 52.50 52.42 52.30 52.84 53.31 51.77 47.77 47.34 49.90 51.71 51.96 54.50 55.70 56.35 57.34 59.94 58.70 57.29 58.40 60.08 61.02 60.75 60.51 61.15 60.79 61.42 60.34 60.89 60.72 55.09 59.77 60.02 60.54 60.20 60.11 59.80 59.38 58.97
49.65 50.59 51.03 51.80 49.93 49.02 46.93 46.61 45.90 45.47 47.80 47.24 50.91 51.13 48.84 52.04 50.58 50.07 50.21 52.55 50.12 48.77 47.73 51.21 52.72 55.04 58.07 58.94 59.99 59.31 59.23 59.25 58.17 59.42 59.09 57.96 59.88 60.47 60.85 60.12 60.59 60.29 58.88 58.54 58.34 57.80 54.11 58.91 59.73 60.05 60.02 59.40 59.94 60.04
50.04 51.46 50.52 50.62 47.47 47.47 45.90 49.08 47.73 50.63 48.94 48.83 48.79 49.14 47.42 47.54 48.88 50.52 52.93 50.01 49.50 50.54 51.96 52.52 53.66 54.64 55.79 57.54 58.55 59.35 59.12 59.66 60.30 58.68 51.54 54.14 59.16 60.50 60.29 60.45 59.81 59.01 59.37 59.47 59.57 59.64 60.27 60.95 62.03 62.02 61.71 61.67 58.92 61.86
49.49 50.57 49.00 47.63 44.19 42.79 42.31 49.65 44.71 46.22 42.73 46.14 49.81 46.71 46.61 47.23 50.97 54.27 49.23 51.45 52.77 55.41 55.78 55.35 57.10 58.43 56.80 57.76 58.67 58.33 59.24 58.96 57.16 57.10 58.15 59.05 59.83 60.82 60.57 60.56 60.80 60.45 59.71 60.66 62.15 61.16 60.77 54.48 57.83 59.89 61.89 61.41 62.22 62.06
49.25 47.14 44.89 43.92 43.58 40.23 46.13 43.81 47.21 45.67 45.56 44.04 44.95 43.30 44.94 47.71 52.33 49.52 47.77 50.89 53.79 56.01 55.72 57.05 56.04 55.07 55.98 56.90 55.52 56.02 57.55 58.71 57.90 57.58 58.27 58.59 59.11 59.07 60.02 60.10 59.92 60.32 61.02 61.59 61.41 61.08 61.26 60.28 54.78 59.38 59.78 58.72 59.09 59.69
40.82 40.45 42.70 37.34 44.47 43.38 41.95 42.27 44.03 43.12 41.62 44.97 43.92 45.06 46.85 51.90 47.75 47.63 48.17 52.73 55.71 56.88 56.78 56.79 56.57 56.34 55.05 55.49 56.29 57.26 60.49 59.22 58.04 56.88 58.42 59.69 59.12 59.55 59.28 60.30 60.26 60.65 61.56 60.10 59.66 59.96 60.42 60.68 60.04 59.75 58.96 58.29 58.26 58.42
36.01 42.88 39.94 42.60 43.14 41.94 42.91 40.64 41.91 41.95 43.91 43.29 45.03 49.51 52.14 49.57 46.15 45.67 51.35 54.48 56.57 56.72 57.98 58.72 57.89 57.60 58.56 59.91 59.94 60.46 60.93 60.55 59.28 57.22 58.03 58.86 58.75 58.60 58.08 57.06 57.70 58.85 60.13 59.77 59.73 59.27 59.32 59.65 59.14 59.26 59.12 57.26 47.29 56.69
36.61 41.11 45.65 48.85 47.20 46.16 44.72 46.32 46.88 44.26 41.32 41.13 45.36 45.81 47.50 43.91 44.83 50.87 56.68 58.17 56.96 58.19 59.28 59.76 59.68 58.90 58.39 58.35 58.95 59.61 59.29 59.13 59.19 60.00 60.10 59.88 60.21 60.01 58.40 55.90 54.12 56.10 57.95 57.84 58.96 59.12 58.98 58.82 58.70 58.60 58.45 58.68 58.27 56.92
41.87 44.07 41.60 44.99 45.13 46.23 43.00 42.77 41.33 41.28 43.61 46.54 47.07 44.05 45.53 46.46 47.03 53.00 55.01 58.57 59.11 57.50 57.84 59.16 59.81 58.45 57.93 57.78 57.56 58.06 58.42 58.16 57.97 57.93 57.82 57.82 58.28 58.37 58.64 59.00 59.07 42.83 57.15 58.37 58.05 58.77 58.74 58.70 58.58 58.35 58.02 57.73 58.25 58.63
42.88 46.39 45.99 42.88 44.59 45.07 43.85 42.99 42.83 45.64 49.79 47.54 45.37 46.05 48.63 54.05 57.37 57.94 58.94 60.25 61.39 60.79 55.04 53.85 56.34 58.47 59.97 60.38 60.38 60.15 58.07 56.86 55.08 53.05 51.90 52.12 54.18 56.15 59.01 59.64 59.07 59.23 59.89 58.87 43.27 48.38 56.30 56.67 57.03 57.37 57.27 57.87 58.61 58.15
43.39 47.46 44.12 43.40 43.32 42.61 46.59 49.00 47.72 51.01 52.27 52.35 53.28 54.47 55.21 56.34 58.00 60.03 60.25 60.40 59.71 58.88 59.61 59.87 58.78 58.60 57.72 57.08 56.92 57.17 59.05 60.29 59.72 57.47 55.72 55.57 56.78 59.03 59.90 59.74 59.44 59.51 60.12 59.49 58.47 56.85 43.72 52.11 51.04 56.17 55.92 56.69 55.50 55.19
46.35 45.46 43.67 43.82 45.50 48.57 50.68 52.29 52.64 52.66 53.41 53.29 55.66 54.94 53.94 55.29 55.96 58.39 59.00 57.80 58.63 59.50 58.96 58.10 58.82 60.77 59.31 58.51 58.85 58.17 56.32 59.85 60.88 60.30 60.37 60.09 60.08 59.92 60.37 60.58 60.33 59.80 59.32 58.80 58.24 57.54 57.81 56.14 57.05 56.20 55.74 55.45 55.10 53.39
45.34 45.76 44.94 44.23 47.11 50.99 52.37 50.84 50.88 50.60 51.91 53.57 53.95 56.05 52.90 51.67 52.22 55.76 56.80 56.19 56.08 55.94 50.86 55.81 56.50 56.54 57.87 58.05 58.17 58.01 46.33 58.36 58.38 58.02 58.04 58.15 58.75 59.90 60.57 60.58 60.44 59.64 58.51 57.85 57.24 57.07 56.68 56.26 55.92 55.70 55.37 53.57 52.70 52.93
46.82 47.72 47.81 47.31 47.41 48.30 51.78 51.57 51.11 51.32 53.11 52.58 53.13 53.86 52.09 52.02 50.42 53.96 57.22 57.41 56.07 55.98 56.40 56.95 57.86 58.18 57.78 57.18 57.26 56.59 53.30 56.57 49.40 39.59 40.63 38.99 37.77 43.17 52.57 57.95 58.72 58.36 58.02 55.91 54.68 55.51 56.49 56.34 55.89 55.56 55.27 54.32 53.79 53.14

GFSWCAN_sfc_wetblb_129.txt.gz
Wetbulb
53.28 53.57 54.53 54.73 55.05 54.96 55.34 55.82 55.94 56.04 56.01 56.21 56.68 57.52 56.43 55.79 55.61 56.03 58.49 60.87 56.84 53.85 55.85 56.87 56.84 56.61 57.92 56.29 52.87 55.33 54.13 54.66 53.33 49.98 49.20 49.79 48.46 50.75 50.10 51.11 49.73 48.92 47.49 46.90 48.06 45.62 43.12 57.21 55.90 49.67 58.36 61.04 62.22 61.98
51.66 52.39 52.89 53.37 54.29 55.24 55.60 55.78 55.76 55.92 55.88 56.43 57.11 56.61 55.89 55.67 56.00 55.11 55.72 60.73 59.52 54.47 55.15 58.16 57.26 58.43 58.99 59.92 57.77 58.15 55.55 55.31 54.46 51.63 52.56 52.36 49.32 52.25 51.26 46.81 53.56 48.16 50.79 48.40 50.07 50.19 57.85 58.60 56.89 59.36 59.86 60.07 61.24 63.31
51.50 51.44 51.90 52.79 54.00 54.73 54.73 54.97 55.46 56.04 56.18 56.31 56.05 56.03 55.59 55.67 55.91 55.34 55.55 57.79 58.22 54.74 55.54 56.46 55.72 58.59 58.77 58.16 59.89 55.16 57.37 58.81 57.71 60.14 55.64 53.50 51.26 53.29 49.08 49.54 51.27 53.84 56.26 51.63 52.17 53.45 54.77 56.59 58.14 58.69 59.65 60.25 61.94 63.35
51.08 51.02 51.98 52.85 54.25 54.22 54.24 54.77 54.81 54.97 54.97 55.30 55.36 55.57 55.55 55.59 55.81 55.50 54.38 57.86 57.39 55.82 50.69 55.71 60.76 58.17 61.35 59.84 58.71 59.03 59.74 60.08 60.57 58.45 54.41 52.32 50.54 55.41 51.26 52.16 51.10 53.33 55.33 53.39 53.13 54.12 55.55 57.39 58.30 58.24 59.99 61.41 62.55 63.53
51.17 51.00 51.66 52.83 54.03 53.42 53.81 55.04 55.01 54.97 55.05 55.28 55.34 55.44 55.30 55.29 55.52 55.94 56.09 57.00 58.38 55.02 52.12 54.52 58.24 58.63 59.89 60.99 59.69 60.34 59.40 58.66 56.67 54.34 53.25 51.89 54.69 54.93 54.18 52.95 50.48 54.13 53.17 51.11 50.28 55.38 56.89 56.85 58.90 59.95 59.76 61.67 62.83 62.64
51.49 51.79 52.29 53.19 53.85 52.91 52.68 53.81 54.00 54.00 54.49 55.01 54.85 54.93 54.79 54.81 54.74 54.74 53.36 58.01 57.82 57.39 53.52 50.48 58.08 57.16 59.23 59.64 59.16 59.22 59.95 58.48 57.27 55.14 54.02 56.45 57.58 56.18 50.33 49.07 54.73 56.40 56.85 56.43 55.09 57.63 58.14 59.19 59.62 61.08 61.33 62.69 63.17 62.74
51.25 51.89 52.19 52.64 53.64 52.73 52.16 52.41 52.82 53.15 53.30 54.42 54.51 54.61 54.77 54.67 55.44 53.25 52.66 55.28 54.59 57.98 53.49 51.12 53.23 56.41 58.79 59.35 58.58 58.74 59.87 57.76 56.82 55.68 55.22 55.08 55.80 55.85 52.58 49.17 55.10 57.34 58.19 58.20 57.98 58.93 57.42 57.96 57.92 62.11 62.57 62.78 61.03 62.09
50.90 51.31 52.00 52.98 53.46 52.75 52.62 52.51 52.30 52.47 52.64 52.66 53.26 54.16 54.29 54.13 53.55 52.76 58.01 53.64 56.42 56.56 54.90 50.30 52.54 55.56 58.49 55.15 54.23 58.42 56.63 56.91 56.38 55.46 55.96 54.90 56.72 56.11 51.58 55.96 57.61 58.26 58.49 57.96 58.31 59.50 58.16 58.27 60.82 62.05 63.00 62.43 59.96 59.69
50.20 50.70 51.59 52.86 53.38 52.97 52.40 52.01 52.01 52.54 52.79 52.64 52.57 53.61 54.30 52.89 52.37 55.61 56.19 55.45 57.81 56.27 51.66 51.66 50.37 48.49 58.65 55.51 55.89 56.48 57.50 52.23 56.67 53.74 54.14 55.31 53.73 52.66 55.34 57.47 57.76 58.24 57.88 57.50 58.95 59.38 58.76 57.26 60.46 61.66 61.82 60.48 59.31 59.26
50.48 50.68 51.45 52.68 53.13 53.37 52.59 51.79 51.87 52.46 52.41 52.51 52.90 52.36 49.40 54.89 55.08 55.53 54.33 53.60 53.24 54.01 53.70 50.93 55.02 50.14 56.22 54.54 54.21 53.79 55.03 51.81 49.89 53.46 56.24 53.17 53.09 58.42 59.71 60.40 61.15 60.51 59.92 59.38 57.11 56.87 57.88 56.91 59.39 60.77 60.65 60.58 60.18 59.74
49.98 50.44 51.59 52.71 52.84 53.33 52.85 51.77 51.77 51.80 51.72 54.03 52.00 50.98 56.25 54.85 55.42 54.50 50.04 49.71 50.75 49.03 52.24 52.30 52.83 52.12 57.30 52.33 51.79 54.49 51.52 52.35 48.26 51.39 51.16 51.57 51.39 57.00 60.21 59.72 61.11 61.85 61.52 60.28 60.14 59.84 59.76 59.45 59.75 60.14 60.80 60.62 59.94 59.69
49.97 50.60 51.50 52.40 52.96 53.08 52.28 51.54 51.48 51.91 53.85 51.11 50.97 54.89 57.41 54.00 51.79 48.81 48.02 50.01 49.83 47.74 52.79 52.21 52.02 52.85 55.27 58.06 55.06 54.01 50.51 52.59 46.53 54.77 51.37 49.45 53.95 59.49 59.48 58.71 59.56 61.57 61.54 60.99 60.76 60.00 59.80 60.22 61.69 61.75 60.58 60.35 59.98 60.29
50.37 51.11 52.12 52.26 52.57 52.75 52.33 51.88 51.31 51.25 51.89 54.69 51.48 50.71 51.96 51.20 42.42 44.65 43.21 45.78 47.20 52.15 54.32 53.81 51.50 52.73 53.72 56.03 55.08 53.44 49.21 49.28 56.24 49.50 49.46 52.43 58.42 59.39 59.87 59.43 59.04 60.84 61.34 61.09 60.42 59.75 60.42 60.62 62.64 62.40 61.42 61.03 60.87 60.46
50.61 51.41 52.12 51.87 52.30 52.59 52.44 52.06 51.69 52.14 50.97 48.01 46.19 39.84 46.72 45.64 47.94 48.85 48.82 49.54 52.06 54.75 53.82 52.92 51.47 51.52 52.72 52.12 53.26 48.18 51.65 52.69 46.91 44.65 48.49 54.17 60.69 59.83 60.46 60.43 59.17 59.44 59.58 59.67 59.65 59.84 61.10 61.70 61.85 62.61 61.93 61.38 60.79 60.18
51.31 51.87 51.79 51.70 52.12 52.49 52.35 52.27 51.96 53.54 50.05 45.87 46.09 41.75 45.71 51.11 51.18 52.22 53.26 52.11 55.62 56.64 55.04 53.35 52.41 52.76 51.28 49.82 51.42 51.21 46.36 44.12 47.39 48.08 52.89 58.83 61.24 60.89 60.61 60.49 59.47 59.44 60.09 59.64 60.02 59.70 61.09 61.80 61.43 61.56 61.90 61.93 61.43 61.32
51.99 51.10 51.90 52.75 52.33 52.37 52.12 52.19 52.66 52.68 50.08 46.07 45.28 45.87 51.26 49.95 50.40 50.99 52.71 53.14 54.96 55.55 55.19 54.13 51.52 48.41 48.47 49.16 47.28 46.40 45.98 45.14 49.32 53.64 56.24 60.19 61.56 61.93 61.94 61.77 61.29 60.79 60.93 61.07 60.95 60.32 61.22 61.42 61.39 61.64 62.02 62.20 62.17 62.06
50.98 51.55 52.48 52.11 51.70 51.64 51.60 52.14 51.46 48.76 48.29 46.68 46.66 51.77 51.38 49.54 49.43 52.52 53.58 55.42 57.18 55.54 50.84 51.62 46.98 46.34 50.60 47.31 46.02 49.35 47.82 50.62 53.10 55.54 57.69 63.00 62.82 63.05 62.78 62.62 62.46 62.20 61.64 61.40 61.30 60.89 61.14 62.08 61.87 61.35 60.64 62.01 62.46 63.42
50.86 54.52 52.37 51.57 52.20 51.92 51.72 52.21 48.85 46.88 44.33 48.16 47.44 50.10 52.58 53.43 51.24 51.68 56.13 55.22 57.21 54.64 53.13 50.19 54.09 48.34 47.20 45.08 46.44 50.76 52.84 54.87 55.64 56.95 56.55 63.60 64.32 64.69 63.49 62.87 63.61 63.07 62.23 61.88 61.85 61.35 61.39 61.40 61.11 60.34 61.51 62.32 61.91 62.47
53.66 54.81 52.06 51.64 52.58 51.54 48.44 48.96 51.39 44.39 45.96 49.30 50.70 52.51 51.54 51.89 53.61 55.32 55.19 56.82 58.45 57.11 55.11 53.44 49.01 47.68 49.03 52.69 53.48 54.27 53.73 52.94 55.44 58.92 60.69 62.50 63.96 63.87 63.89 63.97 64.03 63.70 62.65 62.17 61.71 60.28 60.53 61.88 61.20 60.57 60.70 61.13 60.41 60.85
51.24 52.29 52.15 52.09 52.26 49.09 46.10 48.94 49.43 45.11 46.15 50.52 51.69 50.70 50.92 50.82 52.43 52.74 52.77 53.33 53.33 54.01 50.65 49.29 49.71 52.65 53.11 55.06 56.93 53.71 55.32 56.45 59.03 57.88 59.01 60.43 61.59 63.07 63.39 63.07 62.47 63.34 62.40 62.29 61.80 56.16 60.69 60.85 61.24 61.11 60.71 60.08 60.05 59.87
50.84 51.57 51.41 53.04 50.22 49.20 47.01 46.82 46.39 48.71 50.10 48.92 52.57 50.50 49.98 52.10 49.98 51.06 51.75 54.10 50.51 50.70 49.94 52.89 53.23 54.65 57.93 56.08 56.55 59.64 59.24 59.34 57.74 58.97 59.88 58.65 60.31 61.42 62.34 62.65 62.98 62.45 61.54 60.47 60.26 59.61 56.46 60.22 60.69 60.89 60.71 60.38 60.95 61.31
50.99 51.50 51.28 50.83 47.50 47.46 46.91 50.80 48.30 51.47 50.61 49.82 49.03 50.90 49.27 48.85 48.66 50.40 53.08 50.71 50.81 52.16 53.20 53.57 54.84 56.28 56.73 58.78 58.79 61.60 60.59 60.64 60.25 58.48 52.44 54.94 58.74 60.08 60.82 61.78 60.76 60.54 61.03 60.26 60.45 60.29 60.30 61.38 62.02 61.78 61.20 60.85 58.52 61.18
50.25 51.09 49.28 48.05 44.70 43.57 42.71 52.28 46.53 48.21 45.14 47.20 50.04 47.02 47.70 49.79 51.52 54.10 49.33 52.62 53.00 55.74 56.18 56.09 58.03 58.91 57.77 59.10 59.86 60.42 61.02 60.29 58.77 58.30 58.62 58.70 59.73 61.09 60.73 62.02 62.02 61.36 60.83 61.02 62.44 61.21 61.53 56.08 59.50 62.00 63.31 63.52 62.29 61.66
49.42 47.37 44.77 43.64 42.95 41.40 46.12 45.97 48.04 46.60 46.20 45.61 46.00 45.55 47.44 50.49 53.46 50.93 48.39 50.71 54.05 56.20 56.17 59.42 57.98 57.22 57.65 58.20 57.12 57.85 58.95 59.53 58.32 58.88 59.33 58.98 58.50 59.67 61.01 60.50 60.86 60.88 61.53 62.05 62.36 62.13 61.80 62.10 56.30 61.70 60.77 60.69 60.93 60.97
41.21 40.98 42.26 37.55 44.85 43.49 43.62 44.21 45.17 44.47 41.91 44.76 44.07 46.04 48.18 52.11 47.88 47.70 48.89 52.38 55.01 56.75 56.69 58.16 57.75 57.47 56.08 56.67 57.14 57.68 60.21 59.01 57.78 57.61 60.39 60.98 59.64 59.12 60.22 60.40 60.19 61.23 62.42 61.03 59.79 59.63 59.84 60.79 61.65 61.17 60.94 60.63 60.31 60.52
35.83 43.08 41.14 44.38 45.41 43.94 44.73 41.84 42.23 43.60 44.52 44.21 45.88 49.81 51.76 49.19 46.24 46.02 51.07 54.83 55.56 57.93 58.10 57.16 55.44 55.01 57.04 58.88 58.84 59.65 61.54 61.93 61.31 59.33 61.10 62.09 60.27 58.19 57.08 56.71 57.55 60.45 61.74 61.16 60.69 59.73 59.50 59.28 59.44 59.63 60.07 59.79 49.50 58.32
37.37 42.60 46.71 50.21 47.19 46.59 44.97 47.77 48.32 45.35 43.45 43.58 47.22 46.37 46.97 44.80 45.28 50.05 55.18 57.65 55.85 61.76 61.73 60.78 59.21 58.11 57.59 58.66 60.61 61.53 62.15 61.96 61.82 60.12 60.28 60.32 60.09 60.72 59.94 58.16 56.35 57.11 58.39 57.05 56.75 56.99 57.08 57.11 57.87 58.73 59.33 60.36 59.94 60.06
43.99 44.74 42.22 45.53 45.85 47.53 43.82 44.08 43.04 42.04 44.47 47.55 46.20 44.32 44.90 45.77 46.64 53.54 56.56 59.68 58.21 59.94 60.78 61.29 61.42 61.33 60.77 60.63 60.10 60.90 60.66 60.77 60.64 60.71 60.64 60.24 59.32 58.08 58.12 57.75 58.10 44.94 57.02 57.90 56.77 57.22 57.60 57.81 57.70 58.01 57.89 57.69 58.67 59.36
43.64 47.13 46.74 43.84 44.84 45.00 45.19 43.87 43.11 45.50 48.81 47.69 45.46 46.03 50.03 54.13 57.33 59.60 59.11 59.88 59.95 57.20 57.47 56.79 57.76 60.91 61.08 61.32 60.91 60.61 59.93 57.13 54.87 53.71 53.57 53.61 55.04 56.36 58.48 58.44 58.91 58.87 59.03 58.51 45.01 48.91 56.28 56.98 57.44 58.10 58.36 58.16 58.67 59.17
44.53 48.54 44.21 44.36 43.55 42.72 46.14 47.94 47.99 49.31 50.53 50.33 51.66 52.09 53.49 57.16 61.23 62.12 59.68 58.84 56.95 55.80 59.17 59.28 59.00 58.11 57.79 58.09 57.63 57.90 59.96 58.53 56.81 55.79 55.22 54.43 55.32 58.48 59.12 58.52 57.89 58.43 59.08 59.03 58.07 58.02 45.67 53.32 53.25 56.61 55.78 57.27 58.34 58.25
48.34 47.48 44.66 45.07 44.42 48.52 49.75 51.47 51.63 51.42 51.50 50.96 52.25 51.70 54.63 57.13 59.50 61.15 59.07 60.48 60.04 58.65 59.12 58.45 58.61 58.37 57.22 55.50 54.83 54.30 54.76 55.80 59.32 59.39 58.77 57.89 57.60 57.94 58.52 60.11 59.80 59.54 58.82 58.56 58.20 57.39 57.81 56.53 56.70 56.74 56.69 55.66 54.73 53.77
46.92 45.42 45.04 44.21 46.16 50.96 52.83 50.91 52.15 53.13 53.57 52.74 53.13 55.21 55.36 55.21 53.64 56.50 58.59 59.35 58.77 56.75 52.25 54.37 56.43 56.70 57.97 58.26 58.73 58.96 49.79 58.19 57.79 57.46 56.53 57.20 57.71 57.92 58.36 58.60 58.39 58.45 58.34 58.23 58.16 57.83 57.28 56.36 55.64 56.09 55.83 55.84 56.14 55.91
47.09 47.89 49.20 48.31 49.18 49.68 52.59 53.68 51.49 51.20 51.32 53.26 53.14 54.70 53.63 52.42 50.82 56.08 59.48 59.74 58.26 57.09 57.39 58.10 58.48 58.81 59.47 59.11 58.82 58.35 54.83 57.88 50.11 41.26 41.84 40.33 38.82 43.60 52.55 55.75 56.05 56.26 56.53 56.99 57.47 57.84 57.07 56.72 55.99 55.49 56.06 55.81 55.94 55.81